<?xml version='1.0' encoding='UTF-8'?><gpx version="1.1" creator="JPX - https://github.com/jenetics/jpx" xmlns="http://www.topografix.com/GPX/1/1"><trk><trkseg><trkpt lat="37.67611624604463" lon="14.99155170564871"><ele>1433.7142857142858</ele><time>2026-03-29T09:15:24.999Z</time></trkpt><trkpt lat="37.67607348234917" lon="14.991481492787017"><ele>1431.4285714285716</ele><time>2026-03-29T09:15:28.999Z</time></trkpt><trkpt lat="37.67603176911301" lon="14.991404670448139"><ele>1429.142857142857</ele><time>2026-03-29T09:15:31.999Z</time></trkpt><trkpt lat="37.675980586978035" lon="14.991349836607569"><ele>1426.857142857143</ele><time>2026-03-29T09:15:35.999Z</time></trkpt><trkpt lat="37.675930990699285" lon="14.99129593528679"><ele>1424.5714285714287</ele><time>2026-03-29T09:16:55.999Z</time></trkpt><trkpt lat="37.67591042945708" lon="14.991210576762304"><ele>1422.2857142857142</ele><time>2026-03-29T09:17:01.999Z</time></trkpt><trkpt lat="37.67585746943522" lon="14.991130673038333"><ele>1420.0</ele><time>2026-03-29T09:17:05.999Z</time></trkpt><trkpt lat="37.67582476398234" lon="14.991055393096799"><ele>1420.0</ele><time>2026-03-29T09:17:08.999Z</time></trkpt><trkpt lat="37.67578317956668" lon="14.990966225471947"><ele>1420.0</ele><time>2026-03-29T09:17:11.999Z</time></trkpt><trkpt lat="37.67573884937294" lon="14.990872869881123"><ele>1420.0</ele><time>2026-03-29T09:17:14.999Z</time></trkpt><trkpt lat="37.67570119816612" lon="14.990779851205476"><ele>1420.0</ele><time>2026-03-29T09:17:17.999Z</time></trkpt><trkpt lat="37.67563161869892" lon="14.990722817610843"><ele>1420.0</ele><time>2026-03-29T09:17:21.999Z</time></trkpt><trkpt lat="37.67554544551483" lon="14.99073265776329"><ele>1420.0</ele><time>2026-03-29T09:17:24.999Z</time></trkpt><trkpt lat="37.67546280984584" lon="14.990746113816426"><ele>1420.142857142857</ele><time>2026-03-29T09:17:27.999Z</time></trkpt><trkpt lat="37.675381386830345" lon="14.990730572385159"><ele>1420.2857142857142</ele><time>2026-03-29T09:17:30.999Z</time></trkpt><trkpt lat="37.67531802255073" lon="14.990715373234341"><ele>1420.4285714285716</ele><time>2026-03-29T09:17:32.999Z</time></trkpt><trkpt lat="37.675256098841345" lon="14.990695172481908"><ele>1420.5714285714284</ele><time>2026-03-29T09:17:34.999Z</time></trkpt><trkpt lat="37.6751878943619" lon="14.990692508323297"><ele>1420.7142857142858</ele><time>2026-03-29T09:17:36.999Z</time></trkpt><trkpt lat="37.675113109372155" lon="14.990709111518079"><ele>1420.857142857143</ele><time>2026-03-29T09:17:38.999Z</time></trkpt><trkpt lat="37.67504582177954" lon="14.990737985704293"><ele>1421.0</ele><time>2026-03-29T09:17:40.999Z</time></trkpt><trkpt lat="37.674986129065275" lon="14.990782241278065"><ele>1418.6666666666667</ele><time>2026-03-29T09:17:42.999Z</time></trkpt><trkpt lat="37.67492443894338" lon="14.990834526569419"><ele>1416.3333333333335</ele><time>2026-03-29T09:17:44.999Z</time></trkpt><trkpt lat="37.67486046527158" lon="14.9908895403097"><ele>1414.0</ele><time>2026-03-29T09:17:46.999Z</time></trkpt><trkpt lat="37.67479765828363" lon="14.990937216236"><ele>1411.6666666666667</ele><time>2026-03-29T09:17:48.999Z</time></trkpt><trkpt lat="37.67472741046429" lon="14.990981962835532"><ele>1409.3333333333333</ele><time>2026-03-29T09:17:50.999Z</time></trkpt><trkpt lat="37.67465266295492" lon="14.991022915908168"><ele>1407.0</ele><time>2026-03-29T09:17:52.999Z</time></trkpt><trkpt lat="37.674583120283735" lon="14.991065812576124"><ele>1404.0</ele><time>2026-03-29T09:17:54.999Z</time></trkpt></trkseg><trkseg><trkpt lat="42.1138790172907" lon="11.767948143558158"><ele>0.0</ele><time>2026-03-30T05:55:09.674Z</time></trkpt><trkpt lat="42.11380314172385" lon="11.767753876366609"><ele>0.0</ele><time>2026-03-30T05:55:10.674Z</time></trkpt><trkpt lat="42.113851768730306" lon="11.767549851144887"><ele>0.0</ele><time>2026-03-30T05:55:11.674Z</time></trkpt><trkpt lat="42.11383812641257" lon="11.767452825345277"><ele>0.0</ele><time>2026-03-30T05:55:14.674Z</time></trkpt><trkpt lat="42.11388641485233" lon="11.767629944198353"><ele>0.0</ele><time>2026-03-30T05:55:59Z</time></trkpt><trkpt lat="42.113843548670296" lon="11.767462956995793"><ele>0.0</ele><time>2026-03-30T05:56:57.999Z</time></trkpt><trkpt lat="42.11395886757658" lon="11.767467736920363"><ele>0.0</ele><time>2026-03-30T05:57:13.001Z</time></trkpt><trkpt lat="42.113974487006544" lon="11.767571448160858"><ele>0.0</ele><time>2026-03-30T05:57:21Z</time></trkpt><trkpt lat="42.11400911919918" lon="11.767672573704733"><ele>0.0</ele><time>2026-03-30T05:57:24Z</time></trkpt><trkpt lat="42.114051750253445" lon="11.76773914484701"><ele>0.0</ele><time>2026-03-30T05:57:26Z</time></trkpt><trkpt lat="42.1140549233606" lon="11.767845361082006"><ele>0.0</ele><time>2026-03-30T05:57:28Z</time></trkpt><trkpt lat="42.114024511252644" lon="11.767700151501915"><ele>0.0</ele><time>2026-03-30T05:57:57Z</time></trkpt><trkpt lat="42.113976769878164" lon="11.76761822218692"><ele>0.0</ele><time>2026-03-30T05:58:00Z</time></trkpt><trkpt lat="42.1139160486365" lon="11.767579381899068"><ele>0.0</ele><time>2026-03-30T05:58:02Z</time></trkpt><trkpt lat="42.11385610970181" lon="11.76754351925607"><ele>0.0</ele><time>2026-03-30T05:58:03Z</time></trkpt><trkpt lat="42.11379338078527" lon="11.767571607629797"><ele>0.0</ele><time>2026-03-30T05:58:07Z</time></trkpt><trkpt lat="42.113777485841176" lon="11.767677500508926"><ele>0.0</ele><time>2026-03-30T05:58:11Z</time></trkpt><trkpt lat="42.11376145722365" lon="11.767780343649164"><ele>0.0</ele><time>2026-03-30T05:58:15Z</time></trkpt><trkpt lat="42.1137350381749" lon="11.767866261323611"><ele>0.0</ele><time>2026-03-30T05:58:18Z</time></trkpt><trkpt lat="42.113674558307764" lon="11.76792372306518"><ele>0.0</ele><time>2026-03-30T05:59:13.999Z</time></trkpt><trkpt lat="42.11360912055271" lon="11.768000147810916"><ele>0.0</ele><time>2026-03-30T05:59:15.999Z</time></trkpt><trkpt lat="42.11355452130257" lon="11.76807252365922"><ele>0.0</ele><time>2026-03-30T05:59:18Z</time></trkpt><trkpt lat="42.11349694415367" lon="11.76814825611983"><ele>0.0</ele><time>2026-03-30T05:59:20Z</time></trkpt><trkpt lat="42.11343731264555" lon="11.768216243749398"><ele>0.0</ele><time>2026-03-30T05:59:22Z</time></trkpt><trkpt lat="42.113386832246555" lon="11.768276604515078"><ele>0.0</ele><time>2026-03-30T05:59:24Z</time></trkpt><trkpt lat="42.11332512171134" lon="11.768350716095917"><ele>0.0</ele><time>2026-03-30T05:59:26Z</time></trkpt><trkpt lat="42.11324488109684" lon="11.768442489258895"><ele>0.0</ele><time>2026-03-30T05:59:28Z</time></trkpt><trkpt lat="42.113156512873985" lon="11.768538225750273"><ele>0.16666666666666666</ele><time>2026-03-30T05:59:30Z</time></trkpt><trkpt lat="42.11310107698313" lon="11.768614290644077"><ele>0.3333333333333333</ele><time>2026-03-30T05:59:32Z</time></trkpt><trkpt lat="42.113062454965664" lon="11.768685525166822"><ele>0.5</ele><time>2026-03-30T05:59:34Z</time></trkpt><trkpt lat="42.11303757643785" lon="11.76878491936332"><ele>0.6666666666666666</ele><time>2026-03-30T05:59:37Z</time></trkpt><trkpt lat="42.1130626778854" lon="11.768907757252348"><ele>0.8333333333333333</ele><time>2026-03-30T05:59:40Z</time></trkpt><trkpt lat="42.11309408892827" lon="11.76898668862279"><ele>1.0</ele><time>2026-03-30T05:59:42Z</time></trkpt><trkpt lat="42.11314073547529" lon="11.769081298000067"><ele>0.9999999999999999</ele><time>2026-03-30T05:59:45Z</time></trkpt><trkpt lat="42.11319419103981" lon="11.769183029494124"><ele>1.0</ele><time>2026-03-30T05:59:48Z</time></trkpt><trkpt lat="42.11326415768067" lon="11.769284445044352"><ele>1.0</ele><time>2026-03-30T05:59:51Z</time></trkpt><trkpt lat="42.113314909898776" lon="11.769338654870847"><ele>1.0</ele><time>2026-03-30T05:59:53Z</time></trkpt><trkpt lat="42.113380916317496" lon="11.769410440452566"><ele>0.9999999999999999</ele><time>2026-03-30T05:59:56Z</time></trkpt><trkpt lat="42.113427358008686" lon="11.76947889571118"><ele>1.0</ele><time>2026-03-30T05:59:59Z</time></trkpt><trkpt lat="42.11346676519731" lon="11.769550051428935"><ele>1.1666666666666665</ele><time>2026-03-30T06:00:03Z</time></trkpt><trkpt lat="42.1135218261291" lon="11.769611629779876"><ele>1.3333333333333333</ele><time>2026-03-30T06:00:12Z</time></trkpt><trkpt lat="42.1135665651608" lon="11.769686206363323"><ele>1.5</ele><time>2026-03-30T06:00:16Z</time></trkpt><trkpt lat="42.113624045581155" lon="11.769767631209913"><ele>1.6666666666666665</ele><time>2026-03-30T06:00:18Z</time></trkpt><trkpt lat="42.11369471153358" lon="11.769823776761834"><ele>1.8333333333333333</ele><time>2026-03-30T06:00:20Z</time></trkpt><trkpt lat="42.11376828160873" lon="11.769816551357005"><ele>2.0</ele><time>2026-03-30T06:00:22Z</time></trkpt><trkpt lat="42.11383598851718" lon="11.769790044360454"><ele>1.9999999999999998</ele><time>2026-03-30T06:00:24Z</time></trkpt><trkpt lat="42.11390837632618" lon="11.7697896837591"><ele>2.0</ele><time>2026-03-30T06:00:27Z</time></trkpt><trkpt lat="42.113991034584224" lon="11.769843876081195"><ele>2.0</ele><time>2026-03-30T06:00:31Z</time></trkpt><trkpt lat="42.11404586759562" lon="11.76989908023857"><ele>2.0</ele><time>2026-03-30T06:00:33Z</time></trkpt><trkpt lat="42.11410006322497" lon="11.770019921512702"><ele>1.9999999999999998</ele><time>2026-03-30T06:00:35Z</time></trkpt><trkpt lat="42.11415477989966" lon="11.770120376202883"><ele>2.0</ele><time>2026-03-30T06:00:37Z</time></trkpt><trkpt lat="42.11424565891664" lon="11.770138438133833"><ele>2.333333333333333</ele><time>2026-03-30T06:00:39Z</time></trkpt><trkpt lat="42.11431292301595" lon="11.770054639046421"><ele>2.6666666666666665</ele><time>2026-03-30T06:00:41Z</time></trkpt><trkpt lat="42.11430166130822" lon="11.769937156244081"><ele>3.0</ele><time>2026-03-30T06:00:43Z</time></trkpt><trkpt lat="42.11425553069194" lon="11.769804934324677"><ele>3.333333333333333</ele><time>2026-03-30T06:00:45Z</time></trkpt><trkpt lat="42.114226892277365" lon="11.76970370215683"><ele>3.6666666666666665</ele><time>2026-03-30T06:00:47Z</time></trkpt><trkpt lat="42.114149505736734" lon="11.769680406984376"><ele>4.0</ele><time>2026-03-30T06:00:50Z</time></trkpt><trkpt lat="42.11413614635174" lon="11.76978228049492"><ele>3.9999999999999996</ele><time>2026-03-30T06:03:52Z</time></trkpt><trkpt lat="42.11411902832885" lon="11.769884295278148"><ele>4.0</ele><time>2026-03-30T06:03:55Z</time></trkpt><trkpt lat="42.1140663069526" lon="11.76999612257242"><ele>4.0</ele><time>2026-03-30T06:03:58Z</time></trkpt><trkpt lat="42.11399578169026" lon="11.770064084543527"><ele>4.0</ele><time>2026-03-30T06:04:00Z</time></trkpt><trkpt lat="42.113930230456035" lon="11.770115838810655"><ele>3.9999999999999996</ele><time>2026-03-30T06:04:02Z</time></trkpt><trkpt lat="42.11385672963956" lon="11.770157820985553"><ele>4.0</ele><time>2026-03-30T06:04:04Z</time></trkpt><trkpt lat="42.11377193625622" lon="11.770167736207547"><ele>4.166666666666666</ele><time>2026-03-30T06:04:06Z</time></trkpt><trkpt lat="42.11369712803673" lon="11.770193058218474"><ele>4.333333333333333</ele><time>2026-03-30T06:04:09Z</time></trkpt><trkpt lat="42.11370566317457" lon="11.770284688321608"><ele>4.5</ele><time>2026-03-30T06:04:48Z</time></trkpt><trkpt lat="42.11382338615463" lon="11.770226276136311"><ele>4.666666666666667</ele><time>2026-03-30T06:04:51Z</time></trkpt><trkpt lat="42.11389000002336" lon="11.770200035154657"><ele>4.833333333333334</ele><time>2026-03-30T06:04:52Z</time></trkpt><trkpt lat="42.1139537871277" lon="11.770175034202106"><ele>5.0</ele><time>2026-03-30T06:04:53Z</time></trkpt><trkpt lat="42.114053616985025" lon="11.770153260559416"><ele>4.75</ele><time>2026-03-30T06:04:55Z</time></trkpt><trkpt lat="42.11417022425192" lon="11.77023228124386"><ele>4.5</ele><time>2026-03-30T06:04:59Z</time></trkpt><trkpt lat="42.1142648384772" lon="11.770279999319662"><ele>4.25</ele><time>2026-03-30T06:05:01Z</time></trkpt><trkpt lat="42.11437968297558" lon="11.770317166212426"><ele>4.0</ele><time>2026-03-30T06:05:03Z</time></trkpt><trkpt lat="42.114487311671006" lon="11.770329368999693"><ele>4.0</ele><time>2026-03-30T06:05:05Z</time></trkpt><trkpt lat="42.1145603154954" lon="11.770329131255709"><ele>3.9999999999999996</ele><time>2026-03-30T06:05:06.999Z</time></trkpt><trkpt lat="42.1146177196654" lon="11.77043122681451"><ele>4.0</ele><time>2026-03-30T06:05:11.999Z</time></trkpt><trkpt lat="42.11462505596367" lon="11.770518967243861"><ele>4.0</ele><time>2026-03-30T06:05:18.999Z</time></trkpt><trkpt lat="42.114561121915564" lon="11.77048921502401"><ele>3.9999999999999996</ele><time>2026-03-30T06:06:42Z</time></trkpt><trkpt lat="42.11462287837515" lon="11.77047218019866"><ele>4.0</ele><time>2026-03-30T06:12:26Z</time></trkpt><trkpt lat="42.11468398673349" lon="11.770448126025842"><ele>4.0</ele><time>2026-03-30T06:12:45Z</time></trkpt><trkpt lat="42.11474688350219" lon="11.77046143770822"><ele>4.0</ele><time>2026-03-30T06:18:30.999Z</time></trkpt><trkpt lat="42.11480607393569" lon="11.770410511453269"><ele>3.9999999999999996</ele><time>2026-03-30T06:18:34.999Z</time></trkpt><trkpt lat="42.11481593698307" lon="11.770306060496083"><ele>4.0</ele><time>2026-03-30T06:18:39.999Z</time></trkpt><trkpt lat="42.11480859877852" lon="11.770219666828227"><ele>4.0</ele><time>2026-03-30T06:20:22.999Z</time></trkpt><trkpt lat="42.1147572313712" lon="11.770166258696214"><ele>3.9999999999999996</ele><time>2026-03-30T06:20:26.999Z</time></trkpt><trkpt lat="42.11468203294548" lon="11.770189695159187"><ele>4.0</ele><time>2026-03-30T06:24:23.998Z</time></trkpt><trkpt lat="42.1146190998625" lon="11.770171475922634"><ele>4.0</ele><time>2026-03-30T06:24:26.998Z</time></trkpt><trkpt lat="42.11453616500012" lon="11.770188270337876"><ele>4.0</ele><time>2026-03-30T06:24:29.999Z</time></trkpt><trkpt lat="42.11444854662086" lon="11.77017509957336"><ele>4.0</ele><time>2026-03-30T06:24:32.999Z</time></trkpt><trkpt lat="42.11441878330026" lon="11.770082842523193"><ele>4.0</ele><time>2026-03-30T06:24:34.999Z</time></trkpt><trkpt lat="42.11447968623186" lon="11.769983946993355"><ele>4.0</ele><time>2026-03-30T06:24:37.999Z</time></trkpt><trkpt lat="42.114600693218094" lon="11.769924330726726"><ele>4.0</ele><time>2026-03-30T06:24:39.999Z</time></trkpt><trkpt lat="42.11467733058287" lon="11.76988726396075"><ele>3.9999999999999996</ele><time>2026-03-30T06:24:40.999Z</time></trkpt><trkpt lat="42.11476069528719" lon="11.769844361873533"><ele>4.0</ele><time>2026-03-30T06:24:41.999Z</time></trkpt><trkpt lat="42.11485101446296" lon="11.769796418959897"><ele>4.0</ele><time>2026-03-30T06:24:42.999Z</time></trkpt><trkpt lat="42.114940525265006" lon="11.769750860481164"><ele>4.0</ele><time>2026-03-30T06:24:43.999Z</time></trkpt><trkpt lat="42.11502076803786" lon="11.769710668936755"><ele>3.9999999999999996</ele><time>2026-03-30T06:24:44.999Z</time></trkpt><trkpt lat="42.115085302523944" lon="11.769677442187733"><ele>4.0</ele><time>2026-03-30T06:24:45.999Z</time></trkpt><trkpt lat="42.11518992169377" lon="11.769624793585038"><ele>4.666666666666666</ele><time>2026-03-30T06:24:47.999Z</time></trkpt><trkpt lat="42.115268798978185" lon="11.769590333671973"><ele>5.333333333333333</ele><time>2026-03-30T06:24:49.999Z</time></trkpt><trkpt lat="42.11534005939719" lon="11.769580352644724"><ele>6.0</ele><time>2026-03-30T06:24:52.999Z</time></trkpt><trkpt lat="42.11542644149851" lon="11.769603066810769"><ele>6.666666666666666</ele><time>2026-03-30T06:24:55.999Z</time></trkpt><trkpt lat="42.11549395199206" lon="11.769665880046073"><ele>7.333333333333333</ele><time>2026-03-30T06:24:57.999Z</time></trkpt><trkpt lat="42.11557495535251" lon="11.769692071043425"><ele>8.0</ele><time>2026-03-30T06:24:59.999Z</time></trkpt><trkpt lat="42.115651027959856" lon="11.769617195981578"><ele>8.0</ele><time>2026-03-30T06:25:01.999Z</time></trkpt><trkpt lat="42.11563481405962" lon="11.769476539925726"><ele>8.0</ele><time>2026-03-30T06:25:03.999Z</time></trkpt><trkpt lat="42.115513269051185" lon="11.769402593770963"><ele>8.0</ele><time>2026-03-30T06:25:05.999Z</time></trkpt><trkpt lat="42.115439354664936" lon="11.769424539708048"><ele>8.0</ele><time>2026-03-30T06:25:06.999Z</time></trkpt><trkpt lat="42.115350753454514" lon="11.769422296318021"><ele>8.0</ele><time>2026-03-30T06:25:07.999Z</time></trkpt><trkpt lat="42.1152587289494" lon="11.769459001463533"><ele>8.0</ele><time>2026-03-30T06:25:08.999Z</time></trkpt><trkpt lat="42.11516503399861" lon="11.769498968772881"><ele>8.0</ele><time>2026-03-30T06:25:09.999Z</time></trkpt><trkpt lat="42.115066266958394" lon="11.769546416888653"><ele>8.0</ele><time>2026-03-30T06:25:10.999Z</time></trkpt><trkpt lat="42.114963577013825" lon="11.76959807671234"><ele>8.0</ele><time>2026-03-30T06:25:11.999Z</time></trkpt><trkpt lat="42.11486352241623" lon="11.769643275472344"><ele>8.0</ele><time>2026-03-30T06:25:12.999Z</time></trkpt><trkpt lat="42.114773418633966" lon="11.76968788069545"><ele>7.333333333333333</ele><time>2026-03-30T06:25:13.999Z</time></trkpt><trkpt lat="42.114688841278394" lon="11.769733197785442"><ele>6.666666666666666</ele><time>2026-03-30T06:25:14.999Z</time></trkpt><trkpt lat="42.11461093744041" lon="11.769781327812511"><ele>6.0</ele><time>2026-03-30T06:25:15.999Z</time></trkpt><trkpt lat="42.11453334972782" lon="11.769820700612078"><ele>5.333333333333333</ele><time>2026-03-30T06:25:16.999Z</time></trkpt><trkpt lat="42.114458177050444" lon="11.76985172979968"><ele>4.666666666666666</ele><time>2026-03-30T06:25:17.999Z</time></trkpt><trkpt lat="42.11438899682571" lon="11.769873252076726"><ele>4.0</ele><time>2026-03-30T06:25:18.999Z</time></trkpt><trkpt lat="42.11427698143554" lon="11.769930501453217"><ele>3.9999999999999996</ele><time>2026-03-30T06:25:20.999Z</time></trkpt><trkpt lat="42.11421666296648" lon="11.769961526094642"><ele>4.0</ele><time>2026-03-30T06:25:21.999Z</time></trkpt><trkpt lat="42.11415113998262" lon="11.769995344407205"><ele>4.0</ele><time>2026-03-30T06:25:22.999Z</time></trkpt><trkpt lat="42.11407694844694" lon="11.770033636811412"><ele>4.0</ele><time>2026-03-30T06:25:23.999Z</time></trkpt><trkpt lat="42.11399692690212" lon="11.77006124925232"><ele>3.9999999999999996</ele><time>2026-03-30T06:25:24.999Z</time></trkpt><trkpt lat="42.1139175038557" lon="11.77012268769779"><ele>4.0</ele><time>2026-03-30T06:25:25.999Z</time></trkpt><trkpt lat="42.11382823173074" lon="11.770179391171816"><ele>4.2</ele><time>2026-03-30T06:25:26.999Z</time></trkpt><trkpt lat="42.113731389556705" lon="11.7702309956967"><ele>4.4</ele><time>2026-03-30T06:25:27.999Z</time></trkpt><trkpt lat="42.11362887852327" lon="11.770284174965067"><ele>4.6</ele><time>2026-03-30T06:25:28.999Z</time></trkpt><trkpt lat="42.11352086917639" lon="11.770339993847191"><ele>4.8</ele><time>2026-03-30T06:25:29.999Z</time></trkpt><trkpt lat="42.113409597473385" lon="11.7703979474607"><ele>5.0</ele><time>2026-03-30T06:25:30.999Z</time></trkpt><trkpt lat="42.11329860346365" lon="11.770458208378765"><ele>4.0</ele><time>2026-03-30T06:25:31.999Z</time></trkpt><trkpt lat="42.1131870980769" lon="11.77051651246753"><ele>3.0</ele><time>2026-03-30T06:25:32.999Z</time></trkpt><trkpt lat="42.11307542978228" lon="11.770574690462364"><ele>2.0</ele><time>2026-03-30T06:25:33.999Z</time></trkpt><trkpt lat="42.11296256472882" lon="11.770632292315396"><ele>1.0</ele><time>2026-03-30T06:25:34.999Z</time></trkpt><trkpt lat="42.112848221993715" lon="11.770691188815753"><ele>1.0</ele><time>2026-03-30T06:25:35.999Z</time></trkpt><trkpt lat="42.11273311743261" lon="11.770748498728041"><ele>1.0</ele><time>2026-03-30T06:25:36.999Z</time></trkpt><trkpt lat="42.112621031504126" lon="11.770804195704217"><ele>1.0</ele><time>2026-03-30T06:25:37.999Z</time></trkpt><trkpt lat="42.112512011150386" lon="11.770857431062769"><ele>1.0</ele><time>2026-03-30T06:25:38.999Z</time></trkpt><trkpt lat="42.11240552017461" lon="11.770917179053832"><ele>0.20000000000000007</ele><time>2026-03-30T06:25:39.999Z</time></trkpt><trkpt lat="42.11230205898221" lon="11.77097165069675"><ele>-0.5999999999999999</ele><time>2026-03-30T06:25:40.999Z</time></trkpt><trkpt lat="42.11220166911611" lon="11.771022629356876"><ele>-1.4</ele><time>2026-03-30T06:25:41.999Z</time></trkpt><trkpt lat="42.11210150765808" lon="11.771071923602369"><ele>-2.1999999999999997</ele><time>2026-03-30T06:25:42.999Z</time></trkpt><trkpt lat="42.11200101965701" lon="11.77112252865969"><ele>-3.0</ele><time>2026-03-30T06:25:43.999Z</time></trkpt><trkpt lat="42.111898912080726" lon="11.771173776195091"><ele>-3.0</ele><time>2026-03-30T06:25:44.999Z</time></trkpt><trkpt lat="42.11179541309103" lon="11.771226199686303"><ele>-3.0</ele><time>2026-03-30T06:25:45.999Z</time></trkpt><trkpt lat="42.11169017092128" lon="11.771279518519723"><ele>-3.0</ele><time>2026-03-30T06:25:46.999Z</time></trkpt><trkpt lat="42.1115844652229" lon="11.771334156032276"><ele>-3.0</ele><time>2026-03-30T06:25:47.999Z</time></trkpt><trkpt lat="42.111481091310026" lon="11.771388604711989"><ele>-3.0</ele><time>2026-03-30T06:25:48.999Z</time></trkpt><trkpt lat="42.111381087090464" lon="11.771440953440793"><ele>-2.1999999999999997</ele><time>2026-03-30T06:25:49.999Z</time></trkpt><trkpt lat="42.11128460814528" lon="11.771488941338637"><ele>-1.4</ele><time>2026-03-30T06:25:50.999Z</time></trkpt><trkpt lat="42.11119135002092" lon="11.771534716944299"><ele>-0.5999999999999999</ele><time>2026-03-30T06:25:51.999Z</time></trkpt><trkpt lat="42.11110357588746" lon="11.771576690133768"><ele>0.20000000000000007</ele><time>2026-03-30T06:25:52.999Z</time></trkpt><trkpt lat="42.11102186515697" lon="11.771618990579036"><ele>1.0</ele><time>2026-03-30T06:25:53.999Z</time></trkpt><trkpt lat="42.11094194677585" lon="11.771662436719046"><ele>1.0</ele><time>2026-03-30T06:25:54.999Z</time></trkpt><trkpt lat="42.110861868270156" lon="11.77170854471775"><ele>1.0</ele><time>2026-03-30T06:25:55.999Z</time></trkpt><trkpt lat="42.11078095459133" lon="11.771759603892376"><ele>1.0</ele><time>2026-03-30T06:25:56.999Z</time></trkpt><trkpt lat="42.11070231346846" lon="11.771818916673684"><ele>1.0</ele><time>2026-03-30T06:25:57.999Z</time></trkpt><trkpt lat="42.110625145983164" lon="11.771887832635244"><ele>1.0</ele><time>2026-03-30T06:25:58.999Z</time></trkpt><trkpt lat="42.11055096748666" lon="11.771966706288513"><ele>1.2000000000000002</ele><time>2026-03-30T06:25:59.999Z</time></trkpt><trkpt lat="42.110480306311565" lon="11.772062501786447"><ele>1.4000000000000001</ele><time>2026-03-30T06:26:00.999Z</time></trkpt><trkpt lat="42.11042078028571" lon="11.772157855733555"><ele>1.6</ele><time>2026-03-30T06:26:01.999Z</time></trkpt><trkpt lat="42.11036739327333" lon="11.772261267531151"><ele>1.8</ele><time>2026-03-30T06:26:02.999Z</time></trkpt><trkpt lat="42.110309909871305" lon="11.772364892877285"><ele>2.0</ele><time>2026-03-30T06:26:03.999Z</time></trkpt><trkpt lat="42.11025450634981" lon="11.772467451487667"><ele>1.9999999999999998</ele><time>2026-03-30T06:26:04.999Z</time></trkpt><trkpt lat="42.1102009090429" lon="11.772570110913666"><ele>2.0</ele><time>2026-03-30T06:26:05.999Z</time></trkpt><trkpt lat="42.110147142958965" lon="11.772673251373012"><ele>2.0</ele><time>2026-03-30T06:26:06.999Z</time></trkpt><trkpt lat="42.11009370813504" lon="11.772764857224432"><ele>2.0</ele><time>2026-03-30T06:26:07.999Z</time></trkpt><trkpt lat="42.11004331032704" lon="11.772856772150199"><ele>1.9999999999999998</ele><time>2026-03-30T06:26:08.999Z</time></trkpt><trkpt lat="42.10999515920772" lon="11.77294686056673"><ele>2.0</ele><time>2026-03-30T06:26:09.999Z</time></trkpt><trkpt lat="42.10994471659532" lon="11.77303826147815"><ele>1.8333333333333333</ele><time>2026-03-30T06:26:10.999Z</time></trkpt><trkpt lat="42.10989297528096" lon="11.773125694938365"><ele>1.6666666666666665</ele><time>2026-03-30T06:26:11.999Z</time></trkpt><trkpt lat="42.109840632131764" lon="11.773203138719682"><ele>1.5</ele><time>2026-03-30T06:26:12.999Z</time></trkpt><trkpt lat="42.10978658176797" lon="11.773267485564622"><ele>1.3333333333333333</ele><time>2026-03-30T06:26:13.999Z</time></trkpt><trkpt lat="42.10973330891434" lon="11.77332887202561"><ele>1.1666666666666665</ele><time>2026-03-30T06:26:14.999Z</time></trkpt><trkpt lat="42.10967490541704" lon="11.773404715701501"><ele>1.0</ele><time>2026-03-30T06:26:15.999Z</time></trkpt><trkpt lat="42.1096111208486" lon="11.773499578557999"><ele>0.75</ele><time>2026-03-30T06:26:16.999Z</time></trkpt><trkpt lat="42.109520939896484" lon="11.773586785357274"><ele>0.5</ele><time>2026-03-30T06:26:17.999Z</time></trkpt><trkpt lat="42.1094475370232" lon="11.773712616885694"><ele>0.25</ele><time>2026-03-30T06:26:18.999Z</time></trkpt><trkpt lat="42.10935595369099" lon="11.773825730896363"><ele>0.0</ele><time>2026-03-30T06:26:19.999Z</time></trkpt><trkpt lat="42.10926281059024" lon="11.7739503625089"><ele>0.0</ele><time>2026-03-30T06:26:20.999Z</time></trkpt><trkpt lat="42.10917220565961" lon="11.774083415871027"><ele>0.0</ele><time>2026-03-30T06:26:21.999Z</time></trkpt><trkpt lat="42.10908057235491" lon="11.774222753900524"><ele>0.0</ele><time>2026-03-30T06:26:22.999Z</time></trkpt><trkpt lat="42.10898847716455" lon="11.774364881367783"><ele>0.0</ele><time>2026-03-30T06:26:23.999Z</time></trkpt><trkpt lat="42.10888792762312" lon="11.774500756361665"><ele>0.5</ele><time>2026-03-30T06:26:24.998Z</time></trkpt><trkpt lat="42.10878967844471" lon="11.774649142148276"><ele>1.0</ele><time>2026-03-30T06:26:25.998Z</time></trkpt><trkpt lat="42.10869734394135" lon="11.774801097485787"><ele>1.5</ele><time>2026-03-30T06:26:26.998Z</time></trkpt><trkpt lat="42.108603592274754" lon="11.774951257849347"><ele>2.0</ele><time>2026-03-30T06:26:27.998Z</time></trkpt><trkpt lat="42.108509433629735" lon="11.77510453664952"><ele>1.75</ele><time>2026-03-30T06:26:28.998Z</time></trkpt><trkpt lat="42.10841266886664" lon="11.77525393411205"><ele>1.5</ele><time>2026-03-30T06:26:29.998Z</time></trkpt><trkpt lat="42.10831345563026" lon="11.775398457957106"><ele>1.25</ele><time>2026-03-30T06:26:30.998Z</time></trkpt><trkpt lat="42.10821464092343" lon="11.77553328256442"><ele>1.0</ele><time>2026-03-30T06:26:31.998Z</time></trkpt><trkpt lat="42.10812153044138" lon="11.775661321381351"><ele>1.0</ele><time>2026-03-30T06:26:32.998Z</time></trkpt><trkpt lat="42.108035656991476" lon="11.775790598353451"><ele>1.0</ele><time>2026-03-30T06:26:33.999Z</time></trkpt><trkpt lat="42.107955855453376" lon="11.77591735611953"><ele>1.0</ele><time>2026-03-30T06:26:34.999Z</time></trkpt><trkpt lat="42.107863599527754" lon="11.776017192181527"><ele>1.0</ele><time>2026-03-30T06:26:35.999Z</time></trkpt><trkpt lat="42.107776876113775" lon="11.77612653182535"><ele>1.0</ele><time>2026-03-30T06:26:36.999Z</time></trkpt><trkpt lat="42.1076894193495" lon="11.776236796065415"><ele>1.0</ele><time>2026-03-30T06:26:37.999Z</time></trkpt><trkpt lat="42.10760070861125" lon="11.776348641297066"><ele>1.0</ele><time>2026-03-30T06:26:38.999Z</time></trkpt><trkpt lat="42.10750974606967" lon="11.776463325619176"><ele>1.0</ele><time>2026-03-30T06:26:39.999Z</time></trkpt><trkpt lat="42.10741647823748" lon="11.776580916373405"><ele>1.25</ele><time>2026-03-30T06:26:40.999Z</time></trkpt><trkpt lat="42.10732251105706" lon="11.776699388806607"><ele>1.5</ele><time>2026-03-30T06:26:41.999Z</time></trkpt><trkpt lat="42.10722603842252" lon="11.776821020084077"><ele>1.75</ele><time>2026-03-30T06:26:42.999Z</time></trkpt><trkpt lat="42.10712929465378" lon="11.776942993328335"><ele>2.0</ele><time>2026-03-30T06:26:43.999Z</time></trkpt><trkpt lat="42.107055102587324" lon="11.777092716190722"><ele>2.0</ele><time>2026-03-30T06:26:44.999Z</time></trkpt><trkpt lat="42.106963623819915" lon="11.777211252071632"><ele>2.0</ele><time>2026-03-30T06:26:45.999Z</time></trkpt><trkpt lat="42.10687033094103" lon="11.777329260625036"><ele>2.0</ele><time>2026-03-30T06:26:46.999Z</time></trkpt><trkpt lat="42.10677546820417" lon="11.77744559697212"><ele>2.0</ele><time>2026-03-30T06:26:47.999Z</time></trkpt><trkpt lat="42.10668047460459" lon="11.777561483695525"><ele>2.0</ele><time>2026-03-30T06:26:48.999Z</time></trkpt><trkpt lat="42.10658788781323" lon="11.77767835634233"><ele>2.0</ele><time>2026-03-30T06:26:49.999Z</time></trkpt><trkpt lat="42.106500729139626" lon="11.777788574663425"><ele>2.0</ele><time>2026-03-30T06:26:50.999Z</time></trkpt><trkpt lat="42.106417735777335" lon="11.777892204127054"><ele>2.0</ele><time>2026-03-30T06:26:51.999Z</time></trkpt><trkpt lat="42.10633825338188" lon="11.777990626304748"><ele>2.1666666666666665</ele><time>2026-03-30T06:26:52.999Z</time></trkpt><trkpt lat="42.10626418231556" lon="11.778081401533258"><ele>2.333333333333333</ele><time>2026-03-30T06:26:53.999Z</time></trkpt><trkpt lat="42.10620005329256" lon="11.77816451502831"><ele>2.5</ele><time>2026-03-30T06:26:54.999Z</time></trkpt><trkpt lat="42.10614527003227" lon="11.778241190297935"><ele>2.6666666666666665</ele><time>2026-03-30T06:26:55.999Z</time></trkpt><trkpt lat="42.10608476859645" lon="11.778308046308279"><ele>2.8333333333333335</ele><time>2026-03-30T06:26:56.999Z</time></trkpt><trkpt lat="42.10602256580131" lon="11.778358148734446"><ele>3.0</ele><time>2026-03-30T06:26:57.999Z</time></trkpt><trkpt lat="42.10596267490349" lon="11.778390603648226"><ele>3.0</ele><time>2026-03-30T06:26:58.999Z</time></trkpt><trkpt lat="42.105841269537514" lon="11.778389385540242"><ele>3.0</ele><time>2026-03-30T06:27:00.999Z</time></trkpt><trkpt lat="42.10573974926729" lon="11.778422195343031"><ele>3.0</ele><time>2026-03-30T06:27:02.999Z</time></trkpt><trkpt lat="42.10569608277712" lon="11.778563467176182"><ele>3.0</ele><time>2026-03-30T06:27:04.999Z</time></trkpt><trkpt lat="42.10574027138697" lon="11.778642830946305"><ele>3.0</ele><time>2026-03-30T06:27:05.999Z</time></trkpt><trkpt lat="42.105659841819126" lon="11.778841035860758"><ele>3.0</ele><time>2026-03-30T06:27:07.999Z</time></trkpt><trkpt lat="42.105607538056866" lon="11.778912002281544"><ele>3.0</ele><time>2026-03-30T06:27:08.999Z</time></trkpt><trkpt lat="42.10555075103973" lon="11.778985704895124"><ele>3.0</ele><time>2026-03-30T06:27:09.999Z</time></trkpt><trkpt lat="42.10548800897809" lon="11.779063040595721"><ele>3.0</ele><time>2026-03-30T06:27:10.999Z</time></trkpt><trkpt lat="42.10542193265241" lon="11.779145437545257"><ele>3.0</ele><time>2026-03-30T06:27:11.999Z</time></trkpt><trkpt lat="42.10534803463493" lon="11.779228491673678"><ele>3.0</ele><time>2026-03-30T06:27:12.999Z</time></trkpt><trkpt lat="42.105280802574754" lon="11.779332294701838"><ele>2.75</ele><time>2026-03-30T06:27:13.999Z</time></trkpt><trkpt lat="42.10520466336912" lon="11.779436677309393"><ele>2.5</ele><time>2026-03-30T06:27:14.999Z</time></trkpt><trkpt lat="42.105121719029526" lon="11.779541142219436"><ele>2.25</ele><time>2026-03-30T06:27:15.999Z</time></trkpt><trkpt lat="42.10503513885505" lon="11.779648598818763"><ele>2.0</ele><time>2026-03-30T06:27:16.999Z</time></trkpt><trkpt lat="42.10494772072951" lon="11.77976015957911"><ele>2.0</ele><time>2026-03-30T06:27:17.999Z</time></trkpt><trkpt lat="42.104865422194266" lon="11.779867566129232"><ele>2.0</ele><time>2026-03-30T06:27:18.999Z</time></trkpt><trkpt lat="42.1047793883409" lon="11.779978741165053"><ele>2.0</ele><time>2026-03-30T06:27:19.999Z</time></trkpt><trkpt lat="42.104691007352336" lon="11.780090947217793"><ele>2.0</ele><time>2026-03-30T06:27:20.999Z</time></trkpt><trkpt lat="42.10460424412815" lon="11.780208809618786"><ele>2.0</ele><time>2026-03-30T06:27:21.999Z</time></trkpt><trkpt lat="42.10451679529271" lon="11.780326353412892"><ele>2.0</ele><time>2026-03-30T06:27:22.999Z</time></trkpt><trkpt lat="42.10442777426984" lon="11.780442824061751"><ele>2.0</ele><time>2026-03-30T06:27:23.999Z</time></trkpt><trkpt lat="42.10434079349643" lon="11.780564036319042"><ele>2.0</ele><time>2026-03-30T06:27:24.999Z</time></trkpt><trkpt lat="42.10425252448336" lon="11.780687695163177"><ele>2.0</ele><time>2026-03-30T06:27:25.999Z</time></trkpt><trkpt lat="42.10416863518177" lon="11.780801437059973"><ele>2.0</ele><time>2026-03-30T06:27:26.999Z</time></trkpt><trkpt lat="42.10409107240211" lon="11.780908917166935"><ele>2.0</ele><time>2026-03-30T06:27:27.999Z</time></trkpt><trkpt lat="42.10401967164568" lon="11.781011840772738"><ele>2.0</ele><time>2026-03-30T06:27:28.999Z</time></trkpt><trkpt lat="42.1039496800644" lon="11.781092789328786"><ele>2.0</ele><time>2026-03-30T06:27:29.999Z</time></trkpt><trkpt lat="42.10387541215824" lon="11.781142004016061"><ele>1.6666666666666665</ele><time>2026-03-30T06:27:30.999Z</time></trkpt><trkpt lat="42.10379804555181" lon="11.781150776141855"><ele>1.3333333333333333</ele><time>2026-03-30T06:27:31.999Z</time></trkpt><trkpt lat="42.10372253975939" lon="11.78112790550737"><ele>1.0</ele><time>2026-03-30T06:27:32.999Z</time></trkpt><trkpt lat="42.10364906771495" lon="11.781097479512251"><ele>0.6666666666666666</ele><time>2026-03-30T06:27:33.999Z</time></trkpt><trkpt lat="42.10357904523865" lon="11.780999936738317"><ele>0.3333333333333333</ele><time>2026-03-30T06:27:34.999Z</time></trkpt><trkpt lat="42.103488947309195" lon="11.780956411505613"><ele>0.0</ele><time>2026-03-30T06:27:35.999Z</time></trkpt><trkpt lat="42.103402466965406" lon="11.780934884082487"><ele>0.0</ele><time>2026-03-30T06:27:36.999Z</time></trkpt><trkpt lat="42.10331640803524" lon="11.780927263079187"><ele>0.0</ele><time>2026-03-30T06:27:37.999Z</time></trkpt><trkpt lat="42.10323590970126" lon="11.78094566381003"><ele>0.0</ele><time>2026-03-30T06:27:38.999Z</time></trkpt><trkpt lat="42.103162573324155" lon="11.780998384797414"><ele>0.0</ele><time>2026-03-30T06:27:39.999Z</time></trkpt><trkpt lat="42.10308920952476" lon="11.781072422271645"><ele>0.0</ele><time>2026-03-30T06:27:40.999Z</time></trkpt><trkpt lat="42.10301906297165" lon="11.781163391737527"><ele>0.0</ele><time>2026-03-30T06:27:41.999Z</time></trkpt><trkpt lat="42.10295486622073" lon="11.78127028703582"><ele>0.2</ele><time>2026-03-30T06:27:42.999Z</time></trkpt><trkpt lat="42.10289934868299" lon="11.781392653645074"><ele>0.4</ele><time>2026-03-30T06:27:43.999Z</time></trkpt><trkpt lat="42.10285922851424" lon="11.781523406779549"><ele>0.6000000000000001</ele><time>2026-03-30T06:27:44.999Z</time></trkpt><trkpt lat="42.10282847089704" lon="11.781659201146358"><ele>0.8</ele><time>2026-03-30T06:27:45.999Z</time></trkpt><trkpt lat="42.10281229509265" lon="11.781810596308098"><ele>1.0</ele><time>2026-03-30T06:27:46.999Z</time></trkpt><trkpt lat="42.10275492079611" lon="11.781929818746349"><ele>1.0</ele><time>2026-03-30T06:27:47.999Z</time></trkpt><trkpt lat="42.102694519189264" lon="11.78204704034088"><ele>1.0</ele><time>2026-03-30T06:27:48.999Z</time></trkpt><trkpt lat="42.102568964374846" lon="11.782110154372"><ele>1.0</ele><time>2026-03-30T06:27:49.999Z</time></trkpt><trkpt lat="42.10246569411501" lon="11.78219142746615"><ele>1.0</ele><time>2026-03-30T06:27:50.999Z</time></trkpt><trkpt lat="42.10236493680416" lon="11.782291197966293"><ele>1.0</ele><time>2026-03-30T06:27:51.999Z</time></trkpt><trkpt lat="42.10225178362359" lon="11.782371703749275"><ele>1.0</ele><time>2026-03-30T06:27:52.999Z</time></trkpt><trkpt lat="42.10213586555065" lon="11.782452621113995"><ele>1.0</ele><time>2026-03-30T06:27:53.999Z</time></trkpt><trkpt lat="42.10201623609376" lon="11.782535994794497"><ele>1.0</ele><time>2026-03-30T06:27:54.999Z</time></trkpt><trkpt lat="42.10189271714229" lon="11.782619182844119"><ele>1.0</ele><time>2026-03-30T06:27:55.999Z</time></trkpt><trkpt lat="42.10176811738959" lon="11.782703098806316"><ele>1.0</ele><time>2026-03-30T06:27:56.999Z</time></trkpt><trkpt lat="42.1016461307937" lon="11.78278534210406"><ele>1.0</ele><time>2026-03-30T06:27:57.999Z</time></trkpt><trkpt lat="42.101519967228185" lon="11.78284435157719"><ele>1.0</ele><time>2026-03-30T06:27:58.999Z</time></trkpt><trkpt lat="42.10140300821704" lon="11.782923088031291"><ele>1.0</ele><time>2026-03-30T06:27:59.999Z</time></trkpt><trkpt lat="42.10128363407175" lon="11.78300190940355"><ele>1.0</ele><time>2026-03-30T06:28:00.999Z</time></trkpt><trkpt lat="42.10117157685752" lon="11.78309868097084"><ele>1.0</ele><time>2026-03-30T06:28:01.999Z</time></trkpt><trkpt lat="42.10105490981704" lon="11.783177714480415"><ele>1.0</ele><time>2026-03-30T06:28:02.999Z</time></trkpt><trkpt lat="42.100939022831916" lon="11.783253113704543"><ele>1.0</ele><time>2026-03-30T06:28:03.999Z</time></trkpt><trkpt lat="42.10082409250218" lon="11.783327292990963"><ele>1.0</ele><time>2026-03-30T06:28:04.999Z</time></trkpt><trkpt lat="42.10070780610945" lon="11.783402347518372"><ele>1.0</ele><time>2026-03-30T06:28:05.999Z</time></trkpt><trkpt lat="42.10059084156141" lon="11.783477839742645"><ele>1.0</ele><time>2026-03-30T06:28:06.999Z</time></trkpt><trkpt lat="42.1004726093535" lon="11.783553802624223"><ele>1.25</ele><time>2026-03-30T06:28:07.999Z</time></trkpt><trkpt lat="42.10035242885703" lon="11.783630428376286"><ele>1.5</ele><time>2026-03-30T06:28:08.999Z</time></trkpt><trkpt lat="42.100231527262714" lon="11.783707513878085"><ele>1.75</ele><time>2026-03-30T06:28:09.999Z</time></trkpt><trkpt lat="42.10010963379087" lon="11.783785231793228"><ele>2.0</ele><time>2026-03-30T06:28:10.999Z</time></trkpt><trkpt lat="42.09998058411781" lon="11.78384161533667"><ele>1.75</ele><time>2026-03-30T06:28:11.999Z</time></trkpt><trkpt lat="42.099856908778534" lon="11.783922076353019"><ele>1.5</ele><time>2026-03-30T06:28:12.999Z</time></trkpt><trkpt lat="42.099724471031585" lon="11.784007069731912"><ele>1.25</ele><time>2026-03-30T06:28:13.999Z</time></trkpt><trkpt lat="42.09960261637411" lon="11.784112245013525"><ele>1.0</ele><time>2026-03-30T06:28:14.999Z</time></trkpt><trkpt lat="42.09947298631357" lon="11.78419877607681"><ele>1.0</ele><time>2026-03-30T06:28:15.999Z</time></trkpt><trkpt lat="42.09934680323117" lon="11.784283016353857"><ele>1.0</ele><time>2026-03-30T06:28:16.999Z</time></trkpt><trkpt lat="42.09922285964862" lon="11.784365824925079"><ele>1.0</ele><time>2026-03-30T06:28:17.999Z</time></trkpt><trkpt lat="42.09910192185883" lon="11.784446625120333"><ele>1.0</ele><time>2026-03-30T06:28:18.999Z</time></trkpt><trkpt lat="42.098988064588205" lon="11.784523107610863"><ele>1.25</ele><time>2026-03-30T06:28:19.999Z</time></trkpt><trkpt lat="42.0988750836494" lon="11.784600122233295"><ele>1.5</ele><time>2026-03-30T06:28:20.999Z</time></trkpt><trkpt lat="42.098764921202886" lon="11.784673270629499"><ele>1.75</ele><time>2026-03-30T06:28:21.999Z</time></trkpt><trkpt lat="42.098652385754185" lon="11.7847364907204"><ele>2.0</ele><time>2026-03-30T06:28:22.999Z</time></trkpt><trkpt lat="42.09854206129918" lon="11.784774633958316"><ele>2.0</ele><time>2026-03-30T06:28:23.999Z</time></trkpt><trkpt lat="42.09844059027377" lon="11.784830968469278"><ele>2.0</ele><time>2026-03-30T06:28:24.998Z</time></trkpt><trkpt lat="42.09832903390183" lon="11.784882887076947"><ele>2.0</ele><time>2026-03-30T06:28:25.998Z</time></trkpt><trkpt lat="42.098211818657084" lon="11.784933080352385"><ele>2.0</ele><time>2026-03-30T06:28:26.998Z</time></trkpt><trkpt lat="42.098088600752895" lon="11.784988048663141"><ele>1.75</ele><time>2026-03-30T06:28:27.998Z</time></trkpt><trkpt lat="42.09796431526606" lon="11.785050226073958"><ele>1.5</ele><time>2026-03-30T06:28:28.998Z</time></trkpt><trkpt lat="42.097846190443065" lon="11.785115056745129"><ele>1.25</ele><time>2026-03-30T06:28:29.998Z</time></trkpt><trkpt lat="42.09773336525101" lon="11.785180044048138"><ele>1.0</ele><time>2026-03-30T06:28:30.998Z</time></trkpt><trkpt lat="42.097625840213595" lon="11.7852399363747"><ele>1.0</ele><time>2026-03-30T06:28:31.998Z</time></trkpt><trkpt lat="42.09752196820543" lon="11.785293907087432"><ele>1.0</ele><time>2026-03-30T06:28:32.998Z</time></trkpt><trkpt lat="42.09741932262208" lon="11.78534512947627"><ele>1.0</ele><time>2026-03-30T06:28:33.998Z</time></trkpt><trkpt lat="42.09731769591076" lon="11.785399054816747"><ele>1.0</ele><time>2026-03-30T06:28:34.998Z</time></trkpt><trkpt lat="42.097215438817535" lon="11.785459508487214"><ele>1.0</ele><time>2026-03-30T06:28:35.998Z</time></trkpt><trkpt lat="42.097116888459276" lon="11.785522685793474"><ele>1.4</ele><time>2026-03-30T06:28:36.998Z</time></trkpt><trkpt lat="42.09702289965003" lon="11.785595498887854"><ele>1.8</ele><time>2026-03-30T06:28:37.998Z</time></trkpt><trkpt lat="42.096932652081996" lon="11.78568013698546"><ele>2.1999999999999997</ele><time>2026-03-30T06:28:38.998Z</time></trkpt><trkpt lat="42.09684754698905" lon="11.785773067455601"><ele>2.6</ele><time>2026-03-30T06:28:39.999Z</time></trkpt><trkpt lat="42.09676977951526" lon="11.785869479082438"><ele>3.0</ele><time>2026-03-30T06:28:40.999Z</time></trkpt><trkpt lat="42.096700276769155" lon="11.785960319591743"><ele>3.0</ele><time>2026-03-30T06:28:41.999Z</time></trkpt><trkpt lat="42.09663315597955" lon="11.786037731645113"><ele>3.0</ele><time>2026-03-30T06:28:42.999Z</time></trkpt><trkpt lat="42.096573424375194" lon="11.78610145084652"><ele>3.0</ele><time>2026-03-30T06:28:43.999Z</time></trkpt><trkpt lat="42.09651956007729" lon="11.786155635188535"><ele>3.0</ele><time>2026-03-30T06:28:44.999Z</time></trkpt><trkpt lat="42.09646770530233" lon="11.78620464449782"><ele>3.0</ele><time>2026-03-30T06:28:45.999Z</time></trkpt><trkpt lat="42.096365237199" lon="11.786284449013031"><ele>3.0</ele><time>2026-03-30T06:28:47.999Z</time></trkpt><trkpt lat="42.09629539576734" lon="11.786383224671187"><ele>2.8</ele><time>2026-03-30T06:28:49.999Z</time></trkpt><trkpt lat="42.09627851016843" lon="11.786507603604745"><ele>2.5999999999999996</ele><time>2026-03-30T06:28:51.999Z</time></trkpt><trkpt lat="42.0962952002914" lon="11.78665472656764"><ele>2.4000000000000004</ele><time>2026-03-30T06:28:53.999Z</time></trkpt><trkpt lat="42.096397541956904" lon="11.786689781579728"><ele>2.2</ele><time>2026-03-30T06:28:54.999Z</time></trkpt><trkpt lat="42.09647036558647" lon="11.786716320580455"><ele>2.0</ele><time>2026-03-30T06:28:55.999Z</time></trkpt><trkpt lat="42.09655202873342" lon="11.786729368330516"><ele>2.1666666666666665</ele><time>2026-03-30T06:28:56.999Z</time></trkpt><trkpt lat="42.09663681432172" lon="11.786738351760622"><ele>2.333333333333333</ele><time>2026-03-30T06:28:57.999Z</time></trkpt><trkpt lat="42.09672407255853" lon="11.786741034984779"><ele>2.5</ele><time>2026-03-30T06:28:58.999Z</time></trkpt><trkpt lat="42.09680915473142" lon="11.786733810448998"><ele>2.6666666666666665</ele><time>2026-03-30T06:28:59.999Z</time></trkpt><trkpt lat="42.0969012855401" lon="11.786709000534836"><ele>2.8333333333333335</ele><time>2026-03-30T06:29:00.999Z</time></trkpt><trkpt lat="42.09699243744401" lon="11.786668538061472"><ele>3.0</ele><time>2026-03-30T06:29:01.999Z</time></trkpt><trkpt lat="42.09707493404275" lon="11.786614439436466"><ele>3.0</ele><time>2026-03-30T06:29:02.999Z</time></trkpt><trkpt lat="42.097147561164064" lon="11.786558194638525"><ele>3.0</ele><time>2026-03-30T06:29:03.999Z</time></trkpt><trkpt lat="42.09721665355315" lon="11.78650028801126"><ele>3.0</ele><time>2026-03-30T06:29:04.999Z</time></trkpt><trkpt lat="42.09728766006586" lon="11.786438487971086"><ele>3.0</ele><time>2026-03-30T06:29:05.999Z</time></trkpt><trkpt lat="42.09736268062337" lon="11.786373077851033"><ele>3.0</ele><time>2026-03-30T06:29:06.999Z</time></trkpt><trkpt lat="42.09744123202285" lon="11.786302564711121"><ele>3.0</ele><time>2026-03-30T06:29:07.999Z</time></trkpt><trkpt lat="42.09752086839729" lon="11.786229864833523"><ele>2.8333333333333335</ele><time>2026-03-30T06:29:08.999Z</time></trkpt><trkpt lat="42.097600902502" lon="11.786154958355208"><ele>2.6666666666666665</ele><time>2026-03-30T06:29:09.999Z</time></trkpt><trkpt lat="42.097672375642965" lon="11.78607990856151"><ele>2.5</ele><time>2026-03-30T06:29:10.999Z</time></trkpt><trkpt lat="42.09773299228932" lon="11.78600421077611"><ele>2.333333333333333</ele><time>2026-03-30T06:29:11.999Z</time></trkpt><trkpt lat="42.09778168825862" lon="11.785936252664783"><ele>2.1666666666666665</ele><time>2026-03-30T06:29:12.999Z</time></trkpt><trkpt lat="42.097827715684126" lon="11.785872751534296"><ele>2.0</ele><time>2026-03-30T06:29:13.999Z</time></trkpt><trkpt lat="42.09791017601557" lon="11.785771271496204"><ele>1.9999999999999998</ele><time>2026-03-30T06:29:15.999Z</time></trkpt><trkpt lat="42.09800147111114" lon="11.78571396706294"><ele>2.0</ele><time>2026-03-30T06:29:17.999Z</time></trkpt><trkpt lat="42.098085564403604" lon="11.785752992751895"><ele>2.0</ele><time>2026-03-30T06:29:19.999Z</time></trkpt><trkpt lat="42.098145669721966" lon="11.785856773524385"><ele>2.0</ele><time>2026-03-30T06:29:21.999Z</time></trkpt><trkpt lat="42.098116447667984" lon="11.785953455134893"><ele>1.9999999999999998</ele><time>2026-03-30T06:29:22.999Z</time></trkpt><trkpt lat="42.09808765303122" lon="11.786031187879832"><ele>2.0</ele><time>2026-03-30T06:29:23.999Z</time></trkpt><trkpt lat="42.09798079182823" lon="11.786166953482518"><ele>1.9999999999999998</ele><time>2026-03-30T06:29:25.999Z</time></trkpt><trkpt lat="42.09791675013866" lon="11.786232873192079"><ele>2.0</ele><time>2026-03-30T06:29:26.999Z</time></trkpt><trkpt lat="42.09785025147505" lon="11.786299940986801"><ele>2.0</ele><time>2026-03-30T06:29:27.999Z</time></trkpt><trkpt lat="42.09778327621888" lon="11.786369036088303"><ele>2.0</ele><time>2026-03-30T06:29:28.999Z</time></trkpt><trkpt lat="42.09771237504221" lon="11.786442677612763"><ele>1.9999999999999998</ele><time>2026-03-30T06:29:29.999Z</time></trkpt><trkpt lat="42.09763962616576" lon="11.786517645197176"><ele>2.0</ele><time>2026-03-30T06:29:30.999Z</time></trkpt><trkpt lat="42.09757238367255" lon="11.786584437748893"><ele>1.9999999999999998</ele><time>2026-03-30T06:29:31.999Z</time></trkpt><trkpt lat="42.097510707947265" lon="11.786647802176052"><ele>2.0</ele><time>2026-03-30T06:29:32.999Z</time></trkpt><trkpt lat="42.09745146231276" lon="11.78670727507877"><ele>2.0</ele><time>2026-03-30T06:29:33.999Z</time></trkpt><trkpt lat="42.09739918877635" lon="11.786758200653681"><ele>2.0</ele><time>2026-03-30T06:29:34.999Z</time></trkpt><trkpt lat="42.09729972886066" lon="11.78685239931593"><ele>1.9999999999999998</ele><time>2026-03-30T06:29:36.999Z</time></trkpt><trkpt lat="42.097217641582034" lon="11.786941608880495"><ele>2.0</ele><time>2026-03-30T06:29:38.999Z</time></trkpt><trkpt lat="42.09713526398355" lon="11.787044849242061"><ele>2.571428571428571</ele><time>2026-03-30T06:29:40.999Z</time></trkpt><trkpt lat="42.097088291308836" lon="11.787102406995066"><ele>3.1428571428571423</ele><time>2026-03-30T06:29:41.999Z</time></trkpt><trkpt lat="42.09703840941763" lon="11.78716547754657"><ele>3.714285714285714</ele><time>2026-03-30T06:29:42.999Z</time></trkpt><trkpt lat="42.09700418898674" lon="11.787249803466874"><ele>4.285714285714286</ele><time>2026-03-30T06:29:43.999Z</time></trkpt><trkpt lat="42.09699129285371" lon="11.787342900983859"><ele>4.857142857142857</ele><time>2026-03-30T06:29:44.999Z</time></trkpt><trkpt lat="42.09700131298909" lon="11.7874356566584"><ele>5.428571428571428</ele><time>2026-03-30T06:29:45.999Z</time></trkpt><trkpt lat="42.09702222519978" lon="11.78752653281768"><ele>6.0</ele><time>2026-03-30T06:29:46.999Z</time></trkpt><trkpt lat="42.097046796659185" lon="11.787621100185012"><ele>6.0</ele><time>2026-03-30T06:29:47.999Z</time></trkpt><trkpt lat="42.09707259435529" lon="11.787719369238804"><ele>6.0</ele><time>2026-03-30T06:29:48.999Z</time></trkpt><trkpt lat="42.0970930857825" lon="11.787825596072596"><ele>6.0</ele><time>2026-03-30T06:29:49.999Z</time></trkpt><trkpt lat="42.09711024967851" lon="11.78793570184906"><ele>6.0</ele><time>2026-03-30T06:29:50.999Z</time></trkpt><trkpt lat="42.097123811629515" lon="11.788045575268379"><ele>6.0</ele><time>2026-03-30T06:29:51.999Z</time></trkpt><trkpt lat="42.09713225448134" lon="11.78814681160085"><ele>6.0</ele><time>2026-03-30T06:29:52.999Z</time></trkpt><trkpt lat="42.09713512276001" lon="11.78823727116818"><ele>6.0</ele><time>2026-03-30T06:29:53.999Z</time></trkpt><trkpt lat="42.097130881935044" lon="11.788401308159555"><ele>6.0</ele><time>2026-03-30T06:29:55.999Z</time></trkpt><trkpt lat="42.097124686677375" lon="11.788487933286108"><ele>6.0</ele><time>2026-03-30T06:29:56.999Z</time></trkpt><trkpt lat="42.097115119401685" lon="11.788578629094017"><ele>6.0</ele><time>2026-03-30T06:29:57.999Z</time></trkpt><trkpt lat="42.0970997876172" lon="11.788665885342407"><ele>6.0</ele><time>2026-03-30T06:29:58.999Z</time></trkpt><trkpt lat="42.09706640741878" lon="11.788813589828715"><ele>6.0</ele><time>2026-03-30T06:30:00.999Z</time></trkpt><trkpt lat="42.097031800070326" lon="11.788928554906354"><ele>6.166666666666667</ele><time>2026-03-30T06:30:02.999Z</time></trkpt><trkpt lat="42.09699671473226" lon="11.789020476712578"><ele>6.333333333333334</ele><time>2026-03-30T06:30:05.999Z</time></trkpt><trkpt lat="42.09697100228735" lon="11.789098068047203"><ele>6.5</ele><time>2026-03-30T06:30:09.999Z</time></trkpt><trkpt lat="42.09694018480616" lon="11.789177650953924"><ele>6.666666666666667</ele><time>2026-03-30T06:30:17.999Z</time></trkpt><trkpt lat="42.09690227133018" lon="11.789254464414975"><ele>6.833333333333334</ele><time>2026-03-30T06:30:25.999Z</time></trkpt><trkpt lat="42.09683242665661" lon="11.789359475175134"><ele>7.0</ele><time>2026-03-30T06:30:29.999Z</time></trkpt><trkpt lat="42.09675068342804" lon="11.789427387721426"><ele>7.0</ele><time>2026-03-30T06:30:31.999Z</time></trkpt><trkpt lat="42.096641716353595" lon="11.78945953168548"><ele>6.999999999999999</ele><time>2026-03-30T06:30:33.999Z</time></trkpt><trkpt lat="42.09657946528772" lon="11.789472633615507"><ele>6.999999999999999</ele><time>2026-03-30T06:30:34.999Z</time></trkpt><trkpt lat="42.09646161893218" lon="11.789505682468297"><ele>7.0</ele><time>2026-03-30T06:30:36.999Z</time></trkpt><trkpt lat="42.09636104774954" lon="11.789531075259198"><ele>7.0</ele><time>2026-03-30T06:30:38.999Z</time></trkpt><trkpt lat="42.09629418384074" lon="11.789546460364226"><ele>7.500000000000001</ele><time>2026-03-30T06:30:40.999Z</time></trkpt><trkpt lat="42.09621380047955" lon="11.789566972297921"><ele>8.0</ele><time>2026-03-30T06:30:43.998Z</time></trkpt><trkpt lat="42.09614625571323" lon="11.789587648403495"><ele>8.5</ele><time>2026-03-30T06:30:45.999Z</time></trkpt><trkpt lat="42.09607926646886" lon="11.789609633962817"><ele>9.0</ele><time>2026-03-30T06:30:47.999Z</time></trkpt><trkpt lat="42.09599870896946" lon="11.789629109424219"><ele>9.5</ele><time>2026-03-30T06:30:49.999Z</time></trkpt><trkpt lat="42.09590536186164" lon="11.789656663642203"><ele>10.0</ele><time>2026-03-30T06:30:51.999Z</time></trkpt><trkpt lat="42.095807069132135" lon="11.789675732425538"><ele>10.0</ele><time>2026-03-30T06:30:53.999Z</time></trkpt><trkpt lat="42.095723392136094" lon="11.789698336717672"><ele>10.0</ele><time>2026-03-30T06:30:55.999Z</time></trkpt><trkpt lat="42.095650216092444" lon="11.789712744449838"><ele>10.0</ele><time>2026-03-30T06:30:57.999Z</time></trkpt><trkpt lat="42.09555895876249" lon="11.789731274837349"><ele>10.0</ele><time>2026-03-30T06:30:59.999Z</time></trkpt><trkpt lat="42.095452681786746" lon="11.789758303114859"><ele>10.0</ele><time>2026-03-30T06:31:01.999Z</time></trkpt><trkpt lat="42.09533924615207" lon="11.789784386700768"><ele>10.0</ele><time>2026-03-30T06:31:03.999Z</time></trkpt><trkpt lat="42.0952686707914" lon="11.789801649208638"><ele>10.0</ele><time>2026-03-30T06:31:04.999Z</time></trkpt><trkpt lat="42.09519315093238" lon="11.789819947036618"><ele>10.0</ele><time>2026-03-30T06:31:05.999Z</time></trkpt><trkpt lat="42.09512394021306" lon="11.789836788594277"><ele>10.0</ele><time>2026-03-30T06:31:06.999Z</time></trkpt><trkpt lat="42.09505933165361" lon="11.789850481716353"><ele>10.0</ele><time>2026-03-30T06:31:07.999Z</time></trkpt><trkpt lat="42.0949452012861" lon="11.789880378802195"><ele>10.0</ele><time>2026-03-30T06:31:09.999Z</time></trkpt><trkpt lat="42.094830599142426" lon="11.789903496009687"><ele>9.666666666666668</ele><time>2026-03-30T06:31:11.999Z</time></trkpt><trkpt lat="42.094767851676835" lon="11.789928687905427"><ele>9.333333333333334</ele><time>2026-03-30T06:31:12.999Z</time></trkpt><trkpt lat="42.094704633715494" lon="11.789978868827825"><ele>9.0</ele><time>2026-03-30T06:31:13.999Z</time></trkpt><trkpt lat="42.09464370816471" lon="11.79002346440059"><ele>8.666666666666666</ele><time>2026-03-30T06:31:14.999Z</time></trkpt><trkpt lat="42.09453497328194" lon="11.790105393951803"><ele>8.333333333333332</ele><time>2026-03-30T06:31:16.999Z</time></trkpt><trkpt lat="42.09447805371638" lon="11.790155284533203"><ele>8.0</ele><time>2026-03-30T06:31:17.999Z</time></trkpt><trkpt lat="42.09441685820653" lon="11.790209397840057"><ele>9.166666666666666</ele><time>2026-03-30T06:31:18.999Z</time></trkpt><trkpt lat="42.09434985082281" lon="11.790267281918997"><ele>10.333333333333332</ele><time>2026-03-30T06:31:19.999Z</time></trkpt><trkpt lat="42.094277864844244" lon="11.79032783995771"><ele>11.5</ele><time>2026-03-30T06:31:20.999Z</time></trkpt><trkpt lat="42.0941997916742" lon="11.790386207614858"><ele>12.666666666666666</ele><time>2026-03-30T06:31:21.999Z</time></trkpt><trkpt lat="42.09411675590718" lon="11.790445284767415"><ele>13.833333333333334</ele><time>2026-03-30T06:31:22.999Z</time></trkpt><trkpt lat="42.094029222310965" lon="11.790506022299033"><ele>15.0</ele><time>2026-03-30T06:31:23.999Z</time></trkpt><trkpt lat="42.09393828234461" lon="11.79056194708134"><ele>15.8</ele><time>2026-03-30T06:31:24.999Z</time></trkpt><trkpt lat="42.09384319606449" lon="11.790616421663255"><ele>16.6</ele><time>2026-03-30T06:31:25.999Z</time></trkpt><trkpt lat="42.093751639191034" lon="11.790670680411816"><ele>17.4</ele><time>2026-03-30T06:31:26.999Z</time></trkpt><trkpt lat="42.09366648568203" lon="11.790717392919504"><ele>18.2</ele><time>2026-03-30T06:31:27.999Z</time></trkpt><trkpt lat="42.09358537297832" lon="11.790762397193138"><ele>19.0</ele><time>2026-03-30T06:31:28.999Z</time></trkpt><trkpt lat="42.093509178228935" lon="11.790802848786765"><ele>19.0</ele><time>2026-03-30T06:31:29.999Z</time></trkpt><trkpt lat="42.09343360906644" lon="11.790846440687014"><ele>19.0</ele><time>2026-03-30T06:31:30.999Z</time></trkpt><trkpt lat="42.093349498405935" lon="11.790880810385866"><ele>19.0</ele><time>2026-03-30T06:31:31.999Z</time></trkpt><trkpt lat="42.093269792458514" lon="11.790936164821693"><ele>19.0</ele><time>2026-03-30T06:31:32.999Z</time></trkpt><trkpt lat="42.09318548938592" lon="11.79099394502843"><ele>19.0</ele><time>2026-03-30T06:31:33.999Z</time></trkpt><trkpt lat="42.09310509476668" lon="11.791051417021622"><ele>19.0</ele><time>2026-03-30T06:31:34.999Z</time></trkpt><trkpt lat="42.09303272619622" lon="11.791110846597977"><ele>18.666666666666664</ele><time>2026-03-30T06:31:35.999Z</time></trkpt><trkpt lat="42.0929609685964" lon="11.791152823580388"><ele>18.333333333333332</ele><time>2026-03-30T06:31:36.999Z</time></trkpt><trkpt lat="42.09289614656258" lon="11.791198749048338"><ele>18.0</ele><time>2026-03-30T06:31:37.999Z</time></trkpt><trkpt lat="42.09283572950919" lon="11.791253773677738"><ele>17.666666666666668</ele><time>2026-03-30T06:31:38.999Z</time></trkpt><trkpt lat="42.09277001549749" lon="11.791302134636451"><ele>17.333333333333336</ele><time>2026-03-30T06:31:39.999Z</time></trkpt><trkpt lat="42.0927035728372" lon="11.791354300948125"><ele>17.0</ele><time>2026-03-30T06:31:40.999Z</time></trkpt><trkpt lat="42.09263258287996" lon="11.791411103312424"><ele>17.0</ele><time>2026-03-30T06:31:41.999Z</time></trkpt><trkpt lat="42.0925685447471" lon="11.791491385758196"><ele>17.0</ele><time>2026-03-30T06:31:42.999Z</time></trkpt><trkpt lat="42.09249339922799" lon="11.79155228770182"><ele>17.0</ele><time>2026-03-30T06:31:43.999Z</time></trkpt><trkpt lat="42.092417796116955" lon="11.791623619130625"><ele>17.0</ele><time>2026-03-30T06:31:45.999Z</time></trkpt><trkpt lat="42.09232880794516" lon="11.791692289585722"><ele>17.0</ele><time>2026-03-30T06:31:48.999Z</time></trkpt><trkpt lat="42.09222098876085" lon="11.791789887441393"><ele>16.666666666666668</ele><time>2026-03-30T06:31:50.999Z</time></trkpt><trkpt lat="42.092162651567975" lon="11.791845612502645"><ele>16.333333333333336</ele><time>2026-03-30T06:31:51.999Z</time></trkpt><trkpt lat="42.09207804929676" lon="11.791929918731276"><ele>16.0</ele><time>2026-03-30T06:31:53.999Z</time></trkpt><trkpt lat="42.09200390545129" lon="11.79199861898644"><ele>15.666666666666668</ele><time>2026-03-30T06:31:55.999Z</time></trkpt><trkpt lat="42.09194460704647" lon="11.792066974938287"><ele>15.333333333333334</ele><time>2026-03-30T06:31:58.999Z</time></trkpt><trkpt lat="42.09188489022065" lon="11.792124052694943"><ele>15.0</ele><time>2026-03-30T06:32:02.999Z</time></trkpt><trkpt lat="42.09180529696253" lon="11.792186046352013"><ele>15.0</ele><time>2026-03-30T06:32:05.999Z</time></trkpt><trkpt lat="42.09173006674782" lon="11.792258125560666"><ele>15.0</ele><time>2026-03-30T06:32:07.999Z</time></trkpt><trkpt lat="42.091666656851565" lon="11.792323930012344"><ele>15.0</ele><time>2026-03-30T06:32:09.999Z</time></trkpt><trkpt lat="42.0915913800251" lon="11.792392408047343"><ele>15.0</ele><time>2026-03-30T06:32:11.999Z</time></trkpt><trkpt lat="42.0915053886593" lon="11.792469146414575"><ele>15.0</ele><time>2026-03-30T06:32:13.999Z</time></trkpt><trkpt lat="42.09142419069114" lon="11.792537738047331"><ele>15.0</ele><time>2026-03-30T06:32:15.999Z</time></trkpt><trkpt lat="42.09135729808438" lon="11.79259105236155"><ele>15.0</ele><time>2026-03-30T06:32:17.999Z</time></trkpt><trkpt lat="42.09127780203806" lon="11.792668274420498"><ele>15.0</ele><time>2026-03-30T06:32:19.999Z</time></trkpt><trkpt lat="42.091208771773545" lon="11.792727056160237"><ele>15.0</ele><time>2026-03-30T06:32:21.999Z</time></trkpt><trkpt lat="42.09113619783063" lon="11.792787426014101"><ele>15.0</ele><time>2026-03-30T06:32:24.999Z</time></trkpt><trkpt lat="42.091048601391094" lon="11.792803084817125"><ele>15.0</ele><time>2026-03-30T06:32:27.999Z</time></trkpt><trkpt lat="42.0909866385741" lon="11.792765064043925"><ele>15.0</ele><time>2026-03-30T06:32:29.999Z</time></trkpt><trkpt lat="42.090919358266085" lon="11.792688473897536"><ele>15.0</ele><time>2026-03-30T06:32:31.999Z</time></trkpt><trkpt lat="42.09087735283365" lon="11.79261438972137"><ele>15.0</ele><time>2026-03-30T06:32:32.999Z</time></trkpt><trkpt lat="42.09082644145352" lon="11.792553460113096"><ele>15.0</ele><time>2026-03-30T06:32:33.999Z</time></trkpt><trkpt lat="42.09073310738247" lon="11.792453188554845"><ele>15.0</ele><time>2026-03-30T06:32:35.999Z</time></trkpt><trkpt lat="42.09066562779844" lon="11.79237445167529"><ele>15.0</ele><time>2026-03-30T06:32:37.999Z</time></trkpt><trkpt lat="42.090608434340645" lon="11.792299516149642"><ele>13.2</ele><time>2026-03-30T06:32:39.999Z</time></trkpt><trkpt lat="42.09053957641003" lon="11.792214293769465"><ele>11.4</ele><time>2026-03-30T06:32:41.999Z</time></trkpt><trkpt lat="42.090465862934884" lon="11.79219537114772"><ele>9.6</ele><time>2026-03-30T06:32:43.999Z</time></trkpt><trkpt lat="42.09040226928846" lon="11.792278798822984"><ele>7.8</ele><time>2026-03-30T06:32:45.999Z</time></trkpt><trkpt lat="42.09034867140657" lon="11.79241338052022"><ele>6.0</ele><time>2026-03-30T06:32:47.999Z</time></trkpt><trkpt lat="42.09028240270588" lon="11.792549301985318"><ele>6.0</ele><time>2026-03-30T06:32:49.998Z</time></trkpt><trkpt lat="42.090230799300166" lon="11.792649607519088"><ele>6.0</ele><time>2026-03-30T06:32:51.999Z</time></trkpt><trkpt lat="42.090181468107836" lon="11.792754620568743"><ele>6.0</ele><time>2026-03-30T06:32:54.999Z</time></trkpt><trkpt lat="42.090145478092914" lon="11.792843180298231"><ele>6.0</ele><time>2026-03-30T06:32:56.999Z</time></trkpt><trkpt lat="42.090110360853345" lon="11.792930027007408"><ele>6.0</ele><time>2026-03-30T06:32:58.999Z</time></trkpt><trkpt lat="42.09005479656434" lon="11.793035043376328"><ele>6.0</ele><time>2026-03-30T06:33:01.999Z</time></trkpt><trkpt lat="42.090013806337225" lon="11.793120737512165"><ele>6.333333333333333</ele><time>2026-03-30T06:33:03.999Z</time></trkpt><trkpt lat="42.089968724760304" lon="11.793217798018373"><ele>6.666666666666666</ele><time>2026-03-30T06:33:05.999Z</time></trkpt><trkpt lat="42.08991560148061" lon="11.793331895748302"><ele>7.0</ele><time>2026-03-30T06:33:07.999Z</time></trkpt><trkpt lat="42.089865119993085" lon="11.79343902261561"><ele>7.333333333333333</ele><time>2026-03-30T06:33:09.999Z</time></trkpt><trkpt lat="42.08982446518886" lon="11.793515176418842"><ele>7.666666666666666</ele><time>2026-03-30T06:33:11.999Z</time></trkpt><trkpt lat="42.08978896403439" lon="11.793588140686355"><ele>8.0</ele><time>2026-03-30T06:33:13.999Z</time></trkpt><trkpt lat="42.08974221172851" lon="11.793683642515347"><ele>7.0</ele><time>2026-03-30T06:33:15.999Z</time></trkpt><trkpt lat="42.089677955562394" lon="11.793811679343913"><ele>6.000000000000001</ele><time>2026-03-30T06:33:17.999Z</time></trkpt><trkpt lat="42.08963762626798" lon="11.793893652385055"><ele>5.0</ele><time>2026-03-30T06:33:18.999Z</time></trkpt><trkpt lat="42.08960438778101" lon="11.793974754726001"><ele>4.0</ele><time>2026-03-30T06:33:19.999Z</time></trkpt><trkpt lat="42.089547255121346" lon="11.794109973870126"><ele>3.0</ele><time>2026-03-30T06:33:21.999Z</time></trkpt><trkpt lat="42.089493019708144" lon="11.794229839417987"><ele>3.8</ele><time>2026-03-30T06:33:23.999Z</time></trkpt><trkpt lat="42.08943270095852" lon="11.79435608623296"><ele>4.6</ele><time>2026-03-30T06:33:25.999Z</time></trkpt><trkpt lat="42.08937849927479" lon="11.794469133492598"><ele>5.3999999999999995</ele><time>2026-03-30T06:33:27.999Z</time></trkpt><trkpt lat="42.08932821715844" lon="11.794573162444538"><ele>6.199999999999999</ele><time>2026-03-30T06:33:29.999Z</time></trkpt><trkpt lat="42.08926374410216" lon="11.794703700398264"><ele>7.0</ele><time>2026-03-30T06:33:31.999Z</time></trkpt><trkpt lat="42.08922570554196" lon="11.794779555233156"><ele>7.0</ele><time>2026-03-30T06:33:32.999Z</time></trkpt><trkpt lat="42.08918536472958" lon="11.794858807474606"><ele>6.999999999999999</ele><time>2026-03-30T06:33:33.999Z</time></trkpt><trkpt lat="42.089149235380596" lon="11.794934421450272"><ele>6.999999999999999</ele><time>2026-03-30T06:33:34.999Z</time></trkpt><trkpt lat="42.08908893078452" lon="11.795071998337233"><ele>7.0</ele><time>2026-03-30T06:33:36.999Z</time></trkpt><trkpt lat="42.089030158302116" lon="11.795197983644485"><ele>7.0</ele><time>2026-03-30T06:33:38.999Z</time></trkpt><trkpt lat="42.08898382304089" lon="11.795299980438665"><ele>6.199999999999999</ele><time>2026-03-30T06:33:40.999Z</time></trkpt><trkpt lat="42.08893826566325" lon="11.79540197530122"><ele>5.3999999999999995</ele><time>2026-03-30T06:33:42.999Z</time></trkpt><trkpt lat="42.08887715668028" lon="11.79553010846548"><ele>4.6</ele><time>2026-03-30T06:33:44.999Z</time></trkpt><trkpt lat="42.088806362295735" lon="11.795677350542798"><ele>3.8</ele><time>2026-03-30T06:33:46.999Z</time></trkpt><trkpt lat="42.0887653116959" lon="11.795761074393214"><ele>3.0</ele><time>2026-03-30T06:33:47.999Z</time></trkpt><trkpt lat="42.08872630604646" lon="11.795841244689809"><ele>2.9999999999999996</ele><time>2026-03-30T06:33:48.999Z</time></trkpt><trkpt lat="42.08868791023307" lon="11.79591959024699"><ele>3.0</ele><time>2026-03-30T06:33:49.999Z</time></trkpt><trkpt lat="42.08864834330066" lon="11.795999814880934"><ele>3.0</ele><time>2026-03-30T06:33:50.999Z</time></trkpt><trkpt lat="42.0886113455676" lon="11.796079485793085"><ele>3.0</ele><time>2026-03-30T06:33:51.999Z</time></trkpt><trkpt lat="42.08857602879901" lon="11.796155984707903"><ele>3.0</ele><time>2026-03-30T06:33:52.999Z</time></trkpt><trkpt lat="42.0885423609163" lon="11.796229213997824"><ele>2.9999999999999996</ele><time>2026-03-30T06:33:53.999Z</time></trkpt><trkpt lat="42.08848524855902" lon="11.796350354435788"><ele>3.0</ele><time>2026-03-30T06:33:55.999Z</time></trkpt><trkpt lat="42.08842440120606" lon="11.796467324542936"><ele>2.8</ele><time>2026-03-30T06:33:57.999Z</time></trkpt><trkpt lat="42.0883628661906" lon="11.796598889710536"><ele>2.5999999999999996</ele><time>2026-03-30T06:33:59.999Z</time></trkpt><trkpt lat="42.08829833561175" lon="11.796733488914008"><ele>2.4000000000000004</ele><time>2026-03-30T06:34:01.999Z</time></trkpt><trkpt lat="42.088258238037334" lon="11.796809907661347"><ele>2.2</ele><time>2026-03-30T06:34:02.999Z</time></trkpt><trkpt lat="42.08821630838213" lon="11.796897191491215"><ele>2.0</ele><time>2026-03-30T06:34:03.999Z</time></trkpt><trkpt lat="42.08817185442399" lon="11.796996271033466"><ele>3.0</ele><time>2026-03-30T06:34:04.999Z</time></trkpt><trkpt lat="42.08812420588786" lon="11.797102434862712"><ele>4.0</ele><time>2026-03-30T06:34:05.999Z</time></trkpt><trkpt lat="42.08807401124706" lon="11.797210590657581"><ele>4.999999999999999</ele><time>2026-03-30T06:34:06.999Z</time></trkpt><trkpt lat="42.088023778698975" lon="11.79731436385021"><ele>6.0</ele><time>2026-03-30T06:34:07.999Z</time></trkpt><trkpt lat="42.08797255440278" lon="11.797423706249093"><ele>7.0</ele><time>2026-03-30T06:34:08.999Z</time></trkpt><trkpt lat="42.08791719629189" lon="11.797538190173118"><ele>7.0</ele><time>2026-03-30T06:34:09.999Z</time></trkpt><trkpt lat="42.08785878212002" lon="11.797659027672328"><ele>6.999999999999999</ele><time>2026-03-30T06:34:10.999Z</time></trkpt><trkpt lat="42.08780054643973" lon="11.797783510630069"><ele>6.999999999999999</ele><time>2026-03-30T06:34:11.999Z</time></trkpt><trkpt lat="42.087740688061665" lon="11.797913045246913"><ele>7.0</ele><time>2026-03-30T06:34:12.999Z</time></trkpt><trkpt lat="42.08768149627682" lon="11.79803626925513"><ele>7.0</ele><time>2026-03-30T06:34:13.999Z</time></trkpt><trkpt lat="42.08762579739717" lon="11.798150981148837"><ele>7.333333333333334</ele><time>2026-03-30T06:34:14.999Z</time></trkpt><trkpt lat="42.087573899225355" lon="11.798259166246002"><ele>7.666666666666667</ele><time>2026-03-30T06:34:15.999Z</time></trkpt><trkpt lat="42.08752428951961" lon="11.79835992459573"><ele>8.0</ele><time>2026-03-30T06:34:16.999Z</time></trkpt><trkpt lat="42.08747997968773" lon="11.798454970830065"><ele>8.333333333333334</ele><time>2026-03-30T06:34:17.999Z</time></trkpt><trkpt lat="42.087432815959964" lon="11.798555262705538"><ele>8.666666666666666</ele><time>2026-03-30T06:34:18.999Z</time></trkpt><trkpt lat="42.08738801792262" lon="11.798651644206066"><ele>9.0</ele><time>2026-03-30T06:34:19.999Z</time></trkpt><trkpt lat="42.08734600924542" lon="11.798737689383975"><ele>8.333333333333334</ele><time>2026-03-30T06:34:20.999Z</time></trkpt><trkpt lat="42.087306250216855" lon="11.798820622236013"><ele>7.666666666666667</ele><time>2026-03-30T06:34:21.999Z</time></trkpt><trkpt lat="42.0872657340038" lon="11.79890294939025"><ele>7.0</ele><time>2026-03-30T06:34:22.999Z</time></trkpt><trkpt lat="42.08722314633405" lon="11.798991799851098"><ele>6.333333333333334</ele><time>2026-03-30T06:34:23.999Z</time></trkpt><trkpt lat="42.087178632764285" lon="11.799090387407754"><ele>5.666666666666667</ele><time>2026-03-30T06:34:24.999Z</time></trkpt><trkpt lat="42.087129371699916" lon="11.799195425004699"><ele>5.0</ele><time>2026-03-30T06:34:25.999Z</time></trkpt><trkpt lat="42.08707851381454" lon="11.799306314156375"><ele>5.4</ele><time>2026-03-30T06:34:26.999Z</time></trkpt><trkpt lat="42.087025967927204" lon="11.79942389102384"><ele>5.8</ele><time>2026-03-30T06:34:27.999Z</time></trkpt><trkpt lat="42.08696807463856" lon="11.799545781669948"><ele>6.199999999999999</ele><time>2026-03-30T06:34:28.999Z</time></trkpt><trkpt lat="42.086907682786794" lon="11.79967098587868"><ele>6.6</ele><time>2026-03-30T06:34:29.999Z</time></trkpt><trkpt lat="42.08684613305936" lon="11.799799925645674"><ele>7.0</ele><time>2026-03-30T06:34:30.999Z</time></trkpt><trkpt lat="42.086782864178325" lon="11.799931155728702"><ele>7.0</ele><time>2026-03-30T06:34:31.999Z</time></trkpt><trkpt lat="42.086720656645205" lon="11.800061327139904"><ele>7.0</ele><time>2026-03-30T06:34:32.999Z</time></trkpt><trkpt lat="42.08665677825004" lon="11.80019504534983"><ele>7.0</ele><time>2026-03-30T06:34:33.999Z</time></trkpt><trkpt lat="42.08659569870888" lon="11.800318762156618"><ele>7.0</ele><time>2026-03-30T06:34:34.999Z</time></trkpt><trkpt lat="42.08653605468235" lon="11.800443461108769"><ele>7.0</ele><time>2026-03-30T06:34:35.999Z</time></trkpt><trkpt lat="42.08647672045394" lon="11.800572302099564"><ele>7.0</ele><time>2026-03-30T06:34:36.999Z</time></trkpt><trkpt lat="42.08641620143506" lon="11.800700244695811"><ele>7.0</ele><time>2026-03-30T06:34:37.999Z</time></trkpt><trkpt lat="42.086354127440195" lon="11.800829131231307"><ele>7.0</ele><time>2026-03-30T06:34:38.999Z</time></trkpt><trkpt lat="42.08629301083574" lon="11.800961152896923"><ele>8.25</ele><time>2026-03-30T06:34:39.999Z</time></trkpt><trkpt lat="42.08623259336877" lon="11.801093128059486"><ele>9.5</ele><time>2026-03-30T06:34:40.999Z</time></trkpt><trkpt lat="42.08616871740331" lon="11.801227417501952"><ele>10.75</ele><time>2026-03-30T06:34:41.999Z</time></trkpt><trkpt lat="42.0860992190425" lon="11.801361824213478"><ele>12.0</ele><time>2026-03-30T06:34:42.999Z</time></trkpt><trkpt lat="42.08602213968854" lon="11.801491070774961"><ele>12.0</ele><time>2026-03-30T06:34:43.999Z</time></trkpt><trkpt lat="42.08593851837172" lon="11.801618848989635"><ele>12.0</ele><time>2026-03-30T06:34:44.999Z</time></trkpt><trkpt lat="42.08585229435659" lon="11.801744954834257"><ele>12.0</ele><time>2026-03-30T06:34:45.999Z</time></trkpt><trkpt lat="42.085766193597905" lon="11.801869703777246"><ele>12.0</ele><time>2026-03-30T06:34:46.999Z</time></trkpt><trkpt lat="42.08568030464776" lon="11.80198809030631"><ele>12.25</ele><time>2026-03-30T06:34:47.999Z</time></trkpt><trkpt lat="42.0855939609779" lon="11.802108405067743"><ele>12.5</ele><time>2026-03-30T06:34:48.999Z</time></trkpt><trkpt lat="42.08550773643695" lon="11.802232461314372"><ele>12.75</ele><time>2026-03-30T06:34:49.999Z</time></trkpt><trkpt lat="42.08542118648374" lon="11.802358777003764"><ele>13.0</ele><time>2026-03-30T06:34:50.999Z</time></trkpt><trkpt lat="42.085335853628074" lon="11.802470854245865"><ele>13.0</ele><time>2026-03-30T06:34:51.999Z</time></trkpt><trkpt lat="42.08525315825477" lon="11.80257666381795"><ele>13.0</ele><time>2026-03-30T06:34:52.999Z</time></trkpt><trkpt lat="42.085172961743126" lon="11.802684284052818"><ele>13.0</ele><time>2026-03-30T06:34:53.999Z</time></trkpt><trkpt lat="42.08509478594233" lon="11.802796873729484"><ele>13.0</ele><time>2026-03-30T06:34:54.999Z</time></trkpt><trkpt lat="42.08501614555604" lon="11.802911378227941"><ele>13.0</ele><time>2026-03-30T06:34:55.999Z</time></trkpt><trkpt lat="42.08493278729277" lon="11.803023013684289"><ele>13.0</ele><time>2026-03-30T06:34:56.999Z</time></trkpt><trkpt lat="42.08485679545175" lon="11.80312856253307"><ele>13.0</ele><time>2026-03-30T06:34:57.999Z</time></trkpt><trkpt lat="42.08478704897204" lon="11.803225344084941"><ele>13.0</ele><time>2026-03-30T06:34:58.999Z</time></trkpt><trkpt lat="42.08471978666299" lon="11.803322081229267"><ele>13.0</ele><time>2026-03-30T06:34:59.999Z</time></trkpt><trkpt lat="42.08465063353747" lon="11.803421589006534"><ele>13.2</ele><time>2026-03-30T06:35:00.999Z</time></trkpt><trkpt lat="42.08458259926258" lon="11.803514779294254"><ele>13.4</ele><time>2026-03-30T06:35:01.999Z</time></trkpt><trkpt lat="42.08451377198391" lon="11.803607835275491"><ele>13.599999999999998</ele><time>2026-03-30T06:35:02.999Z</time></trkpt><trkpt lat="42.0844428931005" lon="11.803702485131451"><ele>13.799999999999999</ele><time>2026-03-30T06:35:03.999Z</time></trkpt><trkpt lat="42.08437142513958" lon="11.803800910362984"><ele>14.0</ele><time>2026-03-30T06:35:04.999Z</time></trkpt><trkpt lat="42.08429908161143" lon="11.803898726155944"><ele>14.0</ele><time>2026-03-30T06:35:05.999Z</time></trkpt><trkpt lat="42.08422663376275" lon="11.803996441273195"><ele>13.999999999999998</ele><time>2026-03-30T06:35:06.999Z</time></trkpt><trkpt lat="42.084153011623265" lon="11.804094794835486"><ele>13.999999999999998</ele><time>2026-03-30T06:35:07.999Z</time></trkpt><trkpt lat="42.08407970659773" lon="11.804195497995448"><ele>14.0</ele><time>2026-03-30T06:35:08.999Z</time></trkpt><trkpt lat="42.08401071379826" lon="11.804292337540522"><ele>14.0</ele><time>2026-03-30T06:35:09.999Z</time></trkpt><trkpt lat="42.08394210662719" lon="11.80438680787666"><ele>13.666666666666668</ele><time>2026-03-30T06:35:10.999Z</time></trkpt><trkpt lat="42.083876244652096" lon="11.804474903276143"><ele>13.333333333333334</ele><time>2026-03-30T06:35:11.999Z</time></trkpt><trkpt lat="42.08381580817062" lon="11.804552858681383"><ele>13.0</ele><time>2026-03-30T06:35:12.999Z</time></trkpt><trkpt lat="42.083759189020356" lon="11.804625978658349"><ele>12.666666666666668</ele><time>2026-03-30T06:35:13.999Z</time></trkpt><trkpt lat="42.08370046194459" lon="11.804700968709803"><ele>12.333333333333334</ele><time>2026-03-30T06:35:14.999Z</time></trkpt><trkpt lat="42.083643537700645" lon="11.80477657169615"><ele>12.0</ele><time>2026-03-30T06:35:15.999Z</time></trkpt><trkpt lat="42.0835929757884" lon="11.80484750965162"><ele>11.999999999999998</ele><time>2026-03-30T06:35:16.999Z</time></trkpt><trkpt lat="42.08354760198487" lon="11.804909555701157"><ele>12.0</ele><time>2026-03-30T06:35:17.999Z</time></trkpt><trkpt lat="42.083503599974875" lon="11.804972616112105"><ele>12.0</ele><time>2026-03-30T06:35:18.999Z</time></trkpt><trkpt lat="42.08346005680859" lon="11.80503667365577"><ele>12.0</ele><time>2026-03-30T06:35:19.999Z</time></trkpt><trkpt lat="42.08341291679669" lon="11.805104968162759"><ele>12.0</ele><time>2026-03-30T06:35:20.999Z</time></trkpt><trkpt lat="42.083363046696384" lon="11.805177336521583"><ele>11.999999999999998</ele><time>2026-03-30T06:35:21.999Z</time></trkpt><trkpt lat="42.083309232101634" lon="11.80525233365589"><ele>12.0</ele><time>2026-03-30T06:35:22.999Z</time></trkpt><trkpt lat="42.083252232688544" lon="11.805325294775253"><ele>11.833333333333334</ele><time>2026-03-30T06:35:23.999Z</time></trkpt><trkpt lat="42.08319401268161" lon="11.805399933817535"><ele>11.666666666666666</ele><time>2026-03-30T06:35:24.999Z</time></trkpt><trkpt lat="42.083127541451304" lon="11.805488010510805"><ele>11.5</ele><time>2026-03-30T06:35:25.999Z</time></trkpt><trkpt lat="42.0830646300156" lon="11.805559700269233"><ele>11.333333333333332</ele><time>2026-03-30T06:35:26.999Z</time></trkpt><trkpt lat="42.08301408396335" lon="11.805623336489061"><ele>11.166666666666666</ele><time>2026-03-30T06:35:27.999Z</time></trkpt><trkpt lat="42.08296760636384" lon="11.805695663485347"><ele>11.0</ele><time>2026-03-30T06:35:28.999Z</time></trkpt><trkpt lat="42.08291172182812" lon="11.805775075919986"><ele>11.0</ele><time>2026-03-30T06:35:29.999Z</time></trkpt><trkpt lat="42.08284994391158" lon="11.805853605259614"><ele>11.0</ele><time>2026-03-30T06:35:30.999Z</time></trkpt><trkpt lat="42.082781664707724" lon="11.805926164031483"><ele>11.0</ele><time>2026-03-30T06:35:31.999Z</time></trkpt><trkpt lat="42.082706188777244" lon="11.805999140087442"><ele>11.0</ele><time>2026-03-30T06:35:32.999Z</time></trkpt><trkpt lat="42.08262999337717" lon="11.806070382410173"><ele>11.0</ele><time>2026-03-30T06:35:33.999Z</time></trkpt><trkpt lat="42.082551535102525" lon="11.806138309254496"><ele>11.0</ele><time>2026-03-30T06:35:34.999Z</time></trkpt><trkpt lat="42.082474815061374" lon="11.806196603234973"><ele>11.0</ele><time>2026-03-30T06:35:35.999Z</time></trkpt><trkpt lat="42.08239328719979" lon="11.806254781824052"><ele>11.0</ele><time>2026-03-30T06:35:36.999Z</time></trkpt><trkpt lat="42.0823104914442" lon="11.806305098790157"><ele>11.0</ele><time>2026-03-30T06:35:37.999Z</time></trkpt><trkpt lat="42.08223549168272" lon="11.806343701930455"><ele>11.0</ele><time>2026-03-30T06:35:38.999Z</time></trkpt><trkpt lat="42.08216000541603" lon="11.806380155281225"><ele>11.0</ele><time>2026-03-30T06:35:39.999Z</time></trkpt><trkpt lat="42.08207257243136" lon="11.80642402921701"><ele>10.25</ele><time>2026-03-30T06:35:40.999Z</time></trkpt><trkpt lat="42.08197462373992" lon="11.806473727287855"><ele>9.5</ele><time>2026-03-30T06:35:41.999Z</time></trkpt><trkpt lat="42.08186762829791" lon="11.806531825478872"><ele>8.75</ele><time>2026-03-30T06:35:42.999Z</time></trkpt><trkpt lat="42.081755062378065" lon="11.806593994903029"><ele>8.0</ele><time>2026-03-30T06:35:43.999Z</time></trkpt><trkpt lat="42.08163733627529" lon="11.806657465869657"><ele>8.0</ele><time>2026-03-30T06:35:44.999Z</time></trkpt><trkpt lat="42.08151332171879" lon="11.806721557949826"><ele>8.0</ele><time>2026-03-30T06:35:45.999Z</time></trkpt><trkpt lat="42.08138602612642" lon="11.806788249112198"><ele>8.0</ele><time>2026-03-30T06:35:46.999Z</time></trkpt><trkpt lat="42.0812545154253" lon="11.806859505886667"><ele>8.0</ele><time>2026-03-30T06:35:47.999Z</time></trkpt><trkpt lat="42.08112255502964" lon="11.806927631232739"><ele>8.0</ele><time>2026-03-30T06:35:48.999Z</time></trkpt><trkpt lat="42.080999783336395" lon="11.806988000979175"><ele>8.0</ele><time>2026-03-30T06:35:49.999Z</time></trkpt><trkpt lat="42.08088866515143" lon="11.807045841000459"><ele>8.0</ele><time>2026-03-30T06:35:50.999Z</time></trkpt><trkpt lat="42.080781361473015" lon="11.807099967911357"><ele>8.0</ele><time>2026-03-30T06:35:51.999Z</time></trkpt><trkpt lat="42.08067820309881" lon="11.807147908570453"><ele>8.200000000000001</ele><time>2026-03-30T06:35:52.999Z</time></trkpt><trkpt lat="42.080576534014774" lon="11.80719525506208"><ele>8.4</ele><time>2026-03-30T06:35:53.999Z</time></trkpt><trkpt lat="42.08046196283253" lon="11.80725197789635"><ele>8.600000000000001</ele><time>2026-03-30T06:35:55.999Z</time></trkpt><trkpt lat="42.08039591030178" lon="11.807282335687896"><ele>8.8</ele><time>2026-03-30T06:35:56.999Z</time></trkpt><trkpt lat="42.080323478118" lon="11.80731343825"><ele>9.0</ele><time>2026-03-30T06:35:57.999Z</time></trkpt><trkpt lat="42.0802381357013" lon="11.807350291446506"><ele>9.0</ele><time>2026-03-30T06:35:59.999Z</time></trkpt><trkpt lat="42.080148847051156" lon="11.807366370275695"><ele>9.0</ele><time>2026-03-30T06:36:04.999Z</time></trkpt><trkpt lat="42.08002284516772" lon="11.807425455963541"><ele>9.0</ele><time>2026-03-30T06:36:06.999Z</time></trkpt><trkpt lat="42.07993664518561" lon="11.80745921533234"><ele>9.0</ele><time>2026-03-30T06:36:07.999Z</time></trkpt><trkpt lat="42.07983302238145" lon="11.80749628971249"><ele>9.0</ele><time>2026-03-30T06:36:08.999Z</time></trkpt><trkpt lat="42.07971520750749" lon="11.807542390411657"><ele>8.5</ele><time>2026-03-30T06:36:09.999Z</time></trkpt><trkpt lat="42.079587014652375" lon="11.807591925388385"><ele>8.0</ele><time>2026-03-30T06:36:10.999Z</time></trkpt><trkpt lat="42.079451648703575" lon="11.807643284965213"><ele>7.5</ele><time>2026-03-30T06:36:11.999Z</time></trkpt><trkpt lat="42.07931211216811" lon="11.80769669958367"><ele>7.0</ele><time>2026-03-30T06:36:12.999Z</time></trkpt><trkpt lat="42.07916829381459" lon="11.807750905570131"><ele>7.333333333333334</ele><time>2026-03-30T06:36:13.999Z</time></trkpt><trkpt lat="42.07901939693861" lon="11.80780785310518"><ele>7.666666666666666</ele><time>2026-03-30T06:36:14.999Z</time></trkpt><trkpt lat="42.07886646442044" lon="11.80786675460106"><ele>8.0</ele><time>2026-03-30T06:36:15.999Z</time></trkpt><trkpt lat="42.07871988807659" lon="11.807917923386716"><ele>8.0</ele><time>2026-03-30T06:36:16.999Z</time></trkpt><trkpt lat="42.07857315948007" lon="11.80796318170343"><ele>8.0</ele><time>2026-03-30T06:36:17.999Z</time></trkpt><trkpt lat="42.07842893088368" lon="11.808000777821992"><ele>8.0</ele><time>2026-03-30T06:36:18.999Z</time></trkpt><trkpt lat="42.07828585494757" lon="11.808031723708686"><ele>8.0</ele><time>2026-03-30T06:36:19.999Z</time></trkpt><trkpt lat="42.07814717091905" lon="11.808057888998006"><ele>7.0</ele><time>2026-03-30T06:36:20.999Z</time></trkpt><trkpt lat="42.07800605233114" lon="11.808088870284797"><ele>6.0</ele><time>2026-03-30T06:36:21.999Z</time></trkpt><trkpt lat="42.07786266662085" lon="11.808126766663793"><ele>5.0</ele><time>2026-03-30T06:36:22.999Z</time></trkpt><trkpt lat="42.07772832192007" lon="11.808166026078766"><ele>4.0</ele><time>2026-03-30T06:36:23.999Z</time></trkpt><trkpt lat="42.07759779229205" lon="11.808210070304813"><ele>4.0</ele><time>2026-03-30T06:36:24.999Z</time></trkpt><trkpt lat="42.077477304773076" lon="11.808256492126961"><ele>4.0</ele><time>2026-03-30T06:36:25.999Z</time></trkpt><trkpt lat="42.0773632975552" lon="11.808300979994849"><ele>4.0</ele><time>2026-03-30T06:36:26.999Z</time></trkpt><trkpt lat="42.077251395053764" lon="11.80833804172841"><ele>4.0</ele><time>2026-03-30T06:36:27.999Z</time></trkpt><trkpt lat="42.07714264434504" lon="11.8083710523624"><ele>4.0</ele><time>2026-03-30T06:36:28.999Z</time></trkpt><trkpt lat="42.07703162350212" lon="11.808405245768858"><ele>4.0</ele><time>2026-03-30T06:36:29.999Z</time></trkpt><trkpt lat="42.076922602287404" lon="11.808439279283341"><ele>4.0</ele><time>2026-03-30T06:36:30.999Z</time></trkpt><trkpt lat="42.07682281721793" lon="11.80846888201852"><ele>4.0</ele><time>2026-03-30T06:36:31.999Z</time></trkpt><trkpt lat="42.07673336977815" lon="11.808492020730933"><ele>4.0</ele><time>2026-03-30T06:36:32.999Z</time></trkpt><trkpt lat="42.076649767179916" lon="11.808512227182284"><ele>5.800000000000001</ele><time>2026-03-30T06:36:33.999Z</time></trkpt><trkpt lat="42.076570055575" lon="11.808532422620516"><ele>7.6000000000000005</ele><time>2026-03-30T06:36:34.999Z</time></trkpt><trkpt lat="42.07648682873864" lon="11.808557873955166"><ele>9.4</ele><time>2026-03-30T06:36:35.999Z</time></trkpt><trkpt lat="42.07640072791453" lon="11.808585544107217"><ele>11.200000000000001</ele><time>2026-03-30T06:36:36.999Z</time></trkpt><trkpt lat="42.076307249603126" lon="11.808610627330173"><ele>13.0</ele><time>2026-03-30T06:36:37.999Z</time></trkpt><trkpt lat="42.07620704265256" lon="11.808635921080224"><ele>13.0</ele><time>2026-03-30T06:36:38.999Z</time></trkpt><trkpt lat="42.07610764591042" lon="11.808662049098114"><ele>13.0</ele><time>2026-03-30T06:36:39.999Z</time></trkpt><trkpt lat="42.07600811851341" lon="11.80869029551595"><ele>13.0</ele><time>2026-03-30T06:36:40.999Z</time></trkpt><trkpt lat="42.07591108593529" lon="11.80871752537019"><ele>13.0</ele><time>2026-03-30T06:36:41.999Z</time></trkpt><trkpt lat="42.07582185420934" lon="11.808742970343195"><ele>13.0</ele><time>2026-03-30T06:36:42.999Z</time></trkpt><trkpt lat="42.075740422459425" lon="11.808765013211246"><ele>13.333333333333332</ele><time>2026-03-30T06:36:43.999Z</time></trkpt><trkpt lat="42.075661750933165" lon="11.808784649836088"><ele>13.666666666666666</ele><time>2026-03-30T06:36:44.999Z</time></trkpt><trkpt lat="42.075588515717094" lon="11.808803009835557"><ele>14.0</ele><time>2026-03-30T06:36:45.999Z</time></trkpt><trkpt lat="42.07547970611798" lon="11.808830358691976"><ele>14.333333333333332</ele><time>2026-03-30T06:36:47.999Z</time></trkpt><trkpt lat="42.07541744459899" lon="11.808848630345523"><ele>14.666666666666666</ele><time>2026-03-30T06:36:48.999Z</time></trkpt><trkpt lat="42.075342058097554" lon="11.808871701070547"><ele>15.0</ele><time>2026-03-30T06:36:49.999Z</time></trkpt><trkpt lat="42.07525216322311" lon="11.80889707282047"><ele>15.0</ele><time>2026-03-30T06:36:50.999Z</time></trkpt><trkpt lat="42.07515713335329" lon="11.808923125960362"><ele>15.0</ele><time>2026-03-30T06:36:51.999Z</time></trkpt><trkpt lat="42.07505748970208" lon="11.808952102034924"><ele>15.0</ele><time>2026-03-30T06:36:52.999Z</time></trkpt><trkpt lat="42.0749658069793" lon="11.808979706695435"><ele>15.0</ele><time>2026-03-30T06:36:53.999Z</time></trkpt><trkpt lat="42.074879170738065" lon="11.809004926462773"><ele>15.0</ele><time>2026-03-30T06:36:54.999Z</time></trkpt><trkpt lat="42.07479890895899" lon="11.80902759557054"><ele>14.857142857142858</ele><time>2026-03-30T06:36:55.999Z</time></trkpt><trkpt lat="42.074721463632116" lon="11.80905380434081"><ele>14.714285714285714</ele><time>2026-03-30T06:36:56.999Z</time></trkpt><trkpt lat="42.07464615832326" lon="11.809080849466993"><ele>14.571428571428571</ele><time>2026-03-30T06:36:57.999Z</time></trkpt><trkpt lat="42.074577347548775" lon="11.809105436853335"><ele>14.428571428571429</ele><time>2026-03-30T06:36:58.999Z</time></trkpt><trkpt lat="42.074509436222215" lon="11.809127235059385"><ele>14.285714285714285</ele><time>2026-03-30T06:36:59.999Z</time></trkpt><trkpt lat="42.074443753367014" lon="11.809149670296557"><ele>14.142857142857142</ele><time>2026-03-30T06:37:00.999Z</time></trkpt><trkpt lat="42.07437290871256" lon="11.809177838845288"><ele>14.0</ele><time>2026-03-30T06:37:01.999Z</time></trkpt><trkpt lat="42.07429393642224" lon="11.809210528340769"><ele>14.0</ele><time>2026-03-30T06:37:02.999Z</time></trkpt><trkpt lat="42.07420861782679" lon="11.809248600391783"><ele>13.999999999999998</ele><time>2026-03-30T06:37:03.999Z</time></trkpt><trkpt lat="42.074119014443305" lon="11.809287067863469"><ele>13.999999999999998</ele><time>2026-03-30T06:37:04.999Z</time></trkpt><trkpt lat="42.07402856120548" lon="11.809324432686445"><ele>14.0</ele><time>2026-03-30T06:37:05.999Z</time></trkpt><trkpt lat="42.07393977194908" lon="11.809360443345572"><ele>14.0</ele><time>2026-03-30T06:37:06.999Z</time></trkpt><trkpt lat="42.073853379068105" lon="11.80939795548723"><ele>14.000000000000002</ele><time>2026-03-30T06:37:07.999Z</time></trkpt><trkpt lat="42.07377260994131" lon="11.80943577866506"><ele>14.0</ele><time>2026-03-30T06:37:08.999Z</time></trkpt><trkpt lat="42.07369485187791" lon="11.809474303402487"><ele>14.0</ele><time>2026-03-30T06:37:09.999Z</time></trkpt><trkpt lat="42.07361178095805" lon="11.809512589529861"><ele>14.0</ele><time>2026-03-30T06:37:10.999Z</time></trkpt><trkpt lat="42.0735312021809" lon="11.809548302351738"><ele>14.000000000000002</ele><time>2026-03-30T06:37:11.999Z</time></trkpt><trkpt lat="42.07345428807678" lon="11.809582408651117"><ele>14.0</ele><time>2026-03-30T06:37:12.999Z</time></trkpt><trkpt lat="42.07338200738585" lon="11.809615831886903"><ele>14.000000000000002</ele><time>2026-03-30T06:37:13.999Z</time></trkpt><trkpt lat="42.07331437069428" lon="11.809649652407268"><ele>14.0</ele><time>2026-03-30T06:37:14.999Z</time></trkpt><trkpt lat="42.073250562108335" lon="11.809681203834135"><ele>14.0</ele><time>2026-03-30T06:37:15.999Z</time></trkpt><trkpt lat="42.073187481291924" lon="11.809711707401293"><ele>14.0</ele><time>2026-03-30T06:37:16.999Z</time></trkpt><trkpt lat="42.07311966256921" lon="11.809744757288382"><ele>14.000000000000002</ele><time>2026-03-30T06:37:17.999Z</time></trkpt><trkpt lat="42.073043850657875" lon="11.809784431448191"><ele>14.0</ele><time>2026-03-30T06:37:18.999Z</time></trkpt><trkpt lat="42.07295950534108" lon="11.809826303195255"><ele>13.500000000000002</ele><time>2026-03-30T06:37:19.999Z</time></trkpt><trkpt lat="42.072873429909755" lon="11.809865782855091"><ele>13.0</ele><time>2026-03-30T06:37:20.999Z</time></trkpt><trkpt lat="42.07278631516045" lon="11.809904642136534"><ele>12.5</ele><time>2026-03-30T06:37:21.999Z</time></trkpt><trkpt lat="42.07270583237068" lon="11.809940714441062"><ele>12.0</ele><time>2026-03-30T06:37:22.999Z</time></trkpt><trkpt lat="42.07263593201516" lon="11.809972466062902"><ele>11.5</ele><time>2026-03-30T06:37:23.999Z</time></trkpt><trkpt lat="42.0725692647589" lon="11.810001814412406"><ele>11.0</ele><time>2026-03-30T06:37:24.999Z</time></trkpt><trkpt lat="42.072496955897144" lon="11.810034303944349"><ele>11.0</ele><time>2026-03-30T06:37:25.999Z</time></trkpt><trkpt lat="42.072419384842014" lon="11.810071072819493"><ele>11.0</ele><time>2026-03-30T06:37:26.999Z</time></trkpt><trkpt lat="42.07234810591281" lon="11.810106983857647"><ele>11.0</ele><time>2026-03-30T06:37:27.999Z</time></trkpt><trkpt lat="42.07227828312691" lon="11.81013831428569"><ele>11.0</ele><time>2026-03-30T06:37:28.999Z</time></trkpt><trkpt lat="42.07220328008629" lon="11.810170986366524"><ele>11.0</ele><time>2026-03-30T06:37:29.999Z</time></trkpt><trkpt lat="42.07212598393783" lon="11.810206035488282"><ele>11.0</ele><time>2026-03-30T06:37:30.999Z</time></trkpt><trkpt lat="42.072054253609885" lon="11.810240923884932"><ele>11.0</ele><time>2026-03-30T06:37:31.999Z</time></trkpt><trkpt lat="42.071980230169046" lon="11.810276735758004"><ele>11.0</ele><time>2026-03-30T06:37:32.999Z</time></trkpt><trkpt lat="42.0719030385494" lon="11.8103142468034"><ele>11.0</ele><time>2026-03-30T06:37:33.999Z</time></trkpt><trkpt lat="42.071828964169065" lon="11.810347682956312"><ele>11.0</ele><time>2026-03-30T06:37:34.999Z</time></trkpt><trkpt lat="42.0717593647214" lon="11.81037972389455"><ele>11.0</ele><time>2026-03-30T06:37:35.999Z</time></trkpt><trkpt lat="42.07168556346124" lon="11.81041485217648"><ele>11.0</ele><time>2026-03-30T06:37:36.999Z</time></trkpt><trkpt lat="42.07160563873569" lon="11.810454432511904"><ele>11.0</ele><time>2026-03-30T06:37:37.999Z</time></trkpt><trkpt lat="42.0715187555678" lon="11.810494561027372"><ele>11.0</ele><time>2026-03-30T06:37:38.999Z</time></trkpt><trkpt lat="42.071424307141314" lon="11.810536040832185"><ele>11.0</ele><time>2026-03-30T06:37:39.999Z</time></trkpt><trkpt lat="42.071322537201404" lon="11.810579232778352"><ele>11.0</ele><time>2026-03-30T06:37:40.999Z</time></trkpt><trkpt lat="42.07121904878723" lon="11.81062265388789"><ele>11.0</ele><time>2026-03-30T06:37:41.999Z</time></trkpt><trkpt lat="42.07112236866886" lon="11.810665597299545"><ele>11.0</ele><time>2026-03-30T06:37:42.999Z</time></trkpt><trkpt lat="42.07103397009988" lon="11.810706965902096"><ele>11.0</ele><time>2026-03-30T06:37:43.999Z</time></trkpt><trkpt lat="42.07095354163754" lon="11.810743507740163"><ele>11.0</ele><time>2026-03-30T06:37:44.999Z</time></trkpt><trkpt lat="42.070878054879124" lon="11.810778186271719"><ele>11.0</ele><time>2026-03-30T06:37:45.999Z</time></trkpt><trkpt lat="42.07080647404012" lon="11.810811166015446"><ele>11.0</ele><time>2026-03-30T06:37:46.999Z</time></trkpt><trkpt lat="42.07073900176526" lon="11.81084410743272"><ele>11.0</ele><time>2026-03-30T06:37:47.999Z</time></trkpt><trkpt lat="42.070662154294105" lon="11.81088230358339"><ele>10.8</ele><time>2026-03-30T06:37:48.999Z</time></trkpt><trkpt lat="42.07057743875911" lon="11.810923803584082"><ele>10.600000000000001</ele><time>2026-03-30T06:37:49.999Z</time></trkpt><trkpt lat="42.070485123172126" lon="11.810967704931718"><ele>10.4</ele><time>2026-03-30T06:37:50.999Z</time></trkpt><trkpt lat="42.07038673919817" lon="11.811014282242514"><ele>10.2</ele><time>2026-03-30T06:37:51.999Z</time></trkpt><trkpt lat="42.0702892563099" lon="11.811063748421558"><ele>10.0</ele><time>2026-03-30T06:37:52.999Z</time></trkpt><trkpt lat="42.07019548086135" lon="11.811116036559484"><ele>9.833333333333334</ele><time>2026-03-30T06:37:53.999Z</time></trkpt><trkpt lat="42.070110838107716" lon="11.811166698842339"><ele>9.666666666666668</ele><time>2026-03-30T06:37:54.999Z</time></trkpt><trkpt lat="42.07003258265623" lon="11.811213691581436"><ele>9.5</ele><time>2026-03-30T06:37:55.999Z</time></trkpt><trkpt lat="42.06995621084116" lon="11.811264021571349"><ele>9.333333333333334</ele><time>2026-03-30T06:37:56.999Z</time></trkpt><trkpt lat="42.06987768884154" lon="11.811320599256787"><ele>9.166666666666666</ele><time>2026-03-30T06:37:57.999Z</time></trkpt><trkpt lat="42.06980101428875" lon="11.81138023618631"><ele>9.0</ele><time>2026-03-30T06:37:58.999Z</time></trkpt><trkpt lat="42.06972798272815" lon="11.811436293424748"><ele>9.0</ele><time>2026-03-30T06:37:59.999Z</time></trkpt><trkpt lat="42.06965708781687" lon="11.811490683666376"><ele>9.0</ele><time>2026-03-30T06:38:00.999Z</time></trkpt><trkpt lat="42.0695865330369" lon="11.811543872701401"><ele>9.0</ele><time>2026-03-30T06:38:01.999Z</time></trkpt><trkpt lat="42.069517594128875" lon="11.811597104063884"><ele>9.0</ele><time>2026-03-30T06:38:02.999Z</time></trkpt><trkpt lat="42.06945010823926" lon="11.81165056862546"><ele>9.0</ele><time>2026-03-30T06:38:03.999Z</time></trkpt><trkpt lat="42.06939158639889" lon="11.81169925027985"><ele>9.0</ele><time>2026-03-30T06:38:04.999Z</time></trkpt><trkpt lat="42.0693363900628" lon="11.811743071608698"><ele>9.0</ele><time>2026-03-30T06:38:05.999Z</time></trkpt><trkpt lat="42.069277702608716" lon="11.811789362729865"><ele>9.0</ele><time>2026-03-30T06:38:06.999Z</time></trkpt><trkpt lat="42.06921500410043" lon="11.811838671956593"><ele>9.0</ele><time>2026-03-30T06:38:07.999Z</time></trkpt><trkpt lat="42.06914610799154" lon="11.811890997699338"><ele>9.0</ele><time>2026-03-30T06:38:08.999Z</time></trkpt><trkpt lat="42.0690740054961" lon="11.8119469705101"><ele>9.0</ele><time>2026-03-30T06:38:09.999Z</time></trkpt><trkpt lat="42.068997015312384" lon="11.812007375501961"><ele>9.0</ele><time>2026-03-30T06:38:10.999Z</time></trkpt><trkpt lat="42.06891440385729" lon="11.812073349336494"><ele>8.6</ele><time>2026-03-30T06:38:11.999Z</time></trkpt><trkpt lat="42.068835559417955" lon="11.812139288572375"><ele>8.2</ele><time>2026-03-30T06:38:12.999Z</time></trkpt><trkpt lat="42.06875679939492" lon="11.812200822857815"><ele>7.799999999999999</ele><time>2026-03-30T06:38:13.999Z</time></trkpt><trkpt lat="42.06867882631771" lon="11.812258777238318"><ele>7.3999999999999995</ele><time>2026-03-30T06:38:14.999Z</time></trkpt><trkpt lat="42.06859768445141" lon="11.81231993821908"><ele>7.0</ele><time>2026-03-30T06:38:15.999Z</time></trkpt><trkpt lat="42.06851118175435" lon="11.812387683042102"><ele>7.0</ele><time>2026-03-30T06:38:16.999Z</time></trkpt><trkpt lat="42.06842141508128" lon="11.812464147614783"><ele>7.0</ele><time>2026-03-30T06:38:17.999Z</time></trkpt><trkpt lat="42.06832632798238" lon="11.812543105340938"><ele>7.0</ele><time>2026-03-30T06:38:18.999Z</time></trkpt><trkpt lat="42.06822318592129" lon="11.812625113602753"><ele>7.0</ele><time>2026-03-30T06:38:19.999Z</time></trkpt><trkpt lat="42.06811224330305" lon="11.812711859983569"><ele>6.5</ele><time>2026-03-30T06:38:20.999Z</time></trkpt><trkpt lat="42.06800127748568" lon="11.8127992010953"><ele>6.0</ele><time>2026-03-30T06:38:21.999Z</time></trkpt><trkpt lat="42.067895032919346" lon="11.812887975922662"><ele>5.5</ele><time>2026-03-30T06:38:22.999Z</time></trkpt><trkpt lat="42.06779812917006" lon="11.812970792147276"><ele>5.0</ele><time>2026-03-30T06:38:23.999Z</time></trkpt><trkpt lat="42.06771628741386" lon="11.813041833728361"><ele>5.0</ele><time>2026-03-30T06:38:24.999Z</time></trkpt><trkpt lat="42.06762851103996" lon="11.813115610610984"><ele>5.0</ele><time>2026-03-30T06:38:25.999Z</time></trkpt><trkpt lat="42.06754650588966" lon="11.8131862444416"><ele>5.0</ele><time>2026-03-30T06:38:26.999Z</time></trkpt><trkpt lat="42.06746244911408" lon="11.813258779887912"><ele>5.0</ele><time>2026-03-30T06:38:27.999Z</time></trkpt><trkpt lat="42.06737745055699" lon="11.813333125140593"><ele>5.0</ele><time>2026-03-30T06:38:28.999Z</time></trkpt><trkpt lat="42.06728901707645" lon="11.813406348515379"><ele>5.0</ele><time>2026-03-30T06:38:29.999Z</time></trkpt><trkpt lat="42.067204732094645" lon="11.813477450527094"><ele>5.0</ele><time>2026-03-30T06:38:30.999Z</time></trkpt><trkpt lat="42.06712425544036" lon="11.813541226641496"><ele>5.0</ele><time>2026-03-30T06:38:31.999Z</time></trkpt><trkpt lat="42.06704213535887" lon="11.813600841070107"><ele>5.0</ele><time>2026-03-30T06:38:32.999Z</time></trkpt><trkpt lat="42.06695678295129" lon="11.813658055914598"><ele>5.0</ele><time>2026-03-30T06:38:33.999Z</time></trkpt><trkpt lat="42.06686722492472" lon="11.813716136911175"><ele>5.0</ele><time>2026-03-30T06:38:34.999Z</time></trkpt><trkpt lat="42.06676997115522" lon="11.813767624398178"><ele>5.0</ele><time>2026-03-30T06:38:35.999Z</time></trkpt><trkpt lat="42.066664506563995" lon="11.813811641353718"><ele>5.0</ele><time>2026-03-30T06:38:36.999Z</time></trkpt><trkpt lat="42.06655132276692" lon="11.813841909192082"><ele>5.0</ele><time>2026-03-30T06:38:37.999Z</time></trkpt><trkpt lat="42.06643392965972" lon="11.813855681850255"><ele>5.0</ele><time>2026-03-30T06:38:38.999Z</time></trkpt><trkpt lat="42.06631502629273" lon="11.81385839004378"><ele>5.0</ele><time>2026-03-30T06:38:39.999Z</time></trkpt><trkpt lat="42.06619191611005" lon="11.81385705335558"><ele>5.0</ele><time>2026-03-30T06:38:40.999Z</time></trkpt><trkpt lat="42.06606603257272" lon="11.813856865606242"><ele>5.0</ele><time>2026-03-30T06:38:41.999Z</time></trkpt><trkpt lat="42.06593708734966" lon="11.813856992399174"><ele>5.0</ele><time>2026-03-30T06:38:42.999Z</time></trkpt><trkpt lat="42.0658080696387" lon="11.813854165325075"><ele>5.0</ele><time>2026-03-30T06:38:43.999Z</time></trkpt><trkpt lat="42.06568402770972" lon="11.81385035634971"><ele>5.0</ele><time>2026-03-30T06:38:44.999Z</time></trkpt><trkpt lat="42.06556272438021" lon="11.813847085599445"><ele>5.0</ele><time>2026-03-30T06:38:45.999Z</time></trkpt><trkpt lat="42.06544234843889" lon="11.813843945925889"><ele>5.0</ele><time>2026-03-30T06:38:46.999Z</time></trkpt><trkpt lat="42.06531791076574" lon="11.813841761462989"><ele>5.0</ele><time>2026-03-30T06:38:47.999Z</time></trkpt><trkpt lat="42.06518850471383" lon="11.813847103474384"><ele>5.0</ele><time>2026-03-30T06:38:48.999Z</time></trkpt><trkpt lat="42.0650564020548" lon="11.813859798979747"><ele>5.0</ele><time>2026-03-30T06:38:49.999Z</time></trkpt><trkpt lat="42.06492245859374" lon="11.813883831678423"><ele>5.0</ele><time>2026-03-30T06:38:50.999Z</time></trkpt><trkpt lat="42.06478561749874" lon="11.813914029228666"><ele>4.75</ele><time>2026-03-30T06:38:51.999Z</time></trkpt><trkpt lat="42.06464773422818" lon="11.813948605443652"><ele>4.5</ele><time>2026-03-30T06:38:52.999Z</time></trkpt><trkpt lat="42.06450665248511" lon="11.813989261464153"><ele>4.25</ele><time>2026-03-30T06:38:53.999Z</time></trkpt><trkpt lat="42.064362409568766" lon="11.814038239929323"><ele>4.0</ele><time>2026-03-30T06:38:54.999Z</time></trkpt><trkpt lat="42.06422007052582" lon="11.814098180074623"><ele>4.0</ele><time>2026-03-30T06:38:55.999Z</time></trkpt><trkpt lat="42.0640796160804" lon="11.814166741647522"><ele>4.0</ele><time>2026-03-30T06:38:56.999Z</time></trkpt><trkpt lat="42.06394426022194" lon="11.814240482203447"><ele>4.0</ele><time>2026-03-30T06:38:57.999Z</time></trkpt><trkpt lat="42.063816792814194" lon="11.814318927401992"><ele>4.0</ele><time>2026-03-30T06:38:58.999Z</time></trkpt><trkpt lat="42.06369561057378" lon="11.81439969506623"><ele>4.0</ele><time>2026-03-30T06:38:59.999Z</time></trkpt><trkpt lat="42.0635805355771" lon="11.814482262430706"><ele>4.0</ele><time>2026-03-30T06:39:00.999Z</time></trkpt><trkpt lat="42.06346738764831" lon="11.814565755652103"><ele>4.0</ele><time>2026-03-30T06:39:01.999Z</time></trkpt><trkpt lat="42.06335903910374" lon="11.81464758556317"><ele>4.0</ele><time>2026-03-30T06:39:02.999Z</time></trkpt><trkpt lat="42.063252983008816" lon="11.814728253473307"><ele>3.5</ele><time>2026-03-30T06:39:03.999Z</time></trkpt><trkpt lat="42.063147080377504" lon="11.814810385497218"><ele>3.0</ele><time>2026-03-30T06:39:04.999Z</time></trkpt><trkpt lat="42.06304163337178" lon="11.81489310150763"><ele>2.5</ele><time>2026-03-30T06:39:05.999Z</time></trkpt><trkpt lat="42.062933847685954" lon="11.81497735407141"><ele>2.0</ele><time>2026-03-30T06:39:06.999Z</time></trkpt><trkpt lat="42.06282372800426" lon="11.81506367045345"><ele>2.0</ele><time>2026-03-30T06:39:07.999Z</time></trkpt><trkpt lat="42.06270996260675" lon="11.815148379383729"><ele>2.0</ele><time>2026-03-30T06:39:08.999Z</time></trkpt><trkpt lat="42.06259317489176" lon="11.815229263679418"><ele>2.0</ele><time>2026-03-30T06:39:09.999Z</time></trkpt><trkpt lat="42.06247397532421" lon="11.815311442746554"><ele>2.0</ele><time>2026-03-30T06:39:10.999Z</time></trkpt><trkpt lat="42.06235197615824" lon="11.815399727222383"><ele>3.0</ele><time>2026-03-30T06:39:11.999Z</time></trkpt><trkpt lat="42.0622288078884" lon="11.815492052387034"><ele>4.0</ele><time>2026-03-30T06:39:12.999Z</time></trkpt><trkpt lat="42.06210332567046" lon="11.815588051084214"><ele>5.0</ele><time>2026-03-30T06:39:13.999Z</time></trkpt><trkpt lat="42.06198417885063" lon="11.815677479163263"><ele>6.0</ele><time>2026-03-30T06:39:14.999Z</time></trkpt><trkpt lat="42.061865352345265" lon="11.815767507956247"><ele>6.0</ele><time>2026-03-30T06:39:15.999Z</time></trkpt><trkpt lat="42.06175206312253" lon="11.815856536707596"><ele>6.0</ele><time>2026-03-30T06:39:17Z</time></trkpt><trkpt lat="42.06163944163146" lon="11.815945103449197"><ele>6.0</ele><time>2026-03-30T06:39:18Z</time></trkpt><trkpt lat="42.06152287124051" lon="11.81603625143565"><ele>6.0</ele><time>2026-03-30T06:39:19Z</time></trkpt><trkpt lat="42.06140239515284" lon="11.816131504004982"><ele>6.5</ele><time>2026-03-30T06:39:20Z</time></trkpt><trkpt lat="42.06128238936145" lon="11.816225988758744"><ele>7.0</ele><time>2026-03-30T06:39:21Z</time></trkpt><trkpt lat="42.061170658191436" lon="11.816311801884636"><ele>7.5</ele><time>2026-03-30T06:39:22Z</time></trkpt><trkpt lat="42.0610653357835" lon="11.816391690135605"><ele>8.0</ele><time>2026-03-30T06:39:23Z</time></trkpt><trkpt lat="42.060965949564896" lon="11.816466744220573"><ele>8.0</ele><time>2026-03-30T06:39:24Z</time></trkpt><trkpt lat="42.06086576486448" lon="11.816540558916257"><ele>8.0</ele><time>2026-03-30T06:39:25Z</time></trkpt><trkpt lat="42.06076350478024" lon="11.816610396931857"><ele>8.0</ele><time>2026-03-30T06:39:26Z</time></trkpt><trkpt lat="42.060657437703945" lon="11.81667521743039"><ele>8.0</ele><time>2026-03-30T06:39:27Z</time></trkpt><trkpt lat="42.060549816077646" lon="11.81673460863079"><ele>7.5</ele><time>2026-03-30T06:39:28Z</time></trkpt><trkpt lat="42.06043803325021" lon="11.816789413977398"><ele>7.0</ele><time>2026-03-30T06:39:29Z</time></trkpt><trkpt lat="42.06032174015586" lon="11.81683568344334"><ele>6.5</ele><time>2026-03-30T06:39:30Z</time></trkpt><trkpt lat="42.06020280268133" lon="11.816877901484908"><ele>6.0</ele><time>2026-03-30T06:39:31Z</time></trkpt><trkpt lat="42.060080228111936" lon="11.816919058876906"><ele>6.75</ele><time>2026-03-30T06:39:32Z</time></trkpt><trkpt lat="42.05995578114531" lon="11.816961601971803"><ele>7.5</ele><time>2026-03-30T06:39:33Z</time></trkpt><trkpt lat="42.05982933377328" lon="11.817004710316034"><ele>8.25</ele><time>2026-03-30T06:39:34Z</time></trkpt><trkpt lat="42.059704515283926" lon="11.817047210182302"><ele>9.0</ele><time>2026-03-30T06:39:35Z</time></trkpt><trkpt lat="42.05958098392167" lon="11.817088171109365"><ele>9.0</ele><time>2026-03-30T06:39:35.999Z</time></trkpt><trkpt lat="42.05945798849624" lon="11.81712996339245"><ele>9.0</ele><time>2026-03-30T06:39:36.999Z</time></trkpt><trkpt lat="42.05934905127274" lon="11.817173504940207"><ele>9.0</ele><time>2026-03-30T06:39:37.999Z</time></trkpt><trkpt lat="42.059231459143476" lon="11.81722866133084"><ele>9.0</ele><time>2026-03-30T06:39:38.999Z</time></trkpt><trkpt lat="42.059116095216886" lon="11.817296387649417"><ele>8.0</ele><time>2026-03-30T06:39:39.999Z</time></trkpt><trkpt lat="42.05900080056809" lon="11.817387159260255"><ele>7.0</ele><time>2026-03-30T06:39:40.999Z</time></trkpt><trkpt lat="42.058890736676965" lon="11.817489118436926"><ele>6.0</ele><time>2026-03-30T06:39:41.999Z</time></trkpt><trkpt lat="42.058788135222926" lon="11.817595359982025"><ele>5.0</ele><time>2026-03-30T06:39:42.999Z</time></trkpt><trkpt lat="42.058688473043375" lon="11.817701557820069"><ele>4.75</ele><time>2026-03-30T06:39:43.999Z</time></trkpt><trkpt lat="42.05858949209048" lon="11.81780893239773"><ele>4.5</ele><time>2026-03-30T06:39:44.999Z</time></trkpt><trkpt lat="42.05849526997679" lon="11.817917429730873"><ele>4.25</ele><time>2026-03-30T06:39:45.999Z</time></trkpt><trkpt lat="42.05840405958681" lon="11.818023432721874"><ele>4.0</ele><time>2026-03-30T06:39:46.999Z</time></trkpt><trkpt lat="42.05831294513448" lon="11.818127178341733"><ele>3.25</ele><time>2026-03-30T06:39:47.999Z</time></trkpt><trkpt lat="42.05821986359759" lon="11.81823223032249"><ele>2.5</ele><time>2026-03-30T06:39:48.999Z</time></trkpt><trkpt lat="42.05812495494667" lon="11.818340452689085"><ele>1.75</ele><time>2026-03-30T06:39:49.999Z</time></trkpt><trkpt lat="42.058028493916055" lon="11.81845080436786"><ele>1.0</ele><time>2026-03-30T06:39:50.999Z</time></trkpt><trkpt lat="42.057929929681805" lon="11.81856438800618"><ele>1.0</ele><time>2026-03-30T06:39:51.999Z</time></trkpt><trkpt lat="42.057833663367916" lon="11.818673808890177"><ele>1.0</ele><time>2026-03-30T06:39:52.999Z</time></trkpt><trkpt lat="42.057738847624485" lon="11.8187798621574"><ele>1.0</ele><time>2026-03-30T06:39:53.999Z</time></trkpt><trkpt lat="42.05764384273622" lon="11.81888480291768"><ele>1.0</ele><time>2026-03-30T06:39:54.999Z</time></trkpt><trkpt lat="42.05754720519202" lon="11.818994074622816"><ele>1.0</ele><time>2026-03-30T06:39:55.999Z</time></trkpt><trkpt lat="42.05744993348873" lon="11.819103622784365"><ele>1.0</ele><time>2026-03-30T06:39:56.999Z</time></trkpt><trkpt lat="42.05734919307406" lon="11.81921445857391"><ele>1.0</ele><time>2026-03-30T06:39:57.999Z</time></trkpt><trkpt lat="42.05724429828643" lon="11.819321925741294"><ele>1.0</ele><time>2026-03-30T06:39:58.999Z</time></trkpt><trkpt lat="42.057134868825216" lon="11.819422418149156"><ele>2.5</ele><time>2026-03-30T06:39:59.999Z</time></trkpt><trkpt lat="42.05702148311521" lon="11.819509248104168"><ele>4.0</ele><time>2026-03-30T06:40:00.999Z</time></trkpt><trkpt lat="42.05689879829512" lon="11.81957793865223"><ele>5.5</ele><time>2026-03-30T06:40:01.999Z</time></trkpt><trkpt lat="42.0567705008426" lon="11.819622248429667"><ele>7.0</ele><time>2026-03-30T06:40:02.999Z</time></trkpt><trkpt lat="42.05663639762451" lon="11.819654208420646"><ele>6.0</ele><time>2026-03-30T06:40:03.999Z</time></trkpt><trkpt lat="42.056498679626195" lon="11.819681021690599"><ele>5.0</ele><time>2026-03-30T06:40:04.999Z</time></trkpt><trkpt lat="42.05635741345748" lon="11.819706771766453"><ele>4.0</ele><time>2026-03-30T06:40:05.999Z</time></trkpt><trkpt lat="42.05621504627968" lon="11.81973123694819"><ele>3.0</ele><time>2026-03-30T06:40:06.999Z</time></trkpt><trkpt lat="42.05607545407106" lon="11.81975962278671"><ele>3.0</ele><time>2026-03-30T06:40:07.999Z</time></trkpt><trkpt lat="42.0559452363849" lon="11.819787849644742"><ele>3.0</ele><time>2026-03-30T06:40:08.999Z</time></trkpt><trkpt lat="42.055822494839674" lon="11.819815316023965"><ele>3.0</ele><time>2026-03-30T06:40:09.999Z</time></trkpt><trkpt lat="42.05570975567174" lon="11.819842376790984"><ele>3.0</ele><time>2026-03-30T06:40:10.999Z</time></trkpt><trkpt lat="42.05560718787794" lon="11.819840182750768"><ele>3.3333333333333335</ele><time>2026-03-30T06:40:11.999Z</time></trkpt><trkpt lat="42.05551799602658" lon="11.819858462859404"><ele>3.666666666666667</ele><time>2026-03-30T06:40:12.999Z</time></trkpt><trkpt lat="42.05544486948251" lon="11.81987213583147"><ele>4.0</ele><time>2026-03-30T06:40:13.999Z</time></trkpt><trkpt lat="42.05537956723838" lon="11.819884596496799"><ele>4.333333333333334</ele><time>2026-03-30T06:40:14.999Z</time></trkpt><trkpt lat="42.055265774786214" lon="11.819906358903355"><ele>4.666666666666667</ele><time>2026-03-30T06:40:16.999Z</time></trkpt><trkpt lat="42.05518750228613" lon="11.819942262665249"><ele>5.0</ele><time>2026-03-30T06:40:18.999Z</time></trkpt><trkpt lat="42.05522091091573" lon="11.820227055410117"><ele>5.4</ele><time>2026-03-30T06:40:19.999Z</time></trkpt><trkpt lat="42.05526079056426" lon="11.82032257776727"><ele>5.8</ele><time>2026-03-30T06:40:20.999Z</time></trkpt><trkpt lat="42.055318639391686" lon="11.82041379951132"><ele>6.199999999999999</ele><time>2026-03-30T06:40:21.999Z</time></trkpt><trkpt lat="42.05539255747192" lon="11.82049939873969"><ele>6.6</ele><time>2026-03-30T06:40:22.999Z</time></trkpt><trkpt lat="42.0554810973011" lon="11.820565133307142"><ele>7.0</ele><time>2026-03-30T06:40:23.999Z</time></trkpt><trkpt lat="42.05557961029507" lon="11.820596100859161"><ele>7.0</ele><time>2026-03-30T06:40:24.999Z</time></trkpt><trkpt lat="42.05568251256945" lon="11.820586415376626"><ele>6.999999999999999</ele><time>2026-03-30T06:40:25.999Z</time></trkpt><trkpt lat="42.055783747819426" lon="11.820540060456283"><ele>6.999999999999999</ele><time>2026-03-30T06:40:26.999Z</time></trkpt><trkpt lat="42.05588438271076" lon="11.82047688058815"><ele>7.0</ele><time>2026-03-30T06:40:27.999Z</time></trkpt><trkpt lat="42.05599307083115" lon="11.820420335647512"><ele>7.0</ele><time>2026-03-30T06:40:28.999Z</time></trkpt><trkpt lat="42.05610797109701" lon="11.820361163949155"><ele>7.0</ele><time>2026-03-30T06:40:29.999Z</time></trkpt><trkpt lat="42.0562262711285" lon="11.820294922320063"><ele>7.0</ele><time>2026-03-30T06:40:30.999Z</time></trkpt><trkpt lat="42.05634689531191" lon="11.820228770692081"><ele>7.0</ele><time>2026-03-30T06:40:31.999Z</time></trkpt><trkpt lat="42.05646922090277" lon="11.820166140062142"><ele>7.0</ele><time>2026-03-30T06:40:32.999Z</time></trkpt><trkpt lat="42.05659564366942" lon="11.820115015269398"><ele>7.0</ele><time>2026-03-30T06:40:33.999Z</time></trkpt><trkpt lat="42.05672540755268" lon="11.82008060507458"><ele>7.0</ele><time>2026-03-30T06:40:34.999Z</time></trkpt><trkpt lat="42.056850780642456" lon="11.820073709929188"><ele>7.0</ele><time>2026-03-30T06:40:35.999Z</time></trkpt><trkpt lat="42.0569709287932" lon="11.820099892679762"><ele>7.0</ele><time>2026-03-30T06:40:36.999Z</time></trkpt><trkpt lat="42.057084365871106" lon="11.82015377129239"><ele>7.25</ele><time>2026-03-30T06:40:37.999Z</time></trkpt><trkpt lat="42.05718484092767" lon="11.820243874957143"><ele>7.5</ele><time>2026-03-30T06:40:38.999Z</time></trkpt><trkpt lat="42.057268296707754" lon="11.820352607127251"><ele>7.75</ele><time>2026-03-30T06:40:39.999Z</time></trkpt><trkpt lat="42.05733443056654" lon="11.820467256018265"><ele>8.0</ele><time>2026-03-30T06:40:40.999Z</time></trkpt><trkpt lat="42.05739119845041" lon="11.82058705571492"><ele>8.0</ele><time>2026-03-30T06:40:41.999Z</time></trkpt><trkpt lat="42.057436948602536" lon="11.820713220762524"><ele>8.0</ele><time>2026-03-30T06:40:42.999Z</time></trkpt><trkpt lat="42.05747788322259" lon="11.820843605786031"><ele>8.0</ele><time>2026-03-30T06:40:43.999Z</time></trkpt><trkpt lat="42.057517393566286" lon="11.82096825340874"><ele>8.0</ele><time>2026-03-30T06:40:44.999Z</time></trkpt><trkpt lat="42.05755208781871" lon="11.821086523502656"><ele>8.0</ele><time>2026-03-30T06:40:45.999Z</time></trkpt><trkpt lat="42.057577850870146" lon="11.821193022761626"><ele>9.600000000000001</ele><time>2026-03-30T06:40:46.999Z</time></trkpt><trkpt lat="42.05761591253739" lon="11.821345949510032"><ele>11.200000000000001</ele><time>2026-03-30T06:40:48.999Z</time></trkpt><trkpt lat="42.057642750738175" lon="11.821461029643913"><ele>12.8</ele><time>2026-03-30T06:40:50.999Z</time></trkpt><trkpt lat="42.05766691091515" lon="11.821556753051663"><ele>14.4</ele><time>2026-03-30T06:40:53.999Z</time></trkpt><trkpt lat="42.05770865756939" lon="11.821677163216565"><ele>16.0</ele><time>2026-03-30T06:40:56.999Z</time></trkpt><trkpt lat="42.057749272957494" lon="11.821800914693181"><ele>16.400000000000002</ele><time>2026-03-30T06:40:58.999Z</time></trkpt><trkpt lat="42.05780044063603" lon="11.82193481389409"><ele>16.8</ele><time>2026-03-30T06:41:00.999Z</time></trkpt><trkpt lat="42.05783259241082" lon="11.822024223060511"><ele>17.200000000000003</ele><time>2026-03-30T06:41:01.999Z</time></trkpt><trkpt lat="42.057867294722925" lon="11.822130290828392"><ele>17.6</ele><time>2026-03-30T06:41:02.999Z</time></trkpt><trkpt lat="42.0579085439483" lon="11.822253761355944"><ele>18.0</ele><time>2026-03-30T06:41:03.999Z</time></trkpt><trkpt lat="42.05796072101993" lon="11.822393739475203"><ele>18.0</ele><time>2026-03-30T06:41:04.999Z</time></trkpt><trkpt lat="42.05801764374182" lon="11.822550297941723"><ele>18.0</ele><time>2026-03-30T06:41:05.999Z</time></trkpt><trkpt lat="42.05806790550165" lon="11.822721865640784"><ele>18.0</ele><time>2026-03-30T06:41:06.999Z</time></trkpt><trkpt lat="42.058102485988236" lon="11.822910370127513"><ele>18.0</ele><time>2026-03-30T06:41:07.999Z</time></trkpt><trkpt lat="42.05812134077497" lon="11.823110933873176"><ele>18.333333333333332</ele><time>2026-03-30T06:41:08.999Z</time></trkpt><trkpt lat="42.05811574835668" lon="11.823322841357976"><ele>18.666666666666664</ele><time>2026-03-30T06:41:09.999Z</time></trkpt><trkpt lat="42.05809337926525" lon="11.823530945934262"><ele>19.0</ele><time>2026-03-30T06:41:10.999Z</time></trkpt><trkpt lat="42.05805365095551" lon="11.823739854324918"><ele>19.333333333333332</ele><time>2026-03-30T06:41:11.999Z</time></trkpt><trkpt lat="42.05799573285016" lon="11.823943959575246"><ele>19.666666666666668</ele><time>2026-03-30T06:41:12.999Z</time></trkpt><trkpt lat="42.05791753445067" lon="11.824137209704743"><ele>20.0</ele><time>2026-03-30T06:41:14Z</time></trkpt><trkpt lat="42.057802913962206" lon="11.824307034879824"><ele>20.0</ele><time>2026-03-30T06:41:15Z</time></trkpt><trkpt lat="42.057669573565526" lon="11.824458481723624"><ele>20.0</ele><time>2026-03-30T06:41:16Z</time></trkpt><trkpt lat="42.05752036166092" lon="11.824590669447279"><ele>20.0</ele><time>2026-03-30T06:41:17Z</time></trkpt><trkpt lat="42.05735653486059" lon="11.824700440247296"><ele>20.0</ele><time>2026-03-30T06:41:18Z</time></trkpt><trkpt lat="42.05718153353829" lon="11.824788035470156"><ele>20.0</ele><time>2026-03-30T06:41:19Z</time></trkpt><trkpt lat="42.05699500255324" lon="11.824860553740805"><ele>20.0</ele><time>2026-03-30T06:41:20Z</time></trkpt><trkpt lat="42.05680267546865" lon="11.82492579075632"><ele>21.666666666666668</ele><time>2026-03-30T06:41:21Z</time></trkpt><trkpt lat="42.05660532320287" lon="11.824994104903721"><ele>23.333333333333336</ele><time>2026-03-30T06:41:22Z</time></trkpt><trkpt lat="42.056404272871866" lon="11.825060107109458"><ele>25.0</ele><time>2026-03-30T06:41:23Z</time></trkpt><trkpt lat="42.05619540743641" lon="11.825128250961946"><ele>25.333333333333336</ele><time>2026-03-30T06:41:24Z</time></trkpt><trkpt lat="42.055982728256076" lon="11.825202765002997"><ele>25.666666666666664</ele><time>2026-03-30T06:41:25Z</time></trkpt><trkpt lat="42.05576616673231" lon="11.825287496426395"><ele>26.0</ele><time>2026-03-30T06:41:26Z</time></trkpt><trkpt lat="42.05554718782771" lon="11.825379731438359"><ele>29.0</ele><time>2026-03-30T06:41:27Z</time></trkpt><trkpt lat="42.05532610792652" lon="11.82548129949597"><ele>32.0</ele><time>2026-03-30T06:41:28Z</time></trkpt><trkpt lat="42.055103801405956" lon="11.825591876304523"><ele>30.5</ele><time>2026-03-30T06:41:29Z</time></trkpt><trkpt lat="42.054880089987016" lon="11.825709315597491"><ele>29.0</ele><time>2026-03-30T06:41:30Z</time></trkpt><trkpt lat="42.05465563239314" lon="11.8258378777138"><ele>32.0</ele><time>2026-03-30T06:41:31Z</time></trkpt><trkpt lat="42.05443268905132" lon="11.825978709060921"><ele>35.0</ele><time>2026-03-30T06:41:32Z</time></trkpt><trkpt lat="42.054210129684286" lon="11.826128771441319"><ele>32.0</ele><time>2026-03-30T06:41:33Z</time></trkpt><trkpt lat="42.053988280291826" lon="11.826287340795618"><ele>29.0</ele><time>2026-03-30T06:41:34Z</time></trkpt><trkpt lat="42.05376878234249" lon="11.826453876272803"><ele>29.0</ele><time>2026-03-30T06:41:35Z</time></trkpt><trkpt lat="42.053551376992274" lon="11.826628571233556"><ele>29.0</ele><time>2026-03-30T06:41:36Z</time></trkpt><trkpt lat="42.05333823137229" lon="11.82681271183091"><ele>30.5</ele><time>2026-03-30T06:41:37Z</time></trkpt><trkpt lat="42.053127933928664" lon="11.827007551630057"><ele>32.0</ele><time>2026-03-30T06:41:38Z</time></trkpt><trkpt lat="42.05292130283195" lon="11.827209249833372"><ele>32.0</ele><time>2026-03-30T06:41:39Z</time></trkpt><trkpt lat="42.0527204796898" lon="11.827417411454027"><ele>32.0</ele><time>2026-03-30T06:41:40Z</time></trkpt><trkpt lat="42.05252394916766" lon="11.827633074621769"><ele>34.5</ele><time>2026-03-30T06:41:41Z</time></trkpt><trkpt lat="42.05233278839602" lon="11.827851216574452"><ele>37.0</ele><time>2026-03-30T06:41:42Z</time></trkpt><trkpt lat="42.05215002107423" lon="11.82807487298875"><ele>37.0</ele><time>2026-03-30T06:41:43Z</time></trkpt><trkpt lat="42.051974071735806" lon="11.828303374238493"><ele>37.0</ele><time>2026-03-30T06:41:44Z</time></trkpt><trkpt lat="42.05180224364224" lon="11.828539111747771"><ele>37.0</ele><time>2026-03-30T06:41:45Z</time></trkpt><trkpt lat="42.05163687744112" lon="11.828783695672486"><ele>37.0</ele><time>2026-03-30T06:41:46Z</time></trkpt><trkpt lat="42.051475029228776" lon="11.829036830028333"><ele>37.0</ele><time>2026-03-30T06:41:47Z</time></trkpt><trkpt lat="42.05131561189301" lon="11.829297894900657"><ele>37.0</ele><time>2026-03-30T06:41:48Z</time></trkpt><trkpt lat="42.05115656984211" lon="11.829564881772816"><ele>38.5</ele><time>2026-03-30T06:41:49Z</time></trkpt><trkpt lat="42.050995640633325" lon="11.82983807154072"><ele>40.0</ele><time>2026-03-30T06:41:50Z</time></trkpt><trkpt lat="42.05083321770837" lon="11.830117052843434"><ele>40.5</ele><time>2026-03-30T06:41:51Z</time></trkpt><trkpt lat="42.05066813862921" lon="11.830399005177695"><ele>41.0</ele><time>2026-03-30T06:41:52Z</time></trkpt><trkpt lat="42.05049994199815" lon="11.830682951265219"><ele>41.0</ele><time>2026-03-30T06:41:53Z</time></trkpt><trkpt lat="42.05032886961996" lon="11.83097000164457"><ele>41.0</ele><time>2026-03-30T06:41:54Z</time></trkpt><trkpt lat="42.050155822777235" lon="11.831260627378617"><ele>43.0</ele><time>2026-03-30T06:41:55Z</time></trkpt><trkpt lat="42.04998196858308" lon="11.83155063003345"><ele>45.0</ele><time>2026-03-30T06:41:56Z</time></trkpt><trkpt lat="42.0498053315518" lon="11.831841260610704"><ele>40.5</ele><time>2026-03-30T06:41:57Z</time></trkpt><trkpt lat="42.04962496736789" lon="11.832127873652722"><ele>36.0</ele><time>2026-03-30T06:41:58Z</time></trkpt><trkpt lat="42.04944361921556" lon="11.832411690855933"><ele>38.0</ele><time>2026-03-30T06:41:59Z</time></trkpt><trkpt lat="42.04926154109027" lon="11.832700078920736"><ele>40.0</ele><time>2026-03-30T06:42:00Z</time></trkpt><trkpt lat="42.049079881826344" lon="11.832994356626074"><ele>37.5</ele><time>2026-03-30T06:42:01Z</time></trkpt><trkpt lat="42.04889964288484" lon="11.833291717150647"><ele>35.0</ele><time>2026-03-30T06:42:02Z</time></trkpt><trkpt lat="42.04871826320052" lon="11.833591563300512"><ele>35.0</ele><time>2026-03-30T06:42:03Z</time></trkpt><trkpt lat="42.0485372154069" lon="11.833891798295628"><ele>35.0</ele><time>2026-03-30T06:42:04Z</time></trkpt><trkpt lat="42.048355523987624" lon="11.834196360116284"><ele>31.0</ele><time>2026-03-30T06:42:05Z</time></trkpt><trkpt lat="42.048173445859156" lon="11.834506018925829"><ele>27.0</ele><time>2026-03-30T06:42:06Z</time></trkpt><trkpt lat="42.047991676574" lon="11.83481898626227"><ele>27.0</ele><time>2026-03-30T06:42:07Z</time></trkpt><trkpt lat="42.047808791688965" lon="11.835132696542097"><ele>27.0</ele><time>2026-03-30T06:42:08Z</time></trkpt><trkpt lat="42.04762494446612" lon="11.835445436377508"><ele>27.0</ele><time>2026-03-30T06:42:09Z</time></trkpt><trkpt lat="42.047440025690015" lon="11.83575682839109"><ele>27.0</ele><time>2026-03-30T06:42:10Z</time></trkpt><trkpt lat="42.04725532014321" lon="11.836066986942205"><ele>29.0</ele><time>2026-03-30T06:42:11Z</time></trkpt><trkpt lat="42.047071807338696" lon="11.83637410806011"><ele>31.0</ele><time>2026-03-30T06:42:12Z</time></trkpt><trkpt lat="42.04688834404525" lon="11.836679174130342"><ele>32.0</ele><time>2026-03-30T06:42:13Z</time></trkpt><trkpt lat="42.04670326392271" lon="11.836981176688875"><ele>33.0</ele><time>2026-03-30T06:42:14Z</time></trkpt><trkpt lat="42.04651786399323" lon="11.837277359103552"><ele>34.0</ele><time>2026-03-30T06:42:15Z</time></trkpt><trkpt lat="42.04633240223089" lon="11.837571117851699"><ele>35.0</ele><time>2026-03-30T06:42:16Z</time></trkpt><trkpt lat="42.046148939193294" lon="11.837863688909952"><ele>35.0</ele><time>2026-03-30T06:42:17Z</time></trkpt><trkpt lat="42.045969833453405" lon="11.83815403459696"><ele>35.0</ele><time>2026-03-30T06:42:18Z</time></trkpt><trkpt lat="42.04579276037489" lon="11.838446863412285"><ele>33.5</ele><time>2026-03-30T06:42:19Z</time></trkpt><trkpt lat="42.04561598598425" lon="11.838738895101262"><ele>32.0</ele><time>2026-03-30T06:42:20Z</time></trkpt><trkpt lat="42.04543927914757" lon="11.839028980241556"><ele>33.0</ele><time>2026-03-30T06:42:20.999Z</time></trkpt><trkpt lat="42.045262634378524" lon="11.839318432074307"><ele>34.0</ele><time>2026-03-30T06:42:21.999Z</time></trkpt><trkpt lat="42.04508614285314" lon="11.839611005943532"><ele>34.0</ele><time>2026-03-30T06:42:22.999Z</time></trkpt><trkpt lat="42.044908304337966" lon="11.839907264700383"><ele>34.0</ele><time>2026-03-30T06:42:23.999Z</time></trkpt><trkpt lat="42.044729405692145" lon="11.840201780663614"><ele>34.0</ele><time>2026-03-30T06:42:24.999Z</time></trkpt><trkpt lat="42.0445499265507" lon="11.84049562677931"><ele>34.0</ele><time>2026-03-30T06:42:25.999Z</time></trkpt><trkpt lat="42.0443706145318" lon="11.840789868490091"><ele>33.0</ele><time>2026-03-30T06:42:26.999Z</time></trkpt><trkpt lat="42.044190902325404" lon="11.841085420600361"><ele>32.0</ele><time>2026-03-30T06:42:27.999Z</time></trkpt><trkpt lat="42.04401035132728" lon="11.841381780582129"><ele>32.0</ele><time>2026-03-30T06:42:28.999Z</time></trkpt><trkpt lat="42.043828519410155" lon="11.8416802532522"><ele>32.0</ele><time>2026-03-30T06:42:29.999Z</time></trkpt><trkpt lat="42.043647274218955" lon="11.84197933476955"><ele>33.5</ele><time>2026-03-30T06:42:30.999Z</time></trkpt><trkpt lat="42.0434661810181" lon="11.842278249237813"><ele>35.0</ele><time>2026-03-30T06:42:31.999Z</time></trkpt><trkpt lat="42.04328579014264" lon="11.84257838932073"><ele>36.5</ele><time>2026-03-30T06:42:32.999Z</time></trkpt><trkpt lat="42.04310462058489" lon="11.84288043193308"><ele>38.0</ele><time>2026-03-30T06:42:33.999Z</time></trkpt><trkpt lat="42.042924517594265" lon="11.84318064722175"><ele>38.5</ele><time>2026-03-30T06:42:34.999Z</time></trkpt><trkpt lat="42.04274254251203" lon="11.843482476754575"><ele>39.0</ele><time>2026-03-30T06:42:35.999Z</time></trkpt><trkpt lat="42.042559496752204" lon="11.843784522438929"><ele>37.5</ele><time>2026-03-30T06:42:36.999Z</time></trkpt><trkpt lat="42.042375886684326" lon="11.844086200094797"><ele>36.0</ele><time>2026-03-30T06:42:37.999Z</time></trkpt><trkpt lat="42.04219358911966" lon="11.844387805091772"><ele>36.0</ele><time>2026-03-30T06:42:38.999Z</time></trkpt><trkpt lat="42.04201320544525" lon="11.844690574011796"><ele>36.0</ele><time>2026-03-30T06:42:39.999Z</time></trkpt><trkpt lat="42.04183342589601" lon="11.844994633069994"><ele>35.5</ele><time>2026-03-30T06:42:40.999Z</time></trkpt><trkpt lat="42.04165342581442" lon="11.845297144531951"><ele>35.0</ele><time>2026-03-30T06:42:41.999Z</time></trkpt><trkpt lat="42.04147377757565" lon="11.845596761077466"><ele>35.5</ele><time>2026-03-30T06:42:42.999Z</time></trkpt><trkpt lat="42.04129310589106" lon="11.84589445158647"><ele>36.0</ele><time>2026-03-30T06:42:43.999Z</time></trkpt><trkpt lat="42.04111287401306" lon="11.846186994355286"><ele>36.0</ele><time>2026-03-30T06:42:44.999Z</time></trkpt><trkpt lat="42.040934657714836" lon="11.846479710947847"><ele>36.0</ele><time>2026-03-30T06:42:45.999Z</time></trkpt><trkpt lat="42.0407609392449" lon="11.84676744759675"><ele>36.5</ele><time>2026-03-30T06:42:46.999Z</time></trkpt><trkpt lat="42.04059037194847" lon="11.847054604071094"><ele>37.0</ele><time>2026-03-30T06:42:47.999Z</time></trkpt><trkpt lat="42.04042167078929" lon="11.84733894564318"><ele>37.0</ele><time>2026-03-30T06:42:48.999Z</time></trkpt><trkpt lat="42.04025710987507" lon="11.847624375742287"><ele>37.0</ele><time>2026-03-30T06:42:49.999Z</time></trkpt><trkpt lat="42.04010046664402" lon="11.847914818211628"><ele>38.5</ele><time>2026-03-30T06:42:50.999Z</time></trkpt><trkpt lat="42.039955310909676" lon="11.848215585041425"><ele>40.0</ele><time>2026-03-30T06:42:51.999Z</time></trkpt><trkpt lat="42.039821382255624" lon="11.848524614595123"><ele>40.0</ele><time>2026-03-30T06:42:52.999Z</time></trkpt><trkpt lat="42.03970410812505" lon="11.848844970150205"><ele>40.0</ele><time>2026-03-30T06:42:53.999Z</time></trkpt><trkpt lat="42.039607140023755" lon="11.849180135830638"><ele>44.0</ele><time>2026-03-30T06:42:54.999Z</time></trkpt><trkpt lat="42.039530710582866" lon="11.849526549728354"><ele>48.0</ele><time>2026-03-30T06:42:55.999Z</time></trkpt><trkpt lat="42.039474305033536" lon="11.849876768993719"><ele>55.0</ele><time>2026-03-30T06:42:56.999Z</time></trkpt><trkpt lat="42.03943582377214" lon="11.850232791523633"><ele>62.0</ele><time>2026-03-30T06:42:57.999Z</time></trkpt><trkpt lat="42.039415706889066" lon="11.850591064305421"><ele>62.0</ele><time>2026-03-30T06:42:58.999Z</time></trkpt><trkpt lat="42.039412386696576" lon="11.85094880945111"><ele>62.0</ele><time>2026-03-30T06:42:59.999Z</time></trkpt><trkpt lat="42.03942904660929" lon="11.851304985789673"><ele>65.0</ele><time>2026-03-30T06:43:00.999Z</time></trkpt><trkpt lat="42.03946574660418" lon="11.851656237133401"><ele>68.0</ele><time>2026-03-30T06:43:01.999Z</time></trkpt><trkpt lat="42.039520449573885" lon="11.85200485301879"><ele>68.0</ele><time>2026-03-30T06:43:02.999Z</time></trkpt><trkpt lat="42.039593035928895" lon="11.852345767663163"><ele>68.0</ele><time>2026-03-30T06:43:03.999Z</time></trkpt><trkpt lat="42.03968505979245" lon="11.852680811839612"><ele>66.0</ele><time>2026-03-30T06:43:04.999Z</time></trkpt><trkpt lat="42.039795298836644" lon="11.853007933935054"><ele>64.0</ele><time>2026-03-30T06:43:05.999Z</time></trkpt><trkpt lat="42.03992204363743" lon="11.853326509732115"><ele>67.5</ele><time>2026-03-30T06:43:06.999Z</time></trkpt><trkpt lat="42.04006773195615" lon="11.853635555132321"><ele>71.0</ele><time>2026-03-30T06:43:07.999Z</time></trkpt><trkpt lat="42.04022234149698" lon="11.853933593265792"><ele>71.0</ele><time>2026-03-30T06:43:08.999Z</time></trkpt><trkpt lat="42.040402118424694" lon="11.854208885166017"><ele>71.0</ele><time>2026-03-30T06:43:09.999Z</time></trkpt><trkpt lat="42.04058711931608" lon="11.854483524766794"><ele>72.0</ele><time>2026-03-30T06:43:10.999Z</time></trkpt><trkpt lat="42.040780912828794" lon="11.854753605957413"><ele>73.0</ele><time>2026-03-30T06:43:11.999Z</time></trkpt><trkpt lat="42.040976116228826" lon="11.855023727312954"><ele>74.0</ele><time>2026-03-30T06:43:12.999Z</time></trkpt><trkpt lat="42.041171609361996" lon="11.855293916582779"><ele>75.0</ele><time>2026-03-30T06:43:13.999Z</time></trkpt><trkpt lat="42.041363644375586" lon="11.85556912879595"><ele>75.0</ele><time>2026-03-30T06:43:14.999Z</time></trkpt><trkpt lat="42.04155346035016" lon="11.855850406667852"><ele>75.0</ele><time>2026-03-30T06:43:15.999Z</time></trkpt><trkpt lat="42.041738628146845" lon="11.856136085158466"><ele>75.0</ele><time>2026-03-30T06:43:16.999Z</time></trkpt><trkpt lat="42.041920248842395" lon="11.856426836217759"><ele>75.0</ele><time>2026-03-30T06:43:17.999Z</time></trkpt><trkpt lat="42.04209165193282" lon="11.856723084550929"><ele>68.5</ele><time>2026-03-30T06:43:18.999Z</time></trkpt><trkpt lat="42.042254081060186" lon="11.857027078189072"><ele>62.0</ele><time>2026-03-30T06:43:20Z</time></trkpt><trkpt lat="42.042401934120576" lon="11.857339249818747"><ele>62.0</ele><time>2026-03-30T06:43:21Z</time></trkpt><trkpt lat="42.0425341019435" lon="11.85766021278578"><ele>62.0</ele><time>2026-03-30T06:43:22Z</time></trkpt><trkpt lat="42.042650732805775" lon="11.85799877969552"><ele>62.0</ele><time>2026-03-30T06:43:23Z</time></trkpt><trkpt lat="42.04275736050082" lon="11.858352067510165"><ele>62.0</ele><time>2026-03-30T06:43:24Z</time></trkpt><trkpt lat="42.042857659767385" lon="11.858713674005163"><ele>61.5</ele><time>2026-03-30T06:43:25Z</time></trkpt><trkpt lat="42.04291748099622" lon="11.85904807088577"><ele>61.0</ele><time>2026-03-30T06:43:26Z</time></trkpt><trkpt lat="42.042972519870645" lon="11.859411905095019"><ele>60.5</ele><time>2026-03-30T06:43:27Z</time></trkpt><trkpt lat="42.04301221033583" lon="11.859781664399044"><ele>60.0</ele><time>2026-03-30T06:43:28Z</time></trkpt><trkpt lat="42.04303779559499" lon="11.860158985054454"><ele>61.0</ele><time>2026-03-30T06:43:29Z</time></trkpt><trkpt lat="42.04305730500165" lon="11.860537241462628"><ele>62.0</ele><time>2026-03-30T06:43:30Z</time></trkpt><trkpt lat="42.043066565785345" lon="11.860915949033615"><ele>68.5</ele><time>2026-03-30T06:43:31Z</time></trkpt><trkpt lat="42.043080149715216" lon="11.861290502793645"><ele>75.0</ele><time>2026-03-30T06:43:32Z</time></trkpt><trkpt lat="42.043100752913894" lon="11.861663789416454"><ele>81.5</ele><time>2026-03-30T06:43:33Z</time></trkpt><trkpt lat="42.04312836439074" lon="11.862036741410298"><ele>88.0</ele><time>2026-03-30T06:43:34Z</time></trkpt><trkpt lat="42.04316404906659" lon="11.862407984107199"><ele>92.0</ele><time>2026-03-30T06:43:35Z</time></trkpt><trkpt lat="42.04322472719589" lon="11.862844046859406"><ele>96.0</ele><time>2026-03-30T06:43:36Z</time></trkpt><trkpt lat="42.04324410266554" lon="11.863249844198037"><ele>94.0</ele><time>2026-03-30T06:43:37Z</time></trkpt><trkpt lat="42.0432757970431" lon="11.863658921921555"><ele>92.0</ele><time>2026-03-30T06:43:38Z</time></trkpt><trkpt lat="42.04330738573487" lon="11.86407027832124"><ele>92.0</ele><time>2026-03-30T06:43:39Z</time></trkpt><trkpt lat="42.04333651969089" lon="11.864243267692615"><ele>92.0</ele><time>2026-03-30T06:43:40Z</time></trkpt><trkpt lat="42.043368206632564" lon="11.864610959841299"><ele>92.0</ele><time>2026-03-30T06:43:41Z</time></trkpt><trkpt lat="42.04339986024875" lon="11.864980343608366"><ele>80.5</ele><time>2026-03-30T06:43:42Z</time></trkpt><trkpt lat="42.04343109123612" lon="11.865350112832925"><ele>69.0</ele><time>2026-03-30T06:43:43Z</time></trkpt><trkpt lat="42.04346057437279" lon="11.865726616123002"><ele>64.0</ele><time>2026-03-30T06:43:44Z</time></trkpt><trkpt lat="42.04348972479711" lon="11.866110455215471"><ele>59.0</ele><time>2026-03-30T06:43:45Z</time></trkpt><trkpt lat="42.04352100141473" lon="11.866505902860476"><ele>56.0</ele><time>2026-03-30T06:43:46Z</time></trkpt><trkpt lat="42.04356006342715" lon="11.86685697437544"><ele>53.0</ele><time>2026-03-30T06:43:47Z</time></trkpt><trkpt lat="42.043587256207445" lon="11.867155424443894"><ele>53.0</ele><time>2026-03-30T06:43:48Z</time></trkpt><trkpt lat="42.04364061500004" lon="11.867520230824043"><ele>53.0</ele><time>2026-03-30T06:43:49Z</time></trkpt><trkpt lat="42.043687255132596" lon="11.867884142281271"><ele>48.0</ele><time>2026-03-30T06:43:50Z</time></trkpt><trkpt lat="42.043721570938295" lon="11.86824150973553"><ele>43.0</ele><time>2026-03-30T06:43:51Z</time></trkpt><trkpt lat="42.04374499191989" lon="11.868597286099005"><ele>38.5</ele><time>2026-03-30T06:43:52Z</time></trkpt><trkpt lat="42.04376340621551" lon="11.868941482264814"><ele>34.0</ele><time>2026-03-30T06:43:53Z</time></trkpt><trkpt lat="42.04378681287684" lon="11.869284464141755"><ele>34.0</ele><time>2026-03-30T06:43:54Z</time></trkpt><trkpt lat="42.04381214588902" lon="11.869627274465529"><ele>34.0</ele><time>2026-03-30T06:43:55Z</time></trkpt><trkpt lat="42.043838189368316" lon="11.869970109859127"><ele>36.0</ele><time>2026-03-30T06:43:56Z</time></trkpt><trkpt lat="42.04386650248964" lon="11.870314797301642"><ele>38.0</ele><time>2026-03-30T06:43:57Z</time></trkpt><trkpt lat="42.04389638989808" lon="11.87066088859856"><ele>35.5</ele><time>2026-03-30T06:43:58Z</time></trkpt><trkpt lat="42.04392737622365" lon="11.87100942279668"><ele>33.0</ele><time>2026-03-30T06:43:59Z</time></trkpt><trkpt lat="42.0439588134634" lon="11.87136144928621"><ele>33.0</ele><time>2026-03-30T06:44:00Z</time></trkpt><trkpt lat="42.04398872593013" lon="11.87171846510964"><ele>33.0</ele><time>2026-03-30T06:44:01Z</time></trkpt><trkpt lat="42.04401680564607" lon="11.872081704408867"><ele>32.5</ele><time>2026-03-30T06:44:02Z</time></trkpt><trkpt lat="42.04404433580439" lon="11.872447314052058"><ele>32.0</ele><time>2026-03-30T06:44:03Z</time></trkpt><trkpt lat="42.04407253318471" lon="11.872816212634518"><ele>32.0</ele><time>2026-03-30T06:44:04Z</time></trkpt><trkpt lat="42.04410277937507" lon="11.873187180605306"><ele>32.0</ele><time>2026-03-30T06:44:05Z</time></trkpt><trkpt lat="42.044133599688706" lon="11.873562986168741"><ele>31.5</ele><time>2026-03-30T06:44:06Z</time></trkpt><trkpt lat="42.044164805322325" lon="11.873939098240578"><ele>31.0</ele><time>2026-03-30T06:44:07Z</time></trkpt><trkpt lat="42.04419575070941" lon="11.874316120283002"><ele>31.0</ele><time>2026-03-30T06:44:08Z</time></trkpt><trkpt lat="42.044226139277576" lon="11.87469320715667"><ele>31.0</ele><time>2026-03-30T06:44:09Z</time></trkpt><trkpt lat="42.04425745630804" lon="11.87507230375446"><ele>29.0</ele><time>2026-03-30T06:44:10Z</time></trkpt><trkpt lat="42.04428867546889" lon="11.875453114023403"><ele>27.0</ele><time>2026-03-30T06:44:11Z</time></trkpt><trkpt lat="42.04431911436934" lon="11.875834523363965"><ele>25.5</ele><time>2026-03-30T06:44:12Z</time></trkpt><trkpt lat="42.044347631318104" lon="11.876215991865273"><ele>24.0</ele><time>2026-03-30T06:44:13Z</time></trkpt><trkpt lat="42.04437392722452" lon="11.876598966629992"><ele>24.0</ele><time>2026-03-30T06:44:14Z</time></trkpt><trkpt lat="42.04439993111381" lon="11.876983429161204"><ele>24.0</ele><time>2026-03-30T06:44:15Z</time></trkpt><trkpt lat="42.04442567630132" lon="11.877366141884885"><ele>25.0</ele><time>2026-03-30T06:44:16Z</time></trkpt><trkpt lat="42.04444912214951" lon="11.877745839548188"><ele>26.0</ele><time>2026-03-30T06:44:17Z</time></trkpt><trkpt lat="42.04447149405384" lon="11.87812762493927"><ele>27.5</ele><time>2026-03-30T06:44:18Z</time></trkpt><trkpt lat="42.04449385848405" lon="11.878507651537277"><ele>29.0</ele><time>2026-03-30T06:44:19Z</time></trkpt><trkpt lat="42.04451587124925" lon="11.878885340005636"><ele>29.0</ele><time>2026-03-30T06:44:20Z</time></trkpt><trkpt lat="42.044536132732105" lon="11.879262340201032"><ele>29.0</ele><time>2026-03-30T06:44:21Z</time></trkpt><trkpt lat="42.04455498648554" lon="11.87964405493539"><ele>28.5</ele><time>2026-03-30T06:44:22Z</time></trkpt><trkpt lat="42.04457057766289" lon="11.880022504867606"><ele>28.0</ele><time>2026-03-30T06:44:23Z</time></trkpt><trkpt lat="42.044584424213205" lon="11.880403391076317"><ele>25.5</ele><time>2026-03-30T06:44:24Z</time></trkpt><trkpt lat="42.04459883550467" lon="11.880786273082894"><ele>23.0</ele><time>2026-03-30T06:44:25Z</time></trkpt><trkpt lat="42.044613570269625" lon="11.881168104055726"><ele>19.0</ele><time>2026-03-30T06:44:26Z</time></trkpt><trkpt lat="42.04462568171004" lon="11.881552075320137"><ele>15.0</ele><time>2026-03-30T06:44:27Z</time></trkpt><trkpt lat="42.04463800515142" lon="11.881930220728503"><ele>13.0</ele><time>2026-03-30T06:44:28Z</time></trkpt><trkpt lat="42.04464901746878" lon="11.882315366588408"><ele>11.0</ele><time>2026-03-30T06:44:29Z</time></trkpt><trkpt lat="42.044658839342446" lon="11.882696058788454"><ele>10.5</ele><time>2026-03-30T06:44:30Z</time></trkpt><trkpt lat="42.04466616038572" lon="11.88307773837757"><ele>10.0</ele><time>2026-03-30T06:44:31Z</time></trkpt><trkpt lat="42.04467112537773" lon="11.883460913037716"><ele>10.0</ele><time>2026-03-30T06:44:32Z</time></trkpt><trkpt lat="42.04467676076209" lon="11.883839763027424"><ele>10.0</ele><time>2026-03-30T06:44:33Z</time></trkpt><trkpt lat="42.044680819966295" lon="11.884223507250299"><ele>11.5</ele><time>2026-03-30T06:44:34Z</time></trkpt><trkpt lat="42.044685932320945" lon="11.88460570112424"><ele>13.0</ele><time>2026-03-30T06:44:35Z</time></trkpt><trkpt lat="42.04468788084195" lon="11.884984793023397"><ele>16.0</ele><time>2026-03-30T06:44:36Z</time></trkpt><trkpt lat="42.04469311852105" lon="11.885370782085241"><ele>19.0</ele><time>2026-03-30T06:44:37Z</time></trkpt><trkpt lat="42.044694935188275" lon="11.885751600442726"><ele>21.5</ele><time>2026-03-30T06:44:38Z</time></trkpt><trkpt lat="42.044698260284136" lon="11.886132907978308"><ele>24.0</ele><time>2026-03-30T06:44:39Z</time></trkpt><trkpt lat="42.04470201419704" lon="11.88651364455931"><ele>24.5</ele><time>2026-03-30T06:44:40Z</time></trkpt><trkpt lat="42.04470456912574" lon="11.8868896176986"><ele>25.0</ele><time>2026-03-30T06:44:41Z</time></trkpt><trkpt lat="42.04470901698642" lon="11.887259444368484"><ele>23.0</ele><time>2026-03-30T06:44:42Z</time></trkpt><trkpt lat="42.04471417317195" lon="11.887624437845624"><ele>21.0</ele><time>2026-03-30T06:44:43Z</time></trkpt><trkpt lat="42.04471723875571" lon="11.88798345036042"><ele>21.0</ele><time>2026-03-30T06:44:44Z</time></trkpt><trkpt lat="42.0447190136891" lon="11.888333544193749"><ele>21.0</ele><time>2026-03-30T06:44:45Z</time></trkpt><trkpt lat="42.04472174118927" lon="11.88868381548376"><ele>19.0</ele><time>2026-03-30T06:44:46Z</time></trkpt><trkpt lat="42.044724534313374" lon="11.889032953938822"><ele>17.0</ele><time>2026-03-30T06:44:47Z</time></trkpt><trkpt lat="42.044727180648316" lon="11.889383465582975"><ele>15.5</ele><time>2026-03-30T06:44:48Z</time></trkpt><trkpt lat="42.044729776977995" lon="11.889732424292072"><ele>14.0</ele><time>2026-03-30T06:44:49Z</time></trkpt><trkpt lat="42.044731183688256" lon="11.89008397505764"><ele>14.0</ele><time>2026-03-30T06:44:50Z</time></trkpt><trkpt lat="42.04473380537518" lon="11.890438487444154"><ele>14.0</ele><time>2026-03-30T06:44:51Z</time></trkpt><trkpt lat="42.04473546785979" lon="11.890793230625198"><ele>16.5</ele><time>2026-03-30T06:44:52Z</time></trkpt><trkpt lat="42.04473580953667" lon="11.891147365996302"><ele>19.0</ele><time>2026-03-30T06:44:53Z</time></trkpt><trkpt lat="42.0447335407105" lon="11.89150788574483"><ele>21.5</ele><time>2026-03-30T06:44:54Z</time></trkpt><trkpt lat="42.04472761977753" lon="11.891871457748111"><ele>24.0</ele><time>2026-03-30T06:44:55Z</time></trkpt><trkpt lat="42.04471478181789" lon="11.89223449376491"><ele>25.0</ele><time>2026-03-30T06:44:56Z</time></trkpt><trkpt lat="42.04469987732636" lon="11.892599931792548"><ele>26.0</ele><time>2026-03-30T06:44:57Z</time></trkpt><trkpt lat="42.04467930257103" lon="11.892965999715086"><ele>26.0</ele><time>2026-03-30T06:44:57.999Z</time></trkpt><trkpt lat="42.044654001041096" lon="11.893334015632545"><ele>26.0</ele><time>2026-03-30T06:44:58.999Z</time></trkpt><trkpt lat="42.04462491148534" lon="11.893699903354168"><ele>26.0</ele><time>2026-03-30T06:44:59.999Z</time></trkpt><trkpt lat="42.0445906412007" lon="11.894065570577007"><ele>26.0</ele><time>2026-03-30T06:45:00.999Z</time></trkpt><trkpt lat="42.04455488237751" lon="11.894433890169429"><ele>26.5</ele><time>2026-03-30T06:45:01.999Z</time></trkpt><trkpt lat="42.044517052741945" lon="11.894800685707086"><ele>27.0</ele><time>2026-03-30T06:45:02.999Z</time></trkpt><trkpt lat="42.04447511294168" lon="11.89516510953931"><ele>27.0</ele><time>2026-03-30T06:45:03.999Z</time></trkpt><trkpt lat="42.044435179320416" lon="11.895531984941734"><ele>27.0</ele><time>2026-03-30T06:45:04.999Z</time></trkpt><trkpt lat="42.044398822285466" lon="11.895896580578404"><ele>27.0</ele><time>2026-03-30T06:45:05.999Z</time></trkpt><trkpt lat="42.044361636335665" lon="11.896264050659601"><ele>27.0</ele><time>2026-03-30T06:45:06.999Z</time></trkpt><trkpt lat="42.04432269874086" lon="11.896631469998711"><ele>29.0</ele><time>2026-03-30T06:45:07.999Z</time></trkpt><trkpt lat="42.04428422416693" lon="11.896997878255995"><ele>31.0</ele><time>2026-03-30T06:45:08.999Z</time></trkpt><trkpt lat="42.04424744845057" lon="11.897363405673381"><ele>33.0</ele><time>2026-03-30T06:45:09.999Z</time></trkpt><trkpt lat="42.04420965670668" lon="11.897727049485267"><ele>35.0</ele><time>2026-03-30T06:45:10.999Z</time></trkpt><trkpt lat="42.0441713526915" lon="11.898090070531914"><ele>34.5</ele><time>2026-03-30T06:45:11.999Z</time></trkpt><trkpt lat="42.04413252268984" lon="11.898453032879472"><ele>34.0</ele><time>2026-03-30T06:45:12.999Z</time></trkpt><trkpt lat="42.0440948709913" lon="11.898817107229993"><ele>34.0</ele><time>2026-03-30T06:45:13.999Z</time></trkpt><trkpt lat="42.044058653614194" lon="11.89918427229186"><ele>34.0</ele><time>2026-03-30T06:45:14.999Z</time></trkpt><trkpt lat="42.04402145837924" lon="11.899551668316802"><ele>34.5</ele><time>2026-03-30T06:45:15.999Z</time></trkpt><trkpt lat="42.04398355606672" lon="11.899919941931413"><ele>35.0</ele><time>2026-03-30T06:45:16.999Z</time></trkpt><trkpt lat="42.043944800406635" lon="11.900290230667698"><ele>36.0</ele><time>2026-03-30T06:45:17.999Z</time></trkpt><trkpt lat="42.04390680893974" lon="11.90066130151541"><ele>37.0</ele><time>2026-03-30T06:45:18.999Z</time></trkpt><trkpt lat="42.04387000441626" lon="11.901035046206257"><ele>37.0</ele><time>2026-03-30T06:45:19.999Z</time></trkpt><trkpt lat="42.04383544534984" lon="11.901408881959918"><ele>37.0</ele><time>2026-03-30T06:45:20.999Z</time></trkpt><trkpt lat="42.04380338412381" lon="11.901781655940786"><ele>35.5</ele><time>2026-03-30T06:45:21.999Z</time></trkpt><trkpt lat="42.043771577315056" lon="11.902165096078045"><ele>34.0</ele><time>2026-03-30T06:45:22.999Z</time></trkpt><trkpt lat="42.04374580296848" lon="11.90254257264328"><ele>32.5</ele><time>2026-03-30T06:45:23.999Z</time></trkpt><trkpt lat="42.04372245066268" lon="11.902917324629612"><ele>31.0</ele><time>2026-03-30T06:45:24.999Z</time></trkpt><trkpt lat="42.043701818046785" lon="11.903292871757877"><ele>30.5</ele><time>2026-03-30T06:45:26Z</time></trkpt><trkpt lat="42.043683362261504" lon="11.903655374640215"><ele>30.0</ele><time>2026-03-30T06:45:27Z</time></trkpt><trkpt lat="42.043668565322754" lon="11.904003599600674"><ele>29.0</ele><time>2026-03-30T06:45:28Z</time></trkpt><trkpt lat="42.0436555600748" lon="11.90434877483013"><ele>28.0</ele><time>2026-03-30T06:45:29Z</time></trkpt><trkpt lat="42.04364371720254" lon="11.904690927521566"><ele>28.0</ele><time>2026-03-30T06:45:30Z</time></trkpt><trkpt lat="42.043635688838286" lon="11.905031646745703"><ele>28.0</ele><time>2026-03-30T06:45:31Z</time></trkpt><trkpt lat="42.04363119609317" lon="11.905374040960822"><ele>27.0</ele><time>2026-03-30T06:45:32Z</time></trkpt><trkpt lat="42.04363115556647" lon="11.905720568032013"><ele>26.0</ele><time>2026-03-30T06:45:33Z</time></trkpt><trkpt lat="42.04363046072305" lon="11.906072623502725"><ele>26.0</ele><time>2026-03-30T06:45:34Z</time></trkpt><trkpt lat="42.04363260598338" lon="11.906421843786385"><ele>26.0</ele><time>2026-03-30T06:45:35Z</time></trkpt><trkpt lat="42.04363321853922" lon="11.90677502744377"><ele>26.0</ele><time>2026-03-30T06:45:36Z</time></trkpt><trkpt lat="42.043636326132344" lon="11.907130991750533"><ele>26.0</ele><time>2026-03-30T06:45:37Z</time></trkpt><trkpt lat="42.04363648781343" lon="11.907483171405847"><ele>27.5</ele><time>2026-03-30T06:45:38Z</time></trkpt><trkpt lat="42.04363762379198" lon="11.907836197343093"><ele>29.0</ele><time>2026-03-30T06:45:39Z</time></trkpt><trkpt lat="42.043640450533424" lon="11.908185331591746"><ele>30.5</ele><time>2026-03-30T06:45:40Z</time></trkpt><trkpt lat="42.04364360842915" lon="11.908537092730532"><ele>32.0</ele><time>2026-03-30T06:45:41Z</time></trkpt><trkpt lat="42.04364605873423" lon="11.908888905025275"><ele>32.0</ele><time>2026-03-30T06:45:42Z</time></trkpt><trkpt lat="42.043649612866176" lon="11.909239783322255"><ele>32.0</ele><time>2026-03-30T06:45:43Z</time></trkpt><trkpt lat="42.04365232616674" lon="11.90959575414137"><ele>32.5</ele><time>2026-03-30T06:45:44Z</time></trkpt><trkpt lat="42.04365700766732" lon="11.909953636665557"><ele>33.0</ele><time>2026-03-30T06:45:45Z</time></trkpt><trkpt lat="42.04366170029716" lon="11.910313753896707"><ele>33.0</ele><time>2026-03-30T06:45:46Z</time></trkpt><trkpt lat="42.043665911995696" lon="11.91067316700827"><ele>33.0</ele><time>2026-03-30T06:45:47Z</time></trkpt><trkpt lat="42.04366885595498" lon="11.91103444081958"><ele>33.0</ele><time>2026-03-30T06:45:48Z</time></trkpt><trkpt lat="42.04367165576983" lon="11.911391089933375"><ele>33.0</ele><time>2026-03-30T06:45:49Z</time></trkpt><trkpt lat="42.04367402315519" lon="11.911744067963797"><ele>32.5</ele><time>2026-03-30T06:45:50Z</time></trkpt><trkpt lat="42.043675005408666" lon="11.912093709998963"><ele>32.0</ele><time>2026-03-30T06:45:51Z</time></trkpt><trkpt lat="42.04367776374628" lon="11.912444111240882"><ele>31.0</ele><time>2026-03-30T06:45:52Z</time></trkpt><trkpt lat="42.04368158255012" lon="11.912794498896503"><ele>30.0</ele><time>2026-03-30T06:45:53Z</time></trkpt><trkpt lat="42.043684304358145" lon="11.91314017430626"><ele>30.0</ele><time>2026-03-30T06:45:54Z</time></trkpt><trkpt lat="42.04368867419302" lon="11.91348720885343"><ele>30.0</ele><time>2026-03-30T06:45:55Z</time></trkpt><trkpt lat="42.04369195801971" lon="11.913836142208774"><ele>30.0</ele><time>2026-03-30T06:45:56Z</time></trkpt><trkpt lat="42.04369581439815" lon="11.914193587590626"><ele>30.0</ele><time>2026-03-30T06:45:57Z</time></trkpt><trkpt lat="42.043698836914" lon="11.914550987360533"><ele>28.5</ele><time>2026-03-30T06:45:58Z</time></trkpt><trkpt lat="42.04370255327172" lon="11.914910238909945"><ele>27.0</ele><time>2026-03-30T06:45:59Z</time></trkpt><trkpt lat="42.043707113123645" lon="11.915275625462808"><ele>24.5</ele><time>2026-03-30T06:46:00Z</time></trkpt><trkpt lat="42.0437118440104" lon="11.91564121521796"><ele>22.0</ele><time>2026-03-30T06:46:01Z</time></trkpt><trkpt lat="42.04371514676773" lon="11.916009071133946"><ele>20.0</ele><time>2026-03-30T06:46:02Z</time></trkpt><trkpt lat="42.04371875120077" lon="11.916378286961365"><ele>18.0</ele><time>2026-03-30T06:46:03Z</time></trkpt><trkpt lat="42.04372090265827" lon="11.916748218784054"><ele>17.0</ele><time>2026-03-30T06:46:04Z</time></trkpt><trkpt lat="42.04372231488085" lon="11.917115728109101"><ele>16.0</ele><time>2026-03-30T06:46:05Z</time></trkpt><trkpt lat="42.04372502575219" lon="11.917483291239753"><ele>14.5</ele><time>2026-03-30T06:46:06Z</time></trkpt><trkpt lat="42.04372717946537" lon="11.9178500909035"><ele>13.0</ele><time>2026-03-30T06:46:07Z</time></trkpt><trkpt lat="42.04372947236829" lon="11.91821796810884"><ele>12.5</ele><time>2026-03-30T06:46:08Z</time></trkpt><trkpt lat="42.043732006299514" lon="11.918584707898837"><ele>12.0</ele><time>2026-03-30T06:46:09Z</time></trkpt><trkpt lat="42.04373488339632" lon="11.918947344946114"><ele>13.0</ele><time>2026-03-30T06:46:10Z</time></trkpt><trkpt lat="42.04373753662583" lon="11.919308360521017"><ele>14.0</ele><time>2026-03-30T06:46:11Z</time></trkpt><trkpt lat="42.043740658804424" lon="11.91966518323264"><ele>14.0</ele><time>2026-03-30T06:46:12Z</time></trkpt><trkpt lat="42.04374368469511" lon="11.920021065817705"><ele>14.0</ele><time>2026-03-30T06:46:13Z</time></trkpt><trkpt lat="42.0437465631186" lon="11.92037494353571"><ele>15.0</ele><time>2026-03-30T06:46:14Z</time></trkpt><trkpt lat="42.04375122044967" lon="11.92072824104066"><ele>16.0</ele><time>2026-03-30T06:46:15Z</time></trkpt><trkpt lat="42.04375496654888" lon="11.921081959749108"><ele>17.0</ele><time>2026-03-30T06:46:16Z</time></trkpt><trkpt lat="42.043757043501934" lon="11.921436587263697"><ele>18.0</ele><time>2026-03-30T06:46:17Z</time></trkpt><trkpt lat="42.0437582455631" lon="11.921786906792292"><ele>18.0</ele><time>2026-03-30T06:46:18Z</time></trkpt><trkpt lat="42.043759264254135" lon="11.92213622394028"><ele>18.0</ele><time>2026-03-30T06:46:19Z</time></trkpt><trkpt lat="42.04375912704932" lon="11.922485441633915"><ele>18.0</ele><time>2026-03-30T06:46:20Z</time></trkpt><trkpt lat="42.043756763510366" lon="11.922833437404806"><ele>18.0</ele><time>2026-03-30T06:46:21Z</time></trkpt><trkpt lat="42.043749848236786" lon="11.923181825754323"><ele>18.5</ele><time>2026-03-30T06:46:22Z</time></trkpt><trkpt lat="42.043735258110715" lon="11.923531192855428"><ele>19.0</ele><time>2026-03-30T06:46:23Z</time></trkpt><trkpt lat="42.043713252284086" lon="11.923880956348027"><ele>19.0</ele><time>2026-03-30T06:46:24Z</time></trkpt><trkpt lat="42.0436802099115" lon="11.92422736785551"><ele>19.0</ele><time>2026-03-30T06:46:25Z</time></trkpt><trkpt lat="42.04363869214469" lon="11.924574862385256"><ele>19.5</ele><time>2026-03-30T06:46:26Z</time></trkpt><trkpt lat="42.04358630150482" lon="11.924920877584734"><ele>20.0</ele><time>2026-03-30T06:46:27Z</time></trkpt><trkpt lat="42.04352415706832" lon="11.925263683745923"><ele>20.0</ele><time>2026-03-30T06:46:28Z</time></trkpt><trkpt lat="42.04345018930281" lon="11.925607734125085"><ele>20.0</ele><time>2026-03-30T06:46:29Z</time></trkpt><trkpt lat="42.043368236384886" lon="11.925948778033401"><ele>17.5</ele><time>2026-03-30T06:46:30Z</time></trkpt><trkpt lat="42.04327926001529" lon="11.92627882927314"><ele>15.0</ele><time>2026-03-30T06:46:31Z</time></trkpt><trkpt lat="42.04319072296976" lon="11.92658781157747"><ele>15.0</ele><time>2026-03-30T06:46:32Z</time></trkpt><trkpt lat="42.0430913924346" lon="11.926875226318188"><ele>15.0</ele><time>2026-03-30T06:46:33Z</time></trkpt><trkpt lat="42.042986005443666" lon="11.927159381503998"><ele>15.0</ele><time>2026-03-30T06:46:34Z</time></trkpt><trkpt lat="42.04287468263245" lon="11.927441075828662"><ele>15.0</ele><time>2026-03-30T06:46:35Z</time></trkpt><trkpt lat="42.04275908856444" lon="11.92772470898469"><ele>14.5</ele><time>2026-03-30T06:46:36Z</time></trkpt><trkpt lat="42.04263960109358" lon="11.928008819691398"><ele>14.0</ele><time>2026-03-30T06:46:37Z</time></trkpt><trkpt lat="42.04251982576797" lon="11.928297268767993"><ele>12.5</ele><time>2026-03-30T06:46:38Z</time></trkpt><trkpt lat="42.04239767522085" lon="11.928588457582187"><ele>11.0</ele><time>2026-03-30T06:46:39Z</time></trkpt><trkpt lat="42.04227345908121" lon="11.92888187358437"><ele>11.0</ele><time>2026-03-30T06:46:40Z</time></trkpt><trkpt lat="42.042147083475825" lon="11.92917748643325"><ele>11.0</ele><time>2026-03-30T06:46:41Z</time></trkpt><trkpt lat="42.04201895693591" lon="11.929474528083418"><ele>11.5</ele><time>2026-03-30T06:46:42Z</time></trkpt><trkpt lat="42.041891239901915" lon="11.929774703100728"><ele>12.0</ele><time>2026-03-30T06:46:43Z</time></trkpt><trkpt lat="42.041763550181045" lon="11.930075826360579"><ele>12.5</ele><time>2026-03-30T06:46:44Z</time></trkpt><trkpt lat="42.04163716094083" lon="11.930374943622224"><ele>13.0</ele><time>2026-03-30T06:46:45Z</time></trkpt><trkpt lat="42.04151249641116" lon="11.930672753366919"><ele>12.0</ele><time>2026-03-30T06:46:46Z</time></trkpt><trkpt lat="42.04138895835625" lon="11.930971309624839"><ele>11.0</ele><time>2026-03-30T06:46:47Z</time></trkpt><trkpt lat="42.04126455999235" lon="11.93126864561066"><ele>11.0</ele><time>2026-03-30T06:46:48Z</time></trkpt><trkpt lat="42.04113950342469" lon="11.931565556104637"><ele>11.0</ele><time>2026-03-30T06:46:49Z</time></trkpt><trkpt lat="42.04101487250745" lon="11.931867138395202"><ele>12.0</ele><time>2026-03-30T06:46:50Z</time></trkpt><trkpt lat="42.040888752099264" lon="11.932177672444093"><ele>13.0</ele><time>2026-03-30T06:46:51Z</time></trkpt><trkpt lat="42.04076513193938" lon="11.932484363013126"><ele>16.5</ele><time>2026-03-30T06:46:51.999Z</time></trkpt><trkpt lat="42.040642203092986" lon="11.93278495783654"><ele>20.0</ele><time>2026-03-30T06:46:52.999Z</time></trkpt><trkpt lat="42.04051706075015" lon="11.933087556341222"><ele>21.0</ele><time>2026-03-30T06:46:53.999Z</time></trkpt><trkpt lat="42.040390169550776" lon="11.933391542965031"><ele>22.0</ele><time>2026-03-30T06:46:54.999Z</time></trkpt><trkpt lat="42.04026054813647" lon="11.933706065741601"><ele>22.0</ele><time>2026-03-30T06:46:55.999Z</time></trkpt><trkpt lat="42.040131152343946" lon="11.934018302900888"><ele>22.0</ele><time>2026-03-30T06:46:56.999Z</time></trkpt><trkpt lat="42.04000730112592" lon="11.934311559933796"><ele>20.5</ele><time>2026-03-30T06:46:57.999Z</time></trkpt><trkpt lat="42.03988453467601" lon="11.934598401093288"><ele>19.0</ele><time>2026-03-30T06:46:58.999Z</time></trkpt><trkpt lat="42.03976393928358" lon="11.93488300093203"><ele>19.5</ele><time>2026-03-30T06:46:59.999Z</time></trkpt><trkpt lat="42.03964157220897" lon="11.935167268482708"><ele>20.0</ele><time>2026-03-30T06:47:00.999Z</time></trkpt><trkpt lat="42.03951334426707" lon="11.935460370495589"><ele>20.0</ele><time>2026-03-30T06:47:01.999Z</time></trkpt><trkpt lat="42.03938305169206" lon="11.935761134252209"><ele>20.0</ele><time>2026-03-30T06:47:02.999Z</time></trkpt><trkpt lat="42.03925265208249" lon="11.936066454261105"><ele>19.5</ele><time>2026-03-30T06:47:03.999Z</time></trkpt><trkpt lat="42.03912220172176" lon="11.93637453472498"><ele>19.0</ele><time>2026-03-30T06:47:04.999Z</time></trkpt><trkpt lat="42.03898940394673" lon="11.93668547141807"><ele>19.5</ele><time>2026-03-30T06:47:05.999Z</time></trkpt><trkpt lat="42.03885378711055" lon="11.937001784294019"><ele>20.0</ele><time>2026-03-30T06:47:06.999Z</time></trkpt><trkpt lat="42.03871628901147" lon="11.937323361569748"><ele>21.5</ele><time>2026-03-30T06:47:07.999Z</time></trkpt><trkpt lat="42.038577938334576" lon="11.93764632034923"><ele>23.0</ele><time>2026-03-30T06:47:08.999Z</time></trkpt><trkpt lat="42.038437028831524" lon="11.937972112195313"><ele>24.0</ele><time>2026-03-30T06:47:09.999Z</time></trkpt><trkpt lat="42.03829508489768" lon="11.938300307295357"><ele>25.0</ele><time>2026-03-30T06:47:10.999Z</time></trkpt><trkpt lat="42.038155470939344" lon="11.938622786594838"><ele>25.0</ele><time>2026-03-30T06:47:11.999Z</time></trkpt><trkpt lat="42.038016811012945" lon="11.938943160068899"><ele>25.0</ele><time>2026-03-30T06:47:12.999Z</time></trkpt><trkpt lat="42.03787773655508" lon="11.939266080783641"><ele>26.5</ele><time>2026-03-30T06:47:13.999Z</time></trkpt><trkpt lat="42.037739314568746" lon="11.939590134002952"><ele>28.0</ele><time>2026-03-30T06:47:14.999Z</time></trkpt><trkpt lat="42.03760172238285" lon="11.939915209551154"><ele>28.5</ele><time>2026-03-30T06:47:15.999Z</time></trkpt><trkpt lat="42.037464377432414" lon="11.940237632857901"><ele>29.0</ele><time>2026-03-30T06:47:16.999Z</time></trkpt><trkpt lat="42.03732649783709" lon="11.940559177845497"><ele>29.0</ele><time>2026-03-30T06:47:17.999Z</time></trkpt><trkpt lat="42.037188831580785" lon="11.940880576056902"><ele>29.0</ele><time>2026-03-30T06:47:18.999Z</time></trkpt><trkpt lat="42.03705155441178" lon="11.941202910447608"><ele>28.5</ele><time>2026-03-30T06:47:19.999Z</time></trkpt><trkpt lat="42.03691387246137" lon="11.941525215810032"><ele>28.0</ele><time>2026-03-30T06:47:20.999Z</time></trkpt><trkpt lat="42.036775753843244" lon="11.941848334448949"><ele>28.0</ele><time>2026-03-30T06:47:21.999Z</time></trkpt><trkpt lat="42.036636590785974" lon="11.942175270900771"><ele>28.0</ele><time>2026-03-30T06:47:22.999Z</time></trkpt><trkpt lat="42.036496906097256" lon="11.942504670015255"><ele>25.5</ele><time>2026-03-30T06:47:23.999Z</time></trkpt><trkpt lat="42.036355600531316" lon="11.942832949396173"><ele>23.0</ele><time>2026-03-30T06:47:24.999Z</time></trkpt><trkpt lat="42.03621594717424" lon="11.9431645303988"><ele>22.5</ele><time>2026-03-30T06:47:25.999Z</time></trkpt><trkpt lat="42.03607426645584" lon="11.94349500071062"><ele>22.0</ele><time>2026-03-30T06:47:26.999Z</time></trkpt><trkpt lat="42.0359318160619" lon="11.943825451335972"><ele>21.5</ele><time>2026-03-30T06:47:27.999Z</time></trkpt><trkpt lat="42.03578960586212" lon="11.94415797468535"><ele>21.0</ele><time>2026-03-30T06:47:28.999Z</time></trkpt><trkpt lat="42.035648636659324" lon="11.944491758033543"><ele>21.0</ele><time>2026-03-30T06:47:29.999Z</time></trkpt><trkpt lat="42.0355077037508" lon="11.94482431956564"><ele>21.0</ele><time>2026-03-30T06:47:30.999Z</time></trkpt><trkpt lat="42.03536767359726" lon="11.945152776106012"><ele>22.0</ele><time>2026-03-30T06:47:32Z</time></trkpt><trkpt lat="42.03522667369098" lon="11.94548205646702"><ele>23.0</ele><time>2026-03-30T06:47:33Z</time></trkpt><trkpt lat="42.03508557335757" lon="11.945809874289068"><ele>21.0</ele><time>2026-03-30T06:47:34Z</time></trkpt><trkpt lat="42.03493961978737" lon="11.946146671750736"><ele>19.0</ele><time>2026-03-30T06:47:35Z</time></trkpt><trkpt lat="42.03479187485791" lon="11.946485836429716"><ele>19.0</ele><time>2026-03-30T06:47:36Z</time></trkpt><trkpt lat="42.03467636765101" lon="11.94677605983105"><ele>19.0</ele><time>2026-03-30T06:47:37Z</time></trkpt><trkpt lat="42.034540841666896" lon="11.94709667455826"><ele>19.0</ele><time>2026-03-30T06:47:38Z</time></trkpt><trkpt lat="42.03440114893199" lon="11.947414004816943"><ele>19.0</ele><time>2026-03-30T06:47:39Z</time></trkpt><trkpt lat="42.03426765826053" lon="11.947731459021737"><ele>19.0</ele><time>2026-03-30T06:47:40Z</time></trkpt><trkpt lat="42.03413929882284" lon="11.948046276141088"><ele>19.0</ele><time>2026-03-30T06:47:41Z</time></trkpt><trkpt lat="42.034010328741736" lon="11.948353786215876"><ele>19.5</ele><time>2026-03-30T06:47:42Z</time></trkpt><trkpt lat="42.03387858915601" lon="11.948659780972084"><ele>20.0</ele><time>2026-03-30T06:47:43Z</time></trkpt><trkpt lat="42.03374920024854" lon="11.948958031054044"><ele>20.5</ele><time>2026-03-30T06:47:44Z</time></trkpt><trkpt lat="42.03362910748678" lon="11.949241707664072"><ele>21.0</ele><time>2026-03-30T06:47:45Z</time></trkpt><trkpt lat="42.03351632008282" lon="11.949505737331032"><ele>21.0</ele><time>2026-03-30T06:47:46Z</time></trkpt><trkpt lat="42.03340833372069" lon="11.949760637164582"><ele>21.0</ele><time>2026-03-30T06:47:47Z</time></trkpt><trkpt lat="42.033301372952124" lon="11.950013902777574"><ele>21.0</ele><time>2026-03-30T06:47:48Z</time></trkpt><trkpt lat="42.03319388953707" lon="11.950273089796832"><ele>20.333333333333332</ele><time>2026-03-30T06:47:49Z</time></trkpt><trkpt lat="42.03308915253256" lon="11.950520130300594"><ele>19.666666666666664</ele><time>2026-03-30T06:47:50Z</time></trkpt><trkpt lat="42.03298925429764" lon="11.95076760598817"><ele>19.0</ele><time>2026-03-30T06:47:51Z</time></trkpt><trkpt lat="42.03288554865761" lon="11.951012971222436"><ele>19.0</ele><time>2026-03-30T06:47:52Z</time></trkpt><trkpt lat="42.03277736462671" lon="11.951271804293153"><ele>19.0</ele><time>2026-03-30T06:47:53Z</time></trkpt><trkpt lat="42.03265879895897" lon="11.951550495501847"><ele>18.5</ele><time>2026-03-30T06:47:54Z</time></trkpt><trkpt lat="42.03253652579055" lon="11.951843205981017"><ele>18.0</ele><time>2026-03-30T06:47:55Z</time></trkpt><trkpt lat="42.03240863559418" lon="11.95214236698642"><ele>17.5</ele><time>2026-03-30T06:47:56Z</time></trkpt><trkpt lat="42.03226984398001" lon="11.952431841696306"><ele>17.0</ele><time>2026-03-30T06:47:57Z</time></trkpt><trkpt lat="42.032133270563996" lon="11.952721669833165"><ele>17.0</ele><time>2026-03-30T06:47:58Z</time></trkpt><trkpt lat="42.0320080139366" lon="11.95302810724203"><ele>17.0</ele><time>2026-03-30T06:47:59Z</time></trkpt><trkpt lat="42.03188680583831" lon="11.953337422757688"><ele>17.0</ele><time>2026-03-30T06:48:00Z</time></trkpt><trkpt lat="42.031762511874156" lon="11.953638878399628"><ele>17.0</ele><time>2026-03-30T06:48:01Z</time></trkpt><trkpt lat="42.03163525669506" lon="11.953937355320344"><ele>17.5</ele><time>2026-03-30T06:48:02Z</time></trkpt><trkpt lat="42.031510570143574" lon="11.954234881784993"><ele>18.0</ele><time>2026-03-30T06:48:03Z</time></trkpt><trkpt lat="42.031391616405074" lon="11.954540804343576"><ele>18.0</ele><time>2026-03-30T06:48:04Z</time></trkpt><trkpt lat="42.03127912530992" lon="11.95485471902569"><ele>18.0</ele><time>2026-03-30T06:48:05Z</time></trkpt><trkpt lat="42.03117377973556" lon="11.955178889378036"><ele>19.0</ele><time>2026-03-30T06:48:06Z</time></trkpt><trkpt lat="42.03107393688169" lon="11.955506339113228"><ele>20.0</ele><time>2026-03-30T06:48:07Z</time></trkpt><trkpt lat="42.03098062795996" lon="11.95584178406462"><ele>19.0</ele><time>2026-03-30T06:48:08Z</time></trkpt><trkpt lat="42.03089551995457" lon="11.956179222600749"><ele>18.0</ele><time>2026-03-30T06:48:09Z</time></trkpt><trkpt lat="42.03081414505042" lon="11.956521163021936"><ele>16.5</ele><time>2026-03-30T06:48:10Z</time></trkpt><trkpt lat="42.03074417035658" lon="11.956860857535803"><ele>15.0</ele><time>2026-03-30T06:48:11Z</time></trkpt><trkpt lat="42.03068300630006" lon="11.957197241785822"><ele>15.0</ele><time>2026-03-30T06:48:12Z</time></trkpt><trkpt lat="42.03063059527325" lon="11.95752868300086"><ele>15.0</ele><time>2026-03-30T06:48:13Z</time></trkpt><trkpt lat="42.03058449465454" lon="11.957859356823413"><ele>15.5</ele><time>2026-03-30T06:48:14Z</time></trkpt><trkpt lat="42.03054323065212" lon="11.958191629580849"><ele>16.0</ele><time>2026-03-30T06:48:15Z</time></trkpt><trkpt lat="42.03050651481028" lon="11.958525618940882"><ele>16.5</ele><time>2026-03-30T06:48:16Z</time></trkpt><trkpt lat="42.030474440829174" lon="11.958859156416793"><ele>17.0</ele><time>2026-03-30T06:48:17Z</time></trkpt><trkpt lat="42.030444419316716" lon="11.959190473472772"><ele>16.5</ele><time>2026-03-30T06:48:18Z</time></trkpt><trkpt lat="42.03041486146463" lon="11.959524111465614"><ele>16.0</ele><time>2026-03-30T06:48:19Z</time></trkpt><trkpt lat="42.03038544737956" lon="11.959855147190131"><ele>17.0</ele><time>2026-03-30T06:48:20Z</time></trkpt><trkpt lat="42.03035538056302" lon="11.960185433915596"><ele>18.0</ele><time>2026-03-30T06:48:21Z</time></trkpt><trkpt lat="42.03032517669821" lon="11.96051700472109"><ele>18.0</ele><time>2026-03-30T06:48:22Z</time></trkpt><trkpt lat="42.0302960713907" lon="11.96084673777957"><ele>18.0</ele><time>2026-03-30T06:48:23Z</time></trkpt><trkpt lat="42.03026633435953" lon="11.961174996661029"><ele>19.5</ele><time>2026-03-30T06:48:24Z</time></trkpt><trkpt lat="42.03023721078808" lon="11.961495138290402"><ele>21.0</ele><time>2026-03-30T06:48:25Z</time></trkpt><trkpt lat="42.03020866024433" lon="11.961807014116424"><ele>21.5</ele><time>2026-03-30T06:48:26Z</time></trkpt><trkpt lat="42.0301811795203" lon="11.962112475135484"><ele>22.0</ele><time>2026-03-30T06:48:27Z</time></trkpt><trkpt lat="42.03015398988408" lon="11.962418690440156"><ele>21.5</ele><time>2026-03-30T06:48:28Z</time></trkpt><trkpt lat="42.030125066915545" lon="11.962729208982614"><ele>21.0</ele><time>2026-03-30T06:48:29Z</time></trkpt><trkpt lat="42.03009301641056" lon="11.96304551625138"><ele>21.0</ele><time>2026-03-30T06:48:30Z</time></trkpt><trkpt lat="42.03006078888403" lon="11.963365412681913"><ele>21.0</ele><time>2026-03-30T06:48:31Z</time></trkpt><trkpt lat="42.03002955030899" lon="11.963687267961314"><ele>21.0</ele><time>2026-03-30T06:48:32Z</time></trkpt><trkpt lat="42.02999938002941" lon="11.964015977044262"><ele>21.0</ele><time>2026-03-30T06:48:33Z</time></trkpt><trkpt lat="42.0299682331583" lon="11.964347255256378"><ele>21.0</ele><time>2026-03-30T06:48:34Z</time></trkpt><trkpt lat="42.02993694044194" lon="11.964681794185983"><ele>21.0</ele><time>2026-03-30T06:48:35Z</time></trkpt><trkpt lat="42.0299048086161" lon="11.965020840592516"><ele>22.0</ele><time>2026-03-30T06:48:36Z</time></trkpt><trkpt lat="42.02987141709553" lon="11.965359773438804"><ele>23.0</ele><time>2026-03-30T06:48:37Z</time></trkpt><trkpt lat="42.029837336049525" lon="11.96570206601011"><ele>23.0</ele><time>2026-03-30T06:48:38Z</time></trkpt><trkpt lat="42.02980396990911" lon="11.966048045090808"><ele>23.0</ele><time>2026-03-30T06:48:39Z</time></trkpt><trkpt lat="42.02977101404784" lon="11.966376293635108"><ele>23.0</ele><time>2026-03-30T06:48:40Z</time></trkpt><trkpt lat="42.02974411318414" lon="11.96668670677234"><ele>23.0</ele><time>2026-03-30T06:48:41Z</time></trkpt><trkpt lat="42.02971755918801" lon="11.966983959761597"><ele>23.0</ele><time>2026-03-30T06:48:42Z</time></trkpt><trkpt lat="42.0296909358717" lon="11.967269450969798"><ele>23.0</ele><time>2026-03-30T06:48:43Z</time></trkpt><trkpt lat="42.029661148998706" lon="11.967547698036341"><ele>23.0</ele><time>2026-03-30T06:48:44Z</time></trkpt><trkpt lat="42.02963790383001" lon="11.967842696333722"><ele>23.333333333333336</ele><time>2026-03-30T06:48:45Z</time></trkpt><trkpt lat="42.02961131653202" lon="11.968126692043345"><ele>23.666666666666668</ele><time>2026-03-30T06:48:45.999Z</time></trkpt><trkpt lat="42.0295819309775" lon="11.968403469075083"><ele>24.0</ele><time>2026-03-30T06:48:46.999Z</time></trkpt><trkpt lat="42.02956186785436" lon="11.968659136184836"><ele>25.0</ele><time>2026-03-30T06:48:47.999Z</time></trkpt><trkpt lat="42.029539965405874" lon="11.968889929293212"><ele>26.0</ele><time>2026-03-30T06:48:48.999Z</time></trkpt><trkpt lat="42.02951829135493" lon="11.969105254652481"><ele>27.0</ele><time>2026-03-30T06:48:49.999Z</time></trkpt><trkpt lat="42.029497926053224" lon="11.969313427005844"><ele>27.666666666666664</ele><time>2026-03-30T06:48:50.999Z</time></trkpt><trkpt lat="42.029475891535824" lon="11.969523330985297"><ele>28.333333333333332</ele><time>2026-03-30T06:48:51.999Z</time></trkpt><trkpt lat="42.02945603078626" lon="11.969744215400201"><ele>29.0</ele><time>2026-03-30T06:48:52.999Z</time></trkpt><trkpt lat="42.02943723317228" lon="11.969973793522504"><ele>29.333333333333332</ele><time>2026-03-30T06:48:53.999Z</time></trkpt><trkpt lat="42.02941919616443" lon="11.970199358543097"><ele>29.666666666666664</ele><time>2026-03-30T06:48:54.999Z</time></trkpt><trkpt lat="42.02940190210943" lon="11.970404056655818"><ele>30.0</ele><time>2026-03-30T06:48:55.999Z</time></trkpt><trkpt lat="42.02938418277345" lon="11.970589915944839"><ele>30.0</ele><time>2026-03-30T06:48:56.999Z</time></trkpt><trkpt lat="42.0293666491438" lon="11.970775888714588"><ele>30.0</ele><time>2026-03-30T06:48:57.999Z</time></trkpt><trkpt lat="42.02935044794362" lon="11.970947026442362"><ele>30.0</ele><time>2026-03-30T06:48:58.999Z</time></trkpt><trkpt lat="42.02933678900488" lon="11.971110478102775"><ele>30.0</ele><time>2026-03-30T06:48:59.999Z</time></trkpt><trkpt lat="42.02932261258507" lon="11.971266947063617"><ele>30.5</ele><time>2026-03-30T06:49:00.999Z</time></trkpt><trkpt lat="42.02930690268906" lon="11.971434722952566"><ele>31.0</ele><time>2026-03-30T06:49:01.999Z</time></trkpt><trkpt lat="42.02928861394614" lon="11.971619412257793"><ele>31.5</ele><time>2026-03-30T06:49:02.999Z</time></trkpt><trkpt lat="42.02927040361007" lon="11.971813729822017"><ele>32.0</ele><time>2026-03-30T06:49:03.999Z</time></trkpt><trkpt lat="42.02925259238851" lon="11.97201631035265"><ele>33.0</ele><time>2026-03-30T06:49:04.999Z</time></trkpt><trkpt lat="42.029233348262004" lon="11.972224890111397"><ele>34.0</ele><time>2026-03-30T06:49:05.999Z</time></trkpt><trkpt lat="42.02921456516089" lon="11.972440264050073"><ele>35.0</ele><time>2026-03-30T06:49:06.999Z</time></trkpt><trkpt lat="42.02919533158286" lon="11.97265995142724"><ele>36.33333333333333</ele><time>2026-03-30T06:49:07.999Z</time></trkpt><trkpt lat="42.029175707221825" lon="11.972875150823048"><ele>37.666666666666664</ele><time>2026-03-30T06:49:08.999Z</time></trkpt><trkpt lat="42.02915446641613" lon="11.973095523682627"><ele>39.0</ele><time>2026-03-30T06:49:09.999Z</time></trkpt><trkpt lat="42.02913148278449" lon="11.973317893867282"><ele>41.333333333333336</ele><time>2026-03-30T06:49:10.999Z</time></trkpt><trkpt lat="42.029108209327156" lon="11.973543329875222"><ele>43.66666666666667</ele><time>2026-03-30T06:49:11.999Z</time></trkpt><trkpt lat="42.02908569519021" lon="11.973772538001812"><ele>46.0</ele><time>2026-03-30T06:49:12.999Z</time></trkpt><trkpt lat="42.02906465591292" lon="11.973998603606194"><ele>48.333333333333336</ele><time>2026-03-30T06:49:13.999Z</time></trkpt><trkpt lat="42.02904293225049" lon="11.974217542625501"><ele>50.66666666666667</ele><time>2026-03-30T06:49:14.999Z</time></trkpt><trkpt lat="42.02901992354696" lon="11.974435130675172"><ele>53.0</ele><time>2026-03-30T06:49:15.999Z</time></trkpt><trkpt lat="42.02899571099882" lon="11.974653479858159"><ele>53.0</ele><time>2026-03-30T06:49:16.999Z</time></trkpt><trkpt lat="42.02897098353735" lon="11.974860123839504"><ele>53.0</ele><time>2026-03-30T06:49:17.999Z</time></trkpt><trkpt lat="42.028945111868346" lon="11.975062196221165"><ele>53.0</ele><time>2026-03-30T06:49:18.999Z</time></trkpt><trkpt lat="42.02891830081509" lon="11.975261057652666"><ele>53.0</ele><time>2026-03-30T06:49:19.999Z</time></trkpt><trkpt lat="42.02888767533631" lon="11.975464305867165"><ele>53.0</ele><time>2026-03-30T06:49:20.999Z</time></trkpt><trkpt lat="42.028849504032436" lon="11.975672736806683"><ele>53.0</ele><time>2026-03-30T06:49:21.999Z</time></trkpt><trkpt lat="42.02880617959433" lon="11.975888903492203"><ele>53.0</ele><time>2026-03-30T06:49:22.999Z</time></trkpt><trkpt lat="42.0287608502352" lon="11.976107872963286"><ele>53.0</ele><time>2026-03-30T06:49:23.999Z</time></trkpt><trkpt lat="42.028712279790554" lon="11.97632209009222"><ele>53.0</ele><time>2026-03-30T06:49:24.999Z</time></trkpt><trkpt lat="42.02865969522795" lon="11.976537016215618"><ele>50.66666666666667</ele><time>2026-03-30T06:49:25.999Z</time></trkpt><trkpt lat="42.02860018886821" lon="11.976756489382685"><ele>48.333333333333336</ele><time>2026-03-30T06:49:26.999Z</time></trkpt><trkpt lat="42.02854056519832" lon="11.976963365383442"><ele>46.0</ele><time>2026-03-30T06:49:27.999Z</time></trkpt><trkpt lat="42.02848098575769" lon="11.977165064143199"><ele>46.0</ele><time>2026-03-30T06:49:28.999Z</time></trkpt><trkpt lat="42.02841343320803" lon="11.977372718902876"><ele>46.0</ele><time>2026-03-30T06:49:29.999Z</time></trkpt><trkpt lat="42.02834236218337" lon="11.977577144234012"><ele>46.0</ele><time>2026-03-30T06:49:30.999Z</time></trkpt><trkpt lat="42.02826590348456" lon="11.977786508345467"><ele>46.0</ele><time>2026-03-30T06:49:31.999Z</time></trkpt><trkpt lat="42.028185307881856" lon="11.978002110475412"><ele>46.0</ele><time>2026-03-30T06:49:32.999Z</time></trkpt><trkpt lat="42.028103554997365" lon="11.97821761883717"><ele>46.0</ele><time>2026-03-30T06:49:33.999Z</time></trkpt><trkpt lat="42.02801912936818" lon="11.97843587935088"><ele>43.0</ele><time>2026-03-30T06:49:34.999Z</time></trkpt><trkpt lat="42.027934272484025" lon="11.978647223902419"><ele>40.0</ele><time>2026-03-30T06:49:35.999Z</time></trkpt><trkpt lat="42.027847418578496" lon="11.97886162661722"><ele>37.0</ele><time>2026-03-30T06:49:37Z</time></trkpt><trkpt lat="42.027759804877036" lon="11.979076824556108"><ele>36.0</ele><time>2026-03-30T06:49:38Z</time></trkpt><trkpt lat="42.02767114043735" lon="11.979294932338922"><ele>35.0</ele><time>2026-03-30T06:49:39Z</time></trkpt><trkpt lat="42.02758625402691" lon="11.979508304866044"><ele>34.0</ele><time>2026-03-30T06:49:40Z</time></trkpt><trkpt lat="42.02750220331769" lon="11.979716800667937"><ele>33.0</ele><time>2026-03-30T06:49:41Z</time></trkpt><trkpt lat="42.027418772106024" lon="11.979927602351253"><ele>32.0</ele><time>2026-03-30T06:49:42Z</time></trkpt><trkpt lat="42.0273352752338" lon="11.980135895921734"><ele>31.0</ele><time>2026-03-30T06:49:43Z</time></trkpt><trkpt lat="42.027252737508796" lon="11.980346288911607"><ele>30.333333333333336</ele><time>2026-03-30T06:49:44Z</time></trkpt><trkpt lat="42.02716792960199" lon="11.980557337988694"><ele>29.666666666666664</ele><time>2026-03-30T06:49:45Z</time></trkpt><trkpt lat="42.0270817596798" lon="11.980770247572542"><ele>29.0</ele><time>2026-03-30T06:49:46Z</time></trkpt><trkpt lat="42.026994695060324" lon="11.980985614965755"><ele>29.0</ele><time>2026-03-30T06:49:47Z</time></trkpt><trkpt lat="42.02690728900597" lon="11.98119974719853"><ele>29.0</ele><time>2026-03-30T06:49:48Z</time></trkpt><trkpt lat="42.02682050179774" lon="11.98141509645927"><ele>29.0</ele><time>2026-03-30T06:49:49Z</time></trkpt><trkpt lat="42.026734051545674" lon="11.981631217816197"><ele>29.0</ele><time>2026-03-30T06:49:50Z</time></trkpt><trkpt lat="42.02664660202866" lon="11.981852587030174"><ele>29.0</ele><time>2026-03-30T06:49:51Z</time></trkpt><trkpt lat="42.02655877926671" lon="11.982074850693536"><ele>29.0</ele><time>2026-03-30T06:49:52Z</time></trkpt><trkpt lat="42.026467430210985" lon="11.982303748502924"><ele>28.0</ele><time>2026-03-30T06:49:53Z</time></trkpt><trkpt lat="42.02637682510035" lon="11.982529606652305"><ele>27.0</ele><time>2026-03-30T06:49:54Z</time></trkpt><trkpt lat="42.02628550301948" lon="11.982759974885345"><ele>26.0</ele><time>2026-03-30T06:49:55Z</time></trkpt><trkpt lat="42.02619225389047" lon="11.9829943732547"><ele>26.0</ele><time>2026-03-30T06:49:56Z</time></trkpt><trkpt lat="42.0260985059986" lon="11.983227920411137"><ele>26.0</ele><time>2026-03-30T06:49:57Z</time></trkpt><trkpt lat="42.02600255003116" lon="11.983464413232468"><ele>26.0</ele><time>2026-03-30T06:49:58Z</time></trkpt><trkpt lat="42.02590567394985" lon="11.983703183794246"><ele>26.666666666666664</ele><time>2026-03-30T06:49:59Z</time></trkpt><trkpt lat="42.025806398145114" lon="11.983947951812764"><ele>27.333333333333336</ele><time>2026-03-30T06:50:00Z</time></trkpt><trkpt lat="42.02570624913708" lon="11.98419321286531"><ele>28.0</ele><time>2026-03-30T06:50:01Z</time></trkpt><trkpt lat="42.025606697658" lon="11.984440639184172"><ele>28.0</ele><time>2026-03-30T06:50:02Z</time></trkpt><trkpt lat="42.025505765051264" lon="11.984693217435286"><ele>28.0</ele><time>2026-03-30T06:50:03Z</time></trkpt><trkpt lat="42.02540437756076" lon="11.984946061768515"><ele>28.0</ele><time>2026-03-30T06:50:04Z</time></trkpt><trkpt lat="42.02530331804603" lon="11.985197910102226"><ele>28.0</ele><time>2026-03-30T06:50:05Z</time></trkpt><trkpt lat="42.025200488688874" lon="11.985458674395998"><ele>28.0</ele><time>2026-03-30T06:50:06Z</time></trkpt><trkpt lat="42.02509821616361" lon="11.985718607273423"><ele>28.0</ele><time>2026-03-30T06:50:07Z</time></trkpt><trkpt lat="42.02499505761394" lon="11.985981761897856"><ele>26.5</ele><time>2026-03-30T06:50:08Z</time></trkpt><trkpt lat="42.024887330511554" lon="11.986248901479971"><ele>25.0</ele><time>2026-03-30T06:50:09Z</time></trkpt><trkpt lat="42.02478256457562" lon="11.986515496704158"><ele>24.5</ele><time>2026-03-30T06:50:10Z</time></trkpt><trkpt lat="42.0246721806754" lon="11.98678066766394"><ele>24.0</ele><time>2026-03-30T06:50:11Z</time></trkpt><trkpt lat="42.02456210651614" lon="11.987052681932363"><ele>24.0</ele><time>2026-03-30T06:50:12Z</time></trkpt><trkpt lat="42.02445191297028" lon="11.987326389347258"><ele>24.0</ele><time>2026-03-30T06:50:13Z</time></trkpt><trkpt lat="42.02434288106649" lon="11.987603499173748"><ele>24.0</ele><time>2026-03-30T06:50:14Z</time></trkpt><trkpt lat="42.02423488683934" lon="11.98788032522553"><ele>24.0</ele><time>2026-03-30T06:50:15Z</time></trkpt><trkpt lat="42.02412608486677" lon="11.988157895898897"><ele>22.5</ele><time>2026-03-30T06:50:16Z</time></trkpt><trkpt lat="42.02401490817853" lon="11.988436714389163"><ele>21.0</ele><time>2026-03-30T06:50:17Z</time></trkpt><trkpt lat="42.02390317900795" lon="11.988714916670542"><ele>21.0</ele><time>2026-03-30T06:50:18Z</time></trkpt><trkpt lat="42.023791477563016" lon="11.988992977975787"><ele>21.0</ele><time>2026-03-30T06:50:19Z</time></trkpt><trkpt lat="42.02368003537863" lon="11.9892688490257"><ele>22.0</ele><time>2026-03-30T06:50:20Z</time></trkpt><trkpt lat="42.02356910902282" lon="11.989541958520025"><ele>23.0</ele><time>2026-03-30T06:50:21Z</time></trkpt><trkpt lat="42.02346049708502" lon="11.989813672265186"><ele>23.333333333333336</ele><time>2026-03-30T06:50:22Z</time></trkpt><trkpt lat="42.023353139352466" lon="11.990081842596084"><ele>23.666666666666668</ele><time>2026-03-30T06:50:23Z</time></trkpt><trkpt lat="42.023249282485715" lon="11.990339215112376"><ele>24.0</ele><time>2026-03-30T06:50:24Z</time></trkpt><trkpt lat="42.023148116752616" lon="11.99059153782346"><ele>23.333333333333332</ele><time>2026-03-30T06:50:25Z</time></trkpt><trkpt lat="42.023047652623255" lon="11.990843246885781"><ele>22.666666666666664</ele><time>2026-03-30T06:50:26Z</time></trkpt><trkpt lat="42.02294585095192" lon="11.991098027242034"><ele>22.0</ele><time>2026-03-30T06:50:27Z</time></trkpt><trkpt lat="42.02284421986996" lon="11.991352102692419"><ele>22.0</ele><time>2026-03-30T06:50:28Z</time></trkpt><trkpt lat="42.0227415404316" lon="11.991608350623762"><ele>22.0</ele><time>2026-03-30T06:50:29Z</time></trkpt><trkpt lat="42.02263778609638" lon="11.991869311180183"><ele>22.0</ele><time>2026-03-30T06:50:30Z</time></trkpt><trkpt lat="42.022530392363365" lon="11.992138762962519"><ele>21.666666666666664</ele><time>2026-03-30T06:50:31Z</time></trkpt><trkpt lat="42.02242465196747" lon="11.992404771674629"><ele>21.333333333333332</ele><time>2026-03-30T06:50:32Z</time></trkpt><trkpt lat="42.022323469209795" lon="11.992654847615274"><ele>21.0</ele><time>2026-03-30T06:50:33Z</time></trkpt><trkpt lat="42.022225000569755" lon="11.992898736054629"><ele>21.0</ele><time>2026-03-30T06:50:34Z</time></trkpt><trkpt lat="42.02212857336669" lon="11.993142374431566"><ele>21.0</ele><time>2026-03-30T06:50:35Z</time></trkpt><trkpt lat="42.02203152939179" lon="11.993388417058917"><ele>21.0</ele><time>2026-03-30T06:50:36Z</time></trkpt><trkpt lat="42.02193170938384" lon="11.993638801638037"><ele>21.333333333333332</ele><time>2026-03-30T06:50:37Z</time></trkpt><trkpt lat="42.021828532050215" lon="11.993893696502008"><ele>21.666666666666664</ele><time>2026-03-30T06:50:38Z</time></trkpt><trkpt lat="42.021723331006214" lon="11.994152979145284"><ele>22.0</ele><time>2026-03-30T06:50:39Z</time></trkpt><trkpt lat="42.021618076529" lon="11.994415937107368"><ele>22.0</ele><time>2026-03-30T06:50:40Z</time></trkpt><trkpt lat="42.021513137564625" lon="11.994679734630266"><ele>22.0</ele><time>2026-03-30T06:50:41Z</time></trkpt><trkpt lat="42.02140876823887" lon="11.994940007500782"><ele>22.0</ele><time>2026-03-30T06:50:42Z</time></trkpt><trkpt lat="42.02130335312014" lon="11.99520112890958"><ele>21.0</ele><time>2026-03-30T06:50:43Z</time></trkpt><trkpt lat="42.021196963370194" lon="11.995465172446133"><ele>20.0</ele><time>2026-03-30T06:50:44Z</time></trkpt><trkpt lat="42.021088987983035" lon="11.99573609559922"><ele>20.5</ele><time>2026-03-30T06:50:45Z</time></trkpt><trkpt lat="42.02098085585417" lon="11.996012463665767"><ele>21.0</ele><time>2026-03-30T06:50:46Z</time></trkpt><trkpt lat="42.02087329625662" lon="11.996296903513297"><ele>20.0</ele><time>2026-03-30T06:50:47Z</time></trkpt><trkpt lat="42.020764446252215" lon="11.996585516124203"><ele>19.0</ele><time>2026-03-30T06:50:48Z</time></trkpt><trkpt lat="42.02065300577516" lon="11.996875766231891"><ele>19.0</ele><time>2026-03-30T06:50:49Z</time></trkpt><trkpt lat="42.0205384070747" lon="11.997168762319632"><ele>19.0</ele><time>2026-03-30T06:50:50Z</time></trkpt><trkpt lat="42.02042022197147" lon="11.997466991360747"><ele>20.0</ele><time>2026-03-30T06:50:51Z</time></trkpt><trkpt lat="42.02029849239152" lon="11.997773248928869"><ele>21.0</ele><time>2026-03-30T06:50:52Z</time></trkpt><trkpt lat="42.02017406529148" lon="11.9980848180873"><ele>21.0</ele><time>2026-03-30T06:50:53Z</time></trkpt><trkpt lat="42.02004586141808" lon="11.998404119854374"><ele>21.0</ele><time>2026-03-30T06:50:54Z</time></trkpt><trkpt lat="42.019915349336266" lon="11.998729800988997"><ele>21.0</ele><time>2026-03-30T06:50:55Z</time></trkpt><trkpt lat="42.0197831084038" lon="11.999059349242303"><ele>21.0</ele><time>2026-03-30T06:50:56Z</time></trkpt><trkpt lat="42.01965088051355" lon="11.999390604397503"><ele>21.0</ele><time>2026-03-30T06:50:57Z</time></trkpt><trkpt lat="42.01951948738402" lon="11.9997221664057"><ele>21.0</ele><time>2026-03-30T06:50:58Z</time></trkpt><trkpt lat="42.019387593044364" lon="12.000055611943175"><ele>21.0</ele><time>2026-03-30T06:50:59Z</time></trkpt><trkpt lat="42.019255821050926" lon="12.00038785395528"><ele>21.0</ele><time>2026-03-30T06:51:00Z</time></trkpt><trkpt lat="42.01912394858879" lon="12.000718725969232"><ele>20.0</ele><time>2026-03-30T06:51:01Z</time></trkpt><trkpt lat="42.018992585483694" lon="12.001048249718664"><ele>19.0</ele><time>2026-03-30T06:51:02Z</time></trkpt><trkpt lat="42.01886005383745" lon="12.001381742049825"><ele>20.5</ele><time>2026-03-30T06:51:03Z</time></trkpt><trkpt lat="42.01872798668352" lon="12.001716196959851"><ele>22.0</ele><time>2026-03-30T06:51:04Z</time></trkpt><trkpt lat="42.018594719022786" lon="12.002052543988713"><ele>22.0</ele><time>2026-03-30T06:51:05Z</time></trkpt><trkpt lat="42.01845936625442" lon="12.002384292243615"><ele>22.0</ele><time>2026-03-30T06:51:06Z</time></trkpt><trkpt lat="42.01832485932161" lon="12.002716704558122"><ele>21.5</ele><time>2026-03-30T06:51:07Z</time></trkpt><trkpt lat="42.01818912717135" lon="12.003051792539463"><ele>21.0</ele><time>2026-03-30T06:51:08Z</time></trkpt><trkpt lat="42.01804808486665" lon="12.003393657932383"><ele>20.5</ele><time>2026-03-30T06:51:09Z</time></trkpt><trkpt lat="42.01790235715046" lon="12.00374759987312"><ele>20.0</ele><time>2026-03-30T06:51:10Z</time></trkpt><trkpt lat="42.01774852202584" lon="12.004112342968472"><ele>20.5</ele><time>2026-03-30T06:51:11Z</time></trkpt><trkpt lat="42.01765620197309" lon="12.004377935668447"><ele>21.0</ele><time>2026-03-30T06:51:12Z</time></trkpt><trkpt lat="42.01752447335598" lon="12.004716205219387"><ele>21.0</ele><time>2026-03-30T06:51:13Z</time></trkpt><trkpt lat="42.01738828565999" lon="12.005054496104817"><ele>21.0</ele><time>2026-03-30T06:51:14Z</time></trkpt><trkpt lat="42.017256292764756" lon="12.00539140267105"><ele>21.0</ele><time>2026-03-30T06:51:15Z</time></trkpt><trkpt lat="42.01712319738389" lon="12.005735127036488"><ele>21.0</ele><time>2026-03-30T06:51:16Z</time></trkpt><trkpt lat="42.016988269956556" lon="12.006070692770278"><ele>21.5</ele><time>2026-03-30T06:51:17Z</time></trkpt><trkpt lat="42.016850947375204" lon="12.006409084798396"><ele>22.0</ele><time>2026-03-30T06:51:18Z</time></trkpt><trkpt lat="42.016711267762275" lon="12.006745954128288"><ele>22.0</ele><time>2026-03-30T06:51:19Z</time></trkpt><trkpt lat="42.01657343224042" lon="12.007085477288031"><ele>22.0</ele><time>2026-03-30T06:51:20Z</time></trkpt><trkpt lat="42.01643736365278" lon="12.007425965281273"><ele>24.0</ele><time>2026-03-30T06:51:21Z</time></trkpt><trkpt lat="42.01629707107019" lon="12.007767865865102"><ele>26.0</ele><time>2026-03-30T06:51:22Z</time></trkpt><trkpt lat="42.01615678850199" lon="12.008107204126402"><ele>26.5</ele><time>2026-03-30T06:51:23Z</time></trkpt><trkpt lat="42.01602041214406" lon="12.008458020924266"><ele>27.0</ele><time>2026-03-30T06:51:24Z</time></trkpt><trkpt lat="42.0158807424607" lon="12.008801898378955"><ele>27.0</ele><time>2026-03-30T06:51:25Z</time></trkpt><trkpt lat="42.0157425179311" lon="12.009150987043071"><ele>27.0</ele><time>2026-03-30T06:51:26Z</time></trkpt><trkpt lat="42.015604533229784" lon="12.009500277557255"><ele>26.5</ele><time>2026-03-30T06:51:27Z</time></trkpt><trkpt lat="42.01546516579063" lon="12.00984767572986"><ele>26.0</ele><time>2026-03-30T06:51:28Z</time></trkpt><trkpt lat="42.01532284554063" lon="12.010193728781799"><ele>26.0</ele><time>2026-03-30T06:51:29Z</time></trkpt><trkpt lat="42.0151813810916" lon="12.01053990781691"><ele>26.0</ele><time>2026-03-30T06:51:30Z</time></trkpt><trkpt lat="42.01504007008902" lon="12.010887770050285"><ele>25.0</ele><time>2026-03-30T06:51:31Z</time></trkpt><trkpt lat="42.01490221855741" lon="12.01123581638459"><ele>24.0</ele><time>2026-03-30T06:51:32Z</time></trkpt><trkpt lat="42.014765536997935" lon="12.011586305644478"><ele>24.5</ele><time>2026-03-30T06:51:33Z</time></trkpt><trkpt lat="42.01462669989006" lon="12.01193216307389"><ele>25.0</ele><time>2026-03-30T06:51:34Z</time></trkpt><trkpt lat="42.01448219670366" lon="12.012278934836173"><ele>25.5</ele><time>2026-03-30T06:51:35Z</time></trkpt><trkpt lat="42.01433808542089" lon="12.012621927431582"><ele>26.0</ele><time>2026-03-30T06:51:36Z</time></trkpt><trkpt lat="42.0141932002547" lon="12.012968422447376"><ele>25.5</ele><time>2026-03-30T06:51:37Z</time></trkpt><trkpt lat="42.01405132577002" lon="12.013311582190724"><ele>25.0</ele><time>2026-03-30T06:51:38Z</time></trkpt><trkpt lat="42.013910140551445" lon="12.013656357517101"><ele>26.0</ele><time>2026-03-30T06:51:39Z</time></trkpt><trkpt lat="42.013769055796324" lon="12.01400253517972"><ele>27.0</ele><time>2026-03-30T06:51:40Z</time></trkpt><trkpt lat="42.013631764242234" lon="12.01434669660513"><ele>27.5</ele><time>2026-03-30T06:51:41Z</time></trkpt><trkpt lat="42.0134950506008" lon="12.014692368213849"><ele>28.0</ele><time>2026-03-30T06:51:42Z</time></trkpt><trkpt lat="42.01335795467186" lon="12.015036522244335"><ele>28.0</ele><time>2026-03-30T06:51:43Z</time></trkpt><trkpt lat="42.01322213735645" lon="12.015381231233796"><ele>28.0</ele><time>2026-03-30T06:51:44Z</time></trkpt><trkpt lat="42.01308582652916" lon="12.015723571324784"><ele>27.0</ele><time>2026-03-30T06:51:45Z</time></trkpt><trkpt lat="42.01294802769945" lon="12.016065057073737"><ele>26.0</ele><time>2026-03-30T06:51:46Z</time></trkpt><trkpt lat="42.01280945192465" lon="12.016403751391296"><ele>26.5</ele><time>2026-03-30T06:51:47Z</time></trkpt><trkpt lat="42.01266929216811" lon="12.01674174828256"><ele>27.0</ele><time>2026-03-30T06:51:48Z</time></trkpt><trkpt lat="42.01252999742748" lon="12.017082695663579"><ele>26.5</ele><time>2026-03-30T06:51:49Z</time></trkpt><trkpt lat="42.01239253536499" lon="12.017421911286522"><ele>26.0</ele><time>2026-03-30T06:51:50Z</time></trkpt><trkpt lat="42.01225815434567" lon="12.01776348973119"><ele>25.5</ele><time>2026-03-30T06:51:51Z</time></trkpt><trkpt lat="42.01212464145093" lon="12.01810525855371"><ele>25.0</ele><time>2026-03-30T06:51:52Z</time></trkpt><trkpt lat="42.01199114159543" lon="12.018446311417778"><ele>23.0</ele><time>2026-03-30T06:51:53Z</time></trkpt><trkpt lat="42.01185442412463" lon="12.018788276810803"><ele>21.0</ele><time>2026-03-30T06:51:54Z</time></trkpt><trkpt lat="42.01171661478097" lon="12.019127406382703"><ele>20.0</ele><time>2026-03-30T06:51:55Z</time></trkpt><trkpt lat="42.01157860487036" lon="12.019471965062955"><ele>19.0</ele><time>2026-03-30T06:51:56Z</time></trkpt><trkpt lat="42.011437946122285" lon="12.019815928331777"><ele>19.0</ele><time>2026-03-30T06:51:57Z</time></trkpt><trkpt lat="42.01129912778236" lon="12.020156867357429"><ele>19.0</ele><time>2026-03-30T06:51:58Z</time></trkpt><trkpt lat="42.01116050454596" lon="12.02049771673546"><ele>19.5</ele><time>2026-03-30T06:51:59Z</time></trkpt><trkpt lat="42.0110227686838" lon="12.020836234358843"><ele>20.0</ele><time>2026-03-30T06:52:00Z</time></trkpt><trkpt lat="42.01088603101054" lon="12.021174153274302"><ele>20.0</ele><time>2026-03-30T06:52:01Z</time></trkpt><trkpt lat="42.010750157359915" lon="12.021513477293999"><ele>20.0</ele><time>2026-03-30T06:52:02Z</time></trkpt><trkpt lat="42.01061770373333" lon="12.021851397194549"><ele>20.0</ele><time>2026-03-30T06:52:03Z</time></trkpt><trkpt lat="42.01048566936028" lon="12.022186643998214"><ele>20.0</ele><time>2026-03-30T06:52:04Z</time></trkpt><trkpt lat="42.010351928648504" lon="12.022521144646863"><ele>20.0</ele><time>2026-03-30T06:52:05Z</time></trkpt><trkpt lat="42.01021653778596" lon="12.02285600340324"><ele>20.0</ele><time>2026-03-30T06:52:06Z</time></trkpt><trkpt lat="42.01008233860519" lon="12.023188903991002"><ele>22.5</ele><time>2026-03-30T06:52:07Z</time></trkpt><trkpt lat="42.0099485401336" lon="12.023526614477897"><ele>25.0</ele><time>2026-03-30T06:52:08Z</time></trkpt><trkpt lat="42.00981508978748" lon="12.023863050237011"><ele>25.0</ele><time>2026-03-30T06:52:09Z</time></trkpt><trkpt lat="42.009679166608144" lon="12.024199163550312"><ele>25.0</ele><time>2026-03-30T06:52:10Z</time></trkpt><trkpt lat="42.0095468213004" lon="12.02453691866024"><ele>25.0</ele><time>2026-03-30T06:52:11Z</time></trkpt><trkpt lat="42.0094114713697" lon="12.024872231812498"><ele>25.0</ele><time>2026-03-30T06:52:12Z</time></trkpt><trkpt lat="42.00927576789914" lon="12.025209031400747"><ele>25.0</ele><time>2026-03-30T06:52:13Z</time></trkpt><trkpt lat="42.0091383322629" lon="12.025547202575206"><ele>25.0</ele><time>2026-03-30T06:52:14Z</time></trkpt><trkpt lat="42.00899867065403" lon="12.025884004736707"><ele>25.5</ele><time>2026-03-30T06:52:15Z</time></trkpt><trkpt lat="42.00885644044886" lon="12.026222931584423"><ele>26.0</ele><time>2026-03-30T06:52:16Z</time></trkpt><trkpt lat="42.008712429233235" lon="12.026558066429205"><ele>27.0</ele><time>2026-03-30T06:52:17Z</time></trkpt><trkpt lat="42.008566190219575" lon="12.026896081150767"><ele>28.0</ele><time>2026-03-30T06:52:18Z</time></trkpt><trkpt lat="42.0084168300407" lon="12.02723209362573"><ele>27.0</ele><time>2026-03-30T06:52:19Z</time></trkpt><trkpt lat="42.0082644552094" lon="12.027565621638505"><ele>26.0</ele><time>2026-03-30T06:52:20Z</time></trkpt><trkpt lat="42.008108225799766" lon="12.027902282066279"><ele>26.0</ele><time>2026-03-30T06:52:21Z</time></trkpt><trkpt lat="42.00795127107835" lon="12.028235347278205"><ele>26.0</ele><time>2026-03-30T06:52:22Z</time></trkpt><trkpt lat="42.00779311432928" lon="12.028562499654509"><ele>25.0</ele><time>2026-03-30T06:52:23Z</time></trkpt><trkpt lat="42.007633823780445" lon="12.028893394959749"><ele>24.0</ele><time>2026-03-30T06:52:24Z</time></trkpt><trkpt lat="42.00747439448727" lon="12.029220591894168"><ele>21.5</ele><time>2026-03-30T06:52:25Z</time></trkpt><trkpt lat="42.007314469534236" lon="12.029548929120876"><ele>19.0</ele><time>2026-03-30T06:52:26Z</time></trkpt><trkpt lat="42.00715410592862" lon="12.02987376901572"><ele>19.0</ele><time>2026-03-30T06:52:27Z</time></trkpt><trkpt lat="42.006992730917624" lon="12.03019721341225"><ele>19.0</ele><time>2026-03-30T06:52:28Z</time></trkpt><trkpt lat="42.006832523718636" lon="12.030522441056403"><ele>19.5</ele><time>2026-03-30T06:52:29Z</time></trkpt><trkpt lat="42.006672338119934" lon="12.030847874558443"><ele>20.0</ele><time>2026-03-30T06:52:30Z</time></trkpt><trkpt lat="42.0065136668603" lon="12.031170094346228"><ele>19.5</ele><time>2026-03-30T06:52:31Z</time></trkpt><trkpt lat="42.00635662019571" lon="12.031494357385652"><ele>19.0</ele><time>2026-03-30T06:52:32Z</time></trkpt><trkpt lat="42.0062031872562" lon="12.03180947427869"><ele>19.0</ele><time>2026-03-30T06:52:33Z</time></trkpt><trkpt lat="42.006058668358015" lon="12.032109552996584"><ele>19.0</ele><time>2026-03-30T06:52:34Z</time></trkpt><trkpt lat="42.00591092582636" lon="12.032409574765893"><ele>18.0</ele><time>2026-03-30T06:52:35Z</time></trkpt><trkpt lat="42.00576252194813" lon="12.032710606981114"><ele>17.0</ele><time>2026-03-30T06:52:36Z</time></trkpt><trkpt lat="42.00561435688866" lon="12.033012573907424"><ele>17.5</ele><time>2026-03-30T06:52:37Z</time></trkpt><trkpt lat="42.0054640508936" lon="12.033318687422986"><ele>18.0</ele><time>2026-03-30T06:52:38Z</time></trkpt><trkpt lat="42.00531370675802" lon="12.033625402405205"><ele>18.0</ele><time>2026-03-30T06:52:39Z</time></trkpt><trkpt lat="42.00516104584584" lon="12.033934031640669"><ele>18.0</ele><time>2026-03-30T06:52:40Z</time></trkpt><trkpt lat="42.00500918780889" lon="12.034242082190401"><ele>17.0</ele><time>2026-03-30T06:52:41Z</time></trkpt><trkpt lat="42.00485565888115" lon="12.034549966508353"><ele>16.0</ele><time>2026-03-30T06:52:42Z</time></trkpt><trkpt lat="42.004702980284534" lon="12.034860198975892"><ele>16.0</ele><time>2026-03-30T06:52:43Z</time></trkpt><trkpt lat="42.00454972458564" lon="12.035170437798667"><ele>16.0</ele><time>2026-03-30T06:52:44Z</time></trkpt><trkpt lat="42.0043981065993" lon="12.035480222072648"><ele>16.0</ele><time>2026-03-30T06:52:45Z</time></trkpt><trkpt lat="42.004246510026654" lon="12.035788746020165"><ele>16.0</ele><time>2026-03-30T06:52:46Z</time></trkpt><trkpt lat="42.00409462696723" lon="12.036096848297873"><ele>18.5</ele><time>2026-03-30T06:52:47Z</time></trkpt><trkpt lat="42.003944077107164" lon="12.036401483718876"><ele>21.0</ele><time>2026-03-30T06:52:48Z</time></trkpt><trkpt lat="42.00379047293617" lon="12.036710743369246"><ele>21.5</ele><time>2026-03-30T06:52:49Z</time></trkpt><trkpt lat="42.00363778111122" lon="12.037018642476658"><ele>22.0</ele><time>2026-03-30T06:52:50Z</time></trkpt><trkpt lat="42.00348624861454" lon="12.037328521962344"><ele>22.5</ele><time>2026-03-30T06:52:51Z</time></trkpt><trkpt lat="42.00333507334236" lon="12.037641326446401"><ele>23.0</ele><time>2026-03-30T06:52:52Z</time></trkpt><trkpt lat="42.00318298553726" lon="12.037958823956147"><ele>23.0</ele><time>2026-03-30T06:52:53Z</time></trkpt><trkpt lat="42.00303539922498" lon="12.038277028351589"><ele>23.0</ele><time>2026-03-30T06:52:54Z</time></trkpt><trkpt lat="42.002882951664034" lon="12.038600615241654"><ele>23.0</ele><time>2026-03-30T06:52:55Z</time></trkpt><trkpt lat="42.002729423042595" lon="12.038926811260435"><ele>23.0</ele><time>2026-03-30T06:52:56Z</time></trkpt><trkpt lat="42.00257664675117" lon="12.039250972102197"><ele>23.5</ele><time>2026-03-30T06:52:57Z</time></trkpt><trkpt lat="42.00242080897708" lon="12.039572089792019"><ele>24.0</ele><time>2026-03-30T06:52:58Z</time></trkpt><trkpt lat="42.00226391843034" lon="12.039893676249195"><ele>23.5</ele><time>2026-03-30T06:52:59Z</time></trkpt><trkpt lat="42.00210654454504" lon="12.040214033211928"><ele>23.0</ele><time>2026-03-30T06:53:00Z</time></trkpt><trkpt lat="42.00194739629075" lon="12.040534527454737"><ele>22.5</ele><time>2026-03-30T06:53:01Z</time></trkpt><trkpt lat="42.001790893325456" lon="12.040858909954078"><ele>22.0</ele><time>2026-03-30T06:53:02Z</time></trkpt><trkpt lat="42.00163148991994" lon="12.041181751760986"><ele>22.0</ele><time>2026-03-30T06:53:03Z</time></trkpt><trkpt lat="42.00147477539992" lon="12.041499953466841"><ele>22.0</ele><time>2026-03-30T06:53:04Z</time></trkpt><trkpt lat="42.00131893631958" lon="12.041816803558865"><ele>21.0</ele><time>2026-03-30T06:53:05Z</time></trkpt><trkpt lat="42.001156638080076" lon="12.042133334329156"><ele>20.0</ele><time>2026-03-30T06:53:06Z</time></trkpt><trkpt lat="42.00099454470914" lon="12.042450050226185"><ele>19.0</ele><time>2026-03-30T06:53:07Z</time></trkpt><trkpt lat="42.00083238851289" lon="12.042764665820608"><ele>18.0</ele><time>2026-03-30T06:53:08Z</time></trkpt><trkpt lat="42.00067025442107" lon="12.043077848918506"><ele>17.5</ele><time>2026-03-30T06:53:09Z</time></trkpt><trkpt lat="42.000510588259516" lon="12.043395869214757"><ele>17.0</ele><time>2026-03-30T06:53:10Z</time></trkpt><trkpt lat="42.000352263992696" lon="12.043711753915094"><ele>17.0</ele><time>2026-03-30T06:53:11Z</time></trkpt><trkpt lat="42.00019468746269" lon="12.04402659505998"><ele>17.0</ele><time>2026-03-30T06:53:12Z</time></trkpt><trkpt lat="42.00003515490327" lon="12.044343004518284"><ele>17.0</ele><time>2026-03-30T06:53:13Z</time></trkpt><trkpt lat="41.99987631913427" lon="12.04465656256352"><ele>17.0</ele><time>2026-03-30T06:53:14Z</time></trkpt><trkpt lat="41.99971529057734" lon="12.044971211972248"><ele>17.0</ele><time>2026-03-30T06:53:15Z</time></trkpt><trkpt lat="41.99955356199431" lon="12.045281075860954"><ele>17.0</ele><time>2026-03-30T06:53:16Z</time></trkpt><trkpt lat="41.999388205956734" lon="12.045591425181394"><ele>17.5</ele><time>2026-03-30T06:53:17Z</time></trkpt><trkpt lat="41.999220181644375" lon="12.045897036866936"><ele>18.0</ele><time>2026-03-30T06:53:18Z</time></trkpt><trkpt lat="41.99905168041764" lon="12.046200475612721"><ele>17.0</ele><time>2026-03-30T06:53:19Z</time></trkpt><trkpt lat="41.99888003468489" lon="12.046501054389957"><ele>16.0</ele><time>2026-03-30T06:53:20Z</time></trkpt><trkpt lat="41.99870815038501" lon="12.046804399431831"><ele>15.5</ele><time>2026-03-30T06:53:21Z</time></trkpt><trkpt lat="41.9985375354481" lon="12.047103246882074"><ele>15.0</ele><time>2026-03-30T06:53:22Z</time></trkpt><trkpt lat="41.998365876132134" lon="12.04740032165132"><ele>13.5</ele><time>2026-03-30T06:53:23Z</time></trkpt><trkpt lat="41.998188894735975" lon="12.047700710695441"><ele>12.0</ele><time>2026-03-30T06:53:24Z</time></trkpt><trkpt lat="41.998009750584295" lon="12.047995329381733"><ele>12.0</ele><time>2026-03-30T06:53:25Z</time></trkpt><trkpt lat="41.99783276447726" lon="12.048287862030046"><ele>12.0</ele><time>2026-03-30T06:53:26Z</time></trkpt><trkpt lat="41.99765776920521" lon="12.048577051496903"><ele>11.5</ele><time>2026-03-30T06:53:27Z</time></trkpt><trkpt lat="41.9974798670351" lon="12.048867709770144"><ele>11.0</ele><time>2026-03-30T06:53:28Z</time></trkpt><trkpt lat="41.99730064669509" lon="12.04916027130995"><ele>11.0</ele><time>2026-03-30T06:53:29Z</time></trkpt><trkpt lat="41.997122858165696" lon="12.049455167264817"><ele>11.0</ele><time>2026-03-30T06:53:30Z</time></trkpt><trkpt lat="41.99694673449393" lon="12.049747291991357"><ele>11.0</ele><time>2026-03-30T06:53:31Z</time></trkpt><trkpt lat="41.9967684878972" lon="12.050040195957774"><ele>11.0</ele><time>2026-03-30T06:53:32Z</time></trkpt><trkpt lat="41.996593727991815" lon="12.050330948793533"><ele>10.5</ele><time>2026-03-30T06:53:33Z</time></trkpt><trkpt lat="41.99642291020646" lon="12.05061857920692"><ele>10.0</ele><time>2026-03-30T06:53:34Z</time></trkpt><trkpt lat="41.99625080522677" lon="12.050911280704035"><ele>11.0</ele><time>2026-03-30T06:53:35Z</time></trkpt><trkpt lat="41.996081475543654" lon="12.05120609971981"><ele>12.0</ele><time>2026-03-30T06:53:36Z</time></trkpt><trkpt lat="41.99591224339269" lon="12.05150102439355"><ele>10.0</ele><time>2026-03-30T06:53:37Z</time></trkpt><trkpt lat="41.99574119021239" lon="12.051795015576593"><ele>8.0</ele><time>2026-03-30T06:53:38Z</time></trkpt><trkpt lat="41.99556550644865" lon="12.052089808763789"><ele>8.0</ele><time>2026-03-30T06:53:39Z</time></trkpt><trkpt lat="41.995390305288105" lon="12.052379990196991"><ele>8.0</ele><time>2026-03-30T06:53:40Z</time></trkpt><trkpt lat="41.995212064318075" lon="12.052675735757157"><ele>8.5</ele><time>2026-03-30T06:53:41Z</time></trkpt><trkpt lat="41.99503223673658" lon="12.052973246423857"><ele>9.0</ele><time>2026-03-30T06:53:42Z</time></trkpt><trkpt lat="41.994853758011075" lon="12.053267043463824"><ele>12.0</ele><time>2026-03-30T06:53:43Z</time></trkpt><trkpt lat="41.99467259285991" lon="12.053565803456447"><ele>15.0</ele><time>2026-03-30T06:53:44Z</time></trkpt><trkpt lat="41.99449215458786" lon="12.053865796807575"><ele>16.0</ele><time>2026-03-30T06:53:45Z</time></trkpt><trkpt lat="41.994309819352495" lon="12.054169388196026"><ele>17.0</ele><time>2026-03-30T06:53:46Z</time></trkpt><trkpt lat="41.99412466829132" lon="12.054469851907237"><ele>17.0</ele><time>2026-03-30T06:53:47Z</time></trkpt><trkpt lat="41.993940092243804" lon="12.054771262798404"><ele>17.0</ele><time>2026-03-30T06:53:48Z</time></trkpt><trkpt lat="41.99375430887092" lon="12.055074611390827"><ele>15.5</ele><time>2026-03-30T06:53:49.001Z</time></trkpt><trkpt lat="41.99357035465394" lon="12.055378898706595"><ele>14.0</ele><time>2026-03-30T06:53:50.001Z</time></trkpt><trkpt lat="41.99338445799369" lon="12.05568422916337"><ele>14.5</ele><time>2026-03-30T06:53:51.001Z</time></trkpt><trkpt lat="41.993198465748534" lon="12.055987482902632"><ele>15.0</ele><time>2026-03-30T06:53:52.001Z</time></trkpt><trkpt lat="41.99301050544468" lon="12.056291290567325"><ele>15.0</ele><time>2026-03-30T06:53:53.001Z</time></trkpt><trkpt lat="41.99282278123927" lon="12.056595656026035"><ele>15.0</ele><time>2026-03-30T06:53:54.001Z</time></trkpt><trkpt lat="41.99263426419832" lon="12.05690168581152"><ele>14.5</ele><time>2026-03-30T06:53:55.001Z</time></trkpt><trkpt lat="41.99244721075669" lon="12.057209214306146"><ele>14.0</ele><time>2026-03-30T06:53:56.001Z</time></trkpt><trkpt lat="41.99226028448098" lon="12.057516372552206"><ele>16.5</ele><time>2026-03-30T06:53:57.001Z</time></trkpt><trkpt lat="41.99207263806714" lon="12.057826190627349"><ele>19.0</ele><time>2026-03-30T06:53:58.001Z</time></trkpt><trkpt lat="41.99188610554692" lon="12.058136524985054"><ele>20.5</ele><time>2026-03-30T06:53:59Z</time></trkpt><trkpt lat="41.991698518969564" lon="12.058445843191803"><ele>22.0</ele><time>2026-03-30T06:54:00Z</time></trkpt><trkpt lat="41.99151186695171" lon="12.058753819377888"><ele>23.5</ele><time>2026-03-30T06:54:01Z</time></trkpt><trkpt lat="41.99132479912293" lon="12.059062458070105"><ele>25.0</ele><time>2026-03-30T06:54:02Z</time></trkpt><trkpt lat="41.99113938023714" lon="12.05936957571875"><ele>25.0</ele><time>2026-03-30T06:54:03Z</time></trkpt><trkpt lat="41.99095430249845" lon="12.05967780581007"><ele>25.0</ele><time>2026-03-30T06:54:04Z</time></trkpt><trkpt lat="41.990767109848356" lon="12.059985281134377"><ele>22.5</ele><time>2026-03-30T06:54:05Z</time></trkpt><trkpt lat="41.990580898093164" lon="12.06029088407239"><ele>20.0</ele><time>2026-03-30T06:54:06Z</time></trkpt><trkpt lat="41.99039665849387" lon="12.060597314083537"><ele>19.5</ele><time>2026-03-30T06:54:07Z</time></trkpt><trkpt lat="41.99021132912497" lon="12.060902545031006"><ele>19.0</ele><time>2026-03-30T06:54:08Z</time></trkpt><trkpt lat="41.99002554968669" lon="12.061203672590741"><ele>18.5</ele><time>2026-03-30T06:54:09Z</time></trkpt><trkpt lat="41.98983910823911" lon="12.061503061483952"><ele>18.0</ele><time>2026-03-30T06:54:10Z</time></trkpt><trkpt lat="41.98965257127882" lon="12.061798311335387"><ele>19.0</ele><time>2026-03-30T06:54:11Z</time></trkpt><trkpt lat="41.989464676822024" lon="12.062092437828198"><ele>20.0</ele><time>2026-03-30T06:54:12Z</time></trkpt><trkpt lat="41.98928135921623" lon="12.062391511196875"><ele>21.5</ele><time>2026-03-30T06:54:13Z</time></trkpt><trkpt lat="41.98910761945518" lon="12.062698778914166"><ele>23.0</ele><time>2026-03-30T06:54:14Z</time></trkpt><trkpt lat="41.98893639924741" lon="12.063008540740505"><ele>23.0</ele><time>2026-03-30T06:54:15Z</time></trkpt><trkpt lat="41.98876764103933" lon="12.063319202262594"><ele>23.0</ele><time>2026-03-30T06:54:16Z</time></trkpt><trkpt lat="41.98859976201899" lon="12.063630398442974"><ele>23.0</ele><time>2026-03-30T06:54:17Z</time></trkpt><trkpt lat="41.98843507005886" lon="12.06394294800895"><ele>23.0</ele><time>2026-03-30T06:54:18Z</time></trkpt><trkpt lat="41.98827565119096" lon="12.064258960261387"><ele>24.5</ele><time>2026-03-30T06:54:19Z</time></trkpt><trkpt lat="41.98812049562455" lon="12.064578110654534"><ele>26.0</ele><time>2026-03-30T06:54:20Z</time></trkpt><trkpt lat="41.9879672744034" lon="12.064899384603994"><ele>24.5</ele><time>2026-03-30T06:54:21Z</time></trkpt><trkpt lat="41.98781448955022" lon="12.065221321410627"><ele>23.0</ele><time>2026-03-30T06:54:22Z</time></trkpt><trkpt lat="41.9876628858656" lon="12.065543528426252"><ele>24.0</ele><time>2026-03-30T06:54:23Z</time></trkpt><trkpt lat="41.98751281311488" lon="12.065867144100618"><ele>25.0</ele><time>2026-03-30T06:54:24Z</time></trkpt><trkpt lat="41.9873651890945" lon="12.06619369731251"><ele>25.0</ele><time>2026-03-30T06:54:25Z</time></trkpt><trkpt lat="41.98722283886621" lon="12.066523573792033"><ele>25.0</ele><time>2026-03-30T06:54:26Z</time></trkpt><trkpt lat="41.98708287252221" lon="12.06685693134277"><ele>27.0</ele><time>2026-03-30T06:54:27Z</time></trkpt><trkpt lat="41.98694405832091" lon="12.06719189271036"><ele>29.0</ele><time>2026-03-30T06:54:28Z</time></trkpt><trkpt lat="41.98680664212984" lon="12.067529285440576"><ele>28.0</ele><time>2026-03-30T06:54:29Z</time></trkpt><trkpt lat="41.98666946705065" lon="12.067868793559082"><ele>27.0</ele><time>2026-03-30T06:54:30Z</time></trkpt><trkpt lat="41.98653255449711" lon="12.068211292032428"><ele>27.5</ele><time>2026-03-30T06:54:31Z</time></trkpt><trkpt lat="41.986394050426476" lon="12.068554365241745"><ele>28.0</ele><time>2026-03-30T06:54:32Z</time></trkpt><trkpt lat="41.98625314472161" lon="12.0689002079001"><ele>28.0</ele><time>2026-03-30T06:54:33Z</time></trkpt><trkpt lat="41.98611259953692" lon="12.069245975491313"><ele>28.0</ele><time>2026-03-30T06:54:34Z</time></trkpt><trkpt lat="41.98597097392168" lon="12.069593470514791"><ele>28.5</ele><time>2026-03-30T06:54:35Z</time></trkpt><trkpt lat="41.985829008677044" lon="12.06994348818371"><ele>29.0</ele><time>2026-03-30T06:54:36Z</time></trkpt><trkpt lat="41.985686540791924" lon="12.070295954821578"><ele>29.0</ele><time>2026-03-30T06:54:37Z</time></trkpt><trkpt lat="41.985542718776095" lon="12.070650691636304"><ele>29.0</ele><time>2026-03-30T06:54:38Z</time></trkpt><trkpt lat="41.98539912670331" lon="12.071008419826596"><ele>28.5</ele><time>2026-03-30T06:54:39Z</time></trkpt><trkpt lat="41.985256921043046" lon="12.071368212153011"><ele>28.0</ele><time>2026-03-30T06:54:40Z</time></trkpt><trkpt lat="41.985112846576456" lon="12.071729057679878"><ele>27.5</ele><time>2026-03-30T06:54:41Z</time></trkpt><trkpt lat="41.98496731546166" lon="12.07208737506484"><ele>27.0</ele><time>2026-03-30T06:54:42Z</time></trkpt><trkpt lat="41.984821851406835" lon="12.07244506004692"><ele>25.0</ele><time>2026-03-30T06:54:43Z</time></trkpt><trkpt lat="41.98467696753761" lon="12.072807381680274"><ele>23.0</ele><time>2026-03-30T06:54:44Z</time></trkpt><trkpt lat="41.98453240379229" lon="12.073169604254373"><ele>23.5</ele><time>2026-03-30T06:54:45Z</time></trkpt><trkpt lat="41.984388606552315" lon="12.073531212102793"><ele>24.0</ele><time>2026-03-30T06:54:46Z</time></trkpt><trkpt lat="41.9842425862551" lon="12.073893391275028"><ele>21.5</ele><time>2026-03-30T06:54:47Z</time></trkpt><trkpt lat="41.984096103373176" lon="12.074255766464056"><ele>19.0</ele><time>2026-03-30T06:54:48Z</time></trkpt><trkpt lat="41.9839485385414" lon="12.07461749197126"><ele>19.5</ele><time>2026-03-30T06:54:49Z</time></trkpt><trkpt lat="41.98380193622574" lon="12.074978896604135"><ele>20.0</ele><time>2026-03-30T06:54:50Z</time></trkpt><trkpt lat="41.98365652158005" lon="12.075340174962166"><ele>20.0</ele><time>2026-03-30T06:54:51Z</time></trkpt><trkpt lat="41.98351144456499" lon="12.075702362016745"><ele>20.0</ele><time>2026-03-30T06:54:52Z</time></trkpt><trkpt lat="41.98336727790051" lon="12.07606550878278"><ele>19.5</ele><time>2026-03-30T06:54:53Z</time></trkpt><trkpt lat="41.98322200415026" lon="12.076425984240512"><ele>19.0</ele><time>2026-03-30T06:54:54Z</time></trkpt><trkpt lat="41.98307532704637" lon="12.076786356454102"><ele>18.5</ele><time>2026-03-30T06:54:55Z</time></trkpt><trkpt lat="41.982929501878516" lon="12.077144097545386"><ele>18.0</ele><time>2026-03-30T06:54:56Z</time></trkpt><trkpt lat="41.98278400290831" lon="12.077498992796373"><ele>16.5</ele><time>2026-03-30T06:54:57Z</time></trkpt><trkpt lat="41.98264076816151" lon="12.077853707436091"><ele>15.0</ele><time>2026-03-30T06:54:58Z</time></trkpt><trkpt lat="41.98249970989404" lon="12.078205065053977"><ele>15.5</ele><time>2026-03-30T06:54:59Z</time></trkpt><trkpt lat="41.982359772356524" lon="12.07855615447093"><ele>16.0</ele><time>2026-03-30T06:55:00Z</time></trkpt><trkpt lat="41.982220474515344" lon="12.078906025355796"><ele>16.0</ele><time>2026-03-30T06:55:01Z</time></trkpt><trkpt lat="41.98208071842821" lon="12.07925241333128"><ele>16.0</ele><time>2026-03-30T06:55:02Z</time></trkpt><trkpt lat="41.98193991442037" lon="12.079595536439957"><ele>16.5</ele><time>2026-03-30T06:55:03Z</time></trkpt><trkpt lat="41.981799660617526" lon="12.079937021063671"><ele>17.0</ele><time>2026-03-30T06:55:04Z</time></trkpt><trkpt lat="41.981660331912366" lon="12.080279414714502"><ele>17.5</ele><time>2026-03-30T06:55:05Z</time></trkpt><trkpt lat="41.98152188155791" lon="12.080622784937262"><ele>18.0</ele><time>2026-03-30T06:55:06Z</time></trkpt><trkpt lat="41.9813842849799" lon="12.080963094407966"><ele>18.0</ele><time>2026-03-30T06:55:07Z</time></trkpt><trkpt lat="41.98124693358875" lon="12.08130348573679"><ele>18.0</ele><time>2026-03-30T06:55:08Z</time></trkpt><trkpt lat="41.98111156667711" lon="12.08164517199662"><ele>18.0</ele><time>2026-03-30T06:55:09Z</time></trkpt><trkpt lat="41.980977515165016" lon="12.081985636167675"><ele>18.0</ele><time>2026-03-30T06:55:10Z</time></trkpt><trkpt lat="41.98084482749797" lon="12.082327043071752"><ele>19.0</ele><time>2026-03-30T06:55:11Z</time></trkpt><trkpt lat="41.98071050942308" lon="12.082666621310757"><ele>20.0</ele><time>2026-03-30T06:55:12Z</time></trkpt><trkpt lat="41.980571922415066" lon="12.08300239086877"><ele>19.5</ele><time>2026-03-30T06:55:13Z</time></trkpt><trkpt lat="41.980430100088235" lon="12.08333566525767"><ele>19.0</ele><time>2026-03-30T06:55:14Z</time></trkpt><trkpt lat="41.98029209042495" lon="12.083670308196044"><ele>19.0</ele><time>2026-03-30T06:55:15Z</time></trkpt><trkpt lat="41.980154685272375" lon="12.084003516501213"><ele>19.0</ele><time>2026-03-30T06:55:16Z</time></trkpt><trkpt lat="41.980016148356" lon="12.084335537325078"><ele>18.0</ele><time>2026-03-30T06:55:17Z</time></trkpt><trkpt lat="41.9798762945728" lon="12.084666380550022"><ele>17.0</ele><time>2026-03-30T06:55:18Z</time></trkpt><trkpt lat="41.979734625466776" lon="12.084996651841186"><ele>17.0</ele><time>2026-03-30T06:55:19Z</time></trkpt><trkpt lat="41.979591348604714" lon="12.08532713570931"><ele>17.0</ele><time>2026-03-30T06:55:20Z</time></trkpt><trkpt lat="41.97944578146919" lon="12.085655361230222"><ele>17.5</ele><time>2026-03-30T06:55:21Z</time></trkpt><trkpt lat="41.97930007011605" lon="12.085983427418556"><ele>18.0</ele><time>2026-03-30T06:55:22Z</time></trkpt><trkpt lat="41.97915468741348" lon="12.086312687273155"><ele>18.5</ele><time>2026-03-30T06:55:23Z</time></trkpt><trkpt lat="41.97900796702631" lon="12.08664235970027"><ele>19.0</ele><time>2026-03-30T06:55:24Z</time></trkpt><trkpt lat="41.97885987479006" lon="12.086971155779528"><ele>19.0</ele><time>2026-03-30T06:55:25Z</time></trkpt><trkpt lat="41.978711251788276" lon="12.087300302836686"><ele>19.0</ele><time>2026-03-30T06:55:26Z</time></trkpt><trkpt lat="41.978562568260834" lon="12.087629433450052"><ele>20.0</ele><time>2026-03-30T06:55:27Z</time></trkpt><trkpt lat="41.97841314492271" lon="12.087958812741128"><ele>21.0</ele><time>2026-03-30T06:55:28Z</time></trkpt><trkpt lat="41.97826425946598" lon="12.0882894535987"><ele>21.0</ele><time>2026-03-30T06:55:29Z</time></trkpt><trkpt lat="41.978114930240736" lon="12.088618294544569"><ele>21.0</ele><time>2026-03-30T06:55:30Z</time></trkpt><trkpt lat="41.97796508905612" lon="12.088949200590662"><ele>22.0</ele><time>2026-03-30T06:55:31Z</time></trkpt><trkpt lat="41.97781592025462" lon="12.089279674110152"><ele>23.0</ele><time>2026-03-30T06:55:32Z</time></trkpt><trkpt lat="41.977667138386366" lon="12.089610631378928"><ele>24.0</ele><time>2026-03-30T06:55:33Z</time></trkpt><trkpt lat="41.97751735575423" lon="12.08994091083233"><ele>25.0</ele><time>2026-03-30T06:55:34Z</time></trkpt><trkpt lat="41.977368517453336" lon="12.090272569011438"><ele>25.0</ele><time>2026-03-30T06:55:35Z</time></trkpt><trkpt lat="41.97721949161838" lon="12.090604074796985"><ele>25.0</ele><time>2026-03-30T06:55:36Z</time></trkpt><trkpt lat="41.97706942219439" lon="12.090935848075283"><ele>25.0</ele><time>2026-03-30T06:55:37Z</time></trkpt><trkpt lat="41.97692007930738" lon="12.091267676277761"><ele>25.0</ele><time>2026-03-30T06:55:38Z</time></trkpt><trkpt lat="41.976769602063506" lon="12.091600528945268"><ele>23.5</ele><time>2026-03-30T06:55:39Z</time></trkpt><trkpt lat="41.97662129785975" lon="12.091934335535154"><ele>22.0</ele><time>2026-03-30T06:55:40Z</time></trkpt><trkpt lat="41.97647416159001" lon="12.092268545615399"><ele>22.5</ele><time>2026-03-30T06:55:41Z</time></trkpt><trkpt lat="41.97632716767172" lon="12.092604958929702"><ele>23.0</ele><time>2026-03-30T06:55:42Z</time></trkpt><trkpt lat="41.97618059639615" lon="12.092942469219217"><ele>22.5</ele><time>2026-03-30T06:55:43Z</time></trkpt><trkpt lat="41.97603445384249" lon="12.09328035524791"><ele>22.0</ele><time>2026-03-30T06:55:44Z</time></trkpt><trkpt lat="41.97588538698476" lon="12.093618266940362"><ele>21.0</ele><time>2026-03-30T06:55:45Z</time></trkpt><trkpt lat="41.9757338741549" lon="12.093954937038195"><ele>20.0</ele><time>2026-03-30T06:55:46Z</time></trkpt><trkpt lat="41.97558206515794" lon="12.09428956939982"><ele>18.5</ele><time>2026-03-30T06:55:47Z</time></trkpt><trkpt lat="41.97542926119706" lon="12.094625915335785"><ele>17.0</ele><time>2026-03-30T06:55:48Z</time></trkpt><trkpt lat="41.975277512553596" lon="12.094961451635687"><ele>17.0</ele><time>2026-03-30T06:55:49Z</time></trkpt><trkpt lat="41.97512595799442" lon="12.095295999741731"><ele>17.0</ele><time>2026-03-30T06:55:50Z</time></trkpt><trkpt lat="41.97497577771534" lon="12.095630989484757"><ele>20.0</ele><time>2026-03-30T06:55:51Z</time></trkpt><trkpt lat="41.974825475406256" lon="12.095968360997608"><ele>23.0</ele><time>2026-03-30T06:55:52Z</time></trkpt><trkpt lat="41.97467379565152" lon="12.09630420511323"><ele>24.5</ele><time>2026-03-30T06:55:53Z</time></trkpt><trkpt lat="41.974521619809046" lon="12.09664016265235"><ele>26.0</ele><time>2026-03-30T06:55:54Z</time></trkpt><trkpt lat="41.97436865492999" lon="12.096978773643327"><ele>26.0</ele><time>2026-03-30T06:55:55.001Z</time></trkpt><trkpt lat="41.97421677764832" lon="12.097317569935594"><ele>26.0</ele><time>2026-03-30T06:55:56.001Z</time></trkpt><trkpt lat="41.97406662638842" lon="12.097656712682216"><ele>27.0</ele><time>2026-03-30T06:55:57.001Z</time></trkpt><trkpt lat="41.97391608714559" lon="12.097992956550646"><ele>28.0</ele><time>2026-03-30T06:55:58.001Z</time></trkpt><trkpt lat="41.97376422443669" lon="12.098328310271977"><ele>29.5</ele><time>2026-03-30T06:55:59.001Z</time></trkpt><trkpt lat="41.973611658020786" lon="12.098662617196503"><ele>31.0</ele><time>2026-03-30T06:56:00.001Z</time></trkpt><trkpt lat="41.973458170298166" lon="12.098995466959035"><ele>30.0</ele><time>2026-03-30T06:56:01.001Z</time></trkpt><trkpt lat="41.973302948560246" lon="12.099325096124769"><ele>29.0</ele><time>2026-03-30T06:56:02.001Z</time></trkpt><trkpt lat="41.973145446384635" lon="12.099652009313916"><ele>29.5</ele><time>2026-03-30T06:56:03.001Z</time></trkpt><trkpt lat="41.97298702643138" lon="12.099979652151433"><ele>30.0</ele><time>2026-03-30T06:56:04.001Z</time></trkpt><trkpt lat="41.9728322543862" lon="12.100309299123186"><ele>30.0</ele><time>2026-03-30T06:56:05Z</time></trkpt><trkpt lat="41.97268073363607" lon="12.100636732873834"><ele>30.0</ele><time>2026-03-30T06:56:06Z</time></trkpt><trkpt lat="41.972529897749446" lon="12.100962567259241"><ele>29.5</ele><time>2026-03-30T06:56:07Z</time></trkpt><trkpt lat="41.97237959789772" lon="12.101288937719438"><ele>29.0</ele><time>2026-03-30T06:56:08Z</time></trkpt><trkpt lat="41.97222901718275" lon="12.101615764685636"><ele>29.0</ele><time>2026-03-30T06:56:09Z</time></trkpt><trkpt lat="41.97207920963904" lon="12.101942703066664"><ele>29.0</ele><time>2026-03-30T06:56:10Z</time></trkpt><trkpt lat="41.971930475496706" lon="12.102267995696929"><ele>28.5</ele><time>2026-03-30T06:56:11Z</time></trkpt><trkpt lat="41.97178336990683" lon="12.102595873780622"><ele>28.0</ele><time>2026-03-30T06:56:12Z</time></trkpt><trkpt lat="41.97163512401753" lon="12.102923297611346"><ele>28.0</ele><time>2026-03-30T06:56:13Z</time></trkpt><trkpt lat="41.97148605786462" lon="12.103250672639914"><ele>28.0</ele><time>2026-03-30T06:56:14Z</time></trkpt><trkpt lat="41.971337260677885" lon="12.103578099636898"><ele>28.0</ele><time>2026-03-30T06:56:15Z</time></trkpt><trkpt lat="41.97118850619135" lon="12.103908257839066"><ele>28.0</ele><time>2026-03-30T06:56:16Z</time></trkpt><trkpt lat="41.971038889977365" lon="12.104239036306444"><ele>27.5</ele><time>2026-03-30T06:56:17Z</time></trkpt><trkpt lat="41.97088946576979" lon="12.10457071732671"><ele>27.0</ele><time>2026-03-30T06:56:18Z</time></trkpt><trkpt lat="41.97074049095517" lon="12.104900766254787"><ele>26.5</ele><time>2026-03-30T06:56:19Z</time></trkpt><trkpt lat="41.97059265882649" lon="12.105234006453312"><ele>26.0</ele><time>2026-03-30T06:56:20Z</time></trkpt><trkpt lat="41.97044741824312" lon="12.105566096262402"><ele>26.0</ele><time>2026-03-30T06:56:21Z</time></trkpt><trkpt lat="41.970301873703065" lon="12.105899742310628"><ele>26.0</ele><time>2026-03-30T06:56:22Z</time></trkpt><trkpt lat="41.97015684689321" lon="12.106234214562587"><ele>25.5</ele><time>2026-03-30T06:56:23Z</time></trkpt><trkpt lat="41.97001086041044" lon="12.106569273218131"><ele>25.0</ele><time>2026-03-30T06:56:24Z</time></trkpt><trkpt lat="41.969865222563655" lon="12.106903794608781"><ele>24.5</ele><time>2026-03-30T06:56:25Z</time></trkpt><trkpt lat="41.96971801901553" lon="12.107238128006085"><ele>24.0</ele><time>2026-03-30T06:56:26Z</time></trkpt><trkpt lat="41.96956934681492" lon="12.107568393751711"><ele>24.0</ele><time>2026-03-30T06:56:27Z</time></trkpt><trkpt lat="41.969419367362356" lon="12.107897942938953"><ele>24.0</ele><time>2026-03-30T06:56:28Z</time></trkpt><trkpt lat="41.969268954662965" lon="12.108227361737427"><ele>23.0</ele><time>2026-03-30T06:56:29Z</time></trkpt><trkpt lat="41.969113966405864" lon="12.108553485758716"><ele>22.0</ele><time>2026-03-30T06:56:30Z</time></trkpt><trkpt lat="41.968957005735064" lon="12.108878242117742"><ele>24.5</ele><time>2026-03-30T06:56:31Z</time></trkpt><trkpt lat="41.968801372250134" lon="12.109201989331192"><ele>27.0</ele><time>2026-03-30T06:56:32Z</time></trkpt><trkpt lat="41.968646378190144" lon="12.10952919413245"><ele>27.0</ele><time>2026-03-30T06:56:33Z</time></trkpt><trkpt lat="41.968491705768066" lon="12.10985905008854"><ele>27.0</ele><time>2026-03-30T06:56:34Z</time></trkpt><trkpt lat="41.96833917226323" lon="12.110189281668076"><ele>25.5</ele><time>2026-03-30T06:56:35Z</time></trkpt><trkpt lat="41.96818848643654" lon="12.1105208970421"><ele>24.0</ele><time>2026-03-30T06:56:36Z</time></trkpt><trkpt lat="41.968038407822895" lon="12.110854039235866"><ele>22.5</ele><time>2026-03-30T06:56:37Z</time></trkpt><trkpt lat="41.967889471930036" lon="12.111186465999626"><ele>21.0</ele><time>2026-03-30T06:56:38Z</time></trkpt><trkpt lat="41.967740826873424" lon="12.111517678101025"><ele>20.0</ele><time>2026-03-30T06:56:39Z</time></trkpt><trkpt lat="41.967591742049024" lon="12.111849111121439"><ele>19.0</ele><time>2026-03-30T06:56:40Z</time></trkpt><trkpt lat="41.96744146646053" lon="12.11217977295628"><ele>17.5</ele><time>2026-03-30T06:56:41Z</time></trkpt><trkpt lat="41.967289131263186" lon="12.11251037855357"><ele>16.0</ele><time>2026-03-30T06:56:42Z</time></trkpt><trkpt lat="41.967135085189405" lon="12.1128417588815"><ele>16.0</ele><time>2026-03-30T06:56:43Z</time></trkpt><trkpt lat="41.96697827998393" lon="12.113171387633301"><ele>16.0</ele><time>2026-03-30T06:56:44Z</time></trkpt><trkpt lat="41.966817040469515" lon="12.113496660769703"><ele>18.0</ele><time>2026-03-30T06:56:45Z</time></trkpt><trkpt lat="41.96665214048454" lon="12.113815685139636"><ele>20.0</ele><time>2026-03-30T06:56:46Z</time></trkpt><trkpt lat="41.96648154901861" lon="12.114131040740405"><ele>21.0</ele><time>2026-03-30T06:56:47Z</time></trkpt><trkpt lat="41.96630552046734" lon="12.114437996035972"><ele>22.0</ele><time>2026-03-30T06:56:48Z</time></trkpt><trkpt lat="41.96612586405308" lon="12.114739635682502"><ele>22.0</ele><time>2026-03-30T06:56:49Z</time></trkpt><trkpt lat="41.96594114589701" lon="12.115031740797924"><ele>22.0</ele><time>2026-03-30T06:56:50Z</time></trkpt><trkpt lat="41.96575471404623" lon="12.115318772963294"><ele>20.5</ele><time>2026-03-30T06:56:51Z</time></trkpt><trkpt lat="41.965566239395955" lon="12.115603459075176"><ele>19.0</ele><time>2026-03-30T06:56:52Z</time></trkpt><trkpt lat="41.965377018933744" lon="12.11588553419687"><ele>19.0</ele><time>2026-03-30T06:56:53Z</time></trkpt><trkpt lat="41.965191014945084" lon="12.116165533192174"><ele>19.0</ele><time>2026-03-30T06:56:54Z</time></trkpt><trkpt lat="41.96500972179896" lon="12.116443124624078"><ele>20.0</ele><time>2026-03-30T06:56:55Z</time></trkpt><trkpt lat="41.96483238684197" lon="12.116712173587565"><ele>21.0</ele><time>2026-03-30T06:56:56Z</time></trkpt><trkpt lat="41.96466776371904" lon="12.11696376727034"><ele>21.0</ele><time>2026-03-30T06:56:57Z</time></trkpt><trkpt lat="41.964509079439445" lon="12.117206431267528"><ele>21.0</ele><time>2026-03-30T06:56:58Z</time></trkpt><trkpt lat="41.964314365324896" lon="12.117491273252277"><ele>21.333333333333332</ele><time>2026-03-30T06:56:59Z</time></trkpt><trkpt lat="41.96416492260793" lon="12.117717560327401"><ele>21.666666666666664</ele><time>2026-03-30T06:57:00Z</time></trkpt><trkpt lat="41.96402306095659" lon="12.117928914587566"><ele>22.0</ele><time>2026-03-30T06:57:01Z</time></trkpt><trkpt lat="41.963876919573906" lon="12.118144960780022"><ele>22.5</ele><time>2026-03-30T06:57:02Z</time></trkpt><trkpt lat="41.96372348070442" lon="12.118378246853943"><ele>23.0</ele><time>2026-03-30T06:57:03Z</time></trkpt><trkpt lat="41.96356882801706" lon="12.11863141421001"><ele>23.0</ele><time>2026-03-30T06:57:04Z</time></trkpt><trkpt lat="41.963411177309126" lon="12.118901021638374"><ele>23.0</ele><time>2026-03-30T06:57:05Z</time></trkpt><trkpt lat="41.963243860523946" lon="12.119169421494176"><ele>23.5</ele><time>2026-03-30T06:57:06Z</time></trkpt><trkpt lat="41.96306724289702" lon="12.119434378624995"><ele>24.0</ele><time>2026-03-30T06:57:07Z</time></trkpt><trkpt lat="41.9628863779152" lon="12.119699974898532"><ele>24.5</ele><time>2026-03-30T06:57:08Z</time></trkpt><trkpt lat="41.962702059461684" lon="12.119959738652678"><ele>25.0</ele><time>2026-03-30T06:57:09Z</time></trkpt><trkpt lat="41.962512073238955" lon="12.120221930590548"><ele>26.0</ele><time>2026-03-30T06:57:10Z</time></trkpt><trkpt lat="41.962324106855185" lon="12.120487860241033"><ele>27.0</ele><time>2026-03-30T06:57:11Z</time></trkpt><trkpt lat="41.962138248402134" lon="12.120759560348164"><ele>27.5</ele><time>2026-03-30T06:57:12Z</time></trkpt><trkpt lat="41.96195336946901" lon="12.12103841745643"><ele>28.0</ele><time>2026-03-30T06:57:13Z</time></trkpt><trkpt lat="41.96176525864651" lon="12.121316356045728"><ele>30.0</ele><time>2026-03-30T06:57:14Z</time></trkpt><trkpt lat="41.96157801380222" lon="12.121592259462556"><ele>32.0</ele><time>2026-03-30T06:57:15Z</time></trkpt><trkpt lat="41.96138629745203" lon="12.121870543079838"><ele>32.0</ele><time>2026-03-30T06:57:16Z</time></trkpt><trkpt lat="41.96118921918818" lon="12.122145144045685"><ele>32.0</ele><time>2026-03-30T06:57:17Z</time></trkpt><trkpt lat="41.96099099959" lon="12.12242261265542"><ele>32.5</ele><time>2026-03-30T06:57:18Z</time></trkpt><trkpt lat="41.96078311811273" lon="12.122688234987326"><ele>33.0</ele><time>2026-03-30T06:57:19Z</time></trkpt><trkpt lat="41.96057156991365" lon="12.12294654445031"><ele>33.0</ele><time>2026-03-30T06:57:20Z</time></trkpt><trkpt lat="41.960354826661096" lon="12.123206178222626"><ele>33.0</ele><time>2026-03-30T06:57:21Z</time></trkpt><trkpt lat="41.96014188142428" lon="12.123460873656901"><ele>32.5</ele><time>2026-03-30T06:57:22Z</time></trkpt><trkpt lat="41.95992931097638" lon="12.123714843701864"><ele>32.0</ele><time>2026-03-30T06:57:23Z</time></trkpt><trkpt lat="41.959719168679776" lon="12.123964634206569"><ele>32.5</ele><time>2026-03-30T06:57:24Z</time></trkpt><trkpt lat="41.9595101991997" lon="12.124217002418165"><ele>33.0</ele><time>2026-03-30T06:57:25Z</time></trkpt><trkpt lat="41.959312621933925" lon="12.124466486907625"><ele>33.0</ele><time>2026-03-30T06:57:26Z</time></trkpt><trkpt lat="41.959111270940824" lon="12.124719731962758"><ele>33.0</ele><time>2026-03-30T06:57:27Z</time></trkpt><trkpt lat="41.958907615290244" lon="12.124969953113395"><ele>33.0</ele><time>2026-03-30T06:57:28Z</time></trkpt><trkpt lat="41.95870066510299" lon="12.125216992766706"><ele>33.0</ele><time>2026-03-30T06:57:29Z</time></trkpt><trkpt lat="41.958495252210874" lon="12.12545473228552"><ele>33.5</ele><time>2026-03-30T06:57:30Z</time></trkpt><trkpt lat="41.95828695246425" lon="12.125698871099893"><ele>34.0</ele><time>2026-03-30T06:57:31Z</time></trkpt><trkpt lat="41.95807631602631" lon="12.12593119813115"><ele>34.0</ele><time>2026-03-30T06:57:32Z</time></trkpt><trkpt lat="41.95786869366916" lon="12.126165478357906"><ele>34.0</ele><time>2026-03-30T06:57:33Z</time></trkpt><trkpt lat="41.95766371188402" lon="12.12639783511607"><ele>34.5</ele><time>2026-03-30T06:57:34Z</time></trkpt><trkpt lat="41.95746052452351" lon="12.126632382896476"><ele>35.0</ele><time>2026-03-30T06:57:35Z</time></trkpt><trkpt lat="41.95726048797291" lon="12.126862585875594"><ele>35.0</ele><time>2026-03-30T06:57:36Z</time></trkpt><trkpt lat="41.957064037850245" lon="12.127094233825272"><ele>35.0</ele><time>2026-03-30T06:57:37Z</time></trkpt><trkpt lat="41.956867884800936" lon="12.127327351038025"><ele>35.0</ele><time>2026-03-30T06:57:38Z</time></trkpt><trkpt lat="41.956673875288416" lon="12.12755410845451"><ele>35.0</ele><time>2026-03-30T06:57:39Z</time></trkpt><trkpt lat="41.95648024816311" lon="12.127782796492523"><ele>35.0</ele><time>2026-03-30T06:57:40Z</time></trkpt><trkpt lat="41.95628517630049" lon="12.128008326432248"><ele>35.0</ele><time>2026-03-30T06:57:41Z</time></trkpt><trkpt lat="41.95609056839489" lon="12.128233374150868"><ele>35.0</ele><time>2026-03-30T06:57:42Z</time></trkpt><trkpt lat="41.95589895529243" lon="12.128460610157296"><ele>35.0</ele><time>2026-03-30T06:57:43Z</time></trkpt><trkpt lat="41.95570759936588" lon="12.128689068840313"><ele>35.5</ele><time>2026-03-30T06:57:44Z</time></trkpt><trkpt lat="41.95551561928737" lon="12.128919002757373"><ele>36.0</ele><time>2026-03-30T06:57:45Z</time></trkpt><trkpt lat="41.95532345727282" lon="12.129146787480463"><ele>36.0</ele><time>2026-03-30T06:57:46Z</time></trkpt><trkpt lat="41.95512900385222" lon="12.129377406722623"><ele>36.0</ele><time>2026-03-30T06:57:47Z</time></trkpt><trkpt lat="41.95493750519571" lon="12.12960423796992"><ele>36.0</ele><time>2026-03-30T06:57:48Z</time></trkpt><trkpt lat="41.9547416942379" lon="12.129836339419638"><ele>36.0</ele><time>2026-03-30T06:57:49Z</time></trkpt><trkpt lat="41.95454972822506" lon="12.130066283178259"><ele>36.5</ele><time>2026-03-30T06:57:50Z</time></trkpt><trkpt lat="41.954350125758715" lon="12.130301891039363"><ele>37.0</ele><time>2026-03-30T06:57:51Z</time></trkpt><trkpt lat="41.95415501281518" lon="12.130530528784707"><ele>37.5</ele><time>2026-03-30T06:57:52Z</time></trkpt><trkpt lat="41.95395607191493" lon="12.130771822106809"><ele>38.0</ele><time>2026-03-30T06:57:53Z</time></trkpt><trkpt lat="41.95375841930638" lon="12.131002689030797"><ele>38.0</ele><time>2026-03-30T06:57:54Z</time></trkpt><trkpt lat="41.953557652349225" lon="12.131241196734578"><ele>38.0</ele><time>2026-03-30T06:57:55Z</time></trkpt><trkpt lat="41.953357580453506" lon="12.131476500624316"><ele>37.0</ele><time>2026-03-30T06:57:56Z</time></trkpt><trkpt lat="41.95315674817313" lon="12.131715553831233"><ele>36.0</ele><time>2026-03-30T06:57:57Z</time></trkpt><trkpt lat="41.952954733336504" lon="12.131950719610515"><ele>36.0</ele><time>2026-03-30T06:57:58Z</time></trkpt><trkpt lat="41.95275435153636" lon="12.132185562058153"><ele>36.0</ele><time>2026-03-30T06:57:59Z</time></trkpt><trkpt lat="41.952552518267886" lon="12.132424170354012"><ele>36.5</ele><time>2026-03-30T06:57:59.999Z</time></trkpt><trkpt lat="41.95234909864121" lon="12.132662166085693"><ele>37.0</ele><time>2026-03-30T06:58:01Z</time></trkpt><trkpt lat="41.95214807503257" lon="12.132898865379724"><ele>37.0</ele><time>2026-03-30T06:58:02Z</time></trkpt><trkpt lat="41.95194584466799" lon="12.13313802406047"><ele>37.0</ele><time>2026-03-30T06:58:03Z</time></trkpt><trkpt lat="41.95174275332579" lon="12.133378923105761"><ele>36.5</ele><time>2026-03-30T06:58:04Z</time></trkpt><trkpt lat="41.951541527458424" lon="12.133616341814426"><ele>36.0</ele><time>2026-03-30T06:58:05Z</time></trkpt><trkpt lat="41.95134026362483" lon="12.13385568790846"><ele>36.0</ele><time>2026-03-30T06:58:06Z</time></trkpt><trkpt lat="41.95113887108089" lon="12.134099253120487"><ele>36.0</ele><time>2026-03-30T06:58:07Z</time></trkpt><trkpt lat="41.95093965047876" lon="12.134346269014108"><ele>36.0</ele><time>2026-03-30T06:58:08Z</time></trkpt><trkpt lat="41.950737065587695" lon="12.134599053315144"><ele>36.0</ele><time>2026-03-30T06:58:09Z</time></trkpt><trkpt lat="41.95053133747752" lon="12.134852098523284"><ele>36.5</ele><time>2026-03-30T06:58:10Z</time></trkpt><trkpt lat="41.95032221663091" lon="12.135100069468093"><ele>37.0</ele><time>2026-03-30T06:58:11Z</time></trkpt><trkpt lat="41.950108039791616" lon="12.135339573374694"><ele>37.0</ele><time>2026-03-30T06:58:12Z</time></trkpt><trkpt lat="41.949895142076585" lon="12.135577873978063"><ele>37.0</ele><time>2026-03-30T06:58:13Z</time></trkpt><trkpt lat="41.949674073226625" lon="12.13582145924591"><ele>37.0</ele><time>2026-03-30T06:58:14Z</time></trkpt><trkpt lat="41.949464003530665" lon="12.136064243277426"><ele>37.0</ele><time>2026-03-30T06:58:15Z</time></trkpt><trkpt lat="41.94925425722898" lon="12.136310033346211"><ele>37.5</ele><time>2026-03-30T06:58:16Z</time></trkpt><trkpt lat="41.949047424579675" lon="12.13655680959427"><ele>38.0</ele><time>2026-03-30T06:58:17Z</time></trkpt><trkpt lat="41.94883899856417" lon="12.136806770594381"><ele>38.0</ele><time>2026-03-30T06:58:18Z</time></trkpt><trkpt lat="41.948626976618904" lon="12.137052635135687"><ele>38.0</ele><time>2026-03-30T06:58:19Z</time></trkpt><trkpt lat="41.94841599435233" lon="12.137295791354639"><ele>37.5</ele><time>2026-03-30T06:58:20Z</time></trkpt><trkpt lat="41.94820583990571" lon="12.137540122499301"><ele>37.0</ele><time>2026-03-30T06:58:21Z</time></trkpt><trkpt lat="41.94799721344965" lon="12.137788914836591"><ele>37.0</ele><time>2026-03-30T06:58:22Z</time></trkpt><trkpt lat="41.94779061245859" lon="12.13803607481751"><ele>37.0</ele><time>2026-03-30T06:58:23Z</time></trkpt><trkpt lat="41.947586617276535" lon="12.138284527241513"><ele>36.5</ele><time>2026-03-30T06:58:24Z</time></trkpt><trkpt lat="41.94738941506965" lon="12.138525500208946"><ele>36.0</ele><time>2026-03-30T06:58:25Z</time></trkpt><trkpt lat="41.94717361251328" lon="12.138770309308876"><ele>36.0</ele><time>2026-03-30T06:58:26Z</time></trkpt><trkpt lat="41.94696708875578" lon="12.139016982714931"><ele>36.0</ele><time>2026-03-30T06:58:27Z</time></trkpt><trkpt lat="41.94676189419077" lon="12.1392632318337"><ele>36.0</ele><time>2026-03-30T06:58:28Z</time></trkpt><trkpt lat="41.946554688147465" lon="12.139510320973082"><ele>36.0</ele><time>2026-03-30T06:58:29Z</time></trkpt><trkpt lat="41.946346489170985" lon="12.139754051055318"><ele>37.0</ele><time>2026-03-30T06:58:30Z</time></trkpt><trkpt lat="41.94613802999031" lon="12.139999995811184"><ele>38.0</ele><time>2026-03-30T06:58:31Z</time></trkpt><trkpt lat="41.94593200511026" lon="12.140243540935247"><ele>37.0</ele><time>2026-03-30T06:58:32Z</time></trkpt><trkpt lat="41.94572295036031" lon="12.140487499437423"><ele>36.0</ele><time>2026-03-30T06:58:33Z</time></trkpt><trkpt lat="41.945515934443605" lon="12.140731175271195"><ele>36.0</ele><time>2026-03-30T06:58:34Z</time></trkpt><trkpt lat="41.945308740066245" lon="12.14097424830963"><ele>36.0</ele><time>2026-03-30T06:58:35Z</time></trkpt><trkpt lat="41.94509877183022" lon="12.141218599579524"><ele>36.0</ele><time>2026-03-30T06:58:36Z</time></trkpt><trkpt lat="41.9448958698374" lon="12.141465139760873"><ele>36.0</ele><time>2026-03-30T06:58:37Z</time></trkpt><trkpt lat="41.94468844101056" lon="12.141709841239736"><ele>36.0</ele><time>2026-03-30T06:58:38Z</time></trkpt><trkpt lat="41.94448130132421" lon="12.141956232828695"><ele>36.0</ele><time>2026-03-30T06:58:39Z</time></trkpt><trkpt lat="41.944273309470034" lon="12.142202379099492"><ele>34.5</ele><time>2026-03-30T06:58:40Z</time></trkpt><trkpt lat="41.94406432719229" lon="12.142447906786261"><ele>33.0</ele><time>2026-03-30T06:58:41Z</time></trkpt><trkpt lat="41.94385403027711" lon="12.142693438188127"><ele>33.0</ele><time>2026-03-30T06:58:42Z</time></trkpt><trkpt lat="41.94364443655881" lon="12.142938505588758"><ele>33.0</ele><time>2026-03-30T06:58:43Z</time></trkpt><trkpt lat="41.94343481622949" lon="12.14318455680107"><ele>32.0</ele><time>2026-03-30T06:58:44Z</time></trkpt><trkpt lat="41.94322182234926" lon="12.143430559178807"><ele>31.0</ele><time>2026-03-30T06:58:45Z</time></trkpt><trkpt lat="41.94301152880062" lon="12.14367926953367"><ele>31.0</ele><time>2026-03-30T06:58:46Z</time></trkpt><trkpt lat="41.942799889907185" lon="12.143925348019135"><ele>31.0</ele><time>2026-03-30T06:58:47Z</time></trkpt><trkpt lat="41.94259493900412" lon="12.144173280345766"><ele>31.5</ele><time>2026-03-30T06:58:48Z</time></trkpt><trkpt lat="41.94238207976265" lon="12.144425244080018"><ele>32.0</ele><time>2026-03-30T06:58:49Z</time></trkpt><trkpt lat="41.942170125548046" lon="12.144674554468825"><ele>31.5</ele><time>2026-03-30T06:58:50Z</time></trkpt><trkpt lat="41.941958411496714" lon="12.144927260593441"><ele>31.0</ele><time>2026-03-30T06:58:51Z</time></trkpt><trkpt lat="41.941746764896536" lon="12.145177517746342"><ele>31.5</ele><time>2026-03-30T06:58:52Z</time></trkpt><trkpt lat="41.94153542099479" lon="12.145429504673578"><ele>32.0</ele><time>2026-03-30T06:58:53Z</time></trkpt><trkpt lat="41.94132010519731" lon="12.145681531235226"><ele>31.5</ele><time>2026-03-30T06:58:54Z</time></trkpt><trkpt lat="41.94110840630524" lon="12.14593799307476"><ele>31.0</ele><time>2026-03-30T06:58:55Z</time></trkpt><trkpt lat="41.94089213563071" lon="12.146188285296908"><ele>31.5</ele><time>2026-03-30T06:58:56Z</time></trkpt><trkpt lat="41.940677620507174" lon="12.146442494349554"><ele>32.0</ele><time>2026-03-30T06:58:57Z</time></trkpt><trkpt lat="41.94046344702652" lon="12.146700448005285"><ele>31.0</ele><time>2026-03-30T06:58:58Z</time></trkpt><trkpt lat="41.940254811955725" lon="12.146960305758245"><ele>30.0</ele><time>2026-03-30T06:58:59Z</time></trkpt><trkpt lat="41.94004678707348" lon="12.147229806698135"><ele>29.0</ele><time>2026-03-30T06:59:00Z</time></trkpt><trkpt lat="41.939842813461894" lon="12.14750249681332"><ele>28.0</ele><time>2026-03-30T06:59:01Z</time></trkpt><trkpt lat="41.939643582640656" lon="12.147781792291687"><ele>28.0</ele><time>2026-03-30T06:59:02Z</time></trkpt><trkpt lat="41.93944602054938" lon="12.148069404646334"><ele>28.0</ele><time>2026-03-30T06:59:03Z</time></trkpt><trkpt lat="41.93926023390386" lon="12.148359178697543"><ele>27.5</ele><time>2026-03-30T06:59:04Z</time></trkpt><trkpt lat="41.93906883271224" lon="12.148661914552937"><ele>27.0</ele><time>2026-03-30T06:59:05Z</time></trkpt><trkpt lat="41.938885307004256" lon="12.148965605915027"><ele>27.0</ele><time>2026-03-30T06:59:06Z</time></trkpt><trkpt lat="41.93870896478233" lon="12.14927537565181"><ele>27.0</ele><time>2026-03-30T06:59:07Z</time></trkpt><trkpt lat="41.93853185882132" lon="12.14958968949949"><ele>25.0</ele><time>2026-03-30T06:59:08Z</time></trkpt><trkpt lat="41.938361311648585" lon="12.149912337537675"><ele>23.0</ele><time>2026-03-30T06:59:09Z</time></trkpt><trkpt lat="41.93819635915379" lon="12.150234776018687"><ele>23.0</ele><time>2026-03-30T06:59:10Z</time></trkpt><trkpt lat="41.93803456960062" lon="12.150566608001515"><ele>23.0</ele><time>2026-03-30T06:59:11Z</time></trkpt><trkpt lat="41.937877695883316" lon="12.15090365926481"><ele>24.5</ele><time>2026-03-30T06:59:12Z</time></trkpt><trkpt lat="41.93772536256047" lon="12.151245789266135"><ele>26.0</ele><time>2026-03-30T06:59:13Z</time></trkpt><trkpt lat="41.937579309908145" lon="12.151591589150545"><ele>23.5</ele><time>2026-03-30T06:59:14Z</time></trkpt><trkpt lat="41.93744168492508" lon="12.151938241766205"><ele>21.0</ele><time>2026-03-30T06:59:15Z</time></trkpt><trkpt lat="41.937307836651314" lon="12.152291780964642"><ele>21.5</ele><time>2026-03-30T06:59:16Z</time></trkpt><trkpt lat="41.93717925661589" lon="12.152646257605763"><ele>22.0</ele><time>2026-03-30T06:59:17Z</time></trkpt><trkpt lat="41.93705665119572" lon="12.153003131987653"><ele>22.5</ele><time>2026-03-30T06:59:18Z</time></trkpt><trkpt lat="41.93693836928557" lon="12.153362610849205"><ele>23.0</ele><time>2026-03-30T06:59:19Z</time></trkpt><trkpt lat="41.93682636560484" lon="12.153721853044278"><ele>20.0</ele><time>2026-03-30T06:59:20Z</time></trkpt><trkpt lat="41.93672140884965" lon="12.154083514403888"><ele>17.0</ele><time>2026-03-30T06:59:21Z</time></trkpt><trkpt lat="41.936622708909006" lon="12.154449633385594"><ele>17.0</ele><time>2026-03-30T06:59:22Z</time></trkpt><trkpt lat="41.93653145589283" lon="12.154815001987822"><ele>17.0</ele><time>2026-03-30T06:59:23Z</time></trkpt><trkpt lat="41.936444808038154" lon="12.15517898958752"><ele>17.5</ele><time>2026-03-30T06:59:24Z</time></trkpt><trkpt lat="41.93635971943785" lon="12.155544443350676"><ele>18.0</ele><time>2026-03-30T06:59:25Z</time></trkpt><trkpt lat="41.93627965001174" lon="12.155904743326568"><ele>18.0</ele><time>2026-03-30T06:59:26Z</time></trkpt><trkpt lat="41.93619677415668" lon="12.156272276300578"><ele>18.0</ele><time>2026-03-30T06:59:27Z</time></trkpt><trkpt lat="41.936120232044864" lon="12.156632679932173"><ele>17.5</ele><time>2026-03-30T06:59:28Z</time></trkpt><trkpt lat="41.93604055112972" lon="12.156995009956916"><ele>17.0</ele><time>2026-03-30T06:59:29Z</time></trkpt><trkpt lat="41.93596131809251" lon="12.157359239797797"><ele>16.0</ele><time>2026-03-30T06:59:30Z</time></trkpt><trkpt lat="41.9358800427739" lon="12.157724421509744"><ele>15.0</ele><time>2026-03-30T06:59:31Z</time></trkpt><trkpt lat="41.93580267463013" lon="12.158082241794778"><ele>16.0</ele><time>2026-03-30T06:59:32Z</time></trkpt><trkpt lat="41.935727018146224" lon="12.15844574211059"><ele>17.0</ele><time>2026-03-30T06:59:33Z</time></trkpt><trkpt lat="41.935645761862304" lon="12.158810419058673"><ele>16.0</ele><time>2026-03-30T06:59:34Z</time></trkpt><trkpt lat="41.93556555224406" lon="12.159173877350046"><ele>15.0</ele><time>2026-03-30T06:59:35Z</time></trkpt><trkpt lat="41.9354864334364" lon="12.15953570359353"><ele>15.5</ele><time>2026-03-30T06:59:36Z</time></trkpt><trkpt lat="41.93540769783438" lon="12.159899288651962"><ele>16.0</ele><time>2026-03-30T06:59:37Z</time></trkpt><trkpt lat="41.93532578288339" lon="12.160263219635182"><ele>16.0</ele><time>2026-03-30T06:59:37.999Z</time></trkpt><trkpt lat="41.93524830065676" lon="12.160622167113202"><ele>16.0</ele><time>2026-03-30T06:59:38.999Z</time></trkpt><trkpt lat="41.93516531385159" lon="12.160986865768873"><ele>16.5</ele><time>2026-03-30T06:59:39.999Z</time></trkpt><trkpt lat="41.93508160526614" lon="12.16135214095729"><ele>17.0</ele><time>2026-03-30T06:59:40.999Z</time></trkpt><trkpt lat="41.9349921759766" lon="12.161722847362032"><ele>17.0</ele><time>2026-03-30T06:59:41.999Z</time></trkpt><trkpt lat="41.934901070922315" lon="12.162095976043423"><ele>17.0</ele><time>2026-03-30T06:59:42.999Z</time></trkpt><trkpt lat="41.93480738135676" lon="12.162471762368856"><ele>17.5</ele><time>2026-03-30T06:59:43.999Z</time></trkpt><trkpt lat="41.93471014657203" lon="12.162849505268879"><ele>18.0</ele><time>2026-03-30T06:59:44.999Z</time></trkpt><trkpt lat="41.93470561463468" lon="12.163172645270524"><ele>18.5</ele><time>2026-03-30T06:59:45.999Z</time></trkpt><trkpt lat="41.93463115047717" lon="12.163540627879401"><ele>19.0</ele><time>2026-03-30T06:59:46.999Z</time></trkpt><trkpt lat="41.93455554105315" lon="12.1639051751645"><ele>18.0</ele><time>2026-03-30T06:59:47.999Z</time></trkpt><trkpt lat="41.93447539082306" lon="12.16426673696491"><ele>17.0</ele><time>2026-03-30T06:59:48.999Z</time></trkpt><trkpt lat="41.934396776646906" lon="12.164627708766622"><ele>16.0</ele><time>2026-03-30T06:59:49.999Z</time></trkpt><trkpt lat="41.934320656386724" lon="12.164986248803645"><ele>15.0</ele><time>2026-03-30T06:59:50.999Z</time></trkpt><trkpt lat="41.93424759779026" lon="12.165345609492553"><ele>15.0</ele><time>2026-03-30T06:59:51.999Z</time></trkpt><trkpt lat="41.934172107519224" lon="12.165703350033418"><ele>15.0</ele><time>2026-03-30T06:59:52.999Z</time></trkpt><trkpt lat="41.934094908542924" lon="12.166057293638817"><ele>15.0</ele><time>2026-03-30T06:59:53.999Z</time></trkpt><trkpt lat="41.934013612074224" lon="12.166409514029866"><ele>15.0</ele><time>2026-03-30T06:59:54.999Z</time></trkpt><trkpt lat="41.933931055875696" lon="12.166765692800587"><ele>16.5</ele><time>2026-03-30T06:59:55.999Z</time></trkpt><trkpt lat="41.9338430146578" lon="12.167118573575259"><ele>18.0</ele><time>2026-03-30T06:59:56.999Z</time></trkpt><trkpt lat="41.93375684863734" lon="12.167478539259394"><ele>19.0</ele><time>2026-03-30T06:59:57.999Z</time></trkpt><trkpt lat="41.933669464433486" lon="12.16783228774567"><ele>20.0</ele><time>2026-03-30T06:59:58.999Z</time></trkpt><trkpt lat="41.93358621980208" lon="12.16818692569561"><ele>20.5</ele><time>2026-03-30T06:59:59.999Z</time></trkpt><trkpt lat="41.93350630010765" lon="12.1685437965506"><ele>21.0</ele><time>2026-03-30T07:00:00.999Z</time></trkpt><trkpt lat="41.93342789238629" lon="12.16890544410863"><ele>19.0</ele><time>2026-03-30T07:00:01.999Z</time></trkpt><trkpt lat="41.93335027372502" lon="12.16926668828312"><ele>17.0</ele><time>2026-03-30T07:00:02.999Z</time></trkpt><trkpt lat="41.93327492360359" lon="12.169633513545667"><ele>17.5</ele><time>2026-03-30T07:00:03.999Z</time></trkpt><trkpt lat="41.93319608605109" lon="12.16999709235094"><ele>18.0</ele><time>2026-03-30T07:00:04.999Z</time></trkpt><trkpt lat="41.93311540812222" lon="12.17036166389351"><ele>19.5</ele><time>2026-03-30T07:00:05.999Z</time></trkpt><trkpt lat="41.93303514981315" lon="12.170727014007527"><ele>21.0</ele><time>2026-03-30T07:00:07Z</time></trkpt><trkpt lat="41.932954976828725" lon="12.171091619347191"><ele>21.0</ele><time>2026-03-30T07:00:08Z</time></trkpt><trkpt lat="41.93287340784578" lon="12.171459872193875"><ele>21.0</ele><time>2026-03-30T07:00:09Z</time></trkpt><trkpt lat="41.93278767935909" lon="12.171813673177608"><ele>22.0</ele><time>2026-03-30T07:00:10Z</time></trkpt><trkpt lat="41.93270731739229" lon="12.17218242402731"><ele>23.0</ele><time>2026-03-30T07:00:11Z</time></trkpt><trkpt lat="41.932630281283124" lon="12.172542094769941"><ele>21.5</ele><time>2026-03-30T07:00:12Z</time></trkpt><trkpt lat="41.932547112505354" lon="12.172905331968435"><ele>20.0</ele><time>2026-03-30T07:00:13Z</time></trkpt><trkpt lat="41.932466607381016" lon="12.173269946410837"><ele>20.0</ele><time>2026-03-30T07:00:14Z</time></trkpt><trkpt lat="41.9323923953613" lon="12.173635479284407"><ele>20.0</ele><time>2026-03-30T07:00:15Z</time></trkpt><trkpt lat="41.93231444822849" lon="12.173993659361207"><ele>20.5</ele><time>2026-03-30T07:00:16Z</time></trkpt><trkpt lat="41.93223444116477" lon="12.174359293083253"><ele>21.0</ele><time>2026-03-30T07:00:17Z</time></trkpt><trkpt lat="41.93215677143255" lon="12.174722562294777"><ele>22.0</ele><time>2026-03-30T07:00:18Z</time></trkpt><trkpt lat="41.932074541558215" lon="12.175086691628938"><ele>23.0</ele><time>2026-03-30T07:00:19Z</time></trkpt><trkpt lat="41.93199616231781" lon="12.175449907286167"><ele>22.0</ele><time>2026-03-30T07:00:20Z</time></trkpt><trkpt lat="41.93191773453847" lon="12.175818361494972"><ele>21.0</ele><time>2026-03-30T07:00:21Z</time></trkpt><trkpt lat="41.931838322658514" lon="12.176185346376556"><ele>20.5</ele><time>2026-03-30T07:00:22Z</time></trkpt><trkpt lat="41.93175499877789" lon="12.17655365470775"><ele>20.0</ele><time>2026-03-30T07:00:23Z</time></trkpt><trkpt lat="41.93167504343846" lon="12.176920500879962"><ele>20.0</ele><time>2026-03-30T07:00:24Z</time></trkpt><trkpt lat="41.93159528139292" lon="12.177293034975303"><ele>20.0</ele><time>2026-03-30T07:00:25Z</time></trkpt><trkpt lat="41.93151353803645" lon="12.177661126505528"><ele>19.5</ele><time>2026-03-30T07:00:26Z</time></trkpt><trkpt lat="41.931431872816894" lon="12.178030896979093"><ele>19.0</ele><time>2026-03-30T07:00:27Z</time></trkpt><trkpt lat="41.931350711330325" lon="12.178398500907141"><ele>16.5</ele><time>2026-03-30T07:00:28Z</time></trkpt><trkpt lat="41.93126805326479" lon="12.178767933269489"><ele>14.0</ele><time>2026-03-30T07:00:29Z</time></trkpt><trkpt lat="41.93118533117586" lon="12.179133844079642"><ele>13.5</ele><time>2026-03-30T07:00:30Z</time></trkpt><trkpt lat="41.931105845242676" lon="12.179502375082462"><ele>13.0</ele><time>2026-03-30T07:00:31Z</time></trkpt><trkpt lat="41.931026273726864" lon="12.179870501148715"><ele>13.0</ele><time>2026-03-30T07:00:32Z</time></trkpt><trkpt lat="41.93094676130381" lon="12.18023433551934"><ele>13.0</ele><time>2026-03-30T07:00:33Z</time></trkpt><trkpt lat="41.93086639440762" lon="12.18059408665061"><ele>12.5</ele><time>2026-03-30T07:00:34Z</time></trkpt><trkpt lat="41.93078960489071" lon="12.180953240411155"><ele>12.0</ele><time>2026-03-30T07:00:35Z</time></trkpt><trkpt lat="41.93070615921945" lon="12.181319783944355"><ele>11.5</ele><time>2026-03-30T07:00:36Z</time></trkpt><trkpt lat="41.93062378283827" lon="12.181674883559326"><ele>11.0</ele><time>2026-03-30T07:00:37Z</time></trkpt><trkpt lat="41.93054788153535" lon="12.182028824941382"><ele>12.5</ele><time>2026-03-30T07:00:38Z</time></trkpt><trkpt lat="41.930472880479606" lon="12.182392150181485"><ele>14.0</ele><time>2026-03-30T07:00:39Z</time></trkpt><trkpt lat="41.93038963438744" lon="12.182752002254524"><ele>14.0</ele><time>2026-03-30T07:00:40Z</time></trkpt><trkpt lat="41.93031149567743" lon="12.183108201400534"><ele>14.0</ele><time>2026-03-30T07:00:41Z</time></trkpt><trkpt lat="41.93023411826244" lon="12.183474474378219"><ele>16.0</ele><time>2026-03-30T07:00:42Z</time></trkpt><trkpt lat="41.93015422723025" lon="12.183835892329968"><ele>18.0</ele><time>2026-03-30T07:00:43Z</time></trkpt><trkpt lat="41.93007395444293" lon="12.184200020386777"><ele>21.0</ele><time>2026-03-30T07:00:44Z</time></trkpt><trkpt lat="41.92999351476415" lon="12.184568999115813"><ele>24.0</ele><time>2026-03-30T07:00:45Z</time></trkpt><trkpt lat="41.929915177391614" lon="12.184936486074864"><ele>24.0</ele><time>2026-03-30T07:00:46Z</time></trkpt><trkpt lat="41.92983436041401" lon="12.185303764922665"><ele>24.0</ele><time>2026-03-30T07:00:47Z</time></trkpt><trkpt lat="41.929751638892014" lon="12.18567459073494"><ele>26.0</ele><time>2026-03-30T07:00:48Z</time></trkpt><trkpt lat="41.929667765201565" lon="12.186036516744773"><ele>28.0</ele><time>2026-03-30T07:00:49Z</time></trkpt><trkpt lat="41.92958931993397" lon="12.186410279487427"><ele>27.5</ele><time>2026-03-30T07:00:50Z</time></trkpt><trkpt lat="41.92950282740357" lon="12.186776349210355"><ele>27.0</ele><time>2026-03-30T07:00:51Z</time></trkpt><trkpt lat="41.92941066053169" lon="12.187143435896742"><ele>27.5</ele><time>2026-03-30T07:00:52Z</time></trkpt><trkpt lat="41.92932125551673" lon="12.187508822579312"><ele>28.0</ele><time>2026-03-30T07:00:53Z</time></trkpt><trkpt lat="41.929226997656755" lon="12.18787172003755"><ele>28.5</ele><time>2026-03-30T07:00:54Z</time></trkpt><trkpt lat="41.929125514766056" lon="12.188242592004002"><ele>29.0</ele><time>2026-03-30T07:00:55Z</time></trkpt><trkpt lat="41.92901935696722" lon="12.188597070625322"><ele>29.0</ele><time>2026-03-30T07:00:56Z</time></trkpt><trkpt lat="41.92891299265741" lon="12.188960474378385"><ele>29.0</ele><time>2026-03-30T07:00:57Z</time></trkpt><trkpt lat="41.92880219568061" lon="12.189315468245859"><ele>28.5</ele><time>2026-03-30T07:00:58Z</time></trkpt><trkpt lat="41.92868662272725" lon="12.189669985075072"><ele>28.0</ele><time>2026-03-30T07:00:59Z</time></trkpt><trkpt lat="41.92856607321183" lon="12.19002508005251"><ele>28.0</ele><time>2026-03-30T07:01:00Z</time></trkpt><trkpt lat="41.928447452738276" lon="12.19037721516929"><ele>28.0</ele><time>2026-03-30T07:01:01Z</time></trkpt><trkpt lat="41.92832464625879" lon="12.190729342459427"><ele>28.0</ele><time>2026-03-30T07:01:02Z</time></trkpt><trkpt lat="41.928202545318" lon="12.191079449398925"><ele>28.0</ele><time>2026-03-30T07:01:03Z</time></trkpt><trkpt lat="41.92807848833742" lon="12.191428249341579"><ele>28.0</ele><time>2026-03-30T07:01:04Z</time></trkpt><trkpt lat="41.927939900843256" lon="12.191774058155868"><ele>28.0</ele><time>2026-03-30T07:01:05Z</time></trkpt><trkpt lat="41.92780186605668" lon="12.192119595550585"><ele>28.0</ele><time>2026-03-30T07:01:06Z</time></trkpt><trkpt lat="41.92766420934175" lon="12.192458328119761"><ele>28.0</ele><time>2026-03-30T07:01:07Z</time></trkpt><trkpt lat="41.927519180455356" lon="12.192795964275831"><ele>27.0</ele><time>2026-03-30T07:01:08Z</time></trkpt><trkpt lat="41.92737064007286" lon="12.193128641633473"><ele>26.0</ele><time>2026-03-30T07:01:09Z</time></trkpt><trkpt lat="41.92722125807173" lon="12.193456364167442"><ele>25.5</ele><time>2026-03-30T07:01:10Z</time></trkpt><trkpt lat="41.927068380809" lon="12.193779017887463"><ele>25.0</ele><time>2026-03-30T07:01:11Z</time></trkpt><trkpt lat="41.92691100575326" lon="12.194101691155927"><ele>24.5</ele><time>2026-03-30T07:01:12Z</time></trkpt><trkpt lat="41.926754954033356" lon="12.194418905046012"><ele>24.0</ele><time>2026-03-30T07:01:13Z</time></trkpt><trkpt lat="41.92659317723213" lon="12.194732828874608"><ele>23.0</ele><time>2026-03-30T07:01:14Z</time></trkpt><trkpt lat="41.92642761181462" lon="12.195046997253945"><ele>22.0</ele><time>2026-03-30T07:01:15Z</time></trkpt><trkpt lat="41.92626398218163" lon="12.195354783975256"><ele>22.0</ele><time>2026-03-30T07:01:16Z</time></trkpt><trkpt lat="41.92610259810822" lon="12.195657503731969"><ele>22.0</ele><time>2026-03-30T07:01:17Z</time></trkpt><trkpt lat="41.92593454741229" lon="12.195960437750973"><ele>23.5</ele><time>2026-03-30T07:01:18Z</time></trkpt><trkpt lat="41.92575737616361" lon="12.196262433411807"><ele>25.0</ele><time>2026-03-30T07:01:19Z</time></trkpt><trkpt lat="41.92558351248857" lon="12.196557423583572"><ele>25.5</ele><time>2026-03-30T07:01:20Z</time></trkpt><trkpt lat="41.92541153395796" lon="12.19685228042812"><ele>26.0</ele><time>2026-03-30T07:01:21Z</time></trkpt><trkpt lat="41.92523057616387" lon="12.197143306509696"><ele>26.5</ele><time>2026-03-30T07:01:22Z</time></trkpt><trkpt lat="41.925041379491525" lon="12.19742717679341"><ele>27.0</ele><time>2026-03-30T07:01:23Z</time></trkpt><trkpt lat="41.92485943025464" lon="12.197707245381721"><ele>27.0</ele><time>2026-03-30T07:01:24Z</time></trkpt><trkpt lat="41.92466816295968" lon="12.197986214823361"><ele>27.0</ele><time>2026-03-30T07:01:25Z</time></trkpt><trkpt lat="41.92448255587778" lon="12.19826229896579"><ele>27.0</ele><time>2026-03-30T07:01:26Z</time></trkpt><trkpt lat="41.92428514182964" lon="12.198534820968352"><ele>27.0</ele><time>2026-03-30T07:01:27Z</time></trkpt><trkpt lat="41.924085217638044" lon="12.198799204404496"><ele>28.0</ele><time>2026-03-30T07:01:27.999Z</time></trkpt><trkpt lat="41.92388661693354" lon="12.199059656432832"><ele>29.0</ele><time>2026-03-30T07:01:28.999Z</time></trkpt><trkpt lat="41.923686999445756" lon="12.199319510697418"><ele>29.0</ele><time>2026-03-30T07:01:29.999Z</time></trkpt><trkpt lat="41.92348829094297" lon="12.199581218588865"><ele>29.0</ele><time>2026-03-30T07:01:30.999Z</time></trkpt><trkpt lat="41.923283037057764" lon="12.199838545977016"><ele>28.0</ele><time>2026-03-30T07:01:31.999Z</time></trkpt><trkpt lat="41.92307371815608" lon="12.200088121523079"><ele>27.0</ele><time>2026-03-30T07:01:32.999Z</time></trkpt><trkpt lat="41.92286752814069" lon="12.200336790718012"><ele>27.0</ele><time>2026-03-30T07:01:33.999Z</time></trkpt><trkpt lat="41.92265355362312" lon="12.200577785647644"><ele>27.0</ele><time>2026-03-30T07:01:34.999Z</time></trkpt><trkpt lat="41.92244003126995" lon="12.200816536770885"><ele>26.0</ele><time>2026-03-30T07:01:35.999Z</time></trkpt><trkpt lat="41.922226204171416" lon="12.201050989739478"><ele>25.0</ele><time>2026-03-30T07:01:36.999Z</time></trkpt><trkpt lat="41.92200976170023" lon="12.201282628398527"><ele>25.0</ele><time>2026-03-30T07:01:37.999Z</time></trkpt><trkpt lat="41.921789608789005" lon="12.20151099512212"><ele>25.0</ele><time>2026-03-30T07:01:38.999Z</time></trkpt><trkpt lat="41.921566667762335" lon="12.201734773197698"><ele>23.5</ele><time>2026-03-30T07:01:39.999Z</time></trkpt><trkpt lat="41.9213434177399" lon="12.201960569344623"><ele>22.0</ele><time>2026-03-30T07:01:40.999Z</time></trkpt><trkpt lat="41.92111605812846" lon="12.20218073644466"><ele>24.0</ele><time>2026-03-30T07:01:41.999Z</time></trkpt><trkpt lat="41.920883650037915" lon="12.20240122682419"><ele>26.0</ele><time>2026-03-30T07:01:42.999Z</time></trkpt><trkpt lat="41.9206556634414" lon="12.20261813514476"><ele>26.0</ele><time>2026-03-30T07:01:43.999Z</time></trkpt><trkpt lat="41.92041404924018" lon="12.202831172686137"><ele>26.0</ele><time>2026-03-30T07:01:44.999Z</time></trkpt><trkpt lat="41.92017418482785" lon="12.20303936178235"><ele>22.5</ele><time>2026-03-30T07:01:45.999Z</time></trkpt><trkpt lat="41.91993294099061" lon="12.203240753675475"><ele>19.0</ele><time>2026-03-30T07:01:46.999Z</time></trkpt><trkpt lat="41.91968888937491" lon="12.203434566416082"><ele>19.0</ele><time>2026-03-30T07:01:47.999Z</time></trkpt><trkpt lat="41.919443500526086" lon="12.203625319514893"><ele>19.0</ele><time>2026-03-30T07:01:48.999Z</time></trkpt><trkpt lat="41.91919823165244" lon="12.203812651640655"><ele>19.0</ele><time>2026-03-30T07:01:49.999Z</time></trkpt><trkpt lat="41.91895295396766" lon="12.203996100562108"><ele>19.0</ele><time>2026-03-30T07:01:50.999Z</time></trkpt><trkpt lat="41.918704938147705" lon="12.204173792138034"><ele>19.0</ele><time>2026-03-30T07:01:51.999Z</time></trkpt><trkpt lat="41.91845531513186" lon="12.204347818219482"><ele>19.0</ele><time>2026-03-30T07:01:52.999Z</time></trkpt><trkpt lat="41.918206306394005" lon="12.204515907740834"><ele>18.0</ele><time>2026-03-30T07:01:53.999Z</time></trkpt><trkpt lat="41.91795632404196" lon="12.204681728416865"><ele>17.0</ele><time>2026-03-30T07:01:54.999Z</time></trkpt><trkpt lat="41.917707036066794" lon="12.20484422180578"><ele>18.0</ele><time>2026-03-30T07:01:55.999Z</time></trkpt><trkpt lat="41.91745857709542" lon="12.204997038281167"><ele>19.0</ele><time>2026-03-30T07:01:56.999Z</time></trkpt><trkpt lat="41.917208890638264" lon="12.205149349403737"><ele>19.0</ele><time>2026-03-30T07:01:57.999Z</time></trkpt><trkpt lat="41.91695721304876" lon="12.205297247216345"><ele>19.0</ele><time>2026-03-30T07:01:58.999Z</time></trkpt><trkpt lat="41.91670755430904" lon="12.205446757755912"><ele>18.5</ele><time>2026-03-30T07:01:59.999Z</time></trkpt><trkpt lat="41.916455018818645" lon="12.205598088370062"><ele>18.0</ele><time>2026-03-30T07:02:00.999Z</time></trkpt><trkpt lat="41.91620066459873" lon="12.20575373375155"><ele>19.5</ele><time>2026-03-30T07:02:01.999Z</time></trkpt><trkpt lat="41.915943753951275" lon="12.205908185039743"><ele>21.0</ele><time>2026-03-30T07:02:02.999Z</time></trkpt><trkpt lat="41.91569102504845" lon="12.206062542835555"><ele>21.0</ele><time>2026-03-30T07:02:03.999Z</time></trkpt><trkpt lat="41.91542931911241" lon="12.206218229594372"><ele>21.0</ele><time>2026-03-30T07:02:04.999Z</time></trkpt><trkpt lat="41.91516838819531" lon="12.20637303550805"><ele>22.0</ele><time>2026-03-30T07:02:05.999Z</time></trkpt><trkpt lat="41.91491155221415" lon="12.206529018495397"><ele>23.0</ele><time>2026-03-30T07:02:06.999Z</time></trkpt><trkpt lat="41.914650332934286" lon="12.206687116066236"><ele>23.0</ele><time>2026-03-30T07:02:07.999Z</time></trkpt><trkpt lat="41.91438970637197" lon="12.206843661160967"><ele>23.0</ele><time>2026-03-30T07:02:08.999Z</time></trkpt><trkpt lat="41.91412863924777" lon="12.206998117081271"><ele>23.5</ele><time>2026-03-30T07:02:09.999Z</time></trkpt><trkpt lat="41.913866856694895" lon="12.20715382352837"><ele>24.0</ele><time>2026-03-30T07:02:10.999Z</time></trkpt><trkpt lat="41.91360118891073" lon="12.207317833588881"><ele>23.5</ele><time>2026-03-30T07:02:11.999Z</time></trkpt><trkpt lat="41.913342451224445" lon="12.207468421316968"><ele>23.0</ele><time>2026-03-30T07:02:13Z</time></trkpt><trkpt lat="41.913078219818196" lon="12.207619815305303"><ele>23.0</ele><time>2026-03-30T07:02:14Z</time></trkpt><trkpt lat="41.91281419790401" lon="12.207782180321649"><ele>23.0</ele><time>2026-03-30T07:02:15Z</time></trkpt><trkpt lat="41.91254875013727" lon="12.207943160809027"><ele>22.0</ele><time>2026-03-30T07:02:16Z</time></trkpt><trkpt lat="41.91228501001214" lon="12.208099275434238"><ele>21.0</ele><time>2026-03-30T07:02:17Z</time></trkpt><trkpt lat="41.91201670864102" lon="12.208258045068014"><ele>21.0</ele><time>2026-03-30T07:02:18Z</time></trkpt><trkpt lat="41.911748328039536" lon="12.208414114039522"><ele>21.0</ele><time>2026-03-30T07:02:19Z</time></trkpt><trkpt lat="41.911485349839225" lon="12.208580175557636"><ele>20.5</ele><time>2026-03-30T07:02:20Z</time></trkpt><trkpt lat="41.91121749776101" lon="12.208739907670665"><ele>20.0</ele><time>2026-03-30T07:02:21Z</time></trkpt><trkpt lat="41.91094842752372" lon="12.20890155688455"><ele>19.0</ele><time>2026-03-30T07:02:22Z</time></trkpt><trkpt lat="41.910677748810606" lon="12.209061842228877"><ele>18.0</ele><time>2026-03-30T07:02:23Z</time></trkpt><trkpt lat="41.91040815979448" lon="12.209222328268531"><ele>18.0</ele><time>2026-03-30T07:02:24Z</time></trkpt><trkpt lat="41.91013761387818" lon="12.209383077590845"><ele>18.0</ele><time>2026-03-30T07:02:25Z</time></trkpt><trkpt lat="41.90986923781658" lon="12.209543248705897"><ele>18.0</ele><time>2026-03-30T07:02:26Z</time></trkpt><trkpt lat="41.90959980700422" lon="12.209702191628569"><ele>18.0</ele><time>2026-03-30T07:02:27Z</time></trkpt><trkpt lat="41.90933379908751" lon="12.209858155401855"><ele>17.0</ele><time>2026-03-30T07:02:28Z</time></trkpt><trkpt lat="41.90906986708536" lon="12.210015100446133"><ele>16.0</ele><time>2026-03-30T07:02:29Z</time></trkpt><trkpt lat="41.908808011252304" lon="12.210172897670727"><ele>16.0</ele><time>2026-03-30T07:02:30Z</time></trkpt><trkpt lat="41.908546044154406" lon="12.210330742787672"><ele>16.0</ele><time>2026-03-30T07:02:31Z</time></trkpt><trkpt lat="41.908283689072405" lon="12.210489613217135"><ele>16.0</ele><time>2026-03-30T07:02:32Z</time></trkpt><trkpt lat="41.90802242542348" lon="12.210648192028492"><ele>16.0</ele><time>2026-03-30T07:02:33Z</time></trkpt><trkpt lat="41.907761392282104" lon="12.210804182491106"><ele>14.5</ele><time>2026-03-30T07:02:34Z</time></trkpt><trkpt lat="41.90749997637063" lon="12.210958550870304"><ele>13.0</ele><time>2026-03-30T07:02:35Z</time></trkpt><trkpt lat="41.90723802085256" lon="12.211114149371111"><ele>13.0</ele><time>2026-03-30T07:02:36Z</time></trkpt><trkpt lat="41.90697628179418" lon="12.211270343841363"><ele>13.0</ele><time>2026-03-30T07:02:37Z</time></trkpt><trkpt lat="41.906713369466466" lon="12.211428469679309"><ele>12.5</ele><time>2026-03-30T07:02:38Z</time></trkpt><trkpt lat="41.906451269538096" lon="12.211588389119896"><ele>12.0</ele><time>2026-03-30T07:02:39Z</time></trkpt><trkpt lat="41.90618960580564" lon="12.211750116427337"><ele>12.0</ele><time>2026-03-30T07:02:40Z</time></trkpt><trkpt lat="41.90592716779557" lon="12.21191595094518"><ele>12.0</ele><time>2026-03-30T07:02:41Z</time></trkpt><trkpt lat="41.90566633328332" lon="12.21208550319683"><ele>11.5</ele><time>2026-03-30T07:02:42Z</time></trkpt><trkpt lat="41.90540948973148" lon="12.212264288126054"><ele>11.0</ele><time>2026-03-30T07:02:43Z</time></trkpt><trkpt lat="41.90515659408707" lon="12.21244702859828"><ele>10.0</ele><time>2026-03-30T07:02:44Z</time></trkpt><trkpt lat="41.90490558359588" lon="12.21263538935371"><ele>9.0</ele><time>2026-03-30T07:02:45Z</time></trkpt><trkpt lat="41.90465627457358" lon="12.212830997525222"><ele>9.0</ele><time>2026-03-30T07:02:46Z</time></trkpt><trkpt lat="41.90441039115659" lon="12.213032552748723"><ele>9.0</ele><time>2026-03-30T07:02:47Z</time></trkpt><trkpt lat="41.90416545026949" lon="12.213238221328167"><ele>7.5</ele><time>2026-03-30T07:02:48Z</time></trkpt><trkpt lat="41.903923110014524" lon="12.213449450530504"><ele>6.0</ele><time>2026-03-30T07:02:49Z</time></trkpt><trkpt lat="41.9036866952411" lon="12.213658669294231"><ele>6.0</ele><time>2026-03-30T07:02:50Z</time></trkpt><trkpt lat="41.90345345626752" lon="12.213879614294136"><ele>6.0</ele><time>2026-03-30T07:02:51Z</time></trkpt><trkpt lat="41.903220536198376" lon="12.214102127743233"><ele>6.5</ele><time>2026-03-30T07:02:52Z</time></trkpt><trkpt lat="41.90298993890488" lon="12.214331097024202"><ele>7.0</ele><time>2026-03-30T07:02:53Z</time></trkpt><trkpt lat="41.90276359949933" lon="12.214563637890564"><ele>7.0</ele><time>2026-03-30T07:02:54Z</time></trkpt><trkpt lat="41.90253807766749" lon="12.214799840973539"><ele>7.0</ele><time>2026-03-30T07:02:55Z</time></trkpt><trkpt lat="41.90231276432168" lon="12.215041378408861"><ele>7.0</ele><time>2026-03-30T07:02:56Z</time></trkpt><trkpt lat="41.90208747549322" lon="12.21528267465753"><ele>7.0</ele><time>2026-03-30T07:02:57Z</time></trkpt><trkpt lat="41.901860372795994" lon="12.215522369803407"><ele>7.5</ele><time>2026-03-30T07:02:58Z</time></trkpt><trkpt lat="41.901632985363634" lon="12.215759574889653"><ele>8.0</ele><time>2026-03-30T07:02:59Z</time></trkpt><trkpt lat="41.9014056658821" lon="12.215995439413513"><ele>8.0</ele><time>2026-03-30T07:03:00Z</time></trkpt><trkpt lat="41.9011766953561" lon="12.216232942444158"><ele>8.0</ele><time>2026-03-30T07:03:01Z</time></trkpt><trkpt lat="41.900949371561694" lon="12.216471430066868"><ele>8.0</ele><time>2026-03-30T07:03:02Z</time></trkpt><trkpt lat="41.900721982005805" lon="12.216711106879744"><ele>8.0</ele><time>2026-03-30T07:03:03Z</time></trkpt><trkpt lat="41.900496323873774" lon="12.216949863789484"><ele>8.0</ele><time>2026-03-30T07:03:04Z</time></trkpt><trkpt lat="41.90027183474693" lon="12.217184762803939"><ele>8.0</ele><time>2026-03-30T07:03:05Z</time></trkpt><trkpt lat="41.900046754321764" lon="12.21741986107509"><ele>7.0</ele><time>2026-03-30T07:03:06Z</time></trkpt><trkpt lat="41.89982373623087" lon="12.217654372153733"><ele>6.0</ele><time>2026-03-30T07:03:07Z</time></trkpt><trkpt lat="41.89960167758099" lon="12.217889853698997"><ele>6.0</ele><time>2026-03-30T07:03:08Z</time></trkpt><trkpt lat="41.89938074358117" lon="12.218127134423092"><ele>6.0</ele><time>2026-03-30T07:03:09Z</time></trkpt><trkpt lat="41.899158818066724" lon="12.21836484151437"><ele>6.5</ele><time>2026-03-30T07:03:10Z</time></trkpt><trkpt lat="41.898938090914235" lon="12.218601841461197"><ele>7.0</ele><time>2026-03-30T07:03:11Z</time></trkpt><trkpt lat="41.898716759306986" lon="12.21884087251607"><ele>7.5</ele><time>2026-03-30T07:03:12Z</time></trkpt><trkpt lat="41.89849819066539" lon="12.219078843940009"><ele>8.0</ele><time>2026-03-30T07:03:13Z</time></trkpt><trkpt lat="41.89827829110356" lon="12.219316894865598"><ele>8.0</ele><time>2026-03-30T07:03:14Z</time></trkpt><trkpt lat="41.898057339203916" lon="12.219554895176614"><ele>8.0</ele><time>2026-03-30T07:03:15Z</time></trkpt><trkpt lat="41.89783577746655" lon="12.219790974553948"><ele>7.5</ele><time>2026-03-30T07:03:16Z</time></trkpt><trkpt lat="41.897612203221705" lon="12.220024898676922"><ele>7.0</ele><time>2026-03-30T07:03:17Z</time></trkpt><trkpt lat="41.89738968496132" lon="12.220256908698646"><ele>7.0</ele><time>2026-03-30T07:03:18Z</time></trkpt><trkpt lat="41.89716849809166" lon="12.220488064965078"><ele>7.0</ele><time>2026-03-30T07:03:19Z</time></trkpt><trkpt lat="41.896946436938364" lon="12.220718744601553"><ele>7.5</ele><time>2026-03-30T07:03:20Z</time></trkpt><trkpt lat="41.8967253383109" lon="12.220947035493198"><ele>8.0</ele><time>2026-03-30T07:03:21Z</time></trkpt><trkpt lat="41.896504710191664" lon="12.221175481428823"><ele>8.0</ele><time>2026-03-30T07:03:22Z</time></trkpt><trkpt lat="41.89628362846699" lon="12.221404249913164"><ele>8.0</ele><time>2026-03-30T07:03:23Z</time></trkpt><trkpt lat="41.89606239030374" lon="12.221632204225715"><ele>8.0</ele><time>2026-03-30T07:03:24Z</time></trkpt><trkpt lat="41.89584124637249" lon="12.221862151872017"><ele>8.0</ele><time>2026-03-30T07:03:24.999Z</time></trkpt><trkpt lat="41.895622328492095" lon="12.222091257433332"><ele>7.5</ele><time>2026-03-30T07:03:25.999Z</time></trkpt><trkpt lat="41.89540064170294" lon="12.222323874823548"><ele>7.0</ele><time>2026-03-30T07:03:26.999Z</time></trkpt><trkpt lat="41.89518285059859" lon="12.222553421795721"><ele>6.0</ele><time>2026-03-30T07:03:27.999Z</time></trkpt><trkpt lat="41.89496417229525" lon="12.222783657155722"><ele>5.0</ele><time>2026-03-30T07:03:28.999Z</time></trkpt><trkpt lat="41.89474587032311" lon="12.223013876139328"><ele>5.0</ele><time>2026-03-30T07:03:29.999Z</time></trkpt><trkpt lat="41.8945276174455" lon="12.223242738823236"><ele>5.0</ele><time>2026-03-30T07:03:30.999Z</time></trkpt><trkpt lat="41.894309800144015" lon="12.223470041714124"><ele>4.5</ele><time>2026-03-30T07:03:31.999Z</time></trkpt><trkpt lat="41.894094884623215" lon="12.223696148083162"><ele>4.0</ele><time>2026-03-30T07:03:32.999Z</time></trkpt><trkpt lat="41.893882878943415" lon="12.223916869092802"><ele>4.0</ele><time>2026-03-30T07:03:33.999Z</time></trkpt><trkpt lat="41.893676508481946" lon="12.224132945629242"><ele>4.0</ele><time>2026-03-30T07:03:34.999Z</time></trkpt><trkpt lat="41.89348221829933" lon="12.224339584905538"><ele>5.5</ele><time>2026-03-30T07:03:35.999Z</time></trkpt><trkpt lat="41.89329994540809" lon="12.224533612386569"><ele>7.0</ele><time>2026-03-30T07:03:36.999Z</time></trkpt><trkpt lat="41.89312686242223" lon="12.224718546018147"><ele>6.666666666666667</ele><time>2026-03-30T07:03:37.999Z</time></trkpt><trkpt lat="41.89296455127914" lon="12.224894597191705"><ele>6.333333333333334</ele><time>2026-03-30T07:03:38.999Z</time></trkpt><trkpt lat="41.89280953165818" lon="12.22506452336021"><ele>6.0</ele><time>2026-03-30T07:03:39.999Z</time></trkpt><trkpt lat="41.892661934039126" lon="12.225226894728518"><ele>7.0</ele><time>2026-03-30T07:03:40.999Z</time></trkpt><trkpt lat="41.89252173182847" lon="12.22538170969311"><ele>8.0</ele><time>2026-03-30T07:03:41.999Z</time></trkpt><trkpt lat="41.89238592147231" lon="12.225532841233072"><ele>9.0</ele><time>2026-03-30T07:03:42.999Z</time></trkpt><trkpt lat="41.892251835954355" lon="12.225679992839353"><ele>9.0</ele><time>2026-03-30T07:03:43.999Z</time></trkpt><trkpt lat="41.89212551948844" lon="12.225820825791148"><ele>9.0</ele><time>2026-03-30T07:03:44.999Z</time></trkpt><trkpt lat="41.89200575087111" lon="12.225958064111827"><ele>9.0</ele><time>2026-03-30T07:03:45.999Z</time></trkpt><trkpt lat="41.891895493459515" lon="12.226087586807656"><ele>9.0</ele><time>2026-03-30T07:03:46.999Z</time></trkpt><trkpt lat="41.891794297506884" lon="12.226205367925774"><ele>9.0</ele><time>2026-03-30T07:03:47.999Z</time></trkpt><trkpt lat="41.89170219897704" lon="12.22630834729261"><ele>9.0</ele><time>2026-03-30T07:03:48.999Z</time></trkpt><trkpt lat="41.891618776993234" lon="12.226398663342469"><ele>9.0</ele><time>2026-03-30T07:03:49.999Z</time></trkpt><trkpt lat="41.891544210416185" lon="12.226479801014007"><ele>9.166666666666666</ele><time>2026-03-30T07:03:50.999Z</time></trkpt><trkpt lat="41.89147648654192" lon="12.226549500041326"><ele>9.333333333333334</ele><time>2026-03-30T07:03:51.999Z</time></trkpt><trkpt lat="41.89141454697909" lon="12.226614140626248"><ele>9.5</ele><time>2026-03-30T07:03:52.999Z</time></trkpt><trkpt lat="41.891358423216495" lon="12.226673025109855"><ele>9.666666666666668</ele><time>2026-03-30T07:03:53.999Z</time></trkpt><trkpt lat="41.89129444161035" lon="12.226741816035176"><ele>9.833333333333334</ele><time>2026-03-30T07:03:54.999Z</time></trkpt><trkpt lat="41.89122012405223" lon="12.226822968954838"><ele>10.0</ele><time>2026-03-30T07:03:55.999Z</time></trkpt><trkpt lat="41.89113473926114" lon="12.226910949868154"><ele>10.0</ele><time>2026-03-30T07:03:56.999Z</time></trkpt><trkpt lat="41.89103680437967" lon="12.227010378570599"><ele>10.0</ele><time>2026-03-30T07:03:57.999Z</time></trkpt><trkpt lat="41.8909248063475" lon="12.22711315376344"><ele>10.0</ele><time>2026-03-30T07:03:58.999Z</time></trkpt><trkpt lat="41.89079975790001" lon="12.227225736800916"><ele>10.0</ele><time>2026-03-30T07:03:59.999Z</time></trkpt><trkpt lat="41.89066394495837" lon="12.227345191509155"><ele>9.666666666666668</ele><time>2026-03-30T07:04:00.999Z</time></trkpt><trkpt lat="41.890519228403164" lon="12.22747311696495"><ele>9.333333333333334</ele><time>2026-03-30T07:04:01.999Z</time></trkpt><trkpt lat="41.890366836775" lon="12.22761415682028"><ele>9.0</ele><time>2026-03-30T07:04:02.999Z</time></trkpt><trkpt lat="41.89020985954613" lon="12.22776683621376"><ele>8.666666666666666</ele><time>2026-03-30T07:04:03.999Z</time></trkpt><trkpt lat="41.890047757665634" lon="12.227934275894267"><ele>8.333333333333332</ele><time>2026-03-30T07:04:04.999Z</time></trkpt><trkpt lat="41.88987919217343" lon="12.228114480581715"><ele>8.0</ele><time>2026-03-30T07:04:05.999Z</time></trkpt><trkpt lat="41.889703415067586" lon="12.228304360051503"><ele>7.5</ele><time>2026-03-30T07:04:06.999Z</time></trkpt><trkpt lat="41.889519221432366" lon="12.228499563881266"><ele>7.0</ele><time>2026-03-30T07:04:07.999Z</time></trkpt><trkpt lat="41.88932620337093" lon="12.228700097369618"><ele>7.5</ele><time>2026-03-30T07:04:08.999Z</time></trkpt><trkpt lat="41.88912779124992" lon="12.228904875345075"><ele>8.0</ele><time>2026-03-30T07:04:09.999Z</time></trkpt><trkpt lat="41.888924163807516" lon="12.229114863278344"><ele>8.0</ele><time>2026-03-30T07:04:10.999Z</time></trkpt><trkpt lat="41.88871541188013" lon="12.229333757688627"><ele>8.0</ele><time>2026-03-30T07:04:11.999Z</time></trkpt><trkpt lat="41.88850608968074" lon="12.229552245784909"><ele>10.0</ele><time>2026-03-30T07:04:12.999Z</time></trkpt><trkpt lat="41.888291102970484" lon="12.229776767816533"><ele>12.0</ele><time>2026-03-30T07:04:13.999Z</time></trkpt><trkpt lat="41.888070415088414" lon="12.23000896843978"><ele>12.5</ele><time>2026-03-30T07:04:14.999Z</time></trkpt><trkpt lat="41.887845579134904" lon="12.230244163778451"><ele>13.0</ele><time>2026-03-30T07:04:15.999Z</time></trkpt><trkpt lat="41.88761700181417" lon="12.230482582489007"><ele>10.0</ele><time>2026-03-30T07:04:16.999Z</time></trkpt><trkpt lat="41.88739107765542" lon="12.23072110286489"><ele>7.0</ele><time>2026-03-30T07:04:17.999Z</time></trkpt><trkpt lat="41.88716217292386" lon="12.230963500780417"><ele>7.0</ele><time>2026-03-30T07:04:19Z</time></trkpt><trkpt lat="41.88692993322038" lon="12.231210267807134"><ele>7.0</ele><time>2026-03-30T07:04:20Z</time></trkpt><trkpt lat="41.88669445611546" lon="12.231457561165646"><ele>7.0</ele><time>2026-03-30T07:04:21Z</time></trkpt><trkpt lat="41.88645577582117" lon="12.23170646036323"><ele>7.0</ele><time>2026-03-30T07:04:22Z</time></trkpt><trkpt lat="41.886214771837686" lon="12.231956403562394"><ele>7.0</ele><time>2026-03-30T07:04:23Z</time></trkpt><trkpt lat="41.885971801651664" lon="12.2322100528003"><ele>7.0</ele><time>2026-03-30T07:04:24Z</time></trkpt><trkpt lat="41.885728825630345" lon="12.23246536785787"><ele>6.5</ele><time>2026-03-30T07:04:25Z</time></trkpt><trkpt lat="41.885485092140826" lon="12.232721180466635"><ele>6.0</ele><time>2026-03-30T07:04:26Z</time></trkpt><trkpt lat="41.88523967107295" lon="12.2329774027167"><ele>6.0</ele><time>2026-03-30T07:04:27Z</time></trkpt><trkpt lat="41.884992910769896" lon="12.233235197638283"><ele>6.0</ele><time>2026-03-30T07:04:28Z</time></trkpt><trkpt lat="41.884745158402055" lon="12.233493374168642"><ele>6.0</ele><time>2026-03-30T07:04:29Z</time></trkpt><trkpt lat="41.88449791999626" lon="12.233752437483286"><ele>6.0</ele><time>2026-03-30T07:04:30Z</time></trkpt><trkpt lat="41.884250811840054" lon="12.234012198134323"><ele>6.5</ele><time>2026-03-30T07:04:31Z</time></trkpt><trkpt lat="41.88400384134725" lon="12.234272382220688"><ele>7.0</ele><time>2026-03-30T07:04:32Z</time></trkpt><trkpt lat="41.88375735956626" lon="12.234532956427312"><ele>7.0</ele><time>2026-03-30T07:04:33Z</time></trkpt><trkpt lat="41.88351011253107" lon="12.234792169040178"><ele>7.0</ele><time>2026-03-30T07:04:34Z</time></trkpt><trkpt lat="41.88326291838853" lon="12.235050009006214"><ele>7.0</ele><time>2026-03-30T07:04:35Z</time></trkpt><trkpt lat="41.88301541403301" lon="12.235308123160397"><ele>7.0</ele><time>2026-03-30T07:04:36Z</time></trkpt><trkpt lat="41.88276976152233" lon="12.235568316500885"><ele>8.0</ele><time>2026-03-30T07:04:37Z</time></trkpt><trkpt lat="41.88252916196997" lon="12.23583228081716"><ele>9.0</ele><time>2026-03-30T07:04:38Z</time></trkpt><trkpt lat="41.882296522494066" lon="12.236108212509585"><ele>9.0</ele><time>2026-03-30T07:04:39Z</time></trkpt><trkpt lat="41.882075063298295" lon="12.236397846089242"><ele>9.0</ele><time>2026-03-30T07:04:40Z</time></trkpt><trkpt lat="41.88187073257063" lon="12.236707852269705"><ele>8.5</ele><time>2026-03-30T07:04:41Z</time></trkpt><trkpt lat="41.88168524846363" lon="12.237034084436443"><ele>8.0</ele><time>2026-03-30T07:04:42Z</time></trkpt><trkpt lat="41.88151110336957" lon="12.237372202860982"><ele>8.0</ele><time>2026-03-30T07:04:43Z</time></trkpt><trkpt lat="41.88135257971952" lon="12.23772175614488"><ele>8.0</ele><time>2026-03-30T07:04:44Z</time></trkpt><trkpt lat="41.88120837645564" lon="12.2380812362046"><ele>8.5</ele><time>2026-03-30T07:04:45Z</time></trkpt><trkpt lat="41.88107925139923" lon="12.238450866331927"><ele>9.0</ele><time>2026-03-30T07:04:46Z</time></trkpt><trkpt lat="41.88096345100916" lon="12.23881675845994"><ele>8.5</ele><time>2026-03-30T07:04:47Z</time></trkpt><trkpt lat="41.88085664308906" lon="12.239187843236973"><ele>8.0</ele><time>2026-03-30T07:04:48Z</time></trkpt><trkpt lat="41.880755232811616" lon="12.239561062139678"><ele>7.5</ele><time>2026-03-30T07:04:49Z</time></trkpt><trkpt lat="41.88065322059052" lon="12.239936248801095"><ele>7.0</ele><time>2026-03-30T07:04:50Z</time></trkpt><trkpt lat="41.88055054903411" lon="12.24030610876602"><ele>8.0</ele><time>2026-03-30T07:04:51Z</time></trkpt><trkpt lat="41.88044893787439" lon="12.240680574957766"><ele>9.0</ele><time>2026-03-30T07:04:52Z</time></trkpt><trkpt lat="41.8803509568091" lon="12.241056892324169"><ele>9.0</ele><time>2026-03-30T07:04:53Z</time></trkpt><trkpt lat="41.88025307638664" lon="12.24143522834618"><ele>9.0</ele><time>2026-03-30T07:04:54Z</time></trkpt><trkpt lat="41.88015390863879" lon="12.241815196587194"><ele>10.0</ele><time>2026-03-30T07:04:55Z</time></trkpt><trkpt lat="41.880055381427944" lon="12.242198083488272"><ele>11.0</ele><time>2026-03-30T07:04:56Z</time></trkpt><trkpt lat="41.87995745403714" lon="12.242584517112514"><ele>11.5</ele><time>2026-03-30T07:04:57Z</time></trkpt><trkpt lat="41.87986014932716" lon="12.24297217916593"><ele>12.0</ele><time>2026-03-30T07:04:58Z</time></trkpt><trkpt lat="41.879761195822546" lon="12.243361385191244"><ele>12.0</ele><time>2026-03-30T07:04:59Z</time></trkpt><trkpt lat="41.87966281055562" lon="12.243749574222042"><ele>12.0</ele><time>2026-03-30T07:05:00Z</time></trkpt><trkpt lat="41.879564596109695" lon="12.24413639064586"><ele>12.0</ele><time>2026-03-30T07:05:01Z</time></trkpt><trkpt lat="41.8794634251362" lon="12.244523425608639"><ele>12.0</ele><time>2026-03-30T07:05:02Z</time></trkpt><trkpt lat="41.87935784298036" lon="12.244908958210916"><ele>11.5</ele><time>2026-03-30T07:05:03Z</time></trkpt><trkpt lat="41.87924774092574" lon="12.245291127392392"><ele>11.0</ele><time>2026-03-30T07:05:04Z</time></trkpt><trkpt lat="41.87913578152826" lon="12.24567283293778"><ele>11.0</ele><time>2026-03-30T07:05:05Z</time></trkpt><trkpt lat="41.87902096372456" lon="12.246052718786865"><ele>11.0</ele><time>2026-03-30T07:05:06Z</time></trkpt><trkpt lat="41.87889984401614" lon="12.246429276219995"><ele>12.0</ele><time>2026-03-30T07:05:07Z</time></trkpt><trkpt lat="41.8787676262951" lon="12.246799169524829"><ele>13.0</ele><time>2026-03-30T07:05:08Z</time></trkpt><trkpt lat="41.8786218898178" lon="12.24716268975321"><ele>12.5</ele><time>2026-03-30T07:05:09Z</time></trkpt><trkpt lat="41.878456969291115" lon="12.247512090028321"><ele>12.0</ele><time>2026-03-30T07:05:10Z</time></trkpt><trkpt lat="41.87827519537803" lon="12.247848133932033"><ele>13.0</ele><time>2026-03-30T07:05:11Z</time></trkpt><trkpt lat="41.8780734113867" lon="12.248168159133392"><ele>14.0</ele><time>2026-03-30T07:05:12Z</time></trkpt><trkpt lat="41.87785893396496" lon="12.24847389007021"><ele>14.0</ele><time>2026-03-30T07:05:13Z</time></trkpt><trkpt lat="41.87763204044915" lon="12.248765721977692"><ele>14.0</ele><time>2026-03-30T07:05:14Z</time></trkpt><trkpt lat="41.87739094620143" lon="12.24904087556512"><ele>13.5</ele><time>2026-03-30T07:05:15Z</time></trkpt><trkpt lat="41.87713864164708" lon="12.249303480996796"><ele>13.0</ele><time>2026-03-30T07:05:16Z</time></trkpt><trkpt lat="41.87688208239211" lon="12.249557224193143"><ele>13.5</ele><time>2026-03-30T07:05:17Z</time></trkpt><trkpt lat="41.87661751568347" lon="12.249809779136061"><ele>14.0</ele><time>2026-03-30T07:05:17.999Z</time></trkpt><trkpt lat="41.876354358093614" lon="12.250058460149662"><ele>14.0</ele><time>2026-03-30T07:05:18.999Z</time></trkpt><trkpt lat="41.87608851021406" lon="12.25030697354394"><ele>14.0</ele><time>2026-03-30T07:05:19.999Z</time></trkpt><trkpt lat="41.875822672633696" lon="12.25056068571847"><ele>13.0</ele><time>2026-03-30T07:05:20.999Z</time></trkpt><trkpt lat="41.87555555186208" lon="12.2508159897643"><ele>12.0</ele><time>2026-03-30T07:05:21.999Z</time></trkpt><trkpt lat="41.875286829218616" lon="12.25107029774303"><ele>12.0</ele><time>2026-03-30T07:05:22.999Z</time></trkpt><trkpt lat="41.87501580409255" lon="12.251325999437165"><ele>12.0</ele><time>2026-03-30T07:05:23.999Z</time></trkpt><trkpt lat="41.87474479408223" lon="12.251581844674899"><ele>12.0</ele><time>2026-03-30T07:05:24.999Z</time></trkpt><trkpt lat="41.87447607809285" lon="12.25183689054057"><ele>12.0</ele><time>2026-03-30T07:05:25.999Z</time></trkpt><trkpt lat="41.874208226939885" lon="12.252088914559405"><ele>14.0</ele><time>2026-03-30T07:05:26.999Z</time></trkpt><trkpt lat="41.873940366844714" lon="12.25234112226799"><ele>16.0</ele><time>2026-03-30T07:05:27.999Z</time></trkpt><trkpt lat="41.873672526997616" lon="12.252595163535437"><ele>15.5</ele><time>2026-03-30T07:05:28.999Z</time></trkpt><trkpt lat="41.873403785786564" lon="12.252848731830825"><ele>15.0</ele><time>2026-03-30T07:05:29.999Z</time></trkpt><trkpt lat="41.87313552943938" lon="12.253101544134957"><ele>16.0</ele><time>2026-03-30T07:05:30.999Z</time></trkpt><trkpt lat="41.87286631962158" lon="12.253355059501377"><ele>17.0</ele><time>2026-03-30T07:05:31.999Z</time></trkpt><trkpt lat="41.872597160284755" lon="12.253608417286623"><ele>17.0</ele><time>2026-03-30T07:05:32.999Z</time></trkpt><trkpt lat="41.87232780967565" lon="12.253861054030665"><ele>17.0</ele><time>2026-03-30T07:05:33.999Z</time></trkpt><trkpt lat="41.872058849165455" lon="12.254115052220559"><ele>17.0</ele><time>2026-03-30T07:05:34.999Z</time></trkpt><trkpt lat="41.87178966478571" lon="12.25436646860357"><ele>17.0</ele><time>2026-03-30T07:05:35.999Z</time></trkpt><trkpt lat="41.871520998186114" lon="12.254617693676161"><ele>15.0</ele><time>2026-03-30T07:05:36.999Z</time></trkpt><trkpt lat="41.871252641022565" lon="12.254870373846357"><ele>13.0</ele><time>2026-03-30T07:05:37.999Z</time></trkpt><trkpt lat="41.87098571550346" lon="12.255125074414256"><ele>13.5</ele><time>2026-03-30T07:05:38.999Z</time></trkpt><trkpt lat="41.87071817802856" lon="12.25538087299815"><ele>14.0</ele><time>2026-03-30T07:05:39.999Z</time></trkpt><trkpt lat="41.87045167097051" lon="12.255638678309346"><ele>14.0</ele><time>2026-03-30T07:05:40.999Z</time></trkpt><trkpt lat="41.87018577605011" lon="12.25589908862156"><ele>14.0</ele><time>2026-03-30T07:05:41.999Z</time></trkpt><trkpt lat="41.869920834346324" lon="12.2561597785091"><ele>14.0</ele><time>2026-03-30T07:05:42.999Z</time></trkpt><trkpt lat="41.86965552883139" lon="12.256421419489737"><ele>14.0</ele><time>2026-03-30T07:05:43.999Z</time></trkpt><trkpt lat="41.86938737590681" lon="12.25668049313545"><ele>14.5</ele><time>2026-03-30T07:05:44.999Z</time></trkpt><trkpt lat="41.869116973998736" lon="12.256937119625448"><ele>15.0</ele><time>2026-03-30T07:05:45.999Z</time></trkpt><trkpt lat="41.868844627407626" lon="12.25718998102954"><ele>14.5</ele><time>2026-03-30T07:05:46.999Z</time></trkpt><trkpt lat="41.868570284854" lon="12.257438902569767"><ele>14.0</ele><time>2026-03-30T07:05:47.999Z</time></trkpt><trkpt lat="41.868295258963165" lon="12.257686167805442"><ele>14.0</ele><time>2026-03-30T07:05:48.999Z</time></trkpt><trkpt lat="41.868020421743495" lon="12.257938334502247"><ele>14.0</ele><time>2026-03-30T07:05:49.999Z</time></trkpt><trkpt lat="41.86774696752464" lon="12.258191186870047"><ele>14.5</ele><time>2026-03-30T07:05:50.999Z</time></trkpt><trkpt lat="41.86747382530147" lon="12.258445317200959"><ele>15.0</ele><time>2026-03-30T07:05:51.999Z</time></trkpt><trkpt lat="41.86720144871829" lon="12.258700234551979"><ele>14.0</ele><time>2026-03-30T07:05:52.999Z</time></trkpt><trkpt lat="41.866928949841984" lon="12.258957632998882"><ele>13.0</ele><time>2026-03-30T07:05:53.999Z</time></trkpt><trkpt lat="41.86665773502119" lon="12.25921443632928"><ele>13.0</ele><time>2026-03-30T07:05:54.999Z</time></trkpt><trkpt lat="41.86638810013589" lon="12.259469668929162"><ele>13.0</ele><time>2026-03-30T07:05:55.999Z</time></trkpt><trkpt lat="41.86612436858741" lon="12.25971725312028"><ele>12.5</ele><time>2026-03-30T07:05:56.999Z</time></trkpt><trkpt lat="41.86586579004078" lon="12.25996031423631"><ele>12.0</ele><time>2026-03-30T07:05:57.999Z</time></trkpt><trkpt lat="41.865611815967966" lon="12.260200990281302"><ele>12.0</ele><time>2026-03-30T07:05:58.999Z</time></trkpt><trkpt lat="41.865357968696216" lon="12.260439747240792"><ele>12.0</ele><time>2026-03-30T07:05:59.999Z</time></trkpt><trkpt lat="41.86510480165403" lon="12.26067558414204"><ele>11.5</ele><time>2026-03-30T07:06:00.999Z</time></trkpt><trkpt lat="41.86485330969423" lon="12.260911682152166"><ele>11.0</ele><time>2026-03-30T07:06:01.999Z</time></trkpt><trkpt lat="41.86460059161397" lon="12.261132758915947"><ele>11.0</ele><time>2026-03-30T07:06:02.999Z</time></trkpt><trkpt lat="41.864346170120406" lon="12.26134262190713"><ele>11.0</ele><time>2026-03-30T07:06:03.999Z</time></trkpt><trkpt lat="41.86408526845595" lon="12.261526520380274"><ele>10.5</ele><time>2026-03-30T07:06:04.999Z</time></trkpt><trkpt lat="41.86381887610627" lon="12.261691489149602"><ele>10.0</ele><time>2026-03-30T07:06:05.999Z</time></trkpt><trkpt lat="41.86355160696552" lon="12.261849954839233"><ele>10.0</ele><time>2026-03-30T07:06:06.999Z</time></trkpt><trkpt lat="41.86328146476076" lon="12.261995506987969"><ele>10.0</ele><time>2026-03-30T07:06:07.999Z</time></trkpt><trkpt lat="41.863005873024626" lon="12.262125702364829"><ele>10.0</ele><time>2026-03-30T07:06:08.999Z</time></trkpt><trkpt lat="41.862726417395685" lon="12.262239384762312"><ele>10.0</ele><time>2026-03-30T07:06:09.999Z</time></trkpt><trkpt lat="41.862443907022445" lon="12.26233831066504"><ele>10.0</ele><time>2026-03-30T07:06:10.999Z</time></trkpt><trkpt lat="41.86215969081265" lon="12.262422563067178"><ele>10.0</ele><time>2026-03-30T07:06:11.999Z</time></trkpt><trkpt lat="41.8618726328698" lon="12.262492183795489"><ele>10.5</ele><time>2026-03-30T07:06:12.999Z</time></trkpt><trkpt lat="41.86158333265451" lon="12.262545991894681"><ele>11.0</ele><time>2026-03-30T07:06:13.999Z</time></trkpt><trkpt lat="41.861292527193086" lon="12.262585100827573"><ele>11.0</ele><time>2026-03-30T07:06:14.999Z</time></trkpt><trkpt lat="41.86100350297277" lon="12.262621493734136"><ele>11.0</ele><time>2026-03-30T07:06:15.999Z</time></trkpt><trkpt lat="41.86071426776675" lon="12.26265926789855"><ele>13.0</ele><time>2026-03-30T07:06:16.999Z</time></trkpt><trkpt lat="41.86042690715362" lon="12.262695082738883"><ele>15.0</ele><time>2026-03-30T07:06:17.999Z</time></trkpt><trkpt lat="41.86014056695196" lon="12.262728450765652"><ele>14.5</ele><time>2026-03-30T07:06:18.999Z</time></trkpt><trkpt lat="41.85985474676453" lon="12.262759725041386"><ele>14.0</ele><time>2026-03-30T07:06:19.999Z</time></trkpt><trkpt lat="41.859569473136766" lon="12.262788414117416"><ele>13.5</ele><time>2026-03-30T07:06:20.999Z</time></trkpt><trkpt lat="41.85928298708634" lon="12.262817648492916"><ele>13.0</ele><time>2026-03-30T07:06:21.999Z</time></trkpt><trkpt lat="41.85899484035605" lon="12.262847288434905"><ele>13.0</ele><time>2026-03-30T07:06:22.999Z</time></trkpt><trkpt lat="41.8587045633462" lon="12.26287857178936"><ele>13.0</ele><time>2026-03-30T07:06:23.999Z</time></trkpt><trkpt lat="41.858414171887304" lon="12.262911436090869"><ele>13.0</ele><time>2026-03-30T07:06:25Z</time></trkpt><trkpt lat="41.85812398406985" lon="12.262944778592443"><ele>13.0</ele><time>2026-03-30T07:06:26Z</time></trkpt><trkpt lat="41.85783320785679" lon="12.262978000400434"><ele>13.0</ele><time>2026-03-30T07:06:27Z</time></trkpt><trkpt lat="41.85754342622075" lon="12.26300997731955"><ele>13.0</ele><time>2026-03-30T07:06:28Z</time></trkpt><trkpt lat="41.85725369654196" lon="12.263044255128976"><ele>13.0</ele><time>2026-03-30T07:06:29Z</time></trkpt><trkpt lat="41.85696639965753" lon="12.263080644387058"><ele>13.0</ele><time>2026-03-30T07:06:30Z</time></trkpt><trkpt lat="41.85668129832732" lon="12.26312304581176"><ele>13.0</ele><time>2026-03-30T07:06:31Z</time></trkpt><trkpt lat="41.85639528611987" lon="12.263179138928715"><ele>13.0</ele><time>2026-03-30T07:06:32Z</time></trkpt><trkpt lat="41.856110889824166" lon="12.263251595379598"><ele>12.0</ele><time>2026-03-30T07:06:33Z</time></trkpt><trkpt lat="41.85582732443362" lon="12.26334239763066"><ele>11.0</ele><time>2026-03-30T07:06:34Z</time></trkpt><trkpt lat="41.85554657155536" lon="12.2634441516146"><ele>11.0</ele><time>2026-03-30T07:06:35Z</time></trkpt><trkpt lat="41.85526591880527" lon="12.263555619388306"><ele>11.0</ele><time>2026-03-30T07:06:36Z</time></trkpt><trkpt lat="41.85498697086794" lon="12.263675891243562"><ele>10.5</ele><time>2026-03-30T07:06:37Z</time></trkpt><trkpt lat="41.85471132763962" lon="12.263806415465988"><ele>10.0</ele><time>2026-03-30T07:06:38Z</time></trkpt><trkpt lat="41.85443816708434" lon="12.263950643661087"><ele>9.0</ele><time>2026-03-30T07:06:39Z</time></trkpt><trkpt lat="41.85417067010374" lon="12.264107394552791"><ele>8.0</ele><time>2026-03-30T07:06:40Z</time></trkpt><trkpt lat="41.85390826893778" lon="12.26428085904214"><ele>8.0</ele><time>2026-03-30T07:06:41Z</time></trkpt><trkpt lat="41.85365127067909" lon="12.264465885707422"><ele>8.0</ele><time>2026-03-30T07:06:42Z</time></trkpt><trkpt lat="41.853398698961946" lon="12.264660748818445"><ele>8.0</ele><time>2026-03-30T07:06:43Z</time></trkpt><trkpt lat="41.85314945186781" lon="12.26486299612638"><ele>8.0</ele><time>2026-03-30T07:06:44Z</time></trkpt><trkpt lat="41.85290206280271" lon="12.265074696028828"><ele>8.0</ele><time>2026-03-30T07:06:45Z</time></trkpt><trkpt lat="41.85266059083202" lon="12.265299460856632"><ele>8.0</ele><time>2026-03-30T07:06:46Z</time></trkpt><trkpt lat="41.852423601587944" lon="12.265531996821682"><ele>8.5</ele><time>2026-03-30T07:06:47Z</time></trkpt><trkpt lat="41.85219119739642" lon="12.265775469996997"><ele>9.0</ele><time>2026-03-30T07:06:48Z</time></trkpt><trkpt lat="41.85196151454345" lon="12.26602833888734"><ele>9.5</ele><time>2026-03-30T07:06:49Z</time></trkpt><trkpt lat="41.85173065014859" lon="12.266282167874826"><ele>10.0</ele><time>2026-03-30T07:06:50Z</time></trkpt><trkpt lat="41.85149823818214" lon="12.26653584408107"><ele>9.0</ele><time>2026-03-30T07:06:51Z</time></trkpt><trkpt lat="41.85126225417261" lon="12.266788766081387"><ele>8.0</ele><time>2026-03-30T07:06:52Z</time></trkpt><trkpt lat="41.851026359001736" lon="12.267042765701081"><ele>8.0</ele><time>2026-03-30T07:06:53Z</time></trkpt><trkpt lat="41.85079099849168" lon="12.267295632710251"><ele>8.0</ele><time>2026-03-30T07:06:54Z</time></trkpt><trkpt lat="41.85055663349011" lon="12.267552187203"><ele>8.0</ele><time>2026-03-30T07:06:55Z</time></trkpt><trkpt lat="41.85032243184485" lon="12.267808260638747"><ele>8.0</ele><time>2026-03-30T07:06:56Z</time></trkpt><trkpt lat="41.85008797954039" lon="12.268066030951623"><ele>7.5</ele><time>2026-03-30T07:06:57Z</time></trkpt><trkpt lat="41.849854426457654" lon="12.268323405656304"><ele>7.0</ele><time>2026-03-30T07:06:58Z</time></trkpt><trkpt lat="41.849619263631894" lon="12.268580520393114"><ele>7.0</ele><time>2026-03-30T07:06:59Z</time></trkpt><trkpt lat="41.84938243445437" lon="12.26883528297823"><ele>7.0</ele><time>2026-03-30T07:07:00Z</time></trkpt><trkpt lat="41.84914508431722" lon="12.269088044841716"><ele>6.5</ele><time>2026-03-30T07:07:01Z</time></trkpt><trkpt lat="41.848909223785164" lon="12.269341508313454"><ele>6.0</ele><time>2026-03-30T07:07:02Z</time></trkpt><trkpt lat="41.84867506712202" lon="12.269596883763082"><ele>6.0</ele><time>2026-03-30T07:07:03Z</time></trkpt><trkpt lat="41.84844239011984" lon="12.269851649732367"><ele>6.0</ele><time>2026-03-30T07:07:04Z</time></trkpt><trkpt lat="41.84820977625887" lon="12.270103924798756"><ele>6.0</ele><time>2026-03-30T07:07:05Z</time></trkpt><trkpt lat="41.84797961059048" lon="12.270352660848058"><ele>6.0</ele><time>2026-03-30T07:07:06Z</time></trkpt><trkpt lat="41.84775245413037" lon="12.270597868703806"><ele>6.0</ele><time>2026-03-30T07:07:07Z</time></trkpt><trkpt lat="41.847528539555256" lon="12.270844244357287"><ele>6.0</ele><time>2026-03-30T07:07:08Z</time></trkpt><trkpt lat="41.84730430763472" lon="12.271092507417716"><ele>6.0</ele><time>2026-03-30T07:07:09Z</time></trkpt><trkpt lat="41.84708066423526" lon="12.271341504607818"><ele>6.0</ele><time>2026-03-30T07:07:10Z</time></trkpt><trkpt lat="41.84685640410703" lon="12.271591049107196"><ele>7.5</ele><time>2026-03-30T07:07:11Z</time></trkpt><trkpt lat="41.846631133858466" lon="12.271836279486385"><ele>9.0</ele><time>2026-03-30T07:07:12Z</time></trkpt><trkpt lat="41.84640478647525" lon="12.272082171222246"><ele>9.0</ele><time>2026-03-30T07:07:13Z</time></trkpt><trkpt lat="41.84617926907937" lon="12.272329202057536"><ele>9.0</ele><time>2026-03-30T07:07:14Z</time></trkpt><trkpt lat="41.84595321439148" lon="12.27257919032872"><ele>9.5</ele><time>2026-03-30T07:07:15Z</time></trkpt><trkpt lat="41.845724589988635" lon="12.272829969204507"><ele>10.0</ele><time>2026-03-30T07:07:16Z</time></trkpt><trkpt lat="41.84549419599564" lon="12.273078995822553"><ele>10.0</ele><time>2026-03-30T07:07:17Z</time></trkpt><trkpt lat="41.84526164924258" lon="12.273327940767372"><ele>10.0</ele><time>2026-03-30T07:07:18Z</time></trkpt><trkpt lat="41.84502850711641" lon="12.273579349319506"><ele>9.5</ele><time>2026-03-30T07:07:18.999Z</time></trkpt><trkpt lat="41.84479480371781" lon="12.273834931652706"><ele>9.0</ele><time>2026-03-30T07:07:19.999Z</time></trkpt><trkpt lat="41.84456049797187" lon="12.274091819266136"><ele>8.5</ele><time>2026-03-30T07:07:20.999Z</time></trkpt><trkpt lat="41.844325630256826" lon="12.27434968556464"><ele>8.0</ele><time>2026-03-30T07:07:21.999Z</time></trkpt><trkpt lat="41.84408920908438" lon="12.274606046292714"><ele>7.0</ele><time>2026-03-30T07:07:22.999Z</time></trkpt><trkpt lat="41.843851893080405" lon="12.274861146818695"><ele>6.0</ele><time>2026-03-30T07:07:23.999Z</time></trkpt><trkpt lat="41.84361552938212" lon="12.27511543884338"><ele>6.0</ele><time>2026-03-30T07:07:24.999Z</time></trkpt><trkpt lat="41.843380554095646" lon="12.27537138748272"><ele>6.0</ele><time>2026-03-30T07:07:25.999Z</time></trkpt><trkpt lat="41.84314719220114" lon="12.2756269024323"><ele>6.0</ele><time>2026-03-30T07:07:26.999Z</time></trkpt><trkpt lat="41.84291438617405" lon="12.275879690102485"><ele>6.0</ele><time>2026-03-30T07:07:27.999Z</time></trkpt><trkpt lat="41.842680009936856" lon="12.276134396258653"><ele>6.5</ele><time>2026-03-30T07:07:28.999Z</time></trkpt><trkpt lat="41.84244581788385" lon="12.276388829822954"><ele>7.0</ele><time>2026-03-30T07:07:29.999Z</time></trkpt><trkpt lat="41.84221231629613" lon="12.276643228805053"><ele>6.5</ele><time>2026-03-30T07:07:30.999Z</time></trkpt><trkpt lat="41.84197875073808" lon="12.27689836233986"><ele>6.0</ele><time>2026-03-30T07:07:31.999Z</time></trkpt><trkpt lat="41.84174441752306" lon="12.27715315183786"><ele>7.0</ele><time>2026-03-30T07:07:32.999Z</time></trkpt><trkpt lat="41.84151138624672" lon="12.27740610854653"><ele>8.0</ele><time>2026-03-30T07:07:33.999Z</time></trkpt><trkpt lat="41.841279496961825" lon="12.27766037227267"><ele>8.0</ele><time>2026-03-30T07:07:34.999Z</time></trkpt><trkpt lat="41.84105046411514" lon="12.277915568935017"><ele>8.0</ele><time>2026-03-30T07:07:35.999Z</time></trkpt><trkpt lat="41.84082051133563" lon="12.278168127989261"><ele>10.0</ele><time>2026-03-30T07:07:36.999Z</time></trkpt><trkpt lat="41.84058961651038" lon="12.278420795520965"><ele>12.0</ele><time>2026-03-30T07:07:37.999Z</time></trkpt><trkpt lat="41.84035876635931" lon="12.278673075270357"><ele>11.5</ele><time>2026-03-30T07:07:38.999Z</time></trkpt><trkpt lat="41.84012684313311" lon="12.278925510227923"><ele>11.0</ele><time>2026-03-30T07:07:39.999Z</time></trkpt><trkpt lat="41.83989401863988" lon="12.279178809696417"><ele>11.0</ele><time>2026-03-30T07:07:40.999Z</time></trkpt><trkpt lat="41.839659227270275" lon="12.279430908350335"><ele>11.0</ele><time>2026-03-30T07:07:41.999Z</time></trkpt><trkpt lat="41.83942362995348" lon="12.27968307263372"><ele>10.0</ele><time>2026-03-30T07:07:42.999Z</time></trkpt><trkpt lat="41.839189189888764" lon="12.27993850618141"><ele>9.0</ele><time>2026-03-30T07:07:43.999Z</time></trkpt><trkpt lat="41.838952640154865" lon="12.280196822153846"><ele>9.0</ele><time>2026-03-30T07:07:44.999Z</time></trkpt><trkpt lat="41.83871641764485" lon="12.2804550395347"><ele>9.0</ele><time>2026-03-30T07:07:45.999Z</time></trkpt><trkpt lat="41.838479645478074" lon="12.280712511094181"><ele>8.5</ele><time>2026-03-30T07:07:46.999Z</time></trkpt><trkpt lat="41.83824374958185" lon="12.280969362637512"><ele>8.0</ele><time>2026-03-30T07:07:47.999Z</time></trkpt><trkpt lat="41.83800924261555" lon="12.281224819997309"><ele>7.5</ele><time>2026-03-30T07:07:48.999Z</time></trkpt><trkpt lat="41.83777496932559" lon="12.28147807374096"><ele>7.0</ele><time>2026-03-30T07:07:49.999Z</time></trkpt><trkpt lat="41.83754014637543" lon="12.281730445511759"><ele>7.0</ele><time>2026-03-30T07:07:50.999Z</time></trkpt><trkpt lat="41.837307714574415" lon="12.281982701565278"><ele>7.0</ele><time>2026-03-30T07:07:51.999Z</time></trkpt><trkpt lat="41.83707651244577" lon="12.282234278710956"><ele>6.0</ele><time>2026-03-30T07:07:52.999Z</time></trkpt><trkpt lat="41.836847217836485" lon="12.282484524311053"><ele>5.0</ele><time>2026-03-30T07:07:53.999Z</time></trkpt><trkpt lat="41.836619072512384" lon="12.282733879235435"><ele>4.5</ele><time>2026-03-30T07:07:54.999Z</time></trkpt><trkpt lat="41.83639085711149" lon="12.282982030510281"><ele>4.0</ele><time>2026-03-30T07:07:55.999Z</time></trkpt><trkpt lat="41.836165048354225" lon="12.283228587326295"><ele>5.0</ele><time>2026-03-30T07:07:56.999Z</time></trkpt><trkpt lat="41.835940596602484" lon="12.28347569645529"><ele>6.0</ele><time>2026-03-30T07:07:57.999Z</time></trkpt><trkpt lat="41.835716374544425" lon="12.283722444597604"><ele>7.0</ele><time>2026-03-30T07:07:58.999Z</time></trkpt><trkpt lat="41.83549180427069" lon="12.283967895891916"><ele>8.0</ele><time>2026-03-30T07:07:59.999Z</time></trkpt><trkpt lat="41.835265901692544" lon="12.284212723204032"><ele>8.5</ele><time>2026-03-30T07:08:00.999Z</time></trkpt><trkpt lat="41.83503882540636" lon="12.284457048174424"><ele>9.0</ele><time>2026-03-30T07:08:01.999Z</time></trkpt><trkpt lat="41.83481153714719" lon="12.2847029222524"><ele>9.0</ele><time>2026-03-30T07:08:02.999Z</time></trkpt><trkpt lat="41.83458467052898" lon="12.284948825394268"><ele>9.0</ele><time>2026-03-30T07:08:03.999Z</time></trkpt><trkpt lat="41.83435724569426" lon="12.285196077065832"><ele>8.5</ele><time>2026-03-30T07:08:04.999Z</time></trkpt><trkpt lat="41.83412803451143" lon="12.285446141403764"><ele>8.0</ele><time>2026-03-30T07:08:05.999Z</time></trkpt><trkpt lat="41.83389603388435" lon="12.285695049135017"><ele>7.5</ele><time>2026-03-30T07:08:06.999Z</time></trkpt><trkpt lat="41.83366130269669" lon="12.285943602762949"><ele>7.0</ele><time>2026-03-30T07:08:07.999Z</time></trkpt><trkpt lat="41.833423338433626" lon="12.286189043694563"><ele>6.0</ele><time>2026-03-30T07:08:08.999Z</time></trkpt><trkpt lat="41.83318248406131" lon="12.286429961386057"><ele>5.0</ele><time>2026-03-30T07:08:09.999Z</time></trkpt><trkpt lat="41.83294146956156" lon="12.286667186503065"><ele>5.0</ele><time>2026-03-30T07:08:10.999Z</time></trkpt><trkpt lat="41.832702898812016" lon="12.286898864481268"><ele>5.0</ele><time>2026-03-30T07:08:11.999Z</time></trkpt><trkpt lat="41.832466304279556" lon="12.28712840062736"><ele>5.5</ele><time>2026-03-30T07:08:12.999Z</time></trkpt><trkpt lat="41.832233148911016" lon="12.287356925661816"><ele>6.0</ele><time>2026-03-30T07:08:13.999Z</time></trkpt><trkpt lat="41.83200033196063" lon="12.287588409767965"><ele>7.0</ele><time>2026-03-30T07:08:14.999Z</time></trkpt><trkpt lat="41.83176713739748" lon="12.287819762070214"><ele>8.0</ele><time>2026-03-30T07:08:15.999Z</time></trkpt><trkpt lat="41.83153283071748" lon="12.288048208002081"><ele>8.0</ele><time>2026-03-30T07:08:16.999Z</time></trkpt><trkpt lat="41.83129855059427" lon="12.288273839910067"><ele>8.0</ele><time>2026-03-30T07:08:17.999Z</time></trkpt><trkpt lat="41.831064788007815" lon="12.28849834530477"><ele>7.5</ele><time>2026-03-30T07:08:18.999Z</time></trkpt><trkpt lat="41.83083153326491" lon="12.288723183217785"><ele>7.0</ele><time>2026-03-30T07:08:19.999Z</time></trkpt><trkpt lat="41.830598204490336" lon="12.288950204310398"><ele>7.5</ele><time>2026-03-30T07:08:20.999Z</time></trkpt><trkpt lat="41.83036571680311" lon="12.289174311620965"><ele>8.0</ele><time>2026-03-30T07:08:21.999Z</time></trkpt><trkpt lat="41.83013183821686" lon="12.289396682081815"><ele>8.0</ele><time>2026-03-30T07:08:22.999Z</time></trkpt><trkpt lat="41.829899020900996" lon="12.289616431201528"><ele>8.0</ele><time>2026-03-30T07:08:23.999Z</time></trkpt><trkpt lat="41.829664570708886" lon="12.289837348024033"><ele>7.0</ele><time>2026-03-30T07:08:24.999Z</time></trkpt><trkpt lat="41.829429614332014" lon="12.29005850175474"><ele>6.0</ele><time>2026-03-30T07:08:25.999Z</time></trkpt><trkpt lat="41.82919790492629" lon="12.290279120168925"><ele>6.0</ele><time>2026-03-30T07:08:26.999Z</time></trkpt><trkpt lat="41.82896746718442" lon="12.290499786937977"><ele>6.0</ele><time>2026-03-30T07:08:27.999Z</time></trkpt><trkpt lat="41.82873590429014" lon="12.290721567859702"><ele>6.0</ele><time>2026-03-30T07:08:28.999Z</time></trkpt><trkpt lat="41.82850187738764" lon="12.290943755957212"><ele>6.0</ele><time>2026-03-30T07:08:29.999Z</time></trkpt><trkpt lat="41.82826567708714" lon="12.291164230212921"><ele>5.0</ele><time>2026-03-30T07:08:31Z</time></trkpt><trkpt lat="41.828025902113346" lon="12.291380960587663"><ele>4.0</ele><time>2026-03-30T07:08:32Z</time></trkpt><trkpt lat="41.827785296736224" lon="12.291593520886021"><ele>3.0</ele><time>2026-03-30T07:08:33Z</time></trkpt><trkpt lat="41.827544326798105" lon="12.291803706152546"><ele>2.0</ele><time>2026-03-30T07:08:34Z</time></trkpt><trkpt lat="41.8273038768738" lon="12.292013555104745"><ele>2.0</ele><time>2026-03-30T07:08:35Z</time></trkpt><trkpt lat="41.827063333074285" lon="12.292226315653664"><ele>2.0</ele><time>2026-03-30T07:08:36Z</time></trkpt><trkpt lat="41.82682367499337" lon="12.29244244260804"><ele>1.0</ele><time>2026-03-30T07:08:37Z</time></trkpt><trkpt lat="41.82658580386777" lon="12.292659198461612"><ele>0.0</ele><time>2026-03-30T07:08:38Z</time></trkpt><trkpt lat="41.826348406567455" lon="12.292877774280218"><ele>0.0</ele><time>2026-03-30T07:08:39Z</time></trkpt><trkpt lat="41.82611340880449" lon="12.29309697200162"><ele>0.0</ele><time>2026-03-30T07:08:40Z</time></trkpt><trkpt lat="41.82587784921701" lon="12.29331716503172"><ele>-0.5</ele><time>2026-03-30T07:08:41Z</time></trkpt><trkpt lat="41.82564302491646" lon="12.293538017259907"><ele>-1.0</ele><time>2026-03-30T07:08:42Z</time></trkpt><trkpt lat="41.82540811011121" lon="12.293758942719474"><ele>-0.5</ele><time>2026-03-30T07:08:43Z</time></trkpt><trkpt lat="41.8251733645299" lon="12.293979400814436"><ele>0.0</ele><time>2026-03-30T07:08:44Z</time></trkpt><trkpt lat="41.824938494721366" lon="12.294201683898008"><ele>-1.5</ele><time>2026-03-30T07:08:45Z</time></trkpt><trkpt lat="41.824705097691165" lon="12.294422173285477"><ele>-3.0</ele><time>2026-03-30T07:08:46Z</time></trkpt><trkpt lat="41.82447365331823" lon="12.29464223045648"><ele>-2.0</ele><time>2026-03-30T07:08:47Z</time></trkpt><trkpt lat="41.824241996469816" lon="12.294863842833282"><ele>-1.0</ele><time>2026-03-30T07:08:48Z</time></trkpt><trkpt lat="41.82401039995466" lon="12.295088497016518"><ele>-1.0</ele><time>2026-03-30T07:08:49Z</time></trkpt><trkpt lat="41.823782021265174" lon="12.295315336648992"><ele>-1.0</ele><time>2026-03-30T07:08:50Z</time></trkpt><trkpt lat="41.82355318159026" lon="12.295545484135545"><ele>-2.0</ele><time>2026-03-30T07:08:51Z</time></trkpt><trkpt lat="41.8233231709896" lon="12.295775204008708"><ele>-3.0</ele><time>2026-03-30T07:08:52Z</time></trkpt><trkpt lat="41.82309249310526" lon="12.296006852826027"><ele>-3.0</ele><time>2026-03-30T07:08:53Z</time></trkpt><trkpt lat="41.82286184376982" lon="12.296240813394569"><ele>-3.0</ele><time>2026-03-30T07:08:54Z</time></trkpt><trkpt lat="41.82263077594633" lon="12.296475083174238"><ele>-1.5</ele><time>2026-03-30T07:08:55Z</time></trkpt><trkpt lat="41.82239722032494" lon="12.29671008558757"><ele>0.0</ele><time>2026-03-30T07:08:56Z</time></trkpt><trkpt lat="41.822163028115995" lon="12.296943364286694"><ele>0.0</ele><time>2026-03-30T07:08:57Z</time></trkpt><trkpt lat="41.82192732540034" lon="12.297177763441796"><ele>0.0</ele><time>2026-03-30T07:08:58Z</time></trkpt><trkpt lat="41.82169005418764" lon="12.297413305158036"><ele>0.0</ele><time>2026-03-30T07:08:59Z</time></trkpt><trkpt lat="41.821454446593584" lon="12.297648840487046"><ele>0.0</ele><time>2026-03-30T07:09:00Z</time></trkpt><trkpt lat="41.82121938796855" lon="12.297882778283645"><ele>-0.5</ele><time>2026-03-30T07:09:01Z</time></trkpt><trkpt lat="41.82098455611133" lon="12.298119113930396"><ele>-1.0</ele><time>2026-03-30T07:09:02Z</time></trkpt><trkpt lat="41.8207479313494" lon="12.298357392116806"><ele>-1.0</ele><time>2026-03-30T07:09:03Z</time></trkpt><trkpt lat="41.82051132483662" lon="12.298596048401173"><ele>-1.0</ele><time>2026-03-30T07:09:04Z</time></trkpt><trkpt lat="41.82027373687456" lon="12.298833749304107"><ele>-0.5</ele><time>2026-03-30T07:09:05Z</time></trkpt><trkpt lat="41.820035734820095" lon="12.299070320599718"><ele>0.0</ele><time>2026-03-30T07:09:06Z</time></trkpt><trkpt lat="41.8197968910094" lon="12.299308522615739"><ele>0.0</ele><time>2026-03-30T07:09:07Z</time></trkpt><trkpt lat="41.819558064784566" lon="12.299548417334965"><ele>0.0</ele><time>2026-03-30T07:09:08Z</time></trkpt><trkpt lat="41.81931937399143" lon="12.299788040767158"><ele>-0.5</ele><time>2026-03-30T07:09:09Z</time></trkpt><trkpt lat="41.81907900225612" lon="12.300027958592722"><ele>-1.0</ele><time>2026-03-30T07:09:10Z</time></trkpt><trkpt lat="41.81883782491211" lon="12.300268246462473"><ele>-1.0</ele><time>2026-03-30T07:09:11Z</time></trkpt><trkpt lat="41.818597057157255" lon="12.300507953748642"><ele>-1.0</ele><time>2026-03-30T07:09:12Z</time></trkpt><trkpt lat="41.81835741973828" lon="12.300748391934498"><ele>-1.5</ele><time>2026-03-30T07:09:13Z</time></trkpt><trkpt lat="41.818121229848565" lon="12.300987722051314"><ele>-2.0</ele><time>2026-03-30T07:09:14Z</time></trkpt><trkpt lat="41.81788773426134" lon="12.301226635658166"><ele>-1.5</ele><time>2026-03-30T07:09:15Z</time></trkpt><trkpt lat="41.817656904904474" lon="12.301461642411375"><ele>-1.0</ele><time>2026-03-30T07:09:16Z</time></trkpt><trkpt lat="41.81742689689536" lon="12.301693630573732"><ele>-0.5</ele><time>2026-03-30T07:09:17Z</time></trkpt><trkpt lat="41.81719740052266" lon="12.301924283937431"><ele>0.0</ele><time>2026-03-30T07:09:18Z</time></trkpt><trkpt lat="41.81696981890701" lon="12.302150891571713"><ele>0.0</ele><time>2026-03-30T07:09:19Z</time></trkpt><trkpt lat="41.8167473819518" lon="12.302370427058994"><ele>0.0</ele><time>2026-03-30T07:09:20Z</time></trkpt><trkpt lat="41.81652963366745" lon="12.302589253768147"><ele>0.0</ele><time>2026-03-30T07:09:21Z</time></trkpt><trkpt lat="41.816313760820634" lon="12.302807102559031"><ele>0.0</ele><time>2026-03-30T07:09:22Z</time></trkpt><trkpt lat="41.81610035565651" lon="12.303021681526912"><ele>1.0</ele><time>2026-03-30T07:09:23Z</time></trkpt><trkpt lat="41.815887308466166" lon="12.30323514365348"><ele>2.0</ele><time>2026-03-30T07:09:24Z</time></trkpt><trkpt lat="41.81567722412208" lon="12.303444621542452"><ele>2.0</ele><time>2026-03-30T07:09:25Z</time></trkpt><trkpt lat="41.8154682593765" lon="12.303653114077013"><ele>2.0</ele><time>2026-03-30T07:09:26Z</time></trkpt><trkpt lat="41.81526200273095" lon="12.303860476096219"><ele>2.0</ele><time>2026-03-30T07:09:27Z</time></trkpt><trkpt lat="41.81505861532382" lon="12.304067984028425"><ele>2.0</ele><time>2026-03-30T07:09:28Z</time></trkpt><trkpt lat="41.81485559880051" lon="12.304274996237227"><ele>2.0</ele><time>2026-03-30T07:09:29Z</time></trkpt><trkpt lat="41.81465322699723" lon="12.304479231830763"><ele>2.0</ele><time>2026-03-30T07:09:29.999Z</time></trkpt><trkpt lat="41.81444818930279" lon="12.30468307733978"><ele>1.5</ele><time>2026-03-30T07:09:30.999Z</time></trkpt><trkpt lat="41.81424443915038" lon="12.304886551457562"><ele>1.0</ele><time>2026-03-30T07:09:31.999Z</time></trkpt><trkpt lat="41.814041300968654" lon="12.305090515894797"><ele>1.0</ele><time>2026-03-30T07:09:32.999Z</time></trkpt><trkpt lat="41.81383949547622" lon="12.305293504757687"><ele>1.0</ele><time>2026-03-30T07:09:33.999Z</time></trkpt><trkpt lat="41.81363885624124" lon="12.305492777103698"><ele>0.0</ele><time>2026-03-30T07:09:34.999Z</time></trkpt><trkpt lat="41.81343813327796" lon="12.305690216680908"><ele>-1.0</ele><time>2026-03-30T07:09:35.999Z</time></trkpt><trkpt lat="41.81323672855649" lon="12.30588580615449"><ele>-1.0</ele><time>2026-03-30T07:09:36.999Z</time></trkpt><trkpt lat="41.813035257217535" lon="12.306080546744033"><ele>-1.0</ele><time>2026-03-30T07:09:37.999Z</time></trkpt><trkpt lat="41.812832593428325" lon="12.306274856045407"><ele>0.5</ele><time>2026-03-30T07:09:38.999Z</time></trkpt><trkpt lat="41.81262788926562" lon="12.306467572228032"><ele>2.0</ele><time>2026-03-30T07:09:39.999Z</time></trkpt><trkpt lat="41.81242667534995" lon="12.306652867485006"><ele>2.0</ele><time>2026-03-30T07:09:40.999Z</time></trkpt><trkpt lat="41.81223619156016" lon="12.306825736304773"><ele>2.0</ele><time>2026-03-30T07:09:41.999Z</time></trkpt><trkpt lat="41.81205609024194" lon="12.306990254193453"><ele>2.0</ele><time>2026-03-30T07:09:42.999Z</time></trkpt><trkpt lat="41.81188236475803" lon="12.307153990466865"><ele>2.6666666666666665</ele><time>2026-03-30T07:09:43.999Z</time></trkpt><trkpt lat="41.81170642466875" lon="12.307315806114914"><ele>3.333333333333333</ele><time>2026-03-30T07:09:44.999Z</time></trkpt><trkpt lat="41.81152729776415" lon="12.3074707235203"><ele>4.0</ele><time>2026-03-30T07:09:45.999Z</time></trkpt><trkpt lat="41.811341614974204" lon="12.307615691489907"><ele>4.0</ele><time>2026-03-30T07:09:46.999Z</time></trkpt><trkpt lat="41.81114692298338" lon="12.307747007571253"><ele>4.0</ele><time>2026-03-30T07:09:47.999Z</time></trkpt><trkpt lat="41.81094266054021" lon="12.307854765726706"><ele>4.0</ele><time>2026-03-30T07:09:48.999Z</time></trkpt><trkpt lat="41.81073159795508" lon="12.307941947044709"><ele>3.0</ele><time>2026-03-30T07:09:49.999Z</time></trkpt><trkpt lat="41.81050738387283" lon="12.307978876786086"><ele>2.0</ele><time>2026-03-30T07:09:50.999Z</time></trkpt><trkpt lat="41.81027960851474" lon="12.307971683743675"><ele>3.5</ele><time>2026-03-30T07:09:51.999Z</time></trkpt><trkpt lat="41.81005484746834" lon="12.307919393004177"><ele>5.0</ele><time>2026-03-30T07:09:52.999Z</time></trkpt><trkpt lat="41.809836259007625" lon="12.307822344735388"><ele>5.0</ele><time>2026-03-30T07:09:53.999Z</time></trkpt><trkpt lat="41.809622782351674" lon="12.307688057237192"><ele>5.0</ele><time>2026-03-30T07:09:54.999Z</time></trkpt><trkpt lat="41.809418037385356" lon="12.307523211073171"><ele>4.333333333333334</ele><time>2026-03-30T07:09:55.999Z</time></trkpt><trkpt lat="41.80923682977721" lon="12.307330360390791"><ele>3.666666666666667</ele><time>2026-03-30T07:09:56.999Z</time></trkpt><trkpt lat="41.809103239446316" lon="12.307108998958087"><ele>3.0</ele><time>2026-03-30T07:09:57.999Z</time></trkpt><trkpt lat="41.808989867226224" lon="12.306860126220654"><ele>2.5</ele><time>2026-03-30T07:09:58.999Z</time></trkpt><trkpt lat="41.80887143809955" lon="12.306601960780092"><ele>2.0</ele><time>2026-03-30T07:09:59.999Z</time></trkpt><trkpt lat="41.80874352784393" lon="12.306343607899523"><ele>2.0</ele><time>2026-03-30T07:10:00.999Z</time></trkpt><trkpt lat="41.808616385866735" lon="12.306092003014756"><ele>2.0</ele><time>2026-03-30T07:10:01.999Z</time></trkpt><trkpt lat="41.80849447624628" lon="12.305856402182794"><ele>2.0</ele><time>2026-03-30T07:10:02.999Z</time></trkpt><trkpt lat="41.80836850003445" lon="12.305620003989254"><ele>2.333333333333333</ele><time>2026-03-30T07:10:03.999Z</time></trkpt><trkpt lat="41.8082434574061" lon="12.305385903870373"><ele>2.6666666666666665</ele><time>2026-03-30T07:10:04.999Z</time></trkpt><trkpt lat="41.808120798175935" lon="12.305157018599498"><ele>3.0</ele><time>2026-03-30T07:10:05.999Z</time></trkpt><trkpt lat="41.80799868406769" lon="12.304929693566041"><ele>3.0</ele><time>2026-03-30T07:10:06.999Z</time></trkpt><trkpt lat="41.80787670046701" lon="12.304706707646705"><ele>3.0</ele><time>2026-03-30T07:10:07.999Z</time></trkpt><trkpt lat="41.80774823203386" lon="12.304477126836982"><ele>3.0</ele><time>2026-03-30T07:10:08.999Z</time></trkpt><trkpt lat="41.80761144535911" lon="12.304244937696987"><ele>3.0</ele><time>2026-03-30T07:10:09.999Z</time></trkpt><trkpt lat="41.80746676176953" lon="12.30401389114975"><ele>3.0</ele><time>2026-03-30T07:10:10.999Z</time></trkpt><trkpt lat="41.807321353325214" lon="12.303770309137834"><ele>3.0</ele><time>2026-03-30T07:10:11.999Z</time></trkpt><trkpt lat="41.80718056150191" lon="12.303518259973352"><ele>3.0</ele><time>2026-03-30T07:10:12.999Z</time></trkpt><trkpt lat="41.80704923284946" lon="12.30327941225975"><ele>3.333333333333333</ele><time>2026-03-30T07:10:13.999Z</time></trkpt><trkpt lat="41.80691917390745" lon="12.303037427992038"><ele>3.6666666666666665</ele><time>2026-03-30T07:10:14.999Z</time></trkpt><trkpt lat="41.80679344280274" lon="12.302792665044253"><ele>4.0</ele><time>2026-03-30T07:10:15.999Z</time></trkpt><trkpt lat="41.80667489387244" lon="12.302558479991232"><ele>4.0</ele><time>2026-03-30T07:10:16.999Z</time></trkpt><trkpt lat="41.806559884152236" lon="12.302337163823667"><ele>4.0</ele><time>2026-03-30T07:10:17.999Z</time></trkpt><trkpt lat="41.80644838304516" lon="12.302128770043623"><ele>4.0</ele><time>2026-03-30T07:10:18.999Z</time></trkpt><trkpt lat="41.80634190589389" lon="12.30193037050355"><ele>3.6666666666666665</ele><time>2026-03-30T07:10:19.999Z</time></trkpt><trkpt lat="41.806240567835395" lon="12.301741896485948"><ele>3.333333333333333</ele><time>2026-03-30T07:10:20.999Z</time></trkpt><trkpt lat="41.80613919077069" lon="12.301556727432631"><ele>3.0</ele><time>2026-03-30T07:10:21.999Z</time></trkpt><trkpt lat="41.806032677695974" lon="12.301365155999513"><ele>3.0</ele><time>2026-03-30T07:10:22.999Z</time></trkpt><trkpt lat="41.805930475140755" lon="12.30118047604941"><ele>3.0</ele><time>2026-03-30T07:10:23.999Z</time></trkpt><trkpt lat="41.80583091750593" lon="12.300997880497455"><ele>3.0</ele><time>2026-03-30T07:10:24.999Z</time></trkpt><trkpt lat="41.8057269911302" lon="12.30080888090692"><ele>3.0</ele><time>2026-03-30T07:10:25.999Z</time></trkpt><trkpt lat="41.80561964881632" lon="12.300614299913551"><ele>3.0</ele><time>2026-03-30T07:10:26.999Z</time></trkpt><trkpt lat="41.805508463709806" lon="12.300411099978533"><ele>3.0</ele><time>2026-03-30T07:10:27.999Z</time></trkpt><trkpt lat="41.805395345820834" lon="12.300202729925493"><ele>3.0</ele><time>2026-03-30T07:10:28.999Z</time></trkpt><trkpt lat="41.80528170699101" lon="12.299990201641778"><ele>3.0</ele><time>2026-03-30T07:10:29.999Z</time></trkpt><trkpt lat="41.80517149598953" lon="12.29978241814421"><ele>3.0</ele><time>2026-03-30T07:10:30.999Z</time></trkpt><trkpt lat="41.80506222952564" lon="12.29958045101522"><ele>3.0</ele><time>2026-03-30T07:10:31.999Z</time></trkpt><trkpt lat="41.804956289643215" lon="12.299385880929304"><ele>3.0</ele><time>2026-03-30T07:10:32.999Z</time></trkpt><trkpt lat="41.80485308618577" lon="12.299203056703385"><ele>3.0</ele><time>2026-03-30T07:10:33.999Z</time></trkpt><trkpt lat="41.8047532003878" lon="12.299023301885073"><ele>3.0</ele><time>2026-03-30T07:10:34.999Z</time></trkpt><trkpt lat="41.80465280049858" lon="12.298836466490371"><ele>3.0</ele><time>2026-03-30T07:10:36Z</time></trkpt><trkpt lat="41.804554150230636" lon="12.298647904449592"><ele>3.0</ele><time>2026-03-30T07:10:37Z</time></trkpt><trkpt lat="41.80446375616552" lon="12.298461047173346"><ele>3.0</ele><time>2026-03-30T07:10:38Z</time></trkpt><trkpt lat="41.804386824885526" lon="12.298267610428002"><ele>3.0</ele><time>2026-03-30T07:10:39Z</time></trkpt><trkpt lat="41.804332122901684" lon="12.298066689082509"><ele>3.0</ele><time>2026-03-30T07:10:40Z</time></trkpt><trkpt lat="41.80430509836084" lon="12.297865496911585"><ele>3.0</ele><time>2026-03-30T07:10:41Z</time></trkpt><trkpt lat="41.80430014382311" lon="12.297665124793845"><ele>3.0</ele><time>2026-03-30T07:10:42Z</time></trkpt><trkpt lat="41.80430527237135" lon="12.297471013578768"><ele>3.0</ele><time>2026-03-30T07:10:43Z</time></trkpt><trkpt lat="41.80430274609544" lon="12.29727574998425"><ele>3.0</ele><time>2026-03-30T07:10:44Z</time></trkpt><trkpt lat="41.80427862578363" lon="12.297086180486898"><ele>2.5</ele><time>2026-03-30T07:10:45Z</time></trkpt><trkpt lat="41.80422054197638" lon="12.296916165653869"><ele>2.0</ele><time>2026-03-30T07:10:46Z</time></trkpt><trkpt lat="41.80413461147336" lon="12.296758953457745"><ele>1.5</ele><time>2026-03-30T07:10:47Z</time></trkpt><trkpt lat="41.804024947116886" lon="12.296619839160746"><ele>1.0</ele><time>2026-03-30T07:10:48Z</time></trkpt><trkpt lat="41.803903726173886" lon="12.296501831015975"><ele>0.75</ele><time>2026-03-30T07:10:49Z</time></trkpt><trkpt lat="41.80378885982931" lon="12.296393586046607"><ele>0.5</ele><time>2026-03-30T07:10:50Z</time></trkpt><trkpt lat="41.80369100853478" lon="12.296276475168868"><ele>0.25</ele><time>2026-03-30T07:10:51Z</time></trkpt><trkpt lat="41.80359093569018" lon="12.29617603729792"><ele>0.0</ele><time>2026-03-30T07:10:52Z</time></trkpt><trkpt lat="41.80353108981703" lon="12.296034441007652"><ele>0.0</ele><time>2026-03-30T07:10:53Z</time></trkpt><trkpt lat="41.803615870807036" lon="12.295867435045052"><ele>0.0</ele><time>2026-03-30T07:10:54Z</time></trkpt><trkpt lat="41.803667460534044" lon="12.295758413983009"><ele>0.0</ele><time>2026-03-30T07:10:55Z</time></trkpt><trkpt lat="41.80374219377743" lon="12.295686029751941"><ele>0.0</ele><time>2026-03-30T07:10:56Z</time></trkpt><trkpt lat="41.803837951174195" lon="12.29565150204515"><ele>0.0</ele><time>2026-03-30T07:10:57Z</time></trkpt><trkpt lat="41.80394397371787" lon="12.295669007667223"><ele>0.0</ele><time>2026-03-30T07:10:58Z</time></trkpt><trkpt lat="41.80404347582656" lon="12.29574457623073"><ele>0.0</ele><time>2026-03-30T07:10:59Z</time></trkpt><trkpt lat="41.80412379486143" lon="12.295867419774147"><ele>0.0</ele><time>2026-03-30T07:11:00Z</time></trkpt><trkpt lat="41.80419376808363" lon="12.296018791720288"><ele>0.0</ele><time>2026-03-30T07:11:01Z</time></trkpt><trkpt lat="41.80427414326605" lon="12.296182751373335"><ele>0.3333333333333333</ele><time>2026-03-30T07:11:02Z</time></trkpt><trkpt lat="41.80436555074929" lon="12.296349337369142"><ele>0.6666666666666666</ele><time>2026-03-30T07:11:03Z</time></trkpt><trkpt lat="41.80445740825943" lon="12.296525927541902"><ele>1.0</ele><time>2026-03-30T07:11:04Z</time></trkpt><trkpt lat="41.80455069806766" lon="12.29671224542339"><ele>1.0</ele><time>2026-03-30T07:11:05Z</time></trkpt><trkpt lat="41.804646961883876" lon="12.296904049313428"><ele>1.0</ele><time>2026-03-30T07:11:06Z</time></trkpt><trkpt lat="41.80474904844422" lon="12.29709420657185"><ele>1.0</ele><time>2026-03-30T07:11:07Z</time></trkpt><trkpt lat="41.80484796393974" lon="12.297278441222032"><ele>1.6666666666666665</ele><time>2026-03-30T07:11:08Z</time></trkpt><trkpt lat="41.804939874367605" lon="12.297454214438707"><ele>2.3333333333333335</ele><time>2026-03-30T07:11:09Z</time></trkpt><trkpt lat="41.8050301091004" lon="12.297627564280718"><ele>3.0</ele><time>2026-03-30T07:11:10Z</time></trkpt><trkpt lat="41.80511969813986" lon="12.29779595642653"><ele>2.25</ele><time>2026-03-30T07:11:11Z</time></trkpt><trkpt lat="41.80520296103767" lon="12.297950813235033"><ele>1.5</ele><time>2026-03-30T07:11:12Z</time></trkpt><trkpt lat="41.805276551179176" lon="12.298094144873748"><ele>0.75</ele><time>2026-03-30T07:11:13Z</time></trkpt><trkpt lat="41.80533877327624" lon="12.298228015382742"><ele>0.0</ele><time>2026-03-30T07:11:14Z</time></trkpt><trkpt lat="41.805385061087215" lon="12.298363580553678"><ele>0.0</ele><time>2026-03-30T07:11:15Z</time></trkpt><trkpt lat="41.80540796445437" lon="12.298509359735633"><ele>0.0</ele><time>2026-03-30T07:11:16Z</time></trkpt><trkpt lat="41.80540067928269" lon="12.298642219053082"><ele>0.0</ele><time>2026-03-30T07:11:17Z</time></trkpt><trkpt lat="41.805376621647774" lon="12.298756114521254"><ele>0.0</ele><time>2026-03-30T07:11:18Z</time></trkpt><trkpt lat="41.80534270195132" lon="12.298850029093101"><ele>0.0</ele><time>2026-03-30T07:11:19Z</time></trkpt><trkpt lat="41.805298142871635" lon="12.29893734985641"><ele>0.2</ele><time>2026-03-30T07:11:20Z</time></trkpt><trkpt lat="41.80523597505339" lon="12.299025503199834"><ele>0.4</ele><time>2026-03-30T07:11:21Z</time></trkpt><trkpt lat="41.80515990398711" lon="12.299109238662998"><ele>0.6000000000000001</ele><time>2026-03-30T07:11:22Z</time></trkpt><trkpt lat="41.80508373181216" lon="12.299209931982737"><ele>0.8</ele><time>2026-03-30T07:11:23Z</time></trkpt><trkpt lat="41.80497052219308" lon="12.299275146634542"><ele>1.0</ele><time>2026-03-30T07:11:24Z</time></trkpt><trkpt lat="41.804869455867355" lon="12.299359652240724"><ele>1.5</ele><time>2026-03-30T07:11:25Z</time></trkpt><trkpt lat="41.80476490276855" lon="12.29945287617512"><ele>2.0</ele><time>2026-03-30T07:11:26Z</time></trkpt><trkpt lat="41.804647931270104" lon="12.299550282264834"><ele>2.5</ele><time>2026-03-30T07:11:27Z</time></trkpt><trkpt lat="41.80451938996194" lon="12.299646551424123"><ele>3.0</ele><time>2026-03-30T07:11:28Z</time></trkpt><trkpt lat="41.80438206614165" lon="12.299747184770453"><ele>3.0</ele><time>2026-03-30T07:11:29Z</time></trkpt><trkpt lat="41.80423861545417" lon="12.299853821777589"><ele>3.0</ele><time>2026-03-30T07:11:30Z</time></trkpt><trkpt lat="41.804089615040375" lon="12.299963111795178"><ele>3.0</ele><time>2026-03-30T07:11:30.999Z</time></trkpt><trkpt lat="41.803937914408145" lon="12.300076489481043"><ele>3.0</ele><time>2026-03-30T07:11:31.999Z</time></trkpt><trkpt lat="41.80378255789795" lon="12.300194027564528"><ele>3.0</ele><time>2026-03-30T07:11:32.999Z</time></trkpt><trkpt lat="41.80362384878383" lon="12.300312841127104"><ele>3.0</ele><time>2026-03-30T07:11:33.999Z</time></trkpt><trkpt lat="41.80346217577282" lon="12.300434677028981"><ele>3.333333333333333</ele><time>2026-03-30T07:11:34.999Z</time></trkpt><trkpt lat="41.803296102190494" lon="12.300557599943367"><ele>3.6666666666666665</ele><time>2026-03-30T07:11:35.999Z</time></trkpt><trkpt lat="41.80312709206772" lon="12.300682275813099"><ele>4.0</ele><time>2026-03-30T07:11:36.999Z</time></trkpt><trkpt lat="41.802955212949726" lon="12.300810258884214"><ele>4.0</ele><time>2026-03-30T07:11:37.999Z</time></trkpt><trkpt lat="41.80278128707618" lon="12.300940103862592"><ele>4.0</ele><time>2026-03-30T07:11:38.999Z</time></trkpt><trkpt lat="41.80260535079915" lon="12.301071141585291"><ele>4.0</ele><time>2026-03-30T07:11:39.999Z</time></trkpt><trkpt lat="41.80242968787042" lon="12.301201321767328"><ele>3.6666666666666665</ele><time>2026-03-30T07:11:40.999Z</time></trkpt><trkpt lat="41.80225451426934" lon="12.301330326742642"><ele>3.333333333333333</ele><time>2026-03-30T07:11:41.999Z</time></trkpt><trkpt lat="41.80208275073295" lon="12.301456476915646"><ele>3.0</ele><time>2026-03-30T07:11:42.999Z</time></trkpt><trkpt lat="41.80191484892364" lon="12.30158208034159"><ele>3.333333333333333</ele><time>2026-03-30T07:11:43.999Z</time></trkpt><trkpt lat="41.80175392946163" lon="12.301702651075171"><ele>3.6666666666666665</ele><time>2026-03-30T07:11:44.999Z</time></trkpt><trkpt lat="41.801595848071656" lon="12.301820708493493"><ele>4.0</ele><time>2026-03-30T07:11:45.999Z</time></trkpt><trkpt lat="41.801436389292675" lon="12.301940378093178"><ele>4.0</ele><time>2026-03-30T07:11:46.999Z</time></trkpt><trkpt lat="41.801281536418635" lon="12.302056189251568"><ele>4.0</ele><time>2026-03-30T07:11:47.999Z</time></trkpt><trkpt lat="41.801138788376335" lon="12.302161663606222"><ele>4.0</ele><time>2026-03-30T07:11:48.999Z</time></trkpt><trkpt lat="41.801012070662786" lon="12.30225307168403"><ele>4.0</ele><time>2026-03-30T07:11:49.999Z</time></trkpt><trkpt lat="41.8009027029041" lon="12.302332688363675"><ele>4.0</ele><time>2026-03-30T07:11:50.999Z</time></trkpt><trkpt lat="41.800809180387304" lon="12.302400860029485"><ele>4.0</ele><time>2026-03-30T07:11:51.999Z</time></trkpt><trkpt lat="41.80071869665874" lon="12.302463553501003"><ele>4.0</ele><time>2026-03-30T07:11:52.999Z</time></trkpt><trkpt lat="41.8006241753349" lon="12.302515628800148"><ele>4.0</ele><time>2026-03-30T07:11:53.999Z</time></trkpt><trkpt lat="41.800522806078064" lon="12.302541433207411"><ele>4.0</ele><time>2026-03-30T07:11:54.999Z</time></trkpt><trkpt lat="41.80042106103217" lon="12.302530550526066"><ele>4.0</ele><time>2026-03-30T07:11:55.999Z</time></trkpt><trkpt lat="41.800318715612896" lon="12.30252369884742"><ele>4.0</ele><time>2026-03-30T07:11:56.999Z</time></trkpt><trkpt lat="41.80022529616738" lon="12.302567285203642"><ele>4.0</ele><time>2026-03-30T07:11:57.999Z</time></trkpt><trkpt lat="41.800138282615656" lon="12.302635272911836"><ele>4.0</ele><time>2026-03-30T07:11:58.999Z</time></trkpt><trkpt lat="41.80009068738254" lon="12.302771722689021"><ele>4.0</ele><time>2026-03-30T07:11:59.999Z</time></trkpt><trkpt lat="41.800045540848295" lon="12.30291195587235"><ele>4.0</ele><time>2026-03-30T07:12:00.999Z</time></trkpt><trkpt lat="41.79998189500764" lon="12.303054580361133"><ele>4.0</ele><time>2026-03-30T07:12:01.999Z</time></trkpt><trkpt lat="41.799867368676736" lon="12.30314313355759"><ele>4.0</ele><time>2026-03-30T07:12:02.999Z</time></trkpt><trkpt lat="41.79974877702432" lon="12.303229082573507"><ele>4.0</ele><time>2026-03-30T07:12:03.999Z</time></trkpt><trkpt lat="41.79963936072017" lon="12.303330179731756"><ele>4.0</ele><time>2026-03-30T07:12:04.999Z</time></trkpt><trkpt lat="41.7995428903161" lon="12.303402657291366"><ele>4.0</ele><time>2026-03-30T07:12:05.999Z</time></trkpt><trkpt lat="41.799477760592055" lon="12.303452417218448"><ele>4.0</ele><time>2026-03-30T07:12:06.999Z</time></trkpt><trkpt lat="41.799419800408884" lon="12.303495313043179"><ele>4.0</ele><time>2026-03-30T07:12:07.999Z</time></trkpt><trkpt lat="41.7993598028764" lon="12.303541427898788"><ele>4.166666666666666</ele><time>2026-03-30T07:12:08.999Z</time></trkpt><trkpt lat="41.79929816001469" lon="12.30358889786015"><ele>4.333333333333333</ele><time>2026-03-30T07:12:09.999Z</time></trkpt><trkpt lat="41.799210055071676" lon="12.303650962016084"><ele>4.5</ele><time>2026-03-30T07:12:11.999Z</time></trkpt><trkpt lat="41.79914888281274" lon="12.303684005514603"><ele>4.666666666666667</ele><time>2026-03-30T07:12:14.999Z</time></trkpt><trkpt lat="41.79907077098087" lon="12.303692024217977"><ele>4.833333333333334</ele><time>2026-03-30T07:12:20.999Z</time></trkpt><trkpt lat="41.79896324749409" lon="12.303671143991641"><ele>5.0</ele><time>2026-03-30T07:12:22.999Z</time></trkpt><trkpt lat="41.79888769647858" lon="12.303677549798772"><ele>5.0</ele><time>2026-03-30T07:12:23.999Z</time></trkpt><trkpt lat="41.79881787759048" lon="12.303674016728426"><ele>5.0</ele><time>2026-03-30T07:12:24.999Z</time></trkpt><trkpt lat="41.798772651881336" lon="12.303906456110598"><ele>5.0</ele><time>2026-03-30T07:12:26.999Z</time></trkpt><trkpt lat="41.79880026678355" lon="12.304017250476226"><ele>5.0</ele><time>2026-03-30T07:12:27.999Z</time></trkpt><trkpt lat="41.79884847265409" lon="12.304122332569163"><ele>5.0</ele><time>2026-03-30T07:12:28.999Z</time></trkpt><trkpt lat="41.798905438153305" lon="12.30423212409053"><ele>4.5</ele><time>2026-03-30T07:12:29.999Z</time></trkpt><trkpt lat="41.798958823587995" lon="12.304353191592133"><ele>4.0</ele><time>2026-03-30T07:12:30.999Z</time></trkpt><trkpt lat="41.79900993598307" lon="12.30448743590847"><ele>3.5</ele><time>2026-03-30T07:12:31.999Z</time></trkpt><trkpt lat="41.799071339451025" lon="12.304626079336533"><ele>3.0</ele><time>2026-03-30T07:12:32.999Z</time></trkpt><trkpt lat="41.79913969634481" lon="12.304764943262136"><ele>3.0</ele><time>2026-03-30T07:12:33.999Z</time></trkpt><trkpt lat="41.799207452560935" lon="12.304900613436985"><ele>3.0</ele><time>2026-03-30T07:12:34.999Z</time></trkpt><trkpt lat="41.79926800972198" lon="12.305029618454139"><ele>3.0</ele><time>2026-03-30T07:12:35.999Z</time></trkpt><trkpt lat="41.79932288008038" lon="12.305155015192133"><ele>3.0</ele><time>2026-03-30T07:12:36.999Z</time></trkpt><trkpt lat="41.79937433162126" lon="12.305271067391653"><ele>3.0</ele><time>2026-03-30T07:12:37.999Z</time></trkpt><trkpt lat="41.799426120024755" lon="12.305380498866613"><ele>3.5999999999999996</ele><time>2026-03-30T07:12:38.999Z</time></trkpt><trkpt lat="41.7994780954757" lon="12.305487148164941"><ele>4.199999999999999</ele><time>2026-03-30T07:12:39.999Z</time></trkpt><trkpt lat="41.7995282609005" lon="12.305595541605868"><ele>4.8</ele><time>2026-03-30T07:12:40.999Z</time></trkpt><trkpt lat="41.79958038790637" lon="12.305707824720702"><ele>5.3999999999999995</ele><time>2026-03-30T07:12:42Z</time></trkpt><trkpt lat="41.79963423319477" lon="12.3058220127549"><ele>6.0</ele><time>2026-03-30T07:12:43Z</time></trkpt><trkpt lat="41.799690444225426" lon="12.305937409401006"><ele>6.0</ele><time>2026-03-30T07:12:44Z</time></trkpt><trkpt lat="41.799746798430455" lon="12.306053386747246"><ele>6.0</ele><time>2026-03-30T07:12:45Z</time></trkpt><trkpt lat="41.79980380914164" lon="12.306171361843521"><ele>6.0</ele><time>2026-03-30T07:12:46Z</time></trkpt><trkpt lat="41.7998626991125" lon="12.306290311242005"><ele>6.0</ele><time>2026-03-30T07:12:47Z</time></trkpt><trkpt lat="41.79992262816973" lon="12.30640971820757"><ele>6.0</ele><time>2026-03-30T07:12:48Z</time></trkpt><trkpt lat="41.79998184555247" lon="12.30653035757298"><ele>6.0</ele><time>2026-03-30T07:12:49Z</time></trkpt><trkpt lat="41.80004051358805" lon="12.30665132628657"><ele>6.0</ele><time>2026-03-30T07:12:50Z</time></trkpt><trkpt lat="41.80009977411907" lon="12.306776025044105"><ele>6.0</ele><time>2026-03-30T07:12:51Z</time></trkpt><trkpt lat="41.80015988177192" lon="12.306899950209909"><ele>6.0</ele><time>2026-03-30T07:12:52Z</time></trkpt><trkpt lat="41.8002187546099" lon="12.307021565186014"><ele>6.0</ele><time>2026-03-30T07:12:53Z</time></trkpt><trkpt lat="41.800274301004094" lon="12.307138572482403"><ele>5.2</ele><time>2026-03-30T07:12:54Z</time></trkpt><trkpt lat="41.80032685152033" lon="12.307248511653144"><ele>4.3999999999999995</ele><time>2026-03-30T07:12:55Z</time></trkpt><trkpt lat="41.80038178399341" lon="12.30735988780857"><ele>3.6</ele><time>2026-03-30T07:12:56Z</time></trkpt><trkpt lat="41.80043468175898" lon="12.30747245526573"><ele>2.8</ele><time>2026-03-30T07:12:57Z</time></trkpt><trkpt lat="41.800482495666095" lon="12.307577931527092"><ele>2.0</ele><time>2026-03-30T07:12:58Z</time></trkpt><trkpt lat="41.8005268821818" lon="12.307674084735211"><ele>2.0</ele><time>2026-03-30T07:12:59Z</time></trkpt><trkpt lat="41.800568883751225" lon="12.307751134278032"><ele>2.0</ele><time>2026-03-30T07:13:00Z</time></trkpt><trkpt lat="41.80062425034476" lon="12.307798228186467"><ele>2.0</ele><time>2026-03-30T07:13:01Z</time></trkpt><trkpt lat="41.80068692189212" lon="12.307818265452847"><ele>2.0</ele><time>2026-03-30T07:13:02Z</time></trkpt><trkpt lat="41.80064892540787" lon="12.307885815296967"><ele>2.0</ele><time>2026-03-30T07:13:03Z</time></trkpt><trkpt lat="41.80081192078236" lon="12.307744157220883"><ele>2.0</ele><time>2026-03-30T07:13:04Z</time></trkpt><trkpt lat="41.800873088223256" lon="12.307673834101431"><ele>2.0</ele><time>2026-03-30T07:13:05Z</time></trkpt><trkpt lat="41.80094193296834" lon="12.307595549691541"><ele>2.0</ele><time>2026-03-30T07:13:06Z</time></trkpt><trkpt lat="41.80101957011995" lon="12.307513745370938"><ele>0.0</ele><time>2026-03-30T07:13:07Z</time></trkpt></trkseg></trk></gpx>